<?xml version='1.0' encoding='UTF-8'?><gpx version="1.1" creator="JPX - https://github.com/jenetics/jpx" xmlns="http://www.topografix.com/GPX/1/1"><trk><trkseg><trkpt lat="43.85218" lon="12.719435"><ele>66.0</ele><time>2026-04-26T07:56:08.548Z</time></trkpt><trkpt lat="43.8521167" lon="12.7194583"><ele>66.0</ele><time>2026-04-26T07:56:09.549Z</time></trkpt><trkpt lat="43.852045" lon="12.7195017"><ele>66.0</ele><time>2026-04-26T07:56:10.549Z</time></trkpt><trkpt lat="43.8519383" lon="12.7195767"><ele>66.0</ele><time>2026-04-26T07:56:11.549Z</time></trkpt><trkpt lat="43.851815" lon="12.7196483"><ele>66.0</ele><time>2026-04-26T07:56:12.548Z</time></trkpt><trkpt lat="43.851685" lon="12.7197417"><ele>65.0</ele><time>2026-04-26T07:56:13.548Z</time></trkpt><trkpt lat="43.8515383" lon="12.719835"><ele>64.0</ele><time>2026-04-26T07:56:14.548Z</time></trkpt><trkpt lat="43.8513867" lon="12.71995"><ele>63.0</ele><time>2026-04-26T07:56:15.548Z</time></trkpt><trkpt lat="43.851245" lon="12.7200567"><ele>63.0</ele><time>2026-04-26T07:56:16.549Z</time></trkpt><trkpt lat="43.8511117" lon="12.7201517"><ele>63.0</ele><time>2026-04-26T07:56:17.548Z</time></trkpt><trkpt lat="43.8509867" lon="12.7202417"><ele>63.0</ele><time>2026-04-26T07:56:18.549Z</time></trkpt><trkpt lat="43.8508717" lon="12.7203267"><ele>63.0</ele><time>2026-04-26T07:56:19.549Z</time></trkpt><trkpt lat="43.8507433" lon="12.720405"><ele>62.75</ele><time>2026-04-26T07:56:20.549Z</time></trkpt><trkpt lat="43.8506117" lon="12.7205017"><ele>62.5</ele><time>2026-04-26T07:56:21.549Z</time></trkpt><trkpt lat="43.85048" lon="12.7205917"><ele>62.25</ele><time>2026-04-26T07:56:22.548Z</time></trkpt><trkpt lat="43.8503533" lon="12.7206733"><ele>62.0</ele><time>2026-04-26T07:56:23.549Z</time></trkpt><trkpt lat="43.850235" lon="12.720755"><ele>61.5</ele><time>2026-04-26T07:56:24.549Z</time></trkpt><trkpt lat="43.85011" lon="12.7208367"><ele>61.0</ele><time>2026-04-26T07:56:25.549Z</time></trkpt><trkpt lat="43.8499967" lon="12.720915"><ele>60.5</ele><time>2026-04-26T07:56:26.549Z</time></trkpt><trkpt lat="43.8498933" lon="12.72099"><ele>60.0</ele><time>2026-04-26T07:56:27.549Z</time></trkpt><trkpt lat="43.8498017" lon="12.7210667"><ele>59.4</ele><time>2026-04-26T07:56:28.548Z</time></trkpt><trkpt lat="43.8497383" lon="12.7211633"><ele>58.8</ele><time>2026-04-26T07:56:29.549Z</time></trkpt><trkpt lat="43.8497033" lon="12.72127"><ele>58.2</ele><time>2026-04-26T07:56:30.549Z</time></trkpt><trkpt lat="43.8497067" lon="12.7214017"><ele>57.6</ele><time>2026-04-26T07:56:31.549Z</time></trkpt><trkpt lat="43.8497417" lon="12.72158"><ele>57.0</ele><time>2026-04-26T07:56:32.549Z</time></trkpt><trkpt lat="43.8498033" lon="12.7217967"><ele>56.0</ele><time>2026-04-26T07:56:33.548Z</time></trkpt><trkpt lat="43.8498767" lon="12.722005"><ele>55.0</ele><time>2026-04-26T07:56:34.548Z</time></trkpt><trkpt lat="43.8499367" lon="12.7222033"><ele>54.0</ele><time>2026-04-26T07:56:35.548Z</time></trkpt><trkpt lat="43.8499933" lon="12.7223817"><ele>54.0</ele><time>2026-04-26T07:56:36.549Z</time></trkpt><trkpt lat="43.8500383" lon="12.7225367"><ele>54.00000000000001</ele><time>2026-04-26T07:56:37.549Z</time></trkpt><trkpt lat="43.850075" lon="12.7226717"><ele>54.00000000000001</ele><time>2026-04-26T07:56:38.549Z</time></trkpt><trkpt lat="43.8500983" lon="12.7227967"><ele>54.0</ele><time>2026-04-26T07:56:39.549Z</time></trkpt><trkpt lat="43.8501017" lon="12.7229167"><ele>54.0</ele><time>2026-04-26T07:56:40.549Z</time></trkpt><trkpt lat="43.8500867" lon="12.7230433"><ele>54.25</ele><time>2026-04-26T07:56:41.549Z</time></trkpt><trkpt lat="43.8500283" lon="12.7231667"><ele>54.5</ele><time>2026-04-26T07:56:42.549Z</time></trkpt><trkpt lat="43.84994" lon="12.7233"><ele>54.75</ele><time>2026-04-26T07:56:43.549Z</time></trkpt><trkpt lat="43.8498267" lon="12.7234417"><ele>55.0</ele><time>2026-04-26T07:56:44.548Z</time></trkpt><trkpt lat="43.849685" lon="12.7235967"><ele>55.25</ele><time>2026-04-26T07:56:45.549Z</time></trkpt><trkpt lat="43.8495583" lon="12.7237317"><ele>55.5</ele><time>2026-04-26T07:56:46.549Z</time></trkpt><trkpt lat="43.8494483" lon="12.723845"><ele>55.75</ele><time>2026-04-26T07:56:47.549Z</time></trkpt><trkpt lat="43.849355" lon="12.7239267"><ele>56.0</ele><time>2026-04-26T07:56:48.549Z</time></trkpt><trkpt lat="43.8492633" lon="12.7239667"><ele>55.25</ele><time>2026-04-26T07:56:49.549Z</time></trkpt><trkpt lat="43.8491667" lon="12.7239633"><ele>54.5</ele><time>2026-04-26T07:56:50.548Z</time></trkpt><trkpt lat="43.8490717" lon="12.72392"><ele>53.75</ele><time>2026-04-26T07:56:51.549Z</time></trkpt><trkpt lat="43.8489733" lon="12.7238283"><ele>53.0</ele><time>2026-04-26T07:56:52.549Z</time></trkpt><trkpt lat="43.84887" lon="12.7236833"><ele>52.66666666666667</ele><time>2026-04-26T07:56:53.549Z</time></trkpt><trkpt lat="43.8487583" lon="12.723495"><ele>52.33333333333333</ele><time>2026-04-26T07:56:54.549Z</time></trkpt><trkpt lat="43.8486267" lon="12.7232833"><ele>52.0</ele><time>2026-04-26T07:56:55.548Z</time></trkpt><trkpt lat="43.8484817" lon="12.72305"><ele>52.33333333333333</ele><time>2026-04-26T07:56:56.549Z</time></trkpt><trkpt lat="43.848335" lon="12.7228183"><ele>52.66666666666667</ele><time>2026-04-26T07:56:57.548Z</time></trkpt><trkpt lat="43.8481933" lon="12.7226017"><ele>53.0</ele><time>2026-04-26T07:56:58.549Z</time></trkpt><trkpt lat="43.848065" lon="12.7224"><ele>53.66666666666667</ele><time>2026-04-26T07:56:59.548Z</time></trkpt><trkpt lat="43.8479583" lon="12.722185"><ele>54.33333333333333</ele><time>2026-04-26T07:57:00.549Z</time></trkpt><trkpt lat="43.8478683" lon="12.721955"><ele>55.0</ele><time>2026-04-26T07:57:01.549Z</time></trkpt><trkpt lat="43.8477917" lon="12.72171"><ele>55.0</ele><time>2026-04-26T07:57:02.548Z</time></trkpt><trkpt lat="43.8477283" lon="12.721445"><ele>55.0</ele><time>2026-04-26T07:57:03.549Z</time></trkpt><trkpt lat="43.8476817" lon="12.7212017"><ele>55.0</ele><time>2026-04-26T07:57:04.549Z</time></trkpt><trkpt lat="43.8476367" lon="12.7209933"><ele>54.5</ele><time>2026-04-26T07:57:05.548Z</time></trkpt><trkpt lat="43.847585" lon="12.7208083"><ele>54.0</ele><time>2026-04-26T07:57:06.548Z</time></trkpt><trkpt lat="43.847525" lon="12.720625"><ele>53.5</ele><time>2026-04-26T07:57:07.549Z</time></trkpt><trkpt lat="43.84747" lon="12.7204533"><ele>53.0</ele><time>2026-04-26T07:57:08.549Z</time></trkpt><trkpt lat="43.847415" lon="12.7203217"><ele>53.0</ele><time>2026-04-26T07:57:09.549Z</time></trkpt><trkpt lat="43.84736" lon="12.7202417"><ele>53.0</ele><time>2026-04-26T07:57:10.548Z</time></trkpt><trkpt lat="43.8473033" lon="12.7202033"><ele>53.0</ele><time>2026-04-26T07:57:11.549Z</time></trkpt><trkpt lat="43.847175" lon="12.720235"><ele>53.0</ele><time>2026-04-26T07:57:13.549Z</time></trkpt><trkpt lat="43.84707" lon="12.7203283"><ele>53.0</ele><time>2026-04-26T07:57:14.548Z</time></trkpt><trkpt lat="43.8469433" lon="12.7204217"><ele>53.0</ele><time>2026-04-26T07:57:15.549Z</time></trkpt><trkpt lat="43.8468383" lon="12.72047"><ele>53.0</ele><time>2026-04-26T07:57:16.548Z</time></trkpt><trkpt lat="43.84676" lon="12.7204767"><ele>53.0</ele><time>2026-04-26T07:57:17.549Z</time></trkpt><trkpt lat="43.8466733" lon="12.7204783"><ele>53.0</ele><time>2026-04-26T07:57:19.549Z</time></trkpt><trkpt lat="43.846605" lon="12.7205367"><ele>53.0</ele><time>2026-04-26T07:58:04.549Z</time></trkpt><trkpt lat="43.84647" lon="12.7205933"><ele>53.0</ele><time>2026-04-26T07:58:06.549Z</time></trkpt><trkpt lat="43.8463733" lon="12.7206183"><ele>53.0</ele><time>2026-04-26T07:58:07.549Z</time></trkpt><trkpt lat="43.8462683" lon="12.7206317"><ele>53.0</ele><time>2026-04-26T07:58:08.548Z</time></trkpt><trkpt lat="43.8461517" lon="12.7206317"><ele>53.0</ele><time>2026-04-26T07:58:09.549Z</time></trkpt><trkpt lat="43.8460317" lon="12.720615"><ele>53.0</ele><time>2026-04-26T07:58:10.549Z</time></trkpt><trkpt lat="43.8459067" lon="12.720595"><ele>55.0</ele><time>2026-04-26T07:58:11.549Z</time></trkpt><trkpt lat="43.84578" lon="12.7205733"><ele>57.0</ele><time>2026-04-26T07:58:12.548Z</time></trkpt><trkpt lat="43.845655" lon="12.7205383"><ele>59.0</ele><time>2026-04-26T07:58:13.549Z</time></trkpt><trkpt lat="43.8455233" lon="12.720505"><ele>61.0</ele><time>2026-04-26T07:58:14.549Z</time></trkpt><trkpt lat="43.8453867" lon="12.7204767"><ele>61.0</ele><time>2026-04-26T07:58:15.549Z</time></trkpt><trkpt lat="43.8452483" lon="12.72044"><ele>61.0</ele><time>2026-04-26T07:58:16.549Z</time></trkpt><trkpt lat="43.84511" lon="12.720395"><ele>61.0</ele><time>2026-04-26T07:58:17.549Z</time></trkpt><trkpt lat="43.8449717" lon="12.7203533"><ele>61.0</ele><time>2026-04-26T07:58:18.549Z</time></trkpt><trkpt lat="43.844835" lon="12.7203083"><ele>61.0</ele><time>2026-04-26T07:58:19.549Z</time></trkpt><trkpt lat="43.8446933" lon="12.7202683"><ele>61.0</ele><time>2026-04-26T07:58:20.549Z</time></trkpt><trkpt lat="43.8445467" lon="12.7202283"><ele>61.0</ele><time>2026-04-26T07:58:21.548Z</time></trkpt><trkpt lat="43.8444" lon="12.7201817"><ele>61.0</ele><time>2026-04-26T07:58:22.549Z</time></trkpt><trkpt lat="43.8442633" lon="12.720135"><ele>61.25</ele><time>2026-04-26T07:58:23.549Z</time></trkpt><trkpt lat="43.8441267" lon="12.7200867"><ele>61.5</ele><time>2026-04-26T07:58:24.549Z</time></trkpt><trkpt lat="43.8439883" lon="12.7200417"><ele>61.75</ele><time>2026-04-26T07:58:25.549Z</time></trkpt><trkpt lat="43.8438467" lon="12.7199983"><ele>62.0</ele><time>2026-04-26T07:58:26.548Z</time></trkpt><trkpt lat="43.8437" lon="12.719955"><ele>62.0</ele><time>2026-04-26T07:58:27.549Z</time></trkpt><trkpt lat="43.84355" lon="12.7199083"><ele>62.0</ele><time>2026-04-26T07:58:28.549Z</time></trkpt><trkpt lat="43.8433867" lon="12.7198583"><ele>62.0</ele><time>2026-04-26T07:58:29.549Z</time></trkpt><trkpt lat="43.8432233" lon="12.7198"><ele>61.333333333333336</ele><time>2026-04-26T07:58:30.549Z</time></trkpt><trkpt lat="43.843065" lon="12.7197517"><ele>60.66666666666667</ele><time>2026-04-26T07:58:31.549Z</time></trkpt><trkpt lat="43.842915" lon="12.7196983"><ele>60.0</ele><time>2026-04-26T07:58:32.548Z</time></trkpt><trkpt lat="43.8427583" lon="12.71965"><ele>61.0</ele><time>2026-04-26T07:58:33.548Z</time></trkpt><trkpt lat="43.8426" lon="12.7196"><ele>62.0</ele><time>2026-04-26T07:58:34.549Z</time></trkpt><trkpt lat="43.8424417" lon="12.7195483"><ele>63.0</ele><time>2026-04-26T07:58:35.549Z</time></trkpt><trkpt lat="43.8422967" lon="12.7195033"><ele>63.0</ele><time>2026-04-26T07:58:36.549Z</time></trkpt><trkpt lat="43.8421583" lon="12.7194633"><ele>63.0</ele><time>2026-04-26T07:58:37.549Z</time></trkpt><trkpt lat="43.8420183" lon="12.7194133"><ele>63.0</ele><time>2026-04-26T07:58:38.549Z</time></trkpt><trkpt lat="43.8418733" lon="12.7193633"><ele>63.0</ele><time>2026-04-26T07:58:39.548Z</time></trkpt><trkpt lat="43.84173" lon="12.7193017"><ele>63.75</ele><time>2026-04-26T07:58:40.549Z</time></trkpt><trkpt lat="43.8415883" lon="12.7192283"><ele>64.5</ele><time>2026-04-26T07:58:41.548Z</time></trkpt><trkpt lat="43.8414517" lon="12.71915"><ele>65.25</ele><time>2026-04-26T07:58:42.548Z</time></trkpt><trkpt lat="43.8413183" lon="12.7190783"><ele>66.0</ele><time>2026-04-26T07:58:43.549Z</time></trkpt><trkpt lat="43.84119" lon="12.71901"><ele>66.0</ele><time>2026-04-26T07:58:44.549Z</time></trkpt><trkpt lat="43.841065" lon="12.7189417"><ele>66.0</ele><time>2026-04-26T07:58:45.549Z</time></trkpt><trkpt lat="43.8409417" lon="12.718875"><ele>66.0</ele><time>2026-04-26T07:58:46.549Z</time></trkpt><trkpt lat="43.8408267" lon="12.7188083"><ele>66.0</ele><time>2026-04-26T07:58:47.549Z</time></trkpt><trkpt lat="43.84071" lon="12.7187417"><ele>66.25</ele><time>2026-04-26T07:58:48.548Z</time></trkpt><trkpt lat="43.8405983" lon="12.71868"><ele>66.5</ele><time>2026-04-26T07:58:49.549Z</time></trkpt><trkpt lat="43.8404833" lon="12.718615"><ele>66.75</ele><time>2026-04-26T07:58:50.549Z</time></trkpt><trkpt lat="43.8403667" lon="12.7185467"><ele>67.0</ele><time>2026-04-26T07:58:51.548Z</time></trkpt><trkpt lat="43.8402417" lon="12.7184733"><ele>67.0</ele><time>2026-04-26T07:58:52.548Z</time></trkpt><trkpt lat="43.8401083" lon="12.7184"><ele>67.0</ele><time>2026-04-26T07:58:53.549Z</time></trkpt><trkpt lat="43.839975" lon="12.7183233"><ele>67.0</ele><time>2026-04-26T07:58:54.549Z</time></trkpt><trkpt lat="43.83984" lon="12.7182517"><ele>67.0</ele><time>2026-04-26T07:58:55.548Z</time></trkpt><trkpt lat="43.8397033" lon="12.7181767"><ele>67.0</ele><time>2026-04-26T07:58:56.549Z</time></trkpt><trkpt lat="43.83957" lon="12.7180967"><ele>67.0</ele><time>2026-04-26T07:58:57.548Z</time></trkpt><trkpt lat="43.8394317" lon="12.7180233"><ele>67.0</ele><time>2026-04-26T07:58:58.549Z</time></trkpt><trkpt lat="43.8392917" lon="12.71795"><ele>67.0</ele><time>2026-04-26T07:58:59.549Z</time></trkpt><trkpt lat="43.83915" lon="12.717875"><ele>67.0</ele><time>2026-04-26T07:59:00.549Z</time></trkpt><trkpt lat="43.83901" lon="12.7177933"><ele>67.0</ele><time>2026-04-26T07:59:01.549Z</time></trkpt><trkpt lat="43.8388633" lon="12.7177183"><ele>67.0</ele><time>2026-04-26T07:59:02.549Z</time></trkpt><trkpt lat="43.838705" lon="12.717655"><ele>67.33333333333333</ele><time>2026-04-26T07:59:03.549Z</time></trkpt><trkpt lat="43.8385417" lon="12.717605"><ele>67.66666666666667</ele><time>2026-04-26T07:59:04.549Z</time></trkpt><trkpt lat="43.8383683" lon="12.717565"><ele>68.0</ele><time>2026-04-26T07:59:05.549Z</time></trkpt><trkpt lat="43.8381833" lon="12.7175317"><ele>68.0</ele><time>2026-04-26T07:59:06.549Z</time></trkpt><trkpt lat="43.8379867" lon="12.7175083"><ele>68.0</ele><time>2026-04-26T07:59:07.548Z</time></trkpt><trkpt lat="43.83778" lon="12.717485"><ele>68.0</ele><time>2026-04-26T07:59:08.548Z</time></trkpt><trkpt lat="43.83758" lon="12.7174667"><ele>68.33333333333334</ele><time>2026-04-26T07:59:09.549Z</time></trkpt><trkpt lat="43.8373933" lon="12.7174483"><ele>68.66666666666667</ele><time>2026-04-26T07:59:10.548Z</time></trkpt><trkpt lat="43.8372117" lon="12.717435"><ele>69.0</ele><time>2026-04-26T07:59:11.548Z</time></trkpt><trkpt lat="43.83703" lon="12.7174183"><ele>69.0</ele><time>2026-04-26T07:59:12.548Z</time></trkpt><trkpt lat="43.8368483" lon="12.7174017"><ele>69.0</ele><time>2026-04-26T07:59:13.549Z</time></trkpt><trkpt lat="43.8366767" lon="12.71738"><ele>69.0</ele><time>2026-04-26T07:59:14.549Z</time></trkpt><trkpt lat="43.8365133" lon="12.7173567"><ele>70.0</ele><time>2026-04-26T07:59:15.549Z</time></trkpt><trkpt lat="43.8363567" lon="12.7173383"><ele>71.0</ele><time>2026-04-26T07:59:16.549Z</time></trkpt><trkpt lat="43.8361983" lon="12.7173083"><ele>72.0</ele><time>2026-04-26T07:59:17.548Z</time></trkpt><trkpt lat="43.8360483" lon="12.717275"><ele>72.5</ele><time>2026-04-26T07:59:18.548Z</time></trkpt><trkpt lat="43.8359067" lon="12.7172417"><ele>73.0</ele><time>2026-04-26T07:59:19.549Z</time></trkpt><trkpt lat="43.8357633" lon="12.717205"><ele>73.5</ele><time>2026-04-26T07:59:20.548Z</time></trkpt><trkpt lat="43.8356133" lon="12.717165"><ele>74.0</ele><time>2026-04-26T07:59:21.548Z</time></trkpt><trkpt lat="43.835455" lon="12.7171233"><ele>74.0</ele><time>2026-04-26T07:59:22.549Z</time></trkpt><trkpt lat="43.8352767" lon="12.7170717"><ele>74.0</ele><time>2026-04-26T07:59:23.549Z</time></trkpt><trkpt lat="43.835085" lon="12.7169967"><ele>74.0</ele><time>2026-04-26T07:59:24.548Z</time></trkpt><trkpt lat="43.8348933" lon="12.7169067"><ele>75.66666666666667</ele><time>2026-04-26T07:59:25.549Z</time></trkpt><trkpt lat="43.8347133" lon="12.71681"><ele>77.33333333333333</ele><time>2026-04-26T07:59:26.548Z</time></trkpt><trkpt lat="43.8345417" lon="12.71671"><ele>79.0</ele><time>2026-04-26T07:59:27.548Z</time></trkpt><trkpt lat="43.8343667" lon="12.716615"><ele>80.33333333333333</ele><time>2026-04-26T07:59:28.548Z</time></trkpt><trkpt lat="43.8341867" lon="12.716515"><ele>81.66666666666667</ele><time>2026-04-26T07:59:29.549Z</time></trkpt><trkpt lat="43.8340117" lon="12.71641"><ele>83.0</ele><time>2026-04-26T07:59:30.549Z</time></trkpt><trkpt lat="43.8338367" lon="12.716305"><ele>83.0</ele><time>2026-04-26T07:59:31.549Z</time></trkpt><trkpt lat="43.8336617" lon="12.7162033"><ele>83.0</ele><time>2026-04-26T07:59:32.549Z</time></trkpt><trkpt lat="43.83349" lon="12.7161067"><ele>83.0</ele><time>2026-04-26T07:59:33.549Z</time></trkpt><trkpt lat="43.833315" lon="12.7160117"><ele>84.66666666666667</ele><time>2026-04-26T07:59:34.549Z</time></trkpt><trkpt lat="43.833135" lon="12.7159083"><ele>86.33333333333333</ele><time>2026-04-26T07:59:35.549Z</time></trkpt><trkpt lat="43.8329367" lon="12.715795"><ele>88.0</ele><time>2026-04-26T07:59:36.548Z</time></trkpt><trkpt lat="43.8327217" lon="12.7156733"><ele>88.66666666666666</ele><time>2026-04-26T07:59:37.548Z</time></trkpt><trkpt lat="43.8325067" lon="12.7155483"><ele>89.33333333333333</ele><time>2026-04-26T07:59:38.548Z</time></trkpt><trkpt lat="43.8323117" lon="12.7154317"><ele>90.0</ele><time>2026-04-26T07:59:39.548Z</time></trkpt><trkpt lat="43.83213" lon="12.7153167"><ele>90.0</ele><time>2026-04-26T07:59:40.549Z</time></trkpt><trkpt lat="43.83196" lon="12.7152067"><ele>90.0</ele><time>2026-04-26T07:59:41.549Z</time></trkpt><trkpt lat="43.8317917" lon="12.7151033"><ele>90.0</ele><time>2026-04-26T07:59:42.549Z</time></trkpt><trkpt lat="43.83163" lon="12.715015"><ele>90.75</ele><time>2026-04-26T07:59:43.548Z</time></trkpt><trkpt lat="43.8314933" lon="12.7149317"><ele>91.5</ele><time>2026-04-26T07:59:44.549Z</time></trkpt><trkpt lat="43.83137" lon="12.7148383"><ele>92.25</ele><time>2026-04-26T07:59:45.548Z</time></trkpt><trkpt lat="43.83126" lon="12.71473"><ele>93.0</ele><time>2026-04-26T07:59:46.548Z</time></trkpt><trkpt lat="43.8311833" lon="12.7145883"><ele>93.0</ele><time>2026-04-26T07:59:47.548Z</time></trkpt><trkpt lat="43.8311117" lon="12.7144033"><ele>93.0</ele><time>2026-04-26T07:59:48.549Z</time></trkpt><trkpt lat="43.8310417" lon="12.7141833"><ele>93.0</ele><time>2026-04-26T07:59:49.549Z</time></trkpt><trkpt lat="43.8309733" lon="12.7139233"><ele>95.66666666666666</ele><time>2026-04-26T07:59:50.548Z</time></trkpt><trkpt lat="43.8309167" lon="12.71368"><ele>98.33333333333333</ele><time>2026-04-26T07:59:51.549Z</time></trkpt><trkpt lat="43.83086" lon="12.7134683"><ele>101.0</ele><time>2026-04-26T07:59:52.549Z</time></trkpt><trkpt lat="43.8308033" lon="12.713275"><ele>101.0</ele><time>2026-04-26T07:59:53.549Z</time></trkpt><trkpt lat="43.8307517" lon="12.7130967"><ele>101.0</ele><time>2026-04-26T07:59:54.549Z</time></trkpt><trkpt lat="43.8307" lon="12.71293"><ele>101.0</ele><time>2026-04-26T07:59:55.549Z</time></trkpt><trkpt lat="43.8306417" lon="12.7127383"><ele>101.0</ele><time>2026-04-26T07:59:56.549Z</time></trkpt><trkpt lat="43.8305733" lon="12.7125267"><ele>101.33333333333333</ele><time>2026-04-26T07:59:57.549Z</time></trkpt><trkpt lat="43.8304983" lon="12.7123117"><ele>101.66666666666666</ele><time>2026-04-26T07:59:58.548Z</time></trkpt><trkpt lat="43.8304033" lon="12.7120933"><ele>102.0</ele><time>2026-04-26T07:59:59.549Z</time></trkpt><trkpt lat="43.8303317" lon="12.71188"><ele>102.66666666666666</ele><time>2026-04-26T08:00:00.549Z</time></trkpt><trkpt lat="43.8302583" lon="12.7116767"><ele>103.33333333333333</ele><time>2026-04-26T08:00:01.549Z</time></trkpt><trkpt lat="43.83019" lon="12.711495"><ele>104.0</ele><time>2026-04-26T08:00:02.549Z</time></trkpt><trkpt lat="43.8301283" lon="12.7113233"><ele>105.80000000000001</ele><time>2026-04-26T08:00:03.549Z</time></trkpt><trkpt lat="43.8300733" lon="12.71115"><ele>107.60000000000001</ele><time>2026-04-26T08:00:04.549Z</time></trkpt><trkpt lat="43.83002" lon="12.711005"><ele>109.4</ele><time>2026-04-26T08:00:05.549Z</time></trkpt><trkpt lat="43.82997" lon="12.7108883"><ele>111.2</ele><time>2026-04-26T08:00:06.549Z</time></trkpt><trkpt lat="43.8299067" lon="12.7107967"><ele>113.0</ele><time>2026-04-26T08:00:07.549Z</time></trkpt><trkpt lat="43.8298283" lon="12.71073"><ele>112.99999999999999</ele><time>2026-04-26T08:00:08.549Z</time></trkpt><trkpt lat="43.8297567" lon="12.7106717"><ele>113.0</ele><time>2026-04-26T08:00:09.549Z</time></trkpt><trkpt lat="43.82968" lon="12.7106083"><ele>113.0</ele><time>2026-04-26T08:00:10.549Z</time></trkpt><trkpt lat="43.8296" lon="12.7105433"><ele>113.0</ele><time>2026-04-26T08:00:11.548Z</time></trkpt><trkpt lat="43.8295167" lon="12.7105083"><ele>112.99999999999999</ele><time>2026-04-26T08:00:12.549Z</time></trkpt><trkpt lat="43.8294217" lon="12.7104967"><ele>113.0</ele><time>2026-04-26T08:00:13.548Z</time></trkpt><trkpt lat="43.829315" lon="12.7105167"><ele>115.60000000000001</ele><time>2026-04-26T08:00:14.549Z</time></trkpt><trkpt lat="43.82921" lon="12.7105483"><ele>118.20000000000002</ele><time>2026-04-26T08:00:15.549Z</time></trkpt><trkpt lat="43.8291333" lon="12.7105633"><ele>120.8</ele><time>2026-04-26T08:00:16.548Z</time></trkpt><trkpt lat="43.8290667" lon="12.7105383"><ele>123.4</ele><time>2026-04-26T08:00:17.548Z</time></trkpt><trkpt lat="43.8290117" lon="12.71043"><ele>126.0</ele><time>2026-04-26T08:00:18.548Z</time></trkpt><trkpt lat="43.8289433" lon="12.7103"><ele>121.0</ele><time>2026-04-26T08:00:19.549Z</time></trkpt><trkpt lat="43.8288583" lon="12.710185"><ele>116.0</ele><time>2026-04-26T08:00:20.549Z</time></trkpt><trkpt lat="43.8287567" lon="12.71009"><ele>111.0</ele><time>2026-04-26T08:00:21.549Z</time></trkpt><trkpt lat="43.8286583" lon="12.7100083"><ele>106.0</ele><time>2026-04-26T08:00:22.549Z</time></trkpt><trkpt lat="43.8285683" lon="12.7099383"><ele>106.00000000000001</ele><time>2026-04-26T08:00:23.549Z</time></trkpt><trkpt lat="43.8284967" lon="12.7098817"><ele>106.0</ele><time>2026-04-26T08:00:24.549Z</time></trkpt><trkpt lat="43.82843" lon="12.709825"><ele>106.0</ele><time>2026-04-26T08:00:25.549Z</time></trkpt><trkpt lat="43.828355" lon="12.70978"><ele>106.0</ele><time>2026-04-26T08:00:26.549Z</time></trkpt><trkpt lat="43.8282717" lon="12.7097583"><ele>106.00000000000001</ele><time>2026-04-26T08:00:27.548Z</time></trkpt><trkpt lat="43.828175" lon="12.70976"><ele>106.0</ele><time>2026-04-26T08:00:28.548Z</time></trkpt><trkpt lat="43.8280733" lon="12.7097967"><ele>107.6</ele><time>2026-04-26T08:00:29.548Z</time></trkpt><trkpt lat="43.8279817" lon="12.7098383"><ele>109.19999999999999</ele><time>2026-04-26T08:00:30.549Z</time></trkpt><trkpt lat="43.827895" lon="12.7098883"><ele>110.80000000000001</ele><time>2026-04-26T08:00:31.548Z</time></trkpt><trkpt lat="43.8278117" lon="12.7099417"><ele>112.4</ele><time>2026-04-26T08:00:32.548Z</time></trkpt><trkpt lat="43.8277383" lon="12.7099983"><ele>114.0</ele><time>2026-04-26T08:00:33.548Z</time></trkpt><trkpt lat="43.827665" lon="12.710055"><ele>113.83333333333333</ele><time>2026-04-26T08:00:34.548Z</time></trkpt><trkpt lat="43.8275883" lon="12.71011"><ele>113.66666666666666</ele><time>2026-04-26T08:00:35.547Z</time></trkpt><trkpt lat="43.8275233" lon="12.7101633"><ele>113.5</ele><time>2026-04-26T08:00:36.548Z</time></trkpt><trkpt lat="43.8274583" lon="12.7102167"><ele>113.33333333333333</ele><time>2026-04-26T08:00:37.548Z</time></trkpt><trkpt lat="43.8273917" lon="12.7102483"><ele>113.16666666666666</ele><time>2026-04-26T08:00:38.547Z</time></trkpt><trkpt lat="43.8273283" lon="12.7102683"><ele>113.0</ele><time>2026-04-26T08:00:39.547Z</time></trkpt><trkpt lat="43.827225" lon="12.7102283"><ele>113.0</ele><time>2026-04-26T08:00:41.547Z</time></trkpt><trkpt lat="43.8271817" lon="12.7101"><ele>113.00000000000001</ele><time>2026-04-26T08:00:43.548Z</time></trkpt><trkpt lat="43.827185" lon="12.7099567"><ele>113.00000000000001</ele><time>2026-04-26T08:00:45.548Z</time></trkpt><trkpt lat="43.82725" lon="12.7098467"><ele>113.0</ele><time>2026-04-26T08:00:47.548Z</time></trkpt><trkpt lat="43.8273083" lon="12.7098117"><ele>113.0</ele><time>2026-04-26T08:00:48.547Z</time></trkpt><trkpt lat="43.8274167" lon="12.70974"><ele>113.0</ele><time>2026-04-26T08:00:50.548Z</time></trkpt><trkpt lat="43.8274833" lon="12.7096017"><ele>113.00000000000001</ele><time>2026-04-26T08:00:52.547Z</time></trkpt><trkpt lat="43.8274517" lon="12.709435"><ele>113.00000000000001</ele><time>2026-04-26T08:00:54.548Z</time></trkpt><trkpt lat="43.8274017" lon="12.7093567"><ele>113.0</ele><time>2026-04-26T08:00:55.548Z</time></trkpt><trkpt lat="43.8273383" lon="12.7092883"><ele>113.0</ele><time>2026-04-26T08:00:56.548Z</time></trkpt><trkpt lat="43.8272733" lon="12.7092267"><ele>112.66666666666666</ele><time>2026-04-26T08:00:57.548Z</time></trkpt><trkpt lat="43.8272167" lon="12.7091717"><ele>112.33333333333333</ele><time>2026-04-26T08:00:58.547Z</time></trkpt><trkpt lat="43.827125" lon="12.7090983"><ele>112.0</ele><time>2026-04-26T08:01:00.547Z</time></trkpt><trkpt lat="43.8270467" lon="12.7090517"><ele>111.66666666666666</ele><time>2026-04-26T08:01:02.548Z</time></trkpt><trkpt lat="43.8269817" lon="12.7089917"><ele>111.33333333333333</ele><time>2026-04-26T08:01:04.548Z</time></trkpt><trkpt lat="43.8269717" lon="12.7088917"><ele>111.0</ele><time>2026-04-26T08:01:06.548Z</time></trkpt><trkpt lat="43.8270617" lon="12.7088167"><ele>111.0</ele><time>2026-04-26T08:01:08.548Z</time></trkpt><trkpt lat="43.82713" lon="12.70881"><ele>111.0</ele><time>2026-04-26T08:01:09.548Z</time></trkpt><trkpt lat="43.827205" lon="12.7088183"><ele>111.0</ele><time>2026-04-26T08:01:10.548Z</time></trkpt><trkpt lat="43.82729" lon="12.7088283"><ele>111.0</ele><time>2026-04-26T08:01:11.548Z</time></trkpt><trkpt lat="43.8273717" lon="12.7088467"><ele>111.0</ele><time>2026-04-26T08:01:12.547Z</time></trkpt><trkpt lat="43.8274367" lon="12.708855"><ele>111.0</ele><time>2026-04-26T08:01:13.547Z</time></trkpt><trkpt lat="43.8275" lon="12.7088633"><ele>111.0</ele><time>2026-04-26T08:01:14.547Z</time></trkpt><trkpt lat="43.8275733" lon="12.7088583"><ele>110.66666666666667</ele><time>2026-04-26T08:01:15.548Z</time></trkpt><trkpt lat="43.8276517" lon="12.70884"><ele>110.33333333333334</ele><time>2026-04-26T08:01:16.548Z</time></trkpt><trkpt lat="43.82774" lon="12.7088117"><ele>110.0</ele><time>2026-04-26T08:01:17.548Z</time></trkpt><trkpt lat="43.8278333" lon="12.708785"><ele>109.66666666666667</ele><time>2026-04-26T08:01:18.548Z</time></trkpt><trkpt lat="43.82792" lon="12.708775"><ele>109.33333333333334</ele><time>2026-04-26T08:01:19.547Z</time></trkpt><trkpt lat="43.828" lon="12.7087817"><ele>109.0</ele><time>2026-04-26T08:01:20.548Z</time></trkpt><trkpt lat="43.8280767" lon="12.7087817"><ele>109.00000000000001</ele><time>2026-04-26T08:01:21.548Z</time></trkpt><trkpt lat="43.82815" lon="12.7087817"><ele>109.0</ele><time>2026-04-26T08:01:22.548Z</time></trkpt><trkpt lat="43.8282333" lon="12.708765"><ele>109.0</ele><time>2026-04-26T08:01:23.548Z</time></trkpt><trkpt lat="43.8283183" lon="12.708715"><ele>109.0</ele><time>2026-04-26T08:01:24.547Z</time></trkpt><trkpt lat="43.8284" lon="12.7086483"><ele>109.00000000000001</ele><time>2026-04-26T08:01:25.548Z</time></trkpt><trkpt lat="43.82847" lon="12.708585"><ele>109.0</ele><time>2026-04-26T08:01:26.548Z</time></trkpt><trkpt lat="43.8285367" lon="12.7085267"><ele>111.2</ele><time>2026-04-26T08:01:27.548Z</time></trkpt><trkpt lat="43.8286133" lon="12.7084733"><ele>113.4</ele><time>2026-04-26T08:01:28.548Z</time></trkpt><trkpt lat="43.8286917" lon="12.7084233"><ele>115.6</ele><time>2026-04-26T08:01:29.548Z</time></trkpt><trkpt lat="43.8287733" lon="12.7083817"><ele>117.8</ele><time>2026-04-26T08:01:30.548Z</time></trkpt><trkpt lat="43.82884" lon="12.70835"><ele>120.0</ele><time>2026-04-26T08:01:31.548Z</time></trkpt><trkpt lat="43.8289417" lon="12.70825"><ele>120.0</ele><time>2026-04-26T08:01:33.548Z</time></trkpt><trkpt lat="43.8289833" lon="12.7081767"><ele>120.0</ele><time>2026-04-26T08:01:34.548Z</time></trkpt><trkpt lat="43.8290133" lon="12.708085"><ele>120.0</ele><time>2026-04-26T08:01:35.548Z</time></trkpt><trkpt lat="43.8290267" lon="12.7079933"><ele>120.0</ele><time>2026-04-26T08:01:36.548Z</time></trkpt><trkpt lat="43.8290283" lon="12.7078933"><ele>120.0</ele><time>2026-04-26T08:01:37.548Z</time></trkpt><trkpt lat="43.8290217" lon="12.7078017"><ele>120.0</ele><time>2026-04-26T08:01:38.547Z</time></trkpt><trkpt lat="43.8290133" lon="12.707715"><ele>120.0</ele><time>2026-04-26T08:01:39.548Z</time></trkpt><trkpt lat="43.8290367" lon="12.7075617"><ele>119.33333333333333</ele><time>2026-04-26T08:01:41.548Z</time></trkpt><trkpt lat="43.829075" lon="12.7074917"><ele>118.66666666666666</ele><time>2026-04-26T08:01:42.548Z</time></trkpt><trkpt lat="43.82913" lon="12.7074283"><ele>118.0</ele><time>2026-04-26T08:01:43.548Z</time></trkpt><trkpt lat="43.8292" lon="12.7073883"><ele>117.33333333333333</ele><time>2026-04-26T08:01:44.548Z</time></trkpt><trkpt lat="43.8292867" lon="12.7073633"><ele>116.66666666666666</ele><time>2026-04-26T08:01:45.547Z</time></trkpt><trkpt lat="43.8293833" lon="12.7073517"><ele>116.0</ele><time>2026-04-26T08:01:46.547Z</time></trkpt><trkpt lat="43.8294883" lon="12.707355"><ele>116.0</ele><time>2026-04-26T08:01:47.548Z</time></trkpt><trkpt lat="43.8295917" lon="12.7073717"><ele>116.0</ele><time>2026-04-26T08:01:48.547Z</time></trkpt><trkpt lat="43.8296933" lon="12.70738"><ele>116.0</ele><time>2026-04-26T08:01:49.548Z</time></trkpt><trkpt lat="43.829785" lon="12.7073867"><ele>116.0</ele><time>2026-04-26T08:01:50.548Z</time></trkpt><trkpt lat="43.829875" lon="12.7073883"><ele>116.0</ele><time>2026-04-26T08:01:51.548Z</time></trkpt><trkpt lat="43.8299583" lon="12.7073883"><ele>115.99999999999999</ele><time>2026-04-26T08:01:52.548Z</time></trkpt><trkpt lat="43.8300417" lon="12.7073833"><ele>116.0</ele><time>2026-04-26T08:01:53.548Z</time></trkpt><trkpt lat="43.8301267" lon="12.7073767"><ele>116.0</ele><time>2026-04-26T08:01:54.548Z</time></trkpt><trkpt lat="43.83021" lon="12.7073683"><ele>116.0</ele><time>2026-04-26T08:01:55.547Z</time></trkpt><trkpt lat="43.8302833" lon="12.7073533"><ele>115.99999999999999</ele><time>2026-04-26T08:01:56.547Z</time></trkpt><trkpt lat="43.8303583" lon="12.707325"><ele>116.0</ele><time>2026-04-26T08:01:57.548Z</time></trkpt><trkpt lat="43.830415" lon="12.707255"><ele>114.0</ele><time>2026-04-26T08:01:58.548Z</time></trkpt><trkpt lat="43.830465" lon="12.707145"><ele>112.0</ele><time>2026-04-26T08:01:59.548Z</time></trkpt><trkpt lat="43.8304983" lon="12.7070133"><ele>110.0</ele><time>2026-04-26T08:02:00.548Z</time></trkpt><trkpt lat="43.8305217" lon="12.7068383"><ele>108.0</ele><time>2026-04-26T08:02:01.547Z</time></trkpt><trkpt lat="43.8305467" lon="12.7066617"><ele>108.0</ele><time>2026-04-26T08:02:02.548Z</time></trkpt><trkpt lat="43.8305733" lon="12.7064767"><ele>108.0</ele><time>2026-04-26T08:02:03.548Z</time></trkpt><trkpt lat="43.8306017" lon="12.7062917"><ele>108.0</ele><time>2026-04-26T08:02:04.547Z</time></trkpt><trkpt lat="43.8306317" lon="12.7061067"><ele>108.0</ele><time>2026-04-26T08:02:05.548Z</time></trkpt><trkpt lat="43.830665" lon="12.7059267"><ele>108.25</ele><time>2026-04-26T08:02:06.548Z</time></trkpt><trkpt lat="43.830695" lon="12.7057483"><ele>108.5</ele><time>2026-04-26T08:02:07.548Z</time></trkpt><trkpt lat="43.830725" lon="12.705585"><ele>108.75</ele><time>2026-04-26T08:02:08.548Z</time></trkpt><trkpt lat="43.830745" lon="12.7054217"><ele>109.0</ele><time>2026-04-26T08:02:09.548Z</time></trkpt><trkpt lat="43.8307567" lon="12.7052517"><ele>108.25</ele><time>2026-04-26T08:02:10.548Z</time></trkpt><trkpt lat="43.8307567" lon="12.70507"><ele>107.5</ele><time>2026-04-26T08:02:11.547Z</time></trkpt><trkpt lat="43.8307567" lon="12.7048817"><ele>106.75</ele><time>2026-04-26T08:02:12.547Z</time></trkpt><trkpt lat="43.8307583" lon="12.704685"><ele>106.0</ele><time>2026-04-26T08:02:13.548Z</time></trkpt><trkpt lat="43.8307667" lon="12.7044967"><ele>106.25</ele><time>2026-04-26T08:02:14.548Z</time></trkpt><trkpt lat="43.8307783" lon="12.7043183"><ele>106.5</ele><time>2026-04-26T08:02:15.548Z</time></trkpt><trkpt lat="43.8307883" lon="12.7041567"><ele>106.75</ele><time>2026-04-26T08:02:16.548Z</time></trkpt><trkpt lat="43.8307967" lon="12.704"><ele>107.0</ele><time>2026-04-26T08:02:17.547Z</time></trkpt><trkpt lat="43.8308067" lon="12.70385"><ele>107.0</ele><time>2026-04-26T08:02:18.547Z</time></trkpt><trkpt lat="43.83081" lon="12.7036967"><ele>107.0</ele><time>2026-04-26T08:02:19.548Z</time></trkpt><trkpt lat="43.830815" lon="12.7035333"><ele>107.0</ele><time>2026-04-26T08:02:20.548Z</time></trkpt><trkpt lat="43.8308067" lon="12.7033567"><ele>107.0</ele><time>2026-04-26T08:02:21.548Z</time></trkpt><trkpt lat="43.8307967" lon="12.7031667"><ele>107.0</ele><time>2026-04-26T08:02:22.548Z</time></trkpt><trkpt lat="43.83078" lon="12.7029717"><ele>107.0</ele><time>2026-04-26T08:02:23.548Z</time></trkpt><trkpt lat="43.8307633" lon="12.7027933"><ele>107.0</ele><time>2026-04-26T08:02:24.547Z</time></trkpt><trkpt lat="43.830745" lon="12.7026233"><ele>107.0</ele><time>2026-04-26T08:02:25.547Z</time></trkpt><trkpt lat="43.830735" lon="12.7024467"><ele>106.25</ele><time>2026-04-26T08:02:26.548Z</time></trkpt><trkpt lat="43.830725" lon="12.70226"><ele>105.5</ele><time>2026-04-26T08:02:27.547Z</time></trkpt><trkpt lat="43.8307067" lon="12.702065"><ele>104.75</ele><time>2026-04-26T08:02:28.547Z</time></trkpt><trkpt lat="43.8306867" lon="12.7018683"><ele>104.0</ele><time>2026-04-26T08:02:29.548Z</time></trkpt><trkpt lat="43.83066" lon="12.7016883"><ele>103.66666666666666</ele><time>2026-04-26T08:02:30.548Z</time></trkpt><trkpt lat="43.8306217" lon="12.7015083"><ele>103.33333333333334</ele><time>2026-04-26T08:02:31.548Z</time></trkpt><trkpt lat="43.83056" lon="12.7013133"><ele>103.0</ele><time>2026-04-26T08:02:32.548Z</time></trkpt><trkpt lat="43.8304967" lon="12.7011083"><ele>102.0</ele><time>2026-04-26T08:02:33.548Z</time></trkpt><trkpt lat="43.83042" lon="12.7008983"><ele>101.0</ele><time>2026-04-26T08:02:34.548Z</time></trkpt><trkpt lat="43.83034" lon="12.7006817"><ele>100.0</ele><time>2026-04-26T08:02:35.548Z</time></trkpt><trkpt lat="43.83026" lon="12.700465"><ele>100.33333333333334</ele><time>2026-04-26T08:02:36.547Z</time></trkpt><trkpt lat="43.830175" lon="12.7002483"><ele>100.66666666666666</ele><time>2026-04-26T08:02:37.548Z</time></trkpt><trkpt lat="43.830095" lon="12.7000233"><ele>101.0</ele><time>2026-04-26T08:02:38.548Z</time></trkpt><trkpt lat="43.8300167" lon="12.6998"><ele>101.0</ele><time>2026-04-26T08:02:39.547Z</time></trkpt><trkpt lat="43.8299433" lon="12.6995883"><ele>101.0</ele><time>2026-04-26T08:02:40.548Z</time></trkpt><trkpt lat="43.829865" lon="12.6993817"><ele>101.0</ele><time>2026-04-26T08:02:41.548Z</time></trkpt><trkpt lat="43.829795" lon="12.6991883"><ele>99.66666666666666</ele><time>2026-04-26T08:02:42.548Z</time></trkpt><trkpt lat="43.8297283" lon="12.6989983"><ele>98.33333333333334</ele><time>2026-04-26T08:02:43.548Z</time></trkpt><trkpt lat="43.82966" lon="12.6988067"><ele>97.0</ele><time>2026-04-26T08:02:44.548Z</time></trkpt><trkpt lat="43.8295867" lon="12.6986133"><ele>98.0</ele><time>2026-04-26T08:02:45.548Z</time></trkpt><trkpt lat="43.82951" lon="12.6983983"><ele>99.0</ele><time>2026-04-26T08:02:46.548Z</time></trkpt><trkpt lat="43.8294117" lon="12.6981633"><ele>100.0</ele><time>2026-04-26T08:02:47.548Z</time></trkpt><trkpt lat="43.8293017" lon="12.6979267"><ele>98.66666666666667</ele><time>2026-04-26T08:02:48.547Z</time></trkpt><trkpt lat="43.8291833" lon="12.697685"><ele>97.33333333333334</ele><time>2026-04-26T08:02:49.548Z</time></trkpt><trkpt lat="43.8290567" lon="12.69743"><ele>96.0</ele><time>2026-04-26T08:02:50.548Z</time></trkpt><trkpt lat="43.828935" lon="12.6971767"><ele>94.66666666666667</ele><time>2026-04-26T08:02:51.548Z</time></trkpt><trkpt lat="43.8288117" lon="12.6969183"><ele>93.33333333333334</ele><time>2026-04-26T08:02:52.548Z</time></trkpt><trkpt lat="43.8287083" lon="12.6966717"><ele>92.0</ele><time>2026-04-26T08:02:53.548Z</time></trkpt><trkpt lat="43.828605" lon="12.69644"><ele>92.0</ele><time>2026-04-26T08:02:54.548Z</time></trkpt><trkpt lat="43.8285067" lon="12.69622"><ele>92.0</ele><time>2026-04-26T08:02:55.548Z</time></trkpt><trkpt lat="43.8284183" lon="12.69601"><ele>92.0</ele><time>2026-04-26T08:02:56.548Z</time></trkpt><trkpt lat="43.82833" lon="12.695805"><ele>93.66666666666667</ele><time>2026-04-26T08:02:57.548Z</time></trkpt><trkpt lat="43.8282433" lon="12.6956067"><ele>95.33333333333334</ele><time>2026-04-26T08:02:58.548Z</time></trkpt><trkpt lat="43.8281567" lon="12.6954133"><ele>97.0</ele><time>2026-04-26T08:02:59.547Z</time></trkpt><trkpt lat="43.8280733" lon="12.6952317"><ele>97.0</ele><time>2026-04-26T08:03:00.547Z</time></trkpt><trkpt lat="43.82798" lon="12.6950717"><ele>97.0</ele><time>2026-04-26T08:03:01.548Z</time></trkpt><trkpt lat="43.8278783" lon="12.69491"><ele>97.0</ele><time>2026-04-26T08:03:02.548Z</time></trkpt><trkpt lat="43.8277667" lon="12.6947567"><ele>97.66666666666667</ele><time>2026-04-26T08:03:03.547Z</time></trkpt><trkpt lat="43.8276433" lon="12.694615"><ele>98.33333333333334</ele><time>2026-04-26T08:03:04.548Z</time></trkpt><trkpt lat="43.8275083" lon="12.694475"><ele>99.0</ele><time>2026-04-26T08:03:05.548Z</time></trkpt><trkpt lat="43.8273617" lon="12.69435"><ele>99.0</ele><time>2026-04-26T08:03:06.547Z</time></trkpt><trkpt lat="43.827215" lon="12.69423"><ele>99.0</ele><time>2026-04-26T08:03:07.548Z</time></trkpt><trkpt lat="43.827075" lon="12.69411"><ele>99.0</ele><time>2026-04-26T08:03:08.548Z</time></trkpt><trkpt lat="43.8269417" lon="12.6939883"><ele>99.0</ele><time>2026-04-26T08:03:09.548Z</time></trkpt><trkpt lat="43.8268183" lon="12.693855"><ele>99.0</ele><time>2026-04-26T08:03:10.548Z</time></trkpt><trkpt lat="43.8267083" lon="12.6936883"><ele>99.0</ele><time>2026-04-26T08:03:11.548Z</time></trkpt><trkpt lat="43.826605" lon="12.6935117"><ele>100.0</ele><time>2026-04-26T08:03:12.547Z</time></trkpt><trkpt lat="43.826515" lon="12.69334"><ele>101.0</ele><time>2026-04-26T08:03:13.547Z</time></trkpt><trkpt lat="43.8264367" lon="12.6931717"><ele>102.0</ele><time>2026-04-26T08:03:14.547Z</time></trkpt><trkpt lat="43.8263783" lon="12.6929983"><ele>103.0</ele><time>2026-04-26T08:03:15.548Z</time></trkpt><trkpt lat="43.82634" lon="12.6928283"><ele>102.80000000000001</ele><time>2026-04-26T08:03:16.548Z</time></trkpt><trkpt lat="43.8263217" lon="12.6926717"><ele>102.6</ele><time>2026-04-26T08:03:17.547Z</time></trkpt><trkpt lat="43.82633" lon="12.69254"><ele>102.4</ele><time>2026-04-26T08:03:18.547Z</time></trkpt><trkpt lat="43.8263683" lon="12.69241"><ele>102.19999999999999</ele><time>2026-04-26T08:03:19.547Z</time></trkpt><trkpt lat="43.8264483" lon="12.692275"><ele>102.0</ele><time>2026-04-26T08:03:20.547Z</time></trkpt><trkpt lat="43.8265517" lon="12.6921333"><ele>102.0</ele><time>2026-04-26T08:03:21.548Z</time></trkpt><trkpt lat="43.8266533" lon="12.6919867"><ele>102.0</ele><time>2026-04-26T08:03:22.548Z</time></trkpt><trkpt lat="43.82675" lon="12.6918467"><ele>102.0</ele><time>2026-04-26T08:03:23.548Z</time></trkpt><trkpt lat="43.8268417" lon="12.6917067"><ele>102.0</ele><time>2026-04-26T08:03:24.547Z</time></trkpt><trkpt lat="43.82693" lon="12.6915633"><ele>100.6</ele><time>2026-04-26T08:03:25.547Z</time></trkpt><trkpt lat="43.8270067" lon="12.691425"><ele>99.19999999999999</ele><time>2026-04-26T08:03:26.548Z</time></trkpt><trkpt lat="43.8270667" lon="12.6912917"><ele>97.8</ele><time>2026-04-26T08:03:27.548Z</time></trkpt><trkpt lat="43.827115" lon="12.6911767"><ele>96.4</ele><time>2026-04-26T08:03:28.548Z</time></trkpt><trkpt lat="43.82715" lon="12.6910567"><ele>95.0</ele><time>2026-04-26T08:03:29.548Z</time></trkpt><trkpt lat="43.8271517" lon="12.6909483"><ele>95.2</ele><time>2026-04-26T08:03:30.547Z</time></trkpt><trkpt lat="43.8271333" lon="12.69084"><ele>95.4</ele><time>2026-04-26T08:03:31.548Z</time></trkpt><trkpt lat="43.82708" lon="12.6907533"><ele>95.6</ele><time>2026-04-26T08:03:32.547Z</time></trkpt><trkpt lat="43.8269917" lon="12.690665"><ele>95.8</ele><time>2026-04-26T08:03:33.548Z</time></trkpt><trkpt lat="43.8268667" lon="12.6906033"><ele>96.0</ele><time>2026-04-26T08:03:34.548Z</time></trkpt><trkpt lat="43.8267467" lon="12.6905333"><ele>96.0</ele><time>2026-04-26T08:03:35.548Z</time></trkpt><trkpt lat="43.826655" lon="12.6904483"><ele>96.0</ele><time>2026-04-26T08:03:36.548Z</time></trkpt><trkpt lat="43.8265967" lon="12.6903283"><ele>96.0</ele><time>2026-04-26T08:03:37.548Z</time></trkpt><trkpt lat="43.82656" lon="12.6901833"><ele>96.0</ele><time>2026-04-26T08:03:38.548Z</time></trkpt><trkpt lat="43.8265433" lon="12.69003"><ele>96.0</ele><time>2026-04-26T08:03:39.547Z</time></trkpt><trkpt lat="43.8265217" lon="12.6898967"><ele>93.75</ele><time>2026-04-26T08:03:40.547Z</time></trkpt><trkpt lat="43.8264783" lon="12.6897667"><ele>91.5</ele><time>2026-04-26T08:03:41.548Z</time></trkpt><trkpt lat="43.826415" lon="12.6896317"><ele>89.25</ele><time>2026-04-26T08:03:42.548Z</time></trkpt><trkpt lat="43.82633" lon="12.6894833"><ele>87.0</ele><time>2026-04-26T08:03:43.548Z</time></trkpt><trkpt lat="43.8262333" lon="12.6893383"><ele>88.5</ele><time>2026-04-26T08:03:44.547Z</time></trkpt><trkpt lat="43.8261367" lon="12.6891983"><ele>90.0</ele><time>2026-04-26T08:03:45.547Z</time></trkpt><trkpt lat="43.8260433" lon="12.689075"><ele>91.5</ele><time>2026-04-26T08:03:46.548Z</time></trkpt><trkpt lat="43.8259567" lon="12.6889617"><ele>93.0</ele><time>2026-04-26T08:03:47.548Z</time></trkpt><trkpt lat="43.8258767" lon="12.6888483"><ele>93.0</ele><time>2026-04-26T08:03:48.548Z</time></trkpt><trkpt lat="43.8258067" lon="12.6887433"><ele>93.0</ele><time>2026-04-26T08:03:49.548Z</time></trkpt><trkpt lat="43.8257517" lon="12.6886267"><ele>93.0</ele><time>2026-04-26T08:03:50.548Z</time></trkpt><trkpt lat="43.8256933" lon="12.688505"><ele>93.0</ele><time>2026-04-26T08:03:51.548Z</time></trkpt><trkpt lat="43.825645" lon="12.6883817"><ele>93.0</ele><time>2026-04-26T08:03:52.548Z</time></trkpt><trkpt lat="43.8255967" lon="12.6882517"><ele>89.2</ele><time>2026-04-26T08:03:53.548Z</time></trkpt><trkpt lat="43.8255483" lon="12.6881233"><ele>85.4</ele><time>2026-04-26T08:03:54.548Z</time></trkpt><trkpt lat="43.8255033" lon="12.6879933"><ele>81.60000000000001</ele><time>2026-04-26T08:03:55.547Z</time></trkpt><trkpt lat="43.82546" lon="12.6878683"><ele>77.80000000000001</ele><time>2026-04-26T08:03:56.548Z</time></trkpt><trkpt lat="43.8254033" lon="12.6877317"><ele>74.0</ele><time>2026-04-26T08:03:57.547Z</time></trkpt><trkpt lat="43.8253433" lon="12.6875917"><ele>73.0</ele><time>2026-04-26T08:03:58.548Z</time></trkpt><trkpt lat="43.8252733" lon="12.6874333"><ele>72.0</ele><time>2026-04-26T08:03:59.548Z</time></trkpt><trkpt lat="43.8252067" lon="12.6872683"><ele>71.0</ele><time>2026-04-26T08:04:00.547Z</time></trkpt><trkpt lat="43.825125" lon="12.6871067"><ele>70.0</ele><time>2026-04-26T08:04:01.548Z</time></trkpt><trkpt lat="43.825045" lon="12.6869483"><ele>71.75</ele><time>2026-04-26T08:04:02.547Z</time></trkpt><trkpt lat="43.824965" lon="12.6868"><ele>73.5</ele><time>2026-04-26T08:04:03.547Z</time></trkpt><trkpt lat="43.8248917" lon="12.6866417"><ele>75.25</ele><time>2026-04-26T08:04:04.548Z</time></trkpt><trkpt lat="43.8248117" lon="12.6864783"><ele>77.0</ele><time>2026-04-26T08:04:05.548Z</time></trkpt><trkpt lat="43.824725" lon="12.68631"><ele>77.0</ele><time>2026-04-26T08:04:06.548Z</time></trkpt><trkpt lat="43.824645" lon="12.686145"><ele>77.0</ele><time>2026-04-26T08:04:07.548Z</time></trkpt><trkpt lat="43.8245633" lon="12.685975"><ele>77.0</ele><time>2026-04-26T08:04:08.548Z</time></trkpt><trkpt lat="43.8244817" lon="12.6857983"><ele>77.0</ele><time>2026-04-26T08:04:09.548Z</time></trkpt><trkpt lat="43.8244" lon="12.6856283"><ele>77.33333333333334</ele><time>2026-04-26T08:04:10.548Z</time></trkpt><trkpt lat="43.824315" lon="12.685445"><ele>77.66666666666667</ele><time>2026-04-26T08:04:11.547Z</time></trkpt><trkpt lat="43.8242067" lon="12.68527"><ele>78.0</ele><time>2026-04-26T08:04:12.547Z</time></trkpt><trkpt lat="43.8241167" lon="12.6851067"><ele>78.0</ele><time>2026-04-26T08:04:13.547Z</time></trkpt><trkpt lat="43.824035" lon="12.6849417"><ele>78.0</ele><time>2026-04-26T08:04:14.548Z</time></trkpt><trkpt lat="43.8239567" lon="12.6847933"><ele>78.0</ele><time>2026-04-26T08:04:15.548Z</time></trkpt><trkpt lat="43.8238717" lon="12.6846567"><ele>78.0</ele><time>2026-04-26T08:04:16.548Z</time></trkpt><trkpt lat="43.82379" lon="12.6845317"><ele>78.0</ele><time>2026-04-26T08:04:17.548Z</time></trkpt><trkpt lat="43.8237183" lon="12.684435"><ele>78.0</ele><time>2026-04-26T08:04:18.547Z</time></trkpt><trkpt lat="43.8236583" lon="12.6843317"><ele>78.0</ele><time>2026-04-26T08:04:19.548Z</time></trkpt><trkpt lat="43.8235767" lon="12.6842117"><ele>78.0</ele><time>2026-04-26T08:04:20.547Z</time></trkpt><trkpt lat="43.8234767" lon="12.68407"><ele>79.0</ele><time>2026-04-26T08:04:21.548Z</time></trkpt><trkpt lat="43.8233817" lon="12.6838917"><ele>80.0</ele><time>2026-04-26T08:04:22.548Z</time></trkpt><trkpt lat="43.8233" lon="12.68372"><ele>81.0</ele><time>2026-04-26T08:04:23.548Z</time></trkpt><trkpt lat="43.8232167" lon="12.6835267"><ele>78.75</ele><time>2026-04-26T08:04:24.548Z</time></trkpt><trkpt lat="43.82315" lon="12.6833317"><ele>76.5</ele><time>2026-04-26T08:04:25.548Z</time></trkpt><trkpt lat="43.8230867" lon="12.683165"><ele>74.25</ele><time>2026-04-26T08:04:26.547Z</time></trkpt><trkpt lat="43.82303" lon="12.6830217"><ele>72.0</ele><time>2026-04-26T08:04:27.548Z</time></trkpt><trkpt lat="43.8229833" lon="12.68288"><ele>72.0</ele><time>2026-04-26T08:04:28.547Z</time></trkpt><trkpt lat="43.82293" lon="12.6827667"><ele>72.0</ele><time>2026-04-26T08:04:29.547Z</time></trkpt><trkpt lat="43.8228683" lon="12.682675"><ele>72.0</ele><time>2026-04-26T08:04:30.548Z</time></trkpt><trkpt lat="43.8228033" lon="12.6826117"><ele>72.0</ele><time>2026-04-26T08:04:31.548Z</time></trkpt><trkpt lat="43.822745" lon="12.682565"><ele>72.0</ele><time>2026-04-26T08:04:32.548Z</time></trkpt><trkpt lat="43.8226567" lon="12.6825467"><ele>72.0</ele><time>2026-04-26T08:04:34.548Z</time></trkpt><trkpt lat="43.82258" lon="12.68267"><ele>74.5</ele><time>2026-04-26T08:04:36.548Z</time></trkpt><trkpt lat="43.8225333" lon="12.6828083"><ele>77.0</ele><time>2026-04-26T08:04:37.548Z</time></trkpt><trkpt lat="43.8224783" lon="12.6829683"><ele>79.5</ele><time>2026-04-26T08:04:38.548Z</time></trkpt><trkpt lat="43.822435" lon="12.683125"><ele>82.0</ele><time>2026-04-26T08:04:39.548Z</time></trkpt><trkpt lat="43.822395" lon="12.6832617"><ele>82.0</ele><time>2026-04-26T08:04:40.548Z</time></trkpt><trkpt lat="43.8223583" lon="12.683385"><ele>82.0</ele><time>2026-04-26T08:04:41.548Z</time></trkpt><trkpt lat="43.8223217" lon="12.683515"><ele>82.0</ele><time>2026-04-26T08:04:42.548Z</time></trkpt><trkpt lat="43.8222817" lon="12.683645"><ele>82.0</ele><time>2026-04-26T08:04:43.548Z</time></trkpt><trkpt lat="43.8222433" lon="12.6837833"><ele>82.0</ele><time>2026-04-26T08:04:44.548Z</time></trkpt><trkpt lat="43.8222067" lon="12.6839183"><ele>83.6</ele><time>2026-04-26T08:04:45.548Z</time></trkpt><trkpt lat="43.8221767" lon="12.684055"><ele>85.19999999999999</ele><time>2026-04-26T08:04:46.548Z</time></trkpt><trkpt lat="43.82215" lon="12.6841833"><ele>86.8</ele><time>2026-04-26T08:04:47.548Z</time></trkpt><trkpt lat="43.8221283" lon="12.6843"><ele>88.4</ele><time>2026-04-26T08:04:48.548Z</time></trkpt><trkpt lat="43.8221" lon="12.6844183"><ele>90.0</ele><time>2026-04-26T08:04:49.548Z</time></trkpt><trkpt lat="43.8220683" lon="12.68455"><ele>92.0</ele><time>2026-04-26T08:04:50.547Z</time></trkpt><trkpt lat="43.82204" lon="12.6846883"><ele>94.0</ele><time>2026-04-26T08:04:51.548Z</time></trkpt><trkpt lat="43.8220067" lon="12.6848283"><ele>96.0</ele><time>2026-04-26T08:04:52.547Z</time></trkpt><trkpt lat="43.8219717" lon="12.6849783"><ele>98.0</ele><time>2026-04-26T08:04:53.548Z</time></trkpt><trkpt lat="43.821945" lon="12.6851483"><ele>100.0</ele><time>2026-04-26T08:04:54.548Z</time></trkpt><trkpt lat="43.821925" lon="12.6853317"><ele>101.75</ele><time>2026-04-26T08:04:55.548Z</time></trkpt><trkpt lat="43.8219033" lon="12.6855167"><ele>103.5</ele><time>2026-04-26T08:04:56.547Z</time></trkpt><trkpt lat="43.8218967" lon="12.6856967"><ele>105.25</ele><time>2026-04-26T08:04:57.548Z</time></trkpt><trkpt lat="43.8218967" lon="12.6858833"><ele>107.0</ele><time>2026-04-26T08:04:58.548Z</time></trkpt><trkpt lat="43.821915" lon="12.6860817"><ele>111.5</ele><time>2026-04-26T08:04:59.548Z</time></trkpt><trkpt lat="43.8219367" lon="12.6862733"><ele>116.0</ele><time>2026-04-26T08:05:00.547Z</time></trkpt><trkpt lat="43.8219567" lon="12.6864533"><ele>120.5</ele><time>2026-04-26T08:05:01.548Z</time></trkpt><trkpt lat="43.8219633" lon="12.6866267"><ele>125.0</ele><time>2026-04-26T08:05:02.548Z</time></trkpt><trkpt lat="43.821965" lon="12.6867983"><ele>129.5</ele><time>2026-04-26T08:05:03.548Z</time></trkpt><trkpt lat="43.8219467" lon="12.6869683"><ele>134.0</ele><time>2026-04-26T08:05:04.548Z</time></trkpt><trkpt lat="43.8219133" lon="12.68713"><ele>138.5</ele><time>2026-04-26T08:05:05.548Z</time></trkpt><trkpt lat="43.8218867" lon="12.687305"><ele>143.0</ele><time>2026-04-26T08:05:06.548Z</time></trkpt><trkpt lat="43.8218533" lon="12.687485"><ele>143.0</ele><time>2026-04-26T08:05:07.548Z</time></trkpt><trkpt lat="43.8218183" lon="12.6876617"><ele>143.0</ele><time>2026-04-26T08:05:08.548Z</time></trkpt><trkpt lat="43.8217767" lon="12.6878383"><ele>143.0</ele><time>2026-04-26T08:05:09.548Z</time></trkpt><trkpt lat="43.821725" lon="12.68804"><ele>143.0</ele><time>2026-04-26T08:05:10.548Z</time></trkpt><trkpt lat="43.8216683" lon="12.6882183"><ele>143.0</ele><time>2026-04-26T08:05:11.548Z</time></trkpt><trkpt lat="43.8216133" lon="12.6883767"><ele>143.0</ele><time>2026-04-26T08:05:12.548Z</time></trkpt><trkpt lat="43.8215533" lon="12.688535"><ele>143.0</ele><time>2026-04-26T08:05:13.548Z</time></trkpt><trkpt lat="43.821495" lon="12.6886883"><ele>143.0</ele><time>2026-04-26T08:05:14.548Z</time></trkpt><trkpt lat="43.82144" lon="12.6888333"><ele>142.6</ele><time>2026-04-26T08:05:15.548Z</time></trkpt><trkpt lat="43.8213883" lon="12.688985"><ele>142.20000000000002</ele><time>2026-04-26T08:05:16.548Z</time></trkpt><trkpt lat="43.8213267" lon="12.6891283"><ele>141.8</ele><time>2026-04-26T08:05:17.548Z</time></trkpt><trkpt lat="43.8212783" lon="12.6892617"><ele>141.4</ele><time>2026-04-26T08:05:18.547Z</time></trkpt><trkpt lat="43.821225" lon="12.6893717"><ele>141.0</ele><time>2026-04-26T08:05:19.547Z</time></trkpt><trkpt lat="43.821165" lon="12.6894667"><ele>141.0</ele><time>2026-04-26T08:05:20.548Z</time></trkpt><trkpt lat="43.8211" lon="12.6895467"><ele>141.0</ele><time>2026-04-26T08:05:21.548Z</time></trkpt><trkpt lat="43.8210333" lon="12.6895983"><ele>141.0</ele><time>2026-04-26T08:05:22.547Z</time></trkpt><trkpt lat="43.8209583" lon="12.6895983"><ele>141.0</ele><time>2026-04-26T08:05:23.548Z</time></trkpt><trkpt lat="43.8208767" lon="12.689545"><ele>141.0</ele><time>2026-04-26T08:05:24.547Z</time></trkpt><trkpt lat="43.8207933" lon="12.689445"><ele>141.0</ele><time>2026-04-26T08:05:25.548Z</time></trkpt><trkpt lat="43.820705" lon="12.6893217"><ele>144.33333333333334</ele><time>2026-04-26T08:05:26.548Z</time></trkpt><trkpt lat="43.8206083" lon="12.6891783"><ele>147.66666666666669</ele><time>2026-04-26T08:05:27.547Z</time></trkpt><trkpt lat="43.820495" lon="12.6890267"><ele>151.0</ele><time>2026-04-26T08:05:28.547Z</time></trkpt><trkpt lat="43.8203933" lon="12.6888717"><ele>151.0</ele><time>2026-04-26T08:05:29.547Z</time></trkpt><trkpt lat="43.8202983" lon="12.688725"><ele>151.0</ele><time>2026-04-26T08:05:30.547Z</time></trkpt><trkpt lat="43.82021" lon="12.68859"><ele>151.0</ele><time>2026-04-26T08:05:31.548Z</time></trkpt><trkpt lat="43.820125" lon="12.6884717"><ele>151.0</ele><time>2026-04-26T08:05:32.548Z</time></trkpt><trkpt lat="43.8200417" lon="12.68836"><ele>153.2</ele><time>2026-04-26T08:05:33.548Z</time></trkpt><trkpt lat="43.81996" lon="12.68824"><ele>155.39999999999998</ele><time>2026-04-26T08:05:34.548Z</time></trkpt><trkpt lat="43.8198817" lon="12.6881217"><ele>157.6</ele><time>2026-04-26T08:05:35.547Z</time></trkpt><trkpt lat="43.8198083" lon="12.6880033"><ele>159.79999999999998</ele><time>2026-04-26T08:05:36.548Z</time></trkpt><trkpt lat="43.819745" lon="12.6878933"><ele>162.0</ele><time>2026-04-26T08:05:37.548Z</time></trkpt><trkpt lat="43.8196833" lon="12.6878133"><ele>162.0</ele><time>2026-04-26T08:05:38.548Z</time></trkpt><trkpt lat="43.8196217" lon="12.68776"><ele>162.0</ele><time>2026-04-26T08:05:39.548Z</time></trkpt><trkpt lat="43.8195583" lon="12.6877517"><ele>162.0</ele><time>2026-04-26T08:05:40.548Z</time></trkpt><trkpt lat="43.819495" lon="12.6877867"><ele>162.0</ele><time>2026-04-26T08:05:41.548Z</time></trkpt><trkpt lat="43.819425" lon="12.6878867"><ele>162.0</ele><time>2026-04-26T08:05:42.548Z</time></trkpt><trkpt lat="43.8193517" lon="12.68801"><ele>162.0</ele><time>2026-04-26T08:05:43.548Z</time></trkpt><trkpt lat="43.8192817" lon="12.6881417"><ele>162.2</ele><time>2026-04-26T08:05:44.547Z</time></trkpt><trkpt lat="43.8192167" lon="12.6882617"><ele>162.39999999999998</ele><time>2026-04-26T08:05:45.548Z</time></trkpt><trkpt lat="43.8191633" lon="12.6883783"><ele>162.60000000000002</ele><time>2026-04-26T08:05:46.548Z</time></trkpt><trkpt lat="43.819105" lon="12.6884917"><ele>162.8</ele><time>2026-04-26T08:05:47.547Z</time></trkpt><trkpt lat="43.8190467" lon="12.6885983"><ele>163.0</ele><time>2026-04-26T08:05:48.548Z</time></trkpt><trkpt lat="43.8189933" lon="12.688705"><ele>164.8</ele><time>2026-04-26T08:05:49.547Z</time></trkpt><trkpt lat="43.8189383" lon="12.68881"><ele>166.60000000000002</ele><time>2026-04-26T08:05:50.547Z</time></trkpt><trkpt lat="43.8188767" lon="12.68891"><ele>168.39999999999998</ele><time>2026-04-26T08:05:51.548Z</time></trkpt><trkpt lat="43.818815" lon="12.689015"><ele>170.2</ele><time>2026-04-26T08:05:52.548Z</time></trkpt><trkpt lat="43.81875" lon="12.689125"><ele>172.0</ele><time>2026-04-26T08:05:53.548Z</time></trkpt><trkpt lat="43.8186833" lon="12.6892333"><ele>172.0</ele><time>2026-04-26T08:05:54.547Z</time></trkpt><trkpt lat="43.8186283" lon="12.6893383"><ele>172.0</ele><time>2026-04-26T08:05:55.548Z</time></trkpt><trkpt lat="43.818575" lon="12.6894317"><ele>172.0</ele><time>2026-04-26T08:05:56.548Z</time></trkpt><trkpt lat="43.8185183" lon="12.6895167"><ele>172.0</ele><time>2026-04-26T08:05:57.548Z</time></trkpt><trkpt lat="43.8184617" lon="12.689615"><ele>172.0</ele><time>2026-04-26T08:05:58.548Z</time></trkpt><trkpt lat="43.8184083" lon="12.689725"><ele>172.0</ele><time>2026-04-26T08:05:59.548Z</time></trkpt><trkpt lat="43.81835" lon="12.689825"><ele>175.6</ele><time>2026-04-26T08:06:00.547Z</time></trkpt><trkpt lat="43.8182867" lon="12.6899233"><ele>179.2</ele><time>2026-04-26T08:06:01.548Z</time></trkpt><trkpt lat="43.8182183" lon="12.69002"><ele>182.8</ele><time>2026-04-26T08:06:02.548Z</time></trkpt><trkpt lat="43.81814" lon="12.69011"><ele>186.4</ele><time>2026-04-26T08:06:03.547Z</time></trkpt><trkpt lat="43.8180483" lon="12.690195"><ele>190.0</ele><time>2026-04-26T08:06:04.547Z</time></trkpt><trkpt lat="43.8179567" lon="12.6902783"><ele>194.0</ele><time>2026-04-26T08:06:05.548Z</time></trkpt><trkpt lat="43.817845" lon="12.6903333"><ele>198.0</ele><time>2026-04-26T08:06:06.548Z</time></trkpt><trkpt lat="43.8177267" lon="12.6903733"><ele>202.0</ele><time>2026-04-26T08:06:07.548Z</time></trkpt><trkpt lat="43.817605" lon="12.6903983"><ele>206.0</ele><time>2026-04-26T08:06:08.548Z</time></trkpt><trkpt lat="43.817495" lon="12.690415"><ele>206.16666666666669</ele><time>2026-04-26T08:06:09.547Z</time></trkpt><trkpt lat="43.8173933" lon="12.69042"><ele>206.33333333333334</ele><time>2026-04-26T08:06:10.548Z</time></trkpt><trkpt lat="43.8172983" lon="12.6904233"><ele>206.5</ele><time>2026-04-26T08:06:11.548Z</time></trkpt><trkpt lat="43.8172067" lon="12.690425"><ele>206.66666666666669</ele><time>2026-04-26T08:06:12.547Z</time></trkpt><trkpt lat="43.8171217" lon="12.690415"><ele>206.83333333333334</ele><time>2026-04-26T08:06:13.548Z</time></trkpt><trkpt lat="43.817055" lon="12.6903733"><ele>207.0</ele><time>2026-04-26T08:06:14.547Z</time></trkpt><trkpt lat="43.8170033" lon="12.69031"><ele>205.83333333333334</ele><time>2026-04-26T08:06:15.547Z</time></trkpt><trkpt lat="43.8169617" lon="12.690235"><ele>204.66666666666669</ele><time>2026-04-26T08:06:16.547Z</time></trkpt><trkpt lat="43.81693" lon="12.6901567"><ele>203.5</ele><time>2026-04-26T08:06:17.548Z</time></trkpt><trkpt lat="43.8169" lon="12.6900783"><ele>202.33333333333334</ele><time>2026-04-26T08:06:18.548Z</time></trkpt><trkpt lat="43.816855" lon="12.6899333"><ele>201.16666666666669</ele><time>2026-04-26T08:06:20.547Z</time></trkpt><trkpt lat="43.8167967" lon="12.689785"><ele>200.0</ele><time>2026-04-26T08:06:22.548Z</time></trkpt><trkpt lat="43.816745" lon="12.6896383"><ele>200.0</ele><time>2026-04-26T08:06:24.548Z</time></trkpt><trkpt lat="43.8166733" lon="12.68951"><ele>200.0</ele><time>2026-04-26T08:06:26.548Z</time></trkpt><trkpt lat="43.8165967" lon="12.6894"><ele>200.0</ele><time>2026-04-26T08:06:28.548Z</time></trkpt><trkpt lat="43.816545" lon="12.6893483"><ele>200.0</ele><time>2026-04-26T08:06:29.547Z</time></trkpt><trkpt lat="43.8164433" lon="12.6892333"><ele>200.0</ele><time>2026-04-26T08:06:31.548Z</time></trkpt><trkpt lat="43.8163833" lon="12.68917"><ele>198.66666666666669</ele><time>2026-04-26T08:06:32.547Z</time></trkpt><trkpt lat="43.816325" lon="12.689105"><ele>197.33333333333334</ele><time>2026-04-26T08:06:33.548Z</time></trkpt><trkpt lat="43.81627" lon="12.6890433"><ele>196.0</ele><time>2026-04-26T08:06:34.548Z</time></trkpt><trkpt lat="43.8162133" lon="12.68897"><ele>194.66666666666669</ele><time>2026-04-26T08:06:35.548Z</time></trkpt><trkpt lat="43.8161417" lon="12.68889"><ele>193.33333333333334</ele><time>2026-04-26T08:06:36.547Z</time></trkpt><trkpt lat="43.81607" lon="12.6888067"><ele>192.0</ele><time>2026-04-26T08:06:37.548Z</time></trkpt><trkpt lat="43.81599" lon="12.6887083"><ele>193.2</ele><time>2026-04-26T08:06:38.547Z</time></trkpt><trkpt lat="43.8159067" lon="12.6886033"><ele>194.39999999999998</ele><time>2026-04-26T08:06:39.548Z</time></trkpt><trkpt lat="43.8158167" lon="12.6884983"><ele>195.60000000000002</ele><time>2026-04-26T08:06:40.548Z</time></trkpt><trkpt lat="43.8157367" lon="12.6883983"><ele>196.8</ele><time>2026-04-26T08:06:41.548Z</time></trkpt><trkpt lat="43.8156567" lon="12.6883183"><ele>198.0</ele><time>2026-04-26T08:06:42.548Z</time></trkpt><trkpt lat="43.815585" lon="12.6882483"><ele>198.0</ele><time>2026-04-26T08:06:43.548Z</time></trkpt><trkpt lat="43.8155083" lon="12.6881933"><ele>198.0</ele><time>2026-04-26T08:06:44.547Z</time></trkpt><trkpt lat="43.8154483" lon="12.6881533"><ele>198.0</ele><time>2026-04-26T08:06:45.548Z</time></trkpt><trkpt lat="43.8153833" lon="12.68807"><ele>198.0</ele><time>2026-04-26T08:06:47.547Z</time></trkpt><trkpt lat="43.815305" lon="12.687945"><ele>198.0</ele><time>2026-04-26T08:06:49.548Z</time></trkpt><trkpt lat="43.8152467" lon="12.68791"><ele>198.0</ele><time>2026-04-26T08:06:50.547Z</time></trkpt><trkpt lat="43.815165" lon="12.6879033"><ele>198.5</ele><time>2026-04-26T08:06:51.548Z</time></trkpt><trkpt lat="43.8150517" lon="12.687955"><ele>199.0</ele><time>2026-04-26T08:06:52.548Z</time></trkpt><trkpt lat="43.8149267" lon="12.6880367"><ele>199.5</ele><time>2026-04-26T08:06:53.548Z</time></trkpt><trkpt lat="43.8148033" lon="12.6881117"><ele>200.0</ele><time>2026-04-26T08:06:54.547Z</time></trkpt><trkpt lat="43.814685" lon="12.688185"><ele>200.0</ele><time>2026-04-26T08:06:55.548Z</time></trkpt><trkpt lat="43.8145667" lon="12.6882483"><ele>200.0</ele><time>2026-04-26T08:06:56.548Z</time></trkpt><trkpt lat="43.8144533" lon="12.688315"><ele>200.0</ele><time>2026-04-26T08:06:57.548Z</time></trkpt><trkpt lat="43.814345" lon="12.6883867"><ele>200.0</ele><time>2026-04-26T08:06:58.547Z</time></trkpt><trkpt lat="43.8142533" lon="12.6884567"><ele>199.16666666666669</ele><time>2026-04-26T08:06:59.548Z</time></trkpt><trkpt lat="43.8141717" lon="12.6885183"><ele>198.33333333333334</ele><time>2026-04-26T08:07:00.548Z</time></trkpt><trkpt lat="43.8141067" lon="12.688575"><ele>197.5</ele><time>2026-04-26T08:07:01.547Z</time></trkpt><trkpt lat="43.81402" lon="12.6886383"><ele>196.66666666666669</ele><time>2026-04-26T08:07:03.548Z</time></trkpt><trkpt lat="43.8139567" lon="12.68864"><ele>195.83333333333334</ele><time>2026-04-26T08:07:05.548Z</time></trkpt><trkpt lat="43.8138583" lon="12.6886817"><ele>195.0</ele><time>2026-04-26T08:07:08.548Z</time></trkpt><trkpt lat="43.8137817" lon="12.6887567"><ele>195.0</ele><time>2026-04-26T08:07:09.547Z</time></trkpt><trkpt lat="43.8136817" lon="12.6888583"><ele>195.0</ele><time>2026-04-26T08:07:10.548Z</time></trkpt><trkpt lat="43.8135683" lon="12.6889867"><ele>195.0</ele><time>2026-04-26T08:07:11.547Z</time></trkpt><trkpt lat="43.813455" lon="12.6891167"><ele>195.0</ele><time>2026-04-26T08:07:12.548Z</time></trkpt><trkpt lat="43.8133567" lon="12.689265"><ele>195.75</ele><time>2026-04-26T08:07:13.548Z</time></trkpt><trkpt lat="43.8132767" lon="12.6894433"><ele>196.5</ele><time>2026-04-26T08:07:14.547Z</time></trkpt><trkpt lat="43.8132217" lon="12.68963"><ele>197.25</ele><time>2026-04-26T08:07:15.548Z</time></trkpt><trkpt lat="43.813185" lon="12.6898183"><ele>198.0</ele><time>2026-04-26T08:07:16.547Z</time></trkpt><trkpt lat="43.8131567" lon="12.6900133"><ele>198.0</ele><time>2026-04-26T08:07:17.547Z</time></trkpt><trkpt lat="43.8131317" lon="12.6901917"><ele>198.0</ele><time>2026-04-26T08:07:18.548Z</time></trkpt><trkpt lat="43.8131083" lon="12.69036"><ele>198.0</ele><time>2026-04-26T08:07:19.547Z</time></trkpt><trkpt lat="43.8130917" lon="12.6905217"><ele>198.0</ele><time>2026-04-26T08:07:20.548Z</time></trkpt><trkpt lat="43.8130633" lon="12.6906733"><ele>199.60000000000002</ele><time>2026-04-26T08:07:21.548Z</time></trkpt><trkpt lat="43.8130317" lon="12.690795"><ele>201.20000000000002</ele><time>2026-04-26T08:07:22.548Z</time></trkpt><trkpt lat="43.8129883" lon="12.6909167"><ele>202.8</ele><time>2026-04-26T08:07:23.548Z</time></trkpt><trkpt lat="43.8129367" lon="12.6910383"><ele>204.4</ele><time>2026-04-26T08:07:24.547Z</time></trkpt><trkpt lat="43.8128567" lon="12.69116"><ele>206.0</ele><time>2026-04-26T08:07:25.548Z</time></trkpt><trkpt lat="43.812775" lon="12.69127"><ele>205.4</ele><time>2026-04-26T08:07:26.548Z</time></trkpt><trkpt lat="43.8126883" lon="12.6913733"><ele>204.8</ele><time>2026-04-26T08:07:27.547Z</time></trkpt><trkpt lat="43.8126017" lon="12.69146"><ele>204.20000000000002</ele><time>2026-04-26T08:07:28.547Z</time></trkpt><trkpt lat="43.8125083" lon="12.69151"><ele>203.60000000000002</ele><time>2026-04-26T08:07:29.548Z</time></trkpt><trkpt lat="43.81241" lon="12.6915383"><ele>203.0</ele><time>2026-04-26T08:07:30.548Z</time></trkpt><trkpt lat="43.8122967" lon="12.691535"><ele>203.0</ele><time>2026-04-26T08:07:31.548Z</time></trkpt><trkpt lat="43.812185" lon="12.6915133"><ele>203.0</ele><time>2026-04-26T08:07:32.547Z</time></trkpt><trkpt lat="43.81209" lon="12.6915083"><ele>203.0</ele><time>2026-04-26T08:07:33.548Z</time></trkpt><trkpt lat="43.811995" lon="12.69153"><ele>203.0</ele><time>2026-04-26T08:07:34.548Z</time></trkpt><trkpt lat="43.8119033" lon="12.6915767"><ele>203.0</ele><time>2026-04-26T08:07:35.547Z</time></trkpt><trkpt lat="43.81181" lon="12.6916367"><ele>203.66666666666669</ele><time>2026-04-26T08:07:36.548Z</time></trkpt><trkpt lat="43.8117233" lon="12.6916967"><ele>204.33333333333334</ele><time>2026-04-26T08:07:37.548Z</time></trkpt><trkpt lat="43.8116417" lon="12.6917633"><ele>205.0</ele><time>2026-04-26T08:07:38.548Z</time></trkpt><trkpt lat="43.8115617" lon="12.69182"><ele>205.66666666666669</ele><time>2026-04-26T08:07:39.548Z</time></trkpt><trkpt lat="43.811485" lon="12.69187"><ele>206.33333333333334</ele><time>2026-04-26T08:07:40.547Z</time></trkpt><trkpt lat="43.8114083" lon="12.69191"><ele>207.0</ele><time>2026-04-26T08:07:41.548Z</time></trkpt><trkpt lat="43.8113233" lon="12.6919367"><ele>208.0</ele><time>2026-04-26T08:07:42.547Z</time></trkpt><trkpt lat="43.8112367" lon="12.69195"><ele>209.0</ele><time>2026-04-26T08:07:43.548Z</time></trkpt><trkpt lat="43.8111517" lon="12.6919483"><ele>210.0</ele><time>2026-04-26T08:07:44.547Z</time></trkpt><trkpt lat="43.81106" lon="12.6919267"><ele>211.0</ele><time>2026-04-26T08:07:45.547Z</time></trkpt><trkpt lat="43.8109633" lon="12.6919017"><ele>212.0</ele><time>2026-04-26T08:07:46.547Z</time></trkpt><trkpt lat="43.8108567" lon="12.6918683"><ele>212.0</ele><time>2026-04-26T08:07:47.548Z</time></trkpt><trkpt lat="43.8107467" lon="12.6918317"><ele>212.0</ele><time>2026-04-26T08:07:48.548Z</time></trkpt><trkpt lat="43.810635" lon="12.6917883"><ele>212.0</ele><time>2026-04-26T08:07:49.548Z</time></trkpt><trkpt lat="43.8105133" lon="12.6917483"><ele>212.0</ele><time>2026-04-26T08:07:50.547Z</time></trkpt><trkpt lat="43.8103967" lon="12.6917083"><ele>212.0</ele><time>2026-04-26T08:07:51.548Z</time></trkpt><trkpt lat="43.8102933" lon="12.6916667"><ele>212.0</ele><time>2026-04-26T08:07:52.548Z</time></trkpt><trkpt lat="43.8102083" lon="12.6916067"><ele>212.0</ele><time>2026-04-26T08:07:53.548Z</time></trkpt><trkpt lat="43.8101283" lon="12.691525"><ele>212.0</ele><time>2026-04-26T08:07:54.547Z</time></trkpt><trkpt lat="43.8100583" lon="12.691425"><ele>212.0</ele><time>2026-04-26T08:07:55.548Z</time></trkpt><trkpt lat="43.8100017" lon="12.6912883"><ele>213.2</ele><time>2026-04-26T08:07:56.547Z</time></trkpt><trkpt lat="43.8099617" lon="12.691135"><ele>214.39999999999998</ele><time>2026-04-26T08:07:57.547Z</time></trkpt><trkpt lat="43.8099333" lon="12.6909933"><ele>215.60000000000002</ele><time>2026-04-26T08:07:58.547Z</time></trkpt><trkpt lat="43.80989" lon="12.6908717"><ele>216.8</ele><time>2026-04-26T08:07:59.548Z</time></trkpt><trkpt lat="43.809825" lon="12.6907783"><ele>218.0</ele><time>2026-04-26T08:08:00.547Z</time></trkpt><trkpt lat="43.809745" lon="12.6907183"><ele>218.0</ele><time>2026-04-26T08:08:01.548Z</time></trkpt><trkpt lat="43.809645" lon="12.6906867"><ele>218.0</ele><time>2026-04-26T08:08:02.547Z</time></trkpt><trkpt lat="43.8095433" lon="12.6906833"><ele>218.0</ele><time>2026-04-26T08:08:03.548Z</time></trkpt><trkpt lat="43.809455" lon="12.6906917"><ele>218.0</ele><time>2026-04-26T08:08:04.548Z</time></trkpt><trkpt lat="43.8093833" lon="12.6906983"><ele>218.0</ele><time>2026-04-26T08:08:05.548Z</time></trkpt><trkpt lat="43.8092767" lon="12.6907017"><ele>220.60000000000002</ele><time>2026-04-26T08:08:07.548Z</time></trkpt><trkpt lat="43.8091633" lon="12.6907067"><ele>223.20000000000002</ele><time>2026-04-26T08:08:09.547Z</time></trkpt><trkpt lat="43.8090483" lon="12.690715"><ele>225.8</ele><time>2026-04-26T08:08:11.548Z</time></trkpt><trkpt lat="43.8089633" lon="12.6907217"><ele>228.4</ele><time>2026-04-26T08:08:13.547Z</time></trkpt><trkpt lat="43.808875" lon="12.6907117"><ele>231.0</ele><time>2026-04-26T08:08:15.547Z</time></trkpt><trkpt lat="43.8088183" lon="12.6905417"><ele>231.0</ele><time>2026-04-26T08:08:17.548Z</time></trkpt><trkpt lat="43.808785" lon="12.690365"><ele>231.0</ele><time>2026-04-26T08:08:18.548Z</time></trkpt><trkpt lat="43.8087483" lon="12.6901433"><ele>231.0</ele><time>2026-04-26T08:08:19.548Z</time></trkpt><trkpt lat="43.808705" lon="12.6898933"><ele>229.66666666666669</ele><time>2026-04-26T08:08:20.548Z</time></trkpt><trkpt lat="43.80865" lon="12.6896267"><ele>228.33333333333334</ele><time>2026-04-26T08:08:21.548Z</time></trkpt><trkpt lat="43.80858" lon="12.689335"><ele>227.0</ele><time>2026-04-26T08:08:22.547Z</time></trkpt><trkpt lat="43.8084983" lon="12.68906"><ele>228.33333333333334</ele><time>2026-04-26T08:08:23.548Z</time></trkpt><trkpt lat="43.808415" lon="12.6888"><ele>229.66666666666669</ele><time>2026-04-26T08:08:24.547Z</time></trkpt><trkpt lat="43.8083317" lon="12.6885567"><ele>231.0</ele><time>2026-04-26T08:08:25.547Z</time></trkpt><trkpt lat="43.80825" lon="12.6883233"><ele>231.0</ele><time>2026-04-26T08:08:26.547Z</time></trkpt><trkpt lat="43.8081717" lon="12.6881"><ele>231.0</ele><time>2026-04-26T08:08:27.547Z</time></trkpt><trkpt lat="43.808095" lon="12.6878783"><ele>231.0</ele><time>2026-04-26T08:08:28.548Z</time></trkpt><trkpt lat="43.8080267" lon="12.68764"><ele>230.0</ele><time>2026-04-26T08:08:29.548Z</time></trkpt><trkpt lat="43.8079667" lon="12.6874"><ele>229.0</ele><time>2026-04-26T08:08:30.548Z</time></trkpt><trkpt lat="43.807915" lon="12.687165"><ele>228.0</ele><time>2026-04-26T08:08:31.547Z</time></trkpt><trkpt lat="43.80787" lon="12.6869367"><ele>227.66666666666669</ele><time>2026-04-26T08:08:32.548Z</time></trkpt><trkpt lat="43.807825" lon="12.6867133"><ele>227.33333333333334</ele><time>2026-04-26T08:08:33.548Z</time></trkpt><trkpt lat="43.8077717" lon="12.6865117"><ele>227.0</ele><time>2026-04-26T08:08:34.547Z</time></trkpt><trkpt lat="43.8077" lon="12.6863267"><ele>227.0</ele><time>2026-04-26T08:08:35.547Z</time></trkpt><trkpt lat="43.8076067" lon="12.6861517"><ele>227.0</ele><time>2026-04-26T08:08:36.547Z</time></trkpt><trkpt lat="43.8075017" lon="12.6859967"><ele>227.0</ele><time>2026-04-26T08:08:37.548Z</time></trkpt><trkpt lat="43.8073933" lon="12.6858567"><ele>228.25</ele><time>2026-04-26T08:08:38.548Z</time></trkpt><trkpt lat="43.8072817" lon="12.6857317"><ele>229.5</ele><time>2026-04-26T08:08:39.547Z</time></trkpt><trkpt lat="43.807165" lon="12.6855983"><ele>230.75</ele><time>2026-04-26T08:08:40.548Z</time></trkpt><trkpt lat="43.8070467" lon="12.6854633"><ele>232.0</ele><time>2026-04-26T08:08:41.548Z</time></trkpt><trkpt lat="43.8069283" lon="12.685315"><ele>228.0</ele><time>2026-04-26T08:08:42.548Z</time></trkpt><trkpt lat="43.806795" lon="12.68516"><ele>224.0</ele><time>2026-04-26T08:08:43.548Z</time></trkpt><trkpt lat="43.806655" lon="12.685005"><ele>220.0</ele><time>2026-04-26T08:08:44.547Z</time></trkpt><trkpt lat="43.80652" lon="12.6848483"><ele>220.0</ele><time>2026-04-26T08:08:45.547Z</time></trkpt><trkpt lat="43.8063867" lon="12.6846983"><ele>220.0</ele><time>2026-04-26T08:08:46.548Z</time></trkpt><trkpt lat="43.8062533" lon="12.68456"><ele>220.0</ele><time>2026-04-26T08:08:47.547Z</time></trkpt><trkpt lat="43.8061233" lon="12.68443"><ele>216.66666666666666</ele><time>2026-04-26T08:08:48.547Z</time></trkpt><trkpt lat="43.8059967" lon="12.6843017"><ele>213.33333333333331</ele><time>2026-04-26T08:08:49.547Z</time></trkpt><trkpt lat="43.80588" lon="12.68417"><ele>210.0</ele><time>2026-04-26T08:08:50.548Z</time></trkpt><trkpt lat="43.8057667" lon="12.68403"><ele>210.0</ele><time>2026-04-26T08:08:51.548Z</time></trkpt><trkpt lat="43.80566" lon="12.6838767"><ele>210.0</ele><time>2026-04-26T08:08:52.548Z</time></trkpt><trkpt lat="43.80555" lon="12.68372"><ele>210.0</ele><time>2026-04-26T08:08:53.548Z</time></trkpt><trkpt lat="43.8054383" lon="12.6835617"><ele>210.0</ele><time>2026-04-26T08:08:54.547Z</time></trkpt><trkpt lat="43.80532" lon="12.6834033"><ele>210.0</ele><time>2026-04-26T08:08:55.548Z</time></trkpt><trkpt lat="43.8052" lon="12.6832483"><ele>210.0</ele><time>2026-04-26T08:08:56.548Z</time></trkpt><trkpt lat="43.8050817" lon="12.6830967"><ele>210.0</ele><time>2026-04-26T08:08:57.548Z</time></trkpt><trkpt lat="43.8049617" lon="12.6829433"><ele>210.0</ele><time>2026-04-26T08:08:58.548Z</time></trkpt><trkpt lat="43.8048433" lon="12.6827983"><ele>210.0</ele><time>2026-04-26T08:08:59.548Z</time></trkpt><trkpt lat="43.8047267" lon="12.6826567"><ele>210.66666666666669</ele><time>2026-04-26T08:09:00.547Z</time></trkpt><trkpt lat="43.80461" lon="12.682515"><ele>211.33333333333334</ele><time>2026-04-26T08:09:01.547Z</time></trkpt><trkpt lat="43.8044933" lon="12.6823833"><ele>212.0</ele><time>2026-04-26T08:09:02.548Z</time></trkpt><trkpt lat="43.8043733" lon="12.682255"><ele>211.33333333333334</ele><time>2026-04-26T08:09:03.548Z</time></trkpt><trkpt lat="43.8042433" lon="12.6821283"><ele>210.66666666666669</ele><time>2026-04-26T08:09:04.548Z</time></trkpt><trkpt lat="43.8041183" lon="12.682"><ele>210.0</ele><time>2026-04-26T08:09:05.548Z</time></trkpt><trkpt lat="43.804" lon="12.6818917"><ele>211.66666666666669</ele><time>2026-04-26T08:09:06.548Z</time></trkpt><trkpt lat="43.80388" lon="12.68178"><ele>213.33333333333334</ele><time>2026-04-26T08:09:07.548Z</time></trkpt><trkpt lat="43.8037483" lon="12.6816783"><ele>215.0</ele><time>2026-04-26T08:09:08.547Z</time></trkpt><trkpt lat="43.8036083" lon="12.68157"><ele>214.66666666666669</ele><time>2026-04-26T08:09:09.547Z</time></trkpt><trkpt lat="43.80346" lon="12.68147"><ele>214.33333333333331</ele><time>2026-04-26T08:09:10.548Z</time></trkpt><trkpt lat="43.8032917" lon="12.6813817"><ele>214.0</ele><time>2026-04-26T08:09:11.548Z</time></trkpt><trkpt lat="43.803115" lon="12.6812967"><ele>214.0</ele><time>2026-04-26T08:09:12.548Z</time></trkpt><trkpt lat="43.802945" lon="12.6812283"><ele>214.0</ele><time>2026-04-26T08:09:13.547Z</time></trkpt><trkpt lat="43.8027767" lon="12.68116"><ele>214.0</ele><time>2026-04-26T08:09:14.548Z</time></trkpt><trkpt lat="43.802605" lon="12.6810933"><ele>215.0</ele><time>2026-04-26T08:09:15.548Z</time></trkpt><trkpt lat="43.8024367" lon="12.6810217"><ele>216.0</ele><time>2026-04-26T08:09:16.548Z</time></trkpt><trkpt lat="43.8022783" lon="12.6809317"><ele>217.0</ele><time>2026-04-26T08:09:17.547Z</time></trkpt><trkpt lat="43.802125" lon="12.6808267"><ele>217.0</ele><time>2026-04-26T08:09:18.548Z</time></trkpt><trkpt lat="43.80198" lon="12.68072"><ele>217.0</ele><time>2026-04-26T08:09:19.547Z</time></trkpt><trkpt lat="43.801845" lon="12.68062"><ele>217.0</ele><time>2026-04-26T08:09:20.548Z</time></trkpt><trkpt lat="43.8017117" lon="12.680535"><ele>220.0</ele><time>2026-04-26T08:09:21.548Z</time></trkpt><trkpt lat="43.8015717" lon="12.6804617"><ele>223.0</ele><time>2026-04-26T08:09:22.547Z</time></trkpt><trkpt lat="43.8014233" lon="12.6804083"><ele>226.0</ele><time>2026-04-26T08:09:23.547Z</time></trkpt><trkpt lat="43.80127" lon="12.6803717"><ele>226.0</ele><time>2026-04-26T08:09:24.548Z</time></trkpt><trkpt lat="43.8011117" lon="12.6803483"><ele>226.0</ele><time>2026-04-26T08:09:25.547Z</time></trkpt><trkpt lat="43.8009517" lon="12.6803267"><ele>226.0</ele><time>2026-04-26T08:09:26.548Z</time></trkpt><trkpt lat="43.8007917" lon="12.6803067"><ele>227.75</ele><time>2026-04-26T08:09:27.547Z</time></trkpt><trkpt lat="43.8006417" lon="12.68029"><ele>229.5</ele><time>2026-04-26T08:09:28.548Z</time></trkpt><trkpt lat="43.8005117" lon="12.680285"><ele>231.25</ele><time>2026-04-26T08:09:29.548Z</time></trkpt><trkpt lat="43.8003817" lon="12.6803117"><ele>233.0</ele><time>2026-04-26T08:09:30.547Z</time></trkpt><trkpt lat="43.8002533" lon="12.6803833"><ele>236.25</ele><time>2026-04-26T08:09:31.548Z</time></trkpt><trkpt lat="43.80012" lon="12.6804733"><ele>239.5</ele><time>2026-04-26T08:09:32.547Z</time></trkpt><trkpt lat="43.7999917" lon="12.6805633"><ele>242.75</ele><time>2026-04-26T08:09:33.547Z</time></trkpt><trkpt lat="43.7998783" lon="12.680655"><ele>246.0</ele><time>2026-04-26T08:09:34.548Z</time></trkpt><trkpt lat="43.799775" lon="12.68073"><ele>246.0</ele><time>2026-04-26T08:09:35.548Z</time></trkpt><trkpt lat="43.7996817" lon="12.6807917"><ele>246.00000000000003</ele><time>2026-04-26T08:09:36.547Z</time></trkpt><trkpt lat="43.7995983" lon="12.6808517"><ele>246.00000000000003</ele><time>2026-04-26T08:09:37.548Z</time></trkpt><trkpt lat="43.7995333" lon="12.6808883"><ele>246.0</ele><time>2026-04-26T08:09:38.548Z</time></trkpt><trkpt lat="43.7994783" lon="12.6809933"><ele>246.0</ele><time>2026-04-26T08:09:40.548Z</time></trkpt><trkpt lat="43.7994867" lon="12.6811933"><ele>246.20000000000002</ele><time>2026-04-26T08:09:42.548Z</time></trkpt><trkpt lat="43.7995" lon="12.681325"><ele>246.40000000000003</ele><time>2026-04-26T08:09:43.548Z</time></trkpt><trkpt lat="43.79951" lon="12.681465"><ele>246.6</ele><time>2026-04-26T08:09:44.547Z</time></trkpt><trkpt lat="43.7995167" lon="12.6815983"><ele>246.8</ele><time>2026-04-26T08:09:45.548Z</time></trkpt><trkpt lat="43.7995217" lon="12.6817333"><ele>247.0</ele><time>2026-04-26T08:09:46.548Z</time></trkpt><trkpt lat="43.799525" lon="12.6818817"><ele>248.0</ele><time>2026-04-26T08:09:47.548Z</time></trkpt><trkpt lat="43.7995267" lon="12.682025"><ele>249.0</ele><time>2026-04-26T08:09:48.548Z</time></trkpt><trkpt lat="43.7995267" lon="12.6821667"><ele>250.0</ele><time>2026-04-26T08:09:49.547Z</time></trkpt><trkpt lat="43.79953" lon="12.682305"><ele>251.0</ele><time>2026-04-26T08:09:50.547Z</time></trkpt><trkpt lat="43.7995317" lon="12.6824383"><ele>252.0</ele><time>2026-04-26T08:09:51.548Z</time></trkpt><trkpt lat="43.7995333" lon="12.68257"><ele>252.0</ele><time>2026-04-26T08:09:52.548Z</time></trkpt><trkpt lat="43.79954" lon="12.6827"><ele>252.0</ele><time>2026-04-26T08:09:53.548Z</time></trkpt><trkpt lat="43.7995333" lon="12.68283"><ele>252.0</ele><time>2026-04-26T08:09:54.548Z</time></trkpt><trkpt lat="43.79953" lon="12.682975"><ele>252.0</ele><time>2026-04-26T08:09:55.547Z</time></trkpt><trkpt lat="43.7995233" lon="12.683125"><ele>252.0</ele><time>2026-04-26T08:09:56.548Z</time></trkpt><trkpt lat="43.7995283" lon="12.6832917"><ele>253.25</ele><time>2026-04-26T08:09:57.548Z</time></trkpt><trkpt lat="43.7995417" lon="12.6834883"><ele>254.5</ele><time>2026-04-26T08:09:58.547Z</time></trkpt><trkpt lat="43.7995567" lon="12.6836967"><ele>255.75</ele><time>2026-04-26T08:09:59.547Z</time></trkpt><trkpt lat="43.799565" lon="12.6839017"><ele>257.0</ele><time>2026-04-26T08:10:00.548Z</time></trkpt><trkpt lat="43.799585" lon="12.6841183"><ele>257.0</ele><time>2026-04-26T08:10:01.547Z</time></trkpt><trkpt lat="43.7996" lon="12.6843433"><ele>257.0</ele><time>2026-04-26T08:10:02.547Z</time></trkpt><trkpt lat="43.7996233" lon="12.6845733"><ele>257.0</ele><time>2026-04-26T08:10:03.547Z</time></trkpt><trkpt lat="43.7996433" lon="12.6847933"><ele>257.5</ele><time>2026-04-26T08:10:04.547Z</time></trkpt><trkpt lat="43.7996567" lon="12.685"><ele>258.0</ele><time>2026-04-26T08:10:05.547Z</time></trkpt><trkpt lat="43.79968" lon="12.6852"><ele>258.5</ele><time>2026-04-26T08:10:06.547Z</time></trkpt><trkpt lat="43.7996983" lon="12.6853767"><ele>259.0</ele><time>2026-04-26T08:10:07.547Z</time></trkpt><trkpt lat="43.7997217" lon="12.685555"><ele>260.0</ele><time>2026-04-26T08:10:08.547Z</time></trkpt><trkpt lat="43.7997383" lon="12.6857233"><ele>261.0</ele><time>2026-04-26T08:10:09.547Z</time></trkpt><trkpt lat="43.7997517" lon="12.6858783"><ele>262.0</ele><time>2026-04-26T08:10:10.547Z</time></trkpt><trkpt lat="43.7997683" lon="12.6860333"><ele>263.0</ele><time>2026-04-26T08:10:11.546Z</time></trkpt><trkpt lat="43.799785" lon="12.6861917"><ele>263.25</ele><time>2026-04-26T08:10:12.547Z</time></trkpt><trkpt lat="43.799795" lon="12.6863467"><ele>263.5</ele><time>2026-04-26T08:10:13.547Z</time></trkpt><trkpt lat="43.7998083" lon="12.6865083"><ele>263.75</ele><time>2026-04-26T08:10:14.547Z</time></trkpt><trkpt lat="43.7998267" lon="12.686675"><ele>264.0</ele><time>2026-04-26T08:10:15.547Z</time></trkpt><trkpt lat="43.7998383" lon="12.6868517"><ele>263.75</ele><time>2026-04-26T08:10:16.546Z</time></trkpt><trkpt lat="43.7998467" lon="12.6870233"><ele>263.5</ele><time>2026-04-26T08:10:17.547Z</time></trkpt><trkpt lat="43.7998517" lon="12.6872017"><ele>263.25</ele><time>2026-04-26T08:10:18.547Z</time></trkpt><trkpt lat="43.7998533" lon="12.6873767"><ele>263.0</ele><time>2026-04-26T08:10:19.547Z</time></trkpt><trkpt lat="43.7998517" lon="12.6875433"><ele>263.0</ele><time>2026-04-26T08:10:20.547Z</time></trkpt><trkpt lat="43.7998533" lon="12.6876933"><ele>263.0</ele><time>2026-04-26T08:10:21.547Z</time></trkpt><trkpt lat="43.7998483" lon="12.687835"><ele>263.0</ele><time>2026-04-26T08:10:22.546Z</time></trkpt><trkpt lat="43.7998467" lon="12.68797"><ele>263.0</ele><time>2026-04-26T08:10:23.547Z</time></trkpt><trkpt lat="43.7998417" lon="12.6880967"><ele>263.0</ele><time>2026-04-26T08:10:24.547Z</time></trkpt><trkpt lat="43.7998383" lon="12.6882167"><ele>262.83333333333337</ele><time>2026-04-26T08:10:25.546Z</time></trkpt><trkpt lat="43.7998217" lon="12.6883167"><ele>262.6666666666667</ele><time>2026-04-26T08:10:26.546Z</time></trkpt><trkpt lat="43.7997833" lon="12.6884033"><ele>262.5</ele><time>2026-04-26T08:10:27.547Z</time></trkpt><trkpt lat="43.7997267" lon="12.68846"><ele>262.3333333333333</ele><time>2026-04-26T08:10:28.547Z</time></trkpt><trkpt lat="43.7996633" lon="12.688465"><ele>262.16666666666663</ele><time>2026-04-26T08:10:29.547Z</time></trkpt><trkpt lat="43.799585" lon="12.688435"><ele>262.0</ele><time>2026-04-26T08:10:30.547Z</time></trkpt><trkpt lat="43.7994967" lon="12.68837"><ele>262.0</ele><time>2026-04-26T08:10:31.547Z</time></trkpt><trkpt lat="43.7994067" lon="12.6882883"><ele>262.0</ele><time>2026-04-26T08:10:32.547Z</time></trkpt><trkpt lat="43.79932" lon="12.6882117"><ele>262.0</ele><time>2026-04-26T08:10:33.547Z</time></trkpt><trkpt lat="43.799245" lon="12.6881483"><ele>262.0</ele><time>2026-04-26T08:10:34.547Z</time></trkpt><trkpt lat="43.799175" lon="12.688085"><ele>262.0</ele><time>2026-04-26T08:10:35.547Z</time></trkpt><trkpt lat="43.7991083" lon="12.6880233"><ele>262.2</ele><time>2026-04-26T08:10:36.546Z</time></trkpt><trkpt lat="43.7990383" lon="12.687965"><ele>262.4</ele><time>2026-04-26T08:10:37.547Z</time></trkpt><trkpt lat="43.7989567" lon="12.6878883"><ele>262.6</ele><time>2026-04-26T08:10:38.546Z</time></trkpt><trkpt lat="43.7988683" lon="12.687815"><ele>262.8</ele><time>2026-04-26T08:10:39.547Z</time></trkpt><trkpt lat="43.7987767" lon="12.6877433"><ele>263.0</ele><time>2026-04-26T08:10:40.547Z</time></trkpt><trkpt lat="43.798685" lon="12.687665"><ele>264.0</ele><time>2026-04-26T08:10:41.547Z</time></trkpt><trkpt lat="43.7985867" lon="12.6875833"><ele>265.0</ele><time>2026-04-26T08:10:42.547Z</time></trkpt><trkpt lat="43.7984917" lon="12.6874983"><ele>266.0</ele><time>2026-04-26T08:10:43.546Z</time></trkpt><trkpt lat="43.7983967" lon="12.6874167"><ele>267.0</ele><time>2026-04-26T08:10:44.547Z</time></trkpt><trkpt lat="43.7983033" lon="12.68734"><ele>268.0</ele><time>2026-04-26T08:10:45.546Z</time></trkpt><trkpt lat="43.79821" lon="12.6872583"><ele>268.0</ele><time>2026-04-26T08:10:46.547Z</time></trkpt><trkpt lat="43.7981167" lon="12.6871667"><ele>268.0</ele><time>2026-04-26T08:10:47.547Z</time></trkpt><trkpt lat="43.7980067" lon="12.6870717"><ele>268.0</ele><time>2026-04-26T08:10:48.546Z</time></trkpt><trkpt lat="43.797885" lon="12.6869617"><ele>268.0</ele><time>2026-04-26T08:10:49.547Z</time></trkpt><trkpt lat="43.7977733" lon="12.6868667"><ele>271.0</ele><time>2026-04-26T08:10:50.547Z</time></trkpt><trkpt lat="43.7976517" lon="12.6867767"><ele>274.0</ele><time>2026-04-26T08:10:51.546Z</time></trkpt><trkpt lat="43.7975433" lon="12.6867083"><ele>277.0</ele><time>2026-04-26T08:10:52.546Z</time></trkpt><trkpt lat="43.7974283" lon="12.6866633"><ele>280.0</ele><time>2026-04-26T08:10:53.546Z</time></trkpt><trkpt lat="43.7972867" lon="12.68665"><ele>280.0</ele><time>2026-04-26T08:10:54.547Z</time></trkpt><trkpt lat="43.79712" lon="12.6866533"><ele>280.0</ele><time>2026-04-26T08:10:55.547Z</time></trkpt><trkpt lat="43.7969383" lon="12.6866733"><ele>280.0</ele><time>2026-04-26T08:10:56.546Z</time></trkpt><trkpt lat="43.7967383" lon="12.6866933"><ele>280.66666666666663</ele><time>2026-04-26T08:10:57.547Z</time></trkpt><trkpt lat="43.79653" lon="12.686715"><ele>281.3333333333333</ele><time>2026-04-26T08:10:58.547Z</time></trkpt><trkpt lat="43.7963283" lon="12.6867433"><ele>282.0</ele><time>2026-04-26T08:10:59.547Z</time></trkpt><trkpt lat="43.7961383" lon="12.6867733"><ele>283.0</ele><time>2026-04-26T08:11:00.546Z</time></trkpt><trkpt lat="43.79597" lon="12.6867967"><ele>284.0</ele><time>2026-04-26T08:11:01.547Z</time></trkpt><trkpt lat="43.7958167" lon="12.6868217"><ele>285.0</ele><time>2026-04-26T08:11:02.546Z</time></trkpt><trkpt lat="43.7956783" lon="12.686835"><ele>285.0</ele><time>2026-04-26T08:11:03.547Z</time></trkpt><trkpt lat="43.795545" lon="12.6868617"><ele>285.0</ele><time>2026-04-26T08:11:04.546Z</time></trkpt><trkpt lat="43.7954133" lon="12.6868917"><ele>285.0</ele><time>2026-04-26T08:11:05.547Z</time></trkpt><trkpt lat="43.7952933" lon="12.68692"><ele>285.0</ele><time>2026-04-26T08:11:06.547Z</time></trkpt><trkpt lat="43.7951767" lon="12.6869667"><ele>283.25</ele><time>2026-04-26T08:11:07.547Z</time></trkpt><trkpt lat="43.7950617" lon="12.687035"><ele>281.5</ele><time>2026-04-26T08:11:08.546Z</time></trkpt><trkpt lat="43.794955" lon="12.687135"><ele>279.75</ele><time>2026-04-26T08:11:09.547Z</time></trkpt><trkpt lat="43.79486" lon="12.68725"><ele>278.0</ele><time>2026-04-26T08:11:10.547Z</time></trkpt><trkpt lat="43.7947833" lon="12.6873867"><ele>278.0</ele><time>2026-04-26T08:11:11.546Z</time></trkpt><trkpt lat="43.79472" lon="12.68754"><ele>278.0</ele><time>2026-04-26T08:11:12.547Z</time></trkpt><trkpt lat="43.7946717" lon="12.6877017"><ele>278.0</ele><time>2026-04-26T08:11:13.547Z</time></trkpt><trkpt lat="43.7946283" lon="12.6878717"><ele>278.0</ele><time>2026-04-26T08:11:14.547Z</time></trkpt><trkpt lat="43.7945783" lon="12.6880383"><ele>275.5</ele><time>2026-04-26T08:11:15.547Z</time></trkpt><trkpt lat="43.7945233" lon="12.6882117"><ele>273.0</ele><time>2026-04-26T08:11:16.546Z</time></trkpt><trkpt lat="43.79446" lon="12.6883933"><ele>270.5</ele><time>2026-04-26T08:11:17.547Z</time></trkpt><trkpt lat="43.79439" lon="12.688565"><ele>268.0</ele><time>2026-04-26T08:11:18.546Z</time></trkpt><trkpt lat="43.794315" lon="12.6887267"><ele>268.0</ele><time>2026-04-26T08:11:19.546Z</time></trkpt><trkpt lat="43.7942483" lon="12.68888"><ele>268.0</ele><time>2026-04-26T08:11:20.546Z</time></trkpt><trkpt lat="43.794185" lon="12.6890333"><ele>268.0</ele><time>2026-04-26T08:11:21.547Z</time></trkpt><trkpt lat="43.7941367" lon="12.6891917"><ele>268.0</ele><time>2026-04-26T08:11:22.547Z</time></trkpt><trkpt lat="43.7940983" lon="12.6893617"><ele>265.25</ele><time>2026-04-26T08:11:23.546Z</time></trkpt><trkpt lat="43.7940817" lon="12.6895467"><ele>262.5</ele><time>2026-04-26T08:11:24.546Z</time></trkpt><trkpt lat="43.7940717" lon="12.689745"><ele>259.75</ele><time>2026-04-26T08:11:25.547Z</time></trkpt><trkpt lat="43.7940583" lon="12.689945"><ele>257.0</ele><time>2026-04-26T08:11:26.546Z</time></trkpt><trkpt lat="43.7940417" lon="12.690145"><ele>255.33333333333334</ele><time>2026-04-26T08:11:27.546Z</time></trkpt><trkpt lat="43.7940283" lon="12.6903533"><ele>253.66666666666669</ele><time>2026-04-26T08:11:28.546Z</time></trkpt><trkpt lat="43.79401" lon="12.690565"><ele>252.0</ele><time>2026-04-26T08:11:29.547Z</time></trkpt><trkpt lat="43.793985" lon="12.6907683"><ele>252.0</ele><time>2026-04-26T08:11:30.547Z</time></trkpt><trkpt lat="43.7939517" lon="12.6909617"><ele>252.0</ele><time>2026-04-26T08:11:31.547Z</time></trkpt><trkpt lat="43.7939017" lon="12.6911367"><ele>252.0</ele><time>2026-04-26T08:11:32.547Z</time></trkpt><trkpt lat="43.7938417" lon="12.6912983"><ele>252.0</ele><time>2026-04-26T08:11:33.547Z</time></trkpt><trkpt lat="43.7937783" lon="12.6914483"><ele>251.25</ele><time>2026-04-26T08:11:34.546Z</time></trkpt><trkpt lat="43.7937233" lon="12.6915967"><ele>250.5</ele><time>2026-04-26T08:11:35.547Z</time></trkpt><trkpt lat="43.793685" lon="12.691745"><ele>249.75</ele><time>2026-04-26T08:11:36.546Z</time></trkpt><trkpt lat="43.7936667" lon="12.6918933"><ele>249.0</ele><time>2026-04-26T08:11:37.547Z</time></trkpt><trkpt lat="43.7936683" lon="12.692075"><ele>247.0</ele><time>2026-04-26T08:11:38.547Z</time></trkpt><trkpt lat="43.793685" lon="12.6922817"><ele>245.0</ele><time>2026-04-26T08:11:39.547Z</time></trkpt><trkpt lat="43.7937133" lon="12.69249"><ele>243.0</ele><time>2026-04-26T08:11:40.547Z</time></trkpt><trkpt lat="43.79374" lon="12.6926917"><ele>241.5</ele><time>2026-04-26T08:11:41.546Z</time></trkpt><trkpt lat="43.7937667" lon="12.692895"><ele>240.0</ele><time>2026-04-26T08:11:42.547Z</time></trkpt><trkpt lat="43.7937933" lon="12.6930933"><ele>238.5</ele><time>2026-04-26T08:11:43.547Z</time></trkpt><trkpt lat="43.7938133" lon="12.69329"><ele>237.0</ele><time>2026-04-26T08:11:44.547Z</time></trkpt><trkpt lat="43.7938217" lon="12.6934883"><ele>237.0</ele><time>2026-04-26T08:11:45.547Z</time></trkpt><trkpt lat="43.7938033" lon="12.6937067"><ele>237.0</ele><time>2026-04-26T08:11:46.547Z</time></trkpt><trkpt lat="43.79376" lon="12.6939317"><ele>237.0</ele><time>2026-04-26T08:11:47.546Z</time></trkpt><trkpt lat="43.79371" lon="12.69415"><ele>237.0</ele><time>2026-04-26T08:11:48.547Z</time></trkpt><trkpt lat="43.7936733" lon="12.6943717"><ele>237.0</ele><time>2026-04-26T08:11:49.546Z</time></trkpt><trkpt lat="43.7936317" lon="12.6945867"><ele>237.0</ele><time>2026-04-26T08:11:50.546Z</time></trkpt><trkpt lat="43.7936133" lon="12.6947883"><ele>237.25</ele><time>2026-04-26T08:11:51.546Z</time></trkpt><trkpt lat="43.7936117" lon="12.6949817"><ele>237.5</ele><time>2026-04-26T08:11:52.546Z</time></trkpt><trkpt lat="43.7936267" lon="12.695165"><ele>237.75</ele><time>2026-04-26T08:11:53.547Z</time></trkpt><trkpt lat="43.7936617" lon="12.6953467"><ele>238.0</ele><time>2026-04-26T08:11:54.547Z</time></trkpt><trkpt lat="43.7937167" lon="12.6955267"><ele>238.5</ele><time>2026-04-26T08:11:55.547Z</time></trkpt><trkpt lat="43.7937867" lon="12.69571"><ele>239.0</ele><time>2026-04-26T08:11:56.546Z</time></trkpt><trkpt lat="43.7938717" lon="12.6958883"><ele>239.5</ele><time>2026-04-26T08:11:57.546Z</time></trkpt><trkpt lat="43.7939433" lon="12.6960383"><ele>240.0</ele><time>2026-04-26T08:11:58.547Z</time></trkpt><trkpt lat="43.794005" lon="12.69618"><ele>242.5</ele><time>2026-04-26T08:11:59.547Z</time></trkpt><trkpt lat="43.7940433" lon="12.6963317"><ele>245.0</ele><time>2026-04-26T08:12:00.547Z</time></trkpt><trkpt lat="43.7940433" lon="12.69649"><ele>247.5</ele><time>2026-04-26T08:12:01.547Z</time></trkpt><trkpt lat="43.794025" lon="12.6966667"><ele>250.0</ele><time>2026-04-26T08:12:02.546Z</time></trkpt><trkpt lat="43.7939817" lon="12.69686"><ele>251.75</ele><time>2026-04-26T08:12:03.547Z</time></trkpt><trkpt lat="43.7939217" lon="12.697065"><ele>253.5</ele><time>2026-04-26T08:12:04.546Z</time></trkpt><trkpt lat="43.79386" lon="12.6972417"><ele>255.25</ele><time>2026-04-26T08:12:05.547Z</time></trkpt><trkpt lat="43.7938067" lon="12.697385"><ele>257.0</ele><time>2026-04-26T08:12:06.547Z</time></trkpt><trkpt lat="43.7937683" lon="12.6975117"><ele>257.0</ele><time>2026-04-26T08:12:07.547Z</time></trkpt><trkpt lat="43.7937367" lon="12.697625"><ele>257.0</ele><time>2026-04-26T08:12:08.547Z</time></trkpt><trkpt lat="43.7937183" lon="12.6977283"><ele>257.0</ele><time>2026-04-26T08:12:09.547Z</time></trkpt><trkpt lat="43.7937283" lon="12.697825"><ele>257.0</ele><time>2026-04-26T08:12:10.547Z</time></trkpt><trkpt lat="43.79374" lon="12.6979533"><ele>257.0</ele><time>2026-04-26T08:12:12.547Z</time></trkpt><trkpt lat="43.7936567" lon="12.697975"><ele>257.0</ele><time>2026-04-26T08:12:15.547Z</time></trkpt><trkpt lat="43.7935617" lon="12.6978817"><ele>256.5</ele><time>2026-04-26T08:12:17.547Z</time></trkpt><trkpt lat="43.7934867" lon="12.69781"><ele>256.0</ele><time>2026-04-26T08:12:18.546Z</time></trkpt><trkpt lat="43.7933933" lon="12.697725"><ele>255.5</ele><time>2026-04-26T08:12:19.547Z</time></trkpt><trkpt lat="43.7932867" lon="12.6976167"><ele>255.0</ele><time>2026-04-26T08:12:20.547Z</time></trkpt><trkpt lat="43.793175" lon="12.6975067"><ele>255.0</ele><time>2026-04-26T08:12:21.546Z</time></trkpt><trkpt lat="43.7930517" lon="12.69739"><ele>255.0</ele><time>2026-04-26T08:12:22.547Z</time></trkpt><trkpt lat="43.7929267" lon="12.6972683"><ele>255.0</ele><time>2026-04-26T08:12:23.547Z</time></trkpt><trkpt lat="43.7928033" lon="12.6971483"><ele>255.0</ele><time>2026-04-26T08:12:24.547Z</time></trkpt><trkpt lat="43.7926867" lon="12.6970383"><ele>255.0</ele><time>2026-04-26T08:12:25.547Z</time></trkpt><trkpt lat="43.79257" lon="12.6969383"><ele>255.0</ele><time>2026-04-26T08:12:26.547Z</time></trkpt><trkpt lat="43.79245" lon="12.696845"><ele>255.0</ele><time>2026-04-26T08:12:27.547Z</time></trkpt><trkpt lat="43.7923333" lon="12.6967583"><ele>253.75</ele><time>2026-04-26T08:12:28.547Z</time></trkpt><trkpt lat="43.7922167" lon="12.6966817"><ele>252.5</ele><time>2026-04-26T08:12:29.547Z</time></trkpt><trkpt lat="43.7921067" lon="12.6966083"><ele>251.25</ele><time>2026-04-26T08:12:30.547Z</time></trkpt><trkpt lat="43.7920033" lon="12.696545"><ele>250.0</ele><time>2026-04-26T08:12:31.546Z</time></trkpt><trkpt lat="43.7919033" lon="12.6965033"><ele>247.75</ele><time>2026-04-26T08:12:32.547Z</time></trkpt><trkpt lat="43.791795" lon="12.6964833"><ele>245.5</ele><time>2026-04-26T08:12:33.547Z</time></trkpt><trkpt lat="43.7916817" lon="12.6964917"><ele>243.25</ele><time>2026-04-26T08:12:34.547Z</time></trkpt><trkpt lat="43.7915717" lon="12.6965133"><ele>241.0</ele><time>2026-04-26T08:12:35.547Z</time></trkpt><trkpt lat="43.7914533" lon="12.696555"><ele>241.0</ele><time>2026-04-26T08:12:36.547Z</time></trkpt><trkpt lat="43.7913317" lon="12.6966067"><ele>241.0</ele><time>2026-04-26T08:12:37.547Z</time></trkpt><trkpt lat="43.791215" lon="12.6966583"><ele>241.0</ele><time>2026-04-26T08:12:38.546Z</time></trkpt><trkpt lat="43.79111" lon="12.69671"><ele>241.0</ele><time>2026-04-26T08:12:39.547Z</time></trkpt><trkpt lat="43.791015" lon="12.696765"><ele>239.60000000000002</ele><time>2026-04-26T08:12:40.546Z</time></trkpt><trkpt lat="43.7909267" lon="12.696835"><ele>238.20000000000002</ele><time>2026-04-26T08:12:41.547Z</time></trkpt><trkpt lat="43.7908433" lon="12.6969083"><ele>236.79999999999998</ele><time>2026-04-26T08:12:42.547Z</time></trkpt><trkpt lat="43.79076" lon="12.696985"><ele>235.39999999999998</ele><time>2026-04-26T08:12:43.547Z</time></trkpt><trkpt lat="43.79067" lon="12.6970667"><ele>234.0</ele><time>2026-04-26T08:12:44.547Z</time></trkpt><trkpt lat="43.7905717" lon="12.6971667"><ele>232.0</ele><time>2026-04-26T08:12:45.547Z</time></trkpt><trkpt lat="43.7904533" lon="12.6972867"><ele>230.0</ele><time>2026-04-26T08:12:46.547Z</time></trkpt><trkpt lat="43.7903183" lon="12.697435"><ele>228.0</ele><time>2026-04-26T08:12:47.547Z</time></trkpt><trkpt lat="43.7901817" lon="12.6975817"><ele>229.66666666666669</ele><time>2026-04-26T08:12:48.547Z</time></trkpt><trkpt lat="43.790045" lon="12.6977283"><ele>231.33333333333334</ele><time>2026-04-26T08:12:49.547Z</time></trkpt><trkpt lat="43.789915" lon="12.69788"><ele>233.0</ele><time>2026-04-26T08:12:50.546Z</time></trkpt><trkpt lat="43.7897883" lon="12.6980283"><ele>229.0</ele><time>2026-04-26T08:12:51.547Z</time></trkpt><trkpt lat="43.789665" lon="12.6981667"><ele>225.0</ele><time>2026-04-26T08:12:52.546Z</time></trkpt><trkpt lat="43.789535" lon="12.69831"><ele>221.0</ele><time>2026-04-26T08:12:53.547Z</time></trkpt><trkpt lat="43.7893967" lon="12.6984483"><ele>219.66666666666669</ele><time>2026-04-26T08:12:54.546Z</time></trkpt><trkpt lat="43.78925" lon="12.6985883"><ele>218.33333333333331</ele><time>2026-04-26T08:12:55.547Z</time></trkpt><trkpt lat="43.7891067" lon="12.6987283"><ele>217.0</ele><time>2026-04-26T08:12:56.547Z</time></trkpt><trkpt lat="43.78896" lon="12.698865"><ele>217.0</ele><time>2026-04-26T08:12:57.547Z</time></trkpt><trkpt lat="43.788805" lon="12.6990083"><ele>217.0</ele><time>2026-04-26T08:12:58.546Z</time></trkpt><trkpt lat="43.7886367" lon="12.69916"><ele>217.0</ele><time>2026-04-26T08:12:59.547Z</time></trkpt><trkpt lat="43.788465" lon="12.69931"><ele>215.33333333333331</ele><time>2026-04-26T08:13:00.547Z</time></trkpt><trkpt lat="43.7883" lon="12.69945"><ele>213.66666666666669</ele><time>2026-04-26T08:13:01.547Z</time></trkpt><trkpt lat="43.7881367" lon="12.69959"><ele>212.0</ele><time>2026-04-26T08:13:02.547Z</time></trkpt><trkpt lat="43.7879717" lon="12.6997217"><ele>212.0</ele><time>2026-04-26T08:13:03.547Z</time></trkpt><trkpt lat="43.787815" lon="12.6998417"><ele>212.0</ele><time>2026-04-26T08:13:04.547Z</time></trkpt><trkpt lat="43.7876617" lon="12.699955"><ele>212.0</ele><time>2026-04-26T08:13:05.547Z</time></trkpt><trkpt lat="43.78751" lon="12.7000617"><ele>209.66666666666669</ele><time>2026-04-26T08:13:06.546Z</time></trkpt><trkpt lat="43.787365" lon="12.7001517"><ele>207.33333333333331</ele><time>2026-04-26T08:13:07.547Z</time></trkpt><trkpt lat="43.7872283" lon="12.7002233"><ele>205.0</ele><time>2026-04-26T08:13:08.547Z</time></trkpt><trkpt lat="43.7870833" lon="12.7002717"><ele>204.33333333333331</ele><time>2026-04-26T08:13:09.547Z</time></trkpt><trkpt lat="43.78693" lon="12.7003033"><ele>203.66666666666669</ele><time>2026-04-26T08:13:10.546Z</time></trkpt><trkpt lat="43.786775" lon="12.7003267"><ele>203.0</ele><time>2026-04-26T08:13:11.546Z</time></trkpt><trkpt lat="43.7866317" lon="12.7003467"><ele>203.0</ele><time>2026-04-26T08:13:12.547Z</time></trkpt><trkpt lat="43.7865033" lon="12.700365"><ele>203.0</ele><time>2026-04-26T08:13:13.546Z</time></trkpt><trkpt lat="43.7863783" lon="12.700395"><ele>203.0</ele><time>2026-04-26T08:13:14.547Z</time></trkpt><trkpt lat="43.786255" lon="12.7004483"><ele>203.0</ele><time>2026-04-26T08:13:15.547Z</time></trkpt><trkpt lat="43.7861367" lon="12.7005133"><ele>203.0</ele><time>2026-04-26T08:13:16.546Z</time></trkpt><trkpt lat="43.7860167" lon="12.700605"><ele>203.0</ele><time>2026-04-26T08:13:17.546Z</time></trkpt><trkpt lat="43.7859117" lon="12.70071"><ele>203.0</ele><time>2026-04-26T08:13:18.546Z</time></trkpt><trkpt lat="43.7858167" lon="12.7008183"><ele>203.0</ele><time>2026-04-26T08:13:19.547Z</time></trkpt><trkpt lat="43.785735" lon="12.70092"><ele>202.0</ele><time>2026-04-26T08:13:20.547Z</time></trkpt><trkpt lat="43.7856417" lon="12.7010117"><ele>201.0</ele><time>2026-04-26T08:13:21.546Z</time></trkpt><trkpt lat="43.7855333" lon="12.7010833"><ele>200.0</ele><time>2026-04-26T08:13:22.547Z</time></trkpt><trkpt lat="43.7854283" lon="12.70114"><ele>199.0</ele><time>2026-04-26T08:13:23.547Z</time></trkpt><trkpt lat="43.7853283" lon="12.7012117"><ele>196.5</ele><time>2026-04-26T08:13:24.547Z</time></trkpt><trkpt lat="43.7852433" lon="12.701315"><ele>194.0</ele><time>2026-04-26T08:13:25.547Z</time></trkpt><trkpt lat="43.7851717" lon="12.7014467"><ele>191.5</ele><time>2026-04-26T08:13:26.546Z</time></trkpt><trkpt lat="43.7851167" lon="12.701635"><ele>189.0</ele><time>2026-04-26T08:13:27.547Z</time></trkpt><trkpt lat="43.7850817" lon="12.7018367"><ele>187.5</ele><time>2026-04-26T08:13:28.546Z</time></trkpt><trkpt lat="43.785045" lon="12.7020383"><ele>186.0</ele><time>2026-04-26T08:13:29.546Z</time></trkpt><trkpt lat="43.78501" lon="12.7022233"><ele>184.5</ele><time>2026-04-26T08:13:30.547Z</time></trkpt><trkpt lat="43.784975" lon="12.70239"><ele>183.0</ele><time>2026-04-26T08:13:31.547Z</time></trkpt><trkpt lat="43.7849383" lon="12.7025583"><ele>183.0</ele><time>2026-04-26T08:13:32.547Z</time></trkpt><trkpt lat="43.78489" lon="12.70274"><ele>183.0</ele><time>2026-04-26T08:13:33.547Z</time></trkpt><trkpt lat="43.784835" lon="12.7029283"><ele>183.0</ele><time>2026-04-26T08:13:34.547Z</time></trkpt><trkpt lat="43.7847717" lon="12.7031267"><ele>183.0</ele><time>2026-04-26T08:13:35.547Z</time></trkpt><trkpt lat="43.78471" lon="12.7033167"><ele>181.5</ele><time>2026-04-26T08:13:36.546Z</time></trkpt><trkpt lat="43.78464" lon="12.7035017"><ele>180.0</ele><time>2026-04-26T08:13:37.547Z</time></trkpt><trkpt lat="43.7845667" lon="12.7036717"><ele>178.5</ele><time>2026-04-26T08:13:38.547Z</time></trkpt><trkpt lat="43.784495" lon="12.7038383"><ele>177.0</ele><time>2026-04-26T08:13:39.547Z</time></trkpt><trkpt lat="43.7844333" lon="12.7039917"><ele>175.39999999999998</ele><time>2026-04-26T08:13:40.546Z</time></trkpt><trkpt lat="43.7843733" lon="12.704125"><ele>173.79999999999998</ele><time>2026-04-26T08:13:41.546Z</time></trkpt><trkpt lat="43.78433" lon="12.70426"><ele>172.2</ele><time>2026-04-26T08:13:42.547Z</time></trkpt><trkpt lat="43.784295" lon="12.7043983"><ele>170.6</ele><time>2026-04-26T08:13:43.547Z</time></trkpt><trkpt lat="43.784265" lon="12.70456"><ele>169.0</ele><time>2026-04-26T08:13:44.547Z</time></trkpt><trkpt lat="43.78424" lon="12.70473"><ele>168.0</ele><time>2026-04-26T08:13:45.547Z</time></trkpt><trkpt lat="43.7842233" lon="12.7048983"><ele>167.0</ele><time>2026-04-26T08:13:46.547Z</time></trkpt><trkpt lat="43.78421" lon="12.7050533"><ele>166.0</ele><time>2026-04-26T08:13:47.546Z</time></trkpt><trkpt lat="43.784195" lon="12.7052067"><ele>165.0</ele><time>2026-04-26T08:13:48.547Z</time></trkpt><trkpt lat="43.78419" lon="12.70536"><ele>162.75</ele><time>2026-04-26T08:13:49.547Z</time></trkpt><trkpt lat="43.7841867" lon="12.7055133"><ele>160.5</ele><time>2026-04-26T08:13:50.547Z</time></trkpt><trkpt lat="43.7841883" lon="12.7056767"><ele>158.25</ele><time>2026-04-26T08:13:51.547Z</time></trkpt><trkpt lat="43.7841933" lon="12.7058517"><ele>156.0</ele><time>2026-04-26T08:13:52.547Z</time></trkpt><trkpt lat="43.7841983" lon="12.706015"><ele>154.0</ele><time>2026-04-26T08:13:53.546Z</time></trkpt><trkpt lat="43.7842033" lon="12.7061617"><ele>152.0</ele><time>2026-04-26T08:13:54.547Z</time></trkpt><trkpt lat="43.7842167" lon="12.7062917"><ele>150.0</ele><time>2026-04-26T08:13:55.547Z</time></trkpt><trkpt lat="43.7842433" lon="12.706405"><ele>148.0</ele><time>2026-04-26T08:13:56.547Z</time></trkpt><trkpt lat="43.784285" lon="12.7065"><ele>146.0</ele><time>2026-04-26T08:13:57.546Z</time></trkpt><trkpt lat="43.7843233" lon="12.7065933"><ele>144.0</ele><time>2026-04-26T08:13:58.547Z</time></trkpt><trkpt lat="43.7843433" lon="12.70669"><ele>144.0</ele><time>2026-04-26T08:13:59.546Z</time></trkpt><trkpt lat="43.7842917" lon="12.7068517"><ele>144.0</ele><time>2026-04-26T08:14:01.547Z</time></trkpt><trkpt lat="43.78423" lon="12.7069083"><ele>144.0</ele><time>2026-04-26T08:14:02.547Z</time></trkpt><trkpt lat="43.784155" lon="12.706935"><ele>144.0</ele><time>2026-04-26T08:14:03.546Z</time></trkpt><trkpt lat="43.7840633" lon="12.7069317"><ele>144.0</ele><time>2026-04-26T08:14:04.547Z</time></trkpt><trkpt lat="43.7839767" lon="12.7069033"><ele>144.00000000000003</ele><time>2026-04-26T08:14:05.546Z</time></trkpt><trkpt lat="43.783895" lon="12.7068817"><ele>144.0</ele><time>2026-04-26T08:14:06.547Z</time></trkpt><trkpt lat="43.7838233" lon="12.706875"><ele>144.0</ele><time>2026-04-26T08:14:07.547Z</time></trkpt><trkpt lat="43.7837617" lon="12.70691"><ele>144.0</ele><time>2026-04-26T08:14:08.547Z</time></trkpt><trkpt lat="43.7837217" lon="12.7069833"><ele>144.0</ele><time>2026-04-26T08:14:09.547Z</time></trkpt><trkpt lat="43.78373" lon="12.7070817"><ele>144.00000000000003</ele><time>2026-04-26T08:14:10.547Z</time></trkpt><trkpt lat="43.78376" lon="12.7071883"><ele>144.0</ele><time>2026-04-26T08:14:11.546Z</time></trkpt><trkpt lat="43.78379" lon="12.7073183"><ele>139.0</ele><time>2026-04-26T08:14:12.547Z</time></trkpt><trkpt lat="43.7838033" lon="12.7074683"><ele>134.0</ele><time>2026-04-26T08:14:13.546Z</time></trkpt><trkpt lat="43.7837967" lon="12.70763"><ele>129.0</ele><time>2026-04-26T08:14:14.547Z</time></trkpt><trkpt lat="43.7837883" lon="12.7077967"><ele>124.0</ele><time>2026-04-26T08:14:15.547Z</time></trkpt><trkpt lat="43.7837933" lon="12.7079683"><ele>122.0</ele><time>2026-04-26T08:14:16.547Z</time></trkpt><trkpt lat="43.7837867" lon="12.7081467"><ele>120.0</ele><time>2026-04-26T08:14:17.547Z</time></trkpt><trkpt lat="43.78378" lon="12.7083167"><ele>118.0</ele><time>2026-04-26T08:14:18.547Z</time></trkpt><trkpt lat="43.7837767" lon="12.7084733"><ele>116.0</ele><time>2026-04-26T08:14:19.546Z</time></trkpt><trkpt lat="43.783765" lon="12.70861"><ele>115.99999999999999</ele><time>2026-04-26T08:14:20.547Z</time></trkpt><trkpt lat="43.7837583" lon="12.7087283"><ele>116.0</ele><time>2026-04-26T08:14:21.547Z</time></trkpt><trkpt lat="43.7837767" lon="12.7088517"><ele>116.0</ele><time>2026-04-26T08:14:23.546Z</time></trkpt><trkpt lat="43.7837183" lon="12.7089017"><ele>116.0</ele><time>2026-04-26T08:14:26.547Z</time></trkpt><trkpt lat="43.7836433" lon="12.70881"><ele>115.99999999999999</ele><time>2026-04-26T08:14:28.546Z</time></trkpt><trkpt lat="43.7835867" lon="12.7087117"><ele>116.0</ele><time>2026-04-26T08:14:29.547Z</time></trkpt><trkpt lat="43.783515" lon="12.7085983"><ele>115.25</ele><time>2026-04-26T08:14:30.547Z</time></trkpt><trkpt lat="43.7834217" lon="12.70847"><ele>114.5</ele><time>2026-04-26T08:14:31.547Z</time></trkpt><trkpt lat="43.7833183" lon="12.7083333"><ele>113.75</ele><time>2026-04-26T08:14:32.546Z</time></trkpt><trkpt lat="43.783205" lon="12.7081917"><ele>113.0</ele><time>2026-04-26T08:14:33.547Z</time></trkpt><trkpt lat="43.7830933" lon="12.7080333"><ele>113.0</ele><time>2026-04-26T08:14:34.547Z</time></trkpt><trkpt lat="43.7829733" lon="12.7078633"><ele>113.0</ele><time>2026-04-26T08:14:35.547Z</time></trkpt><trkpt lat="43.782855" lon="12.707685"><ele>113.0</ele><time>2026-04-26T08:14:36.546Z</time></trkpt><trkpt lat="43.7827317" lon="12.7075033"><ele>112.66666666666666</ele><time>2026-04-26T08:14:37.546Z</time></trkpt><trkpt lat="43.78262" lon="12.7073133"><ele>112.33333333333334</ele><time>2026-04-26T08:14:38.546Z</time></trkpt><trkpt lat="43.7825" lon="12.707125"><ele>112.0</ele><time>2026-04-26T08:14:39.547Z</time></trkpt><trkpt lat="43.7823917" lon="12.7069267"><ele>112.66666666666667</ele><time>2026-04-26T08:14:40.546Z</time></trkpt><trkpt lat="43.7822817" lon="12.706735"><ele>113.33333333333334</ele><time>2026-04-26T08:14:41.547Z</time></trkpt><trkpt lat="43.7821767" lon="12.70655"><ele>114.0</ele><time>2026-04-26T08:14:42.547Z</time></trkpt><trkpt lat="43.78208" lon="12.70638"><ele>114.0</ele><time>2026-04-26T08:14:43.547Z</time></trkpt><trkpt lat="43.78199" lon="12.7062183"><ele>114.0</ele><time>2026-04-26T08:14:44.547Z</time></trkpt><trkpt lat="43.78191" lon="12.7060633"><ele>114.0</ele><time>2026-04-26T08:14:45.547Z</time></trkpt><trkpt lat="43.78183" lon="12.705925"><ele>114.0</ele><time>2026-04-26T08:14:46.547Z</time></trkpt><trkpt lat="43.7817533" lon="12.705775"><ele>114.0</ele><time>2026-04-26T08:14:47.547Z</time></trkpt><trkpt lat="43.7816633" lon="12.7056117"><ele>114.0</ele><time>2026-04-26T08:14:48.547Z</time></trkpt><trkpt lat="43.781575" lon="12.705425"><ele>114.0</ele><time>2026-04-26T08:14:49.546Z</time></trkpt><trkpt lat="43.7814833" lon="12.7052267"><ele>116.33333333333334</ele><time>2026-04-26T08:14:50.547Z</time></trkpt><trkpt lat="43.78139" lon="12.7050183"><ele>118.66666666666667</ele><time>2026-04-26T08:14:51.546Z</time></trkpt><trkpt lat="43.7812967" lon="12.7048083"><ele>121.0</ele><time>2026-04-26T08:14:52.546Z</time></trkpt><trkpt lat="43.7812067" lon="12.7046083"><ele>121.0</ele><time>2026-04-26T08:14:53.547Z</time></trkpt><trkpt lat="43.7811317" lon="12.7044167"><ele>121.0</ele><time>2026-04-26T08:14:54.547Z</time></trkpt><trkpt lat="43.7810717" lon="12.7042433"><ele>121.0</ele><time>2026-04-26T08:14:55.547Z</time></trkpt><trkpt lat="43.7810183" lon="12.704085"><ele>121.0</ele><time>2026-04-26T08:14:56.547Z</time></trkpt><trkpt lat="43.7809717" lon="12.70393"><ele>120.8</ele><time>2026-04-26T08:14:57.547Z</time></trkpt><trkpt lat="43.78093" lon="12.7037883"><ele>120.6</ele><time>2026-04-26T08:14:58.546Z</time></trkpt><trkpt lat="43.7809" lon="12.7036667"><ele>120.4</ele><time>2026-04-26T08:14:59.546Z</time></trkpt><trkpt lat="43.780865" lon="12.703545"><ele>120.2</ele><time>2026-04-26T08:15:00.547Z</time></trkpt><trkpt lat="43.7808233" lon="12.70339"><ele>120.0</ele><time>2026-04-26T08:15:01.547Z</time></trkpt><trkpt lat="43.7807817" lon="12.7032117"><ele>120.0</ele><time>2026-04-26T08:15:02.546Z</time></trkpt><trkpt lat="43.7807333" lon="12.7030267"><ele>120.0</ele><time>2026-04-26T08:15:03.546Z</time></trkpt><trkpt lat="43.7806917" lon="12.702825"><ele>120.0</ele><time>2026-04-26T08:15:04.547Z</time></trkpt><trkpt lat="43.78065" lon="12.7026183"><ele>120.0</ele><time>2026-04-26T08:15:05.547Z</time></trkpt><trkpt lat="43.780615" lon="12.70241"><ele>120.33333333333334</ele><time>2026-04-26T08:15:06.546Z</time></trkpt><trkpt lat="43.7805883" lon="12.7021917"><ele>120.66666666666667</ele><time>2026-04-26T08:15:07.547Z</time></trkpt><trkpt lat="43.78057" lon="12.7019633"><ele>121.0</ele><time>2026-04-26T08:15:08.547Z</time></trkpt><trkpt lat="43.780555" lon="12.70173"><ele>121.0</ele><time>2026-04-26T08:15:09.547Z</time></trkpt><trkpt lat="43.7805483" lon="12.7014933"><ele>121.0</ele><time>2026-04-26T08:15:10.546Z</time></trkpt><trkpt lat="43.78055" lon="12.7012583"><ele>121.0</ele><time>2026-04-26T08:15:11.547Z</time></trkpt><trkpt lat="43.7805583" lon="12.701035"><ele>121.25</ele><time>2026-04-26T08:15:12.546Z</time></trkpt><trkpt lat="43.7805733" lon="12.7008267"><ele>121.5</ele><time>2026-04-26T08:15:13.547Z</time></trkpt><trkpt lat="43.7805967" lon="12.7006233"><ele>121.75</ele><time>2026-04-26T08:15:14.547Z</time></trkpt><trkpt lat="43.780625" lon="12.70042"><ele>122.0</ele><time>2026-04-26T08:15:15.546Z</time></trkpt><trkpt lat="43.780655" lon="12.7002183"><ele>122.0</ele><time>2026-04-26T08:15:16.547Z</time></trkpt><trkpt lat="43.78069" lon="12.7000167"><ele>122.0</ele><time>2026-04-26T08:15:17.547Z</time></trkpt><trkpt lat="43.780725" lon="12.699815"><ele>122.0</ele><time>2026-04-26T08:15:18.546Z</time></trkpt><trkpt lat="43.7807633" lon="12.69961"><ele>122.33333333333333</ele><time>2026-04-26T08:15:19.546Z</time></trkpt><trkpt lat="43.780805" lon="12.6994017"><ele>122.66666666666666</ele><time>2026-04-26T08:15:20.547Z</time></trkpt><trkpt lat="43.7808433" lon="12.69919"><ele>123.0</ele><time>2026-04-26T08:15:21.547Z</time></trkpt><trkpt lat="43.780875" lon="12.6989767"><ele>123.0</ele><time>2026-04-26T08:15:22.546Z</time></trkpt><trkpt lat="43.780915" lon="12.6987583"><ele>123.0</ele><time>2026-04-26T08:15:23.546Z</time></trkpt><trkpt lat="43.7809583" lon="12.69855"><ele>123.0</ele><time>2026-04-26T08:15:24.546Z</time></trkpt><trkpt lat="43.7810033" lon="12.6983383"><ele>123.33333333333334</ele><time>2026-04-26T08:15:25.546Z</time></trkpt><trkpt lat="43.7810517" lon="12.6981167"><ele>123.66666666666667</ele><time>2026-04-26T08:15:26.546Z</time></trkpt><trkpt lat="43.7810917" lon="12.697895"><ele>124.0</ele><time>2026-04-26T08:15:27.547Z</time></trkpt><trkpt lat="43.78114" lon="12.6976667"><ele>124.0</ele><time>2026-04-26T08:15:28.546Z</time></trkpt><trkpt lat="43.781185" lon="12.6974417"><ele>124.0</ele><time>2026-04-26T08:15:29.547Z</time></trkpt><trkpt lat="43.7812317" lon="12.6972183"><ele>124.0</ele><time>2026-04-26T08:15:30.547Z</time></trkpt><trkpt lat="43.7812767" lon="12.696995"><ele>123.33333333333334</ele><time>2026-04-26T08:15:31.546Z</time></trkpt><trkpt lat="43.781315" lon="12.6967783"><ele>122.66666666666666</ele><time>2026-04-26T08:15:32.546Z</time></trkpt><trkpt lat="43.7813533" lon="12.6965717"><ele>122.0</ele><time>2026-04-26T08:15:33.547Z</time></trkpt><trkpt lat="43.7813933" lon="12.6963733"><ele>122.0</ele><time>2026-04-26T08:15:34.547Z</time></trkpt><trkpt lat="43.7814317" lon="12.6961783"><ele>122.0</ele><time>2026-04-26T08:15:35.547Z</time></trkpt><trkpt lat="43.7814717" lon="12.695985"><ele>122.0</ele><time>2026-04-26T08:15:36.547Z</time></trkpt><trkpt lat="43.7815117" lon="12.6958"><ele>122.0</ele><time>2026-04-26T08:15:37.547Z</time></trkpt><trkpt lat="43.7815483" lon="12.695615"><ele>122.5</ele><time>2026-04-26T08:15:38.547Z</time></trkpt><trkpt lat="43.781585" lon="12.6954283"><ele>123.0</ele><time>2026-04-26T08:15:39.547Z</time></trkpt><trkpt lat="43.7816233" lon="12.69524"><ele>123.5</ele><time>2026-04-26T08:15:40.546Z</time></trkpt><trkpt lat="43.7816617" lon="12.6950483"><ele>124.0</ele><time>2026-04-26T08:15:41.547Z</time></trkpt><trkpt lat="43.7817" lon="12.6948533"><ele>124.0</ele><time>2026-04-26T08:15:42.547Z</time></trkpt><trkpt lat="43.781735" lon="12.6946567"><ele>124.0</ele><time>2026-04-26T08:15:43.546Z</time></trkpt><trkpt lat="43.78177" lon="12.6944567"><ele>124.0</ele><time>2026-04-26T08:15:44.547Z</time></trkpt><trkpt lat="43.7818067" lon="12.694255"><ele>124.0</ele><time>2026-04-26T08:15:45.547Z</time></trkpt><trkpt lat="43.7818467" lon="12.6940567"><ele>126.0</ele><time>2026-04-26T08:15:46.546Z</time></trkpt><trkpt lat="43.781885" lon="12.6938667"><ele>128.0</ele><time>2026-04-26T08:15:47.546Z</time></trkpt><trkpt lat="43.7819217" lon="12.69368"><ele>130.0</ele><time>2026-04-26T08:15:48.547Z</time></trkpt><trkpt lat="43.7819617" lon="12.69348"><ele>132.0</ele><time>2026-04-26T08:15:49.546Z</time></trkpt><trkpt lat="43.7819967" lon="12.6932833"><ele>132.0</ele><time>2026-04-26T08:15:50.547Z</time></trkpt><trkpt lat="43.7820283" lon="12.693075"><ele>132.0</ele><time>2026-04-26T08:15:51.547Z</time></trkpt><trkpt lat="43.7820567" lon="12.69286"><ele>132.0</ele><time>2026-04-26T08:15:52.547Z</time></trkpt><trkpt lat="43.7820767" lon="12.6926467"><ele>132.0</ele><time>2026-04-26T08:15:53.546Z</time></trkpt><trkpt lat="43.78209" lon="12.69243"><ele>132.0</ele><time>2026-04-26T08:15:54.547Z</time></trkpt><trkpt lat="43.7820983" lon="12.6922033"><ele>132.0</ele><time>2026-04-26T08:15:55.547Z</time></trkpt><trkpt lat="43.7820967" lon="12.6919783"><ele>133.66666666666666</ele><time>2026-04-26T08:15:56.546Z</time></trkpt><trkpt lat="43.782085" lon="12.6917617"><ele>135.33333333333331</ele><time>2026-04-26T08:15:57.547Z</time></trkpt><trkpt lat="43.7820667" lon="12.6915517"><ele>137.0</ele><time>2026-04-26T08:15:58.547Z</time></trkpt><trkpt lat="43.7820467" lon="12.6913467"><ele>137.0</ele><time>2026-04-26T08:15:59.547Z</time></trkpt><trkpt lat="43.7820133" lon="12.6911467"><ele>137.0</ele><time>2026-04-26T08:16:00.547Z</time></trkpt><trkpt lat="43.7819717" lon="12.6909567"><ele>137.0</ele><time>2026-04-26T08:16:01.547Z</time></trkpt><trkpt lat="43.7819267" lon="12.69077"><ele>137.0</ele><time>2026-04-26T08:16:02.547Z</time></trkpt><trkpt lat="43.781885" lon="12.6905967"><ele>134.25</ele><time>2026-04-26T08:16:03.546Z</time></trkpt><trkpt lat="43.7818417" lon="12.6904333"><ele>131.5</ele><time>2026-04-26T08:16:04.546Z</time></trkpt><trkpt lat="43.7818083" lon="12.6902667"><ele>128.75</ele><time>2026-04-26T08:16:05.547Z</time></trkpt><trkpt lat="43.7817683" lon="12.6901083"><ele>126.0</ele><time>2026-04-26T08:16:06.546Z</time></trkpt><trkpt lat="43.7817267" lon="12.6899517"><ele>126.0</ele><time>2026-04-26T08:16:07.547Z</time></trkpt><trkpt lat="43.7816833" lon="12.6898"><ele>126.0</ele><time>2026-04-26T08:16:08.547Z</time></trkpt><trkpt lat="43.7816383" lon="12.68965"><ele>126.0</ele><time>2026-04-26T08:16:09.547Z</time></trkpt><trkpt lat="43.7815933" lon="12.6894933"><ele>126.0</ele><time>2026-04-26T08:16:10.547Z</time></trkpt><trkpt lat="43.7815383" lon="12.6893367"><ele>127.0</ele><time>2026-04-26T08:16:11.547Z</time></trkpt><trkpt lat="43.7814783" lon="12.6891783"><ele>128.0</ele><time>2026-04-26T08:16:12.546Z</time></trkpt><trkpt lat="43.7814133" lon="12.6890217"><ele>129.0</ele><time>2026-04-26T08:16:13.547Z</time></trkpt><trkpt lat="43.7813383" lon="12.6888633"><ele>130.0</ele><time>2026-04-26T08:16:14.547Z</time></trkpt><trkpt lat="43.7812583" lon="12.6887083"><ele>129.5</ele><time>2026-04-26T08:16:15.547Z</time></trkpt><trkpt lat="43.7811767" lon="12.68855"><ele>129.0</ele><time>2026-04-26T08:16:16.547Z</time></trkpt><trkpt lat="43.78109" lon="12.6883983"><ele>128.5</ele><time>2026-04-26T08:16:17.547Z</time></trkpt><trkpt lat="43.7809983" lon="12.68825"><ele>128.0</ele><time>2026-04-26T08:16:18.547Z</time></trkpt><trkpt lat="43.78091" lon="12.6880967"><ele>128.0</ele><time>2026-04-26T08:16:19.547Z</time></trkpt><trkpt lat="43.780815" lon="12.6879567"><ele>128.0</ele><time>2026-04-26T08:16:20.547Z</time></trkpt><trkpt lat="43.7807167" lon="12.687815"><ele>128.0</ele><time>2026-04-26T08:16:21.547Z</time></trkpt><trkpt lat="43.7806133" lon="12.68769"><ele>128.0</ele><time>2026-04-26T08:16:22.547Z</time></trkpt><trkpt lat="43.7805033" lon="12.6875717"><ele>128.25</ele><time>2026-04-26T08:16:23.546Z</time></trkpt><trkpt lat="43.78039" lon="12.6874633"><ele>128.5</ele><time>2026-04-26T08:16:24.547Z</time></trkpt><trkpt lat="43.780275" lon="12.6873717"><ele>128.75</ele><time>2026-04-26T08:16:25.547Z</time></trkpt><trkpt lat="43.7801617" lon="12.6872933"><ele>129.0</ele><time>2026-04-26T08:16:26.546Z</time></trkpt><trkpt lat="43.7800567" lon="12.68723"><ele>129.0</ele><time>2026-04-26T08:16:27.547Z</time></trkpt><trkpt lat="43.7799583" lon="12.6871783"><ele>129.0</ele><time>2026-04-26T08:16:28.546Z</time></trkpt><trkpt lat="43.77988" lon="12.6871433"><ele>129.0</ele><time>2026-04-26T08:16:29.546Z</time></trkpt><trkpt lat="43.7798167" lon="12.6871433"><ele>129.0</ele><time>2026-04-26T08:16:30.547Z</time></trkpt><trkpt lat="43.779735" lon="12.6872433"><ele>129.0</ele><time>2026-04-26T08:16:32.546Z</time></trkpt><trkpt lat="43.779705" lon="12.6873267"><ele>129.0</ele><time>2026-04-26T08:16:33.547Z</time></trkpt><trkpt lat="43.7796733" lon="12.6874267"><ele>129.0</ele><time>2026-04-26T08:16:34.546Z</time></trkpt><trkpt lat="43.7796333" lon="12.68755"><ele>129.0</ele><time>2026-04-26T08:16:35.547Z</time></trkpt><trkpt lat="43.7795867" lon="12.6876733"><ele>129.0</ele><time>2026-04-26T08:16:36.547Z</time></trkpt><trkpt lat="43.7795467" lon="12.6877883"><ele>129.0</ele><time>2026-04-26T08:16:37.547Z</time></trkpt><trkpt lat="43.77952" lon="12.687875"><ele>129.0</ele><time>2026-04-26T08:16:38.547Z</time></trkpt><trkpt lat="43.7794667" lon="12.687975"><ele>129.0</ele><time>2026-04-26T08:16:40.547Z</time></trkpt><trkpt lat="43.7794483" lon="12.6880717"><ele>129.6</ele><time>2026-04-26T08:16:43.547Z</time></trkpt><trkpt lat="43.7795533" lon="12.6881333"><ele>130.2</ele><time>2026-04-26T08:17:04.547Z</time></trkpt><trkpt lat="43.7796217" lon="12.6881517"><ele>130.79999999999998</ele><time>2026-04-26T08:17:05.546Z</time></trkpt><trkpt lat="43.7797067" lon="12.6881583"><ele>131.4</ele><time>2026-04-26T08:17:06.547Z</time></trkpt><trkpt lat="43.7798017" lon="12.688165"><ele>132.0</ele><time>2026-04-26T08:17:07.546Z</time></trkpt><trkpt lat="43.779895" lon="12.68818"><ele>132.0</ele><time>2026-04-26T08:17:08.547Z</time></trkpt><trkpt lat="43.779975" lon="12.6882083"><ele>132.0</ele><time>2026-04-26T08:17:09.547Z</time></trkpt><trkpt lat="43.7800383" lon="12.6882533"><ele>132.0</ele><time>2026-04-26T08:17:10.547Z</time></trkpt><trkpt lat="43.7800833" lon="12.688315"><ele>132.0</ele><time>2026-04-26T08:17:11.546Z</time></trkpt><trkpt lat="43.7801133" lon="12.6884417"><ele>132.0</ele><time>2026-04-26T08:17:13.546Z</time></trkpt><trkpt lat="43.780065" lon="12.6885533"><ele>132.0</ele><time>2026-04-26T08:17:15.547Z</time></trkpt><trkpt lat="43.7799367" lon="12.6885833"><ele>132.0</ele><time>2026-04-26T08:17:17.547Z</time></trkpt><trkpt lat="43.7798633" lon="12.68857"><ele>132.0</ele><time>2026-04-26T08:17:18.547Z</time></trkpt><trkpt lat="43.7798017" lon="12.68855"><ele>132.0</ele><time>2026-04-26T08:17:19.547Z</time></trkpt><trkpt lat="43.7797233" lon="12.6885183"><ele>132.0</ele><time>2026-04-26T08:17:21.547Z</time></trkpt><trkpt lat="43.7796367" lon="12.6884867"><ele>132.0</ele><time>2026-04-26T08:17:24.546Z</time></trkpt><trkpt lat="43.7794933" lon="12.68848"><ele>132.0</ele><time>2026-04-26T08:17:26.547Z</time></trkpt><trkpt lat="43.7794017" lon="12.6884883"><ele>132.0</ele><time>2026-04-26T08:17:27.547Z</time></trkpt><trkpt lat="43.7793067" lon="12.6885117"><ele>132.0</ele><time>2026-04-26T08:17:28.547Z</time></trkpt><trkpt lat="43.7792317" lon="12.688555"><ele>132.0</ele><time>2026-04-26T08:17:29.547Z</time></trkpt><trkpt lat="43.77917" lon="12.688615"><ele>132.0</ele><time>2026-04-26T08:17:30.547Z</time></trkpt><trkpt lat="43.7791167" lon="12.6887017"><ele>132.0</ele><time>2026-04-26T08:17:31.546Z</time></trkpt><trkpt lat="43.7790767" lon="12.6888067"><ele>134.5</ele><time>2026-04-26T08:17:32.547Z</time></trkpt><trkpt lat="43.7790633" lon="12.6889167"><ele>137.0</ele><time>2026-04-26T08:17:33.547Z</time></trkpt><trkpt lat="43.779075" lon="12.6890183"><ele>139.5</ele><time>2026-04-26T08:17:34.547Z</time></trkpt><trkpt lat="43.779105" lon="12.6891233"><ele>142.0</ele><time>2026-04-26T08:17:35.547Z</time></trkpt><trkpt lat="43.779145" lon="12.6892383"><ele>144.5</ele><time>2026-04-26T08:17:36.547Z</time></trkpt><trkpt lat="43.7791983" lon="12.6893683"><ele>147.0</ele><time>2026-04-26T08:17:37.547Z</time></trkpt><trkpt lat="43.77926" lon="12.6895117"><ele>147.16666666666666</ele><time>2026-04-26T08:17:38.547Z</time></trkpt><trkpt lat="43.77932" lon="12.6896483"><ele>147.33333333333334</ele><time>2026-04-26T08:17:39.547Z</time></trkpt><trkpt lat="43.7793667" lon="12.68977"><ele>147.5</ele><time>2026-04-26T08:17:40.547Z</time></trkpt><trkpt lat="43.7794067" lon="12.689865"><ele>147.66666666666669</ele><time>2026-04-26T08:17:41.547Z</time></trkpt><trkpt lat="43.7794533" lon="12.6899367"><ele>147.83333333333334</ele><time>2026-04-26T08:17:42.547Z</time></trkpt><trkpt lat="43.7795" lon="12.690015"><ele>148.0</ele><time>2026-04-26T08:17:43.547Z</time></trkpt><trkpt lat="43.7795467" lon="12.6901033"><ele>148.0</ele><time>2026-04-26T08:17:44.547Z</time></trkpt><trkpt lat="43.7795967" lon="12.6902133"><ele>148.0</ele><time>2026-04-26T08:17:45.547Z</time></trkpt><trkpt lat="43.7796433" lon="12.69033"><ele>148.0</ele><time>2026-04-26T08:17:46.547Z</time></trkpt><trkpt lat="43.7796783" lon="12.6904417"><ele>148.0</ele><time>2026-04-26T08:17:47.547Z</time></trkpt><trkpt lat="43.77969" lon="12.69056"><ele>148.0</ele><time>2026-04-26T08:17:48.547Z</time></trkpt><trkpt lat="43.7796933" lon="12.6906817"><ele>149.33333333333334</ele><time>2026-04-26T08:17:49.547Z</time></trkpt><trkpt lat="43.7797" lon="12.6908017"><ele>150.66666666666669</ele><time>2026-04-26T08:17:50.547Z</time></trkpt><trkpt lat="43.7797133" lon="12.690925"><ele>152.0</ele><time>2026-04-26T08:17:51.547Z</time></trkpt><trkpt lat="43.77973" lon="12.6910583"><ele>153.33333333333334</ele><time>2026-04-26T08:17:52.547Z</time></trkpt><trkpt lat="43.7797417" lon="12.6911867"><ele>154.66666666666666</ele><time>2026-04-26T08:17:53.546Z</time></trkpt><trkpt lat="43.77975" lon="12.6912983"><ele>156.0</ele><time>2026-04-26T08:17:54.547Z</time></trkpt><trkpt lat="43.77975" lon="12.6914033"><ele>156.0</ele><time>2026-04-26T08:17:55.547Z</time></trkpt><trkpt lat="43.779745" lon="12.6915083"><ele>156.0</ele><time>2026-04-26T08:17:56.546Z</time></trkpt><trkpt lat="43.779735" lon="12.6916233"><ele>156.0</ele><time>2026-04-26T08:17:57.547Z</time></trkpt><trkpt lat="43.77971" lon="12.6917417"><ele>156.0</ele><time>2026-04-26T08:17:58.547Z</time></trkpt><trkpt lat="43.7796767" lon="12.6918483"><ele>156.0</ele><time>2026-04-26T08:17:59.546Z</time></trkpt><trkpt lat="43.7796317" lon="12.6919383"><ele>156.0</ele><time>2026-04-26T08:18:00.547Z</time></trkpt><trkpt lat="43.7795833" lon="12.6920183"><ele>156.0</ele><time>2026-04-26T08:18:01.547Z</time></trkpt><trkpt lat="43.7795333" lon="12.6920783"><ele>156.0</ele><time>2026-04-26T08:18:02.547Z</time></trkpt><trkpt lat="43.7794733" lon="12.692125"><ele>156.0</ele><time>2026-04-26T08:18:03.547Z</time></trkpt><trkpt lat="43.779355" lon="12.6921783"><ele>156.0</ele><time>2026-04-26T08:18:05.547Z</time></trkpt><trkpt lat="43.7792917" lon="12.6921783"><ele>156.0</ele><time>2026-04-26T08:18:06.547Z</time></trkpt><trkpt lat="43.7792217" lon="12.6921667"><ele>156.0</ele><time>2026-04-26T08:18:07.547Z</time></trkpt><trkpt lat="43.77915" lon="12.692145"><ele>158.33333333333334</ele><time>2026-04-26T08:18:08.547Z</time></trkpt><trkpt lat="43.7790717" lon="12.6921067"><ele>160.66666666666666</ele><time>2026-04-26T08:18:09.547Z</time></trkpt><trkpt lat="43.778985" lon="12.6920633"><ele>163.0</ele><time>2026-04-26T08:18:10.547Z</time></trkpt><trkpt lat="43.7788983" lon="12.6920167"><ele>165.33333333333331</ele><time>2026-04-26T08:18:11.546Z</time></trkpt><trkpt lat="43.778815" lon="12.691975"><ele>167.66666666666666</ele><time>2026-04-26T08:18:12.546Z</time></trkpt><trkpt lat="43.7787333" lon="12.69194"><ele>170.0</ele><time>2026-04-26T08:18:13.547Z</time></trkpt><trkpt lat="43.7786433" lon="12.6919117"><ele>170.2</ele><time>2026-04-26T08:18:14.547Z</time></trkpt><trkpt lat="43.778545" lon="12.691885"><ele>170.4</ele><time>2026-04-26T08:18:15.547Z</time></trkpt><trkpt lat="43.7784333" lon="12.6918533"><ele>170.60000000000002</ele><time>2026-04-26T08:18:16.546Z</time></trkpt><trkpt lat="43.7783167" lon="12.69182"><ele>170.8</ele><time>2026-04-26T08:18:17.546Z</time></trkpt><trkpt lat="43.778205" lon="12.6917817"><ele>171.0</ele><time>2026-04-26T08:18:18.546Z</time></trkpt><trkpt lat="43.7780983" lon="12.691735"><ele>173.4</ele><time>2026-04-26T08:18:19.547Z</time></trkpt><trkpt lat="43.777995" lon="12.6916917"><ele>175.8</ele><time>2026-04-26T08:18:20.546Z</time></trkpt><trkpt lat="43.7778867" lon="12.6916517"><ele>178.20000000000002</ele><time>2026-04-26T08:18:21.546Z</time></trkpt><trkpt lat="43.7777717" lon="12.6916183"><ele>180.60000000000002</ele><time>2026-04-26T08:18:22.547Z</time></trkpt><trkpt lat="43.7776717" lon="12.69159"><ele>183.0</ele><time>2026-04-26T08:18:23.547Z</time></trkpt><trkpt lat="43.77758" lon="12.691565"><ele>185.2</ele><time>2026-04-26T08:18:24.547Z</time></trkpt><trkpt lat="43.77749" lon="12.6915433"><ele>187.4</ele><time>2026-04-26T08:18:25.547Z</time></trkpt><trkpt lat="43.7774017" lon="12.6915117"><ele>189.6</ele><time>2026-04-26T08:18:26.547Z</time></trkpt><trkpt lat="43.77731" lon="12.6914767"><ele>191.79999999999998</ele><time>2026-04-26T08:18:27.547Z</time></trkpt><trkpt lat="43.7772117" lon="12.6914433"><ele>194.0</ele><time>2026-04-26T08:18:28.547Z</time></trkpt><trkpt lat="43.7771017" lon="12.6914117"><ele>194.0</ele><time>2026-04-26T08:18:29.547Z</time></trkpt><trkpt lat="43.77699" lon="12.6913717"><ele>194.0</ele><time>2026-04-26T08:18:30.547Z</time></trkpt><trkpt lat="43.7768883" lon="12.691345"><ele>194.0</ele><time>2026-04-26T08:18:31.547Z</time></trkpt><trkpt lat="43.7767867" lon="12.691335"><ele>194.0</ele><time>2026-04-26T08:18:32.547Z</time></trkpt><trkpt lat="43.7766917" lon="12.69134"><ele>194.0</ele><time>2026-04-26T08:18:33.546Z</time></trkpt><trkpt lat="43.7766" lon="12.69137"><ele>197.0</ele><time>2026-04-26T08:18:34.547Z</time></trkpt><trkpt lat="43.776505" lon="12.6914267"><ele>200.0</ele><time>2026-04-26T08:18:35.547Z</time></trkpt><trkpt lat="43.7763917" lon="12.6915083"><ele>203.0</ele><time>2026-04-26T08:18:36.546Z</time></trkpt><trkpt lat="43.7762783" lon="12.691595"><ele>206.0</ele><time>2026-04-26T08:18:37.547Z</time></trkpt><trkpt lat="43.77618" lon="12.691665"><ele>206.0</ele><time>2026-04-26T08:18:38.547Z</time></trkpt><trkpt lat="43.776095" lon="12.6917367"><ele>206.0</ele><time>2026-04-26T08:18:39.547Z</time></trkpt><trkpt lat="43.776" lon="12.6917933"><ele>206.0</ele><time>2026-04-26T08:18:40.547Z</time></trkpt><trkpt lat="43.7758917" lon="12.691835"><ele>206.0</ele><time>2026-04-26T08:18:41.547Z</time></trkpt><trkpt lat="43.7757717" lon="12.6918667"><ele>206.0</ele><time>2026-04-26T08:18:42.547Z</time></trkpt><trkpt lat="43.775655" lon="12.6918917"><ele>207.60000000000002</ele><time>2026-04-26T08:18:43.547Z</time></trkpt><trkpt lat="43.7755433" lon="12.6919167"><ele>209.2</ele><time>2026-04-26T08:18:44.547Z</time></trkpt><trkpt lat="43.7754283" lon="12.6919267"><ele>210.79999999999998</ele><time>2026-04-26T08:18:45.546Z</time></trkpt><trkpt lat="43.775315" lon="12.69193"><ele>212.39999999999998</ele><time>2026-04-26T08:18:46.547Z</time></trkpt><trkpt lat="43.7752133" lon="12.6919367"><ele>214.0</ele><time>2026-04-26T08:18:47.547Z</time></trkpt><trkpt lat="43.7751267" lon="12.69195"><ele>216.6</ele><time>2026-04-26T08:18:48.547Z</time></trkpt><trkpt lat="43.7750533" lon="12.6919683"><ele>219.2</ele><time>2026-04-26T08:18:49.547Z</time></trkpt><trkpt lat="43.7749417" lon="12.692055"><ele>221.79999999999998</ele><time>2026-04-26T08:18:51.547Z</time></trkpt><trkpt lat="43.7748833" lon="12.6921033"><ele>224.39999999999998</ele><time>2026-04-26T08:18:52.547Z</time></trkpt><trkpt lat="43.774795" lon="12.6921983"><ele>227.0</ele><time>2026-04-26T08:18:54.547Z</time></trkpt><trkpt lat="43.77471" lon="12.6922833"><ele>227.0</ele><time>2026-04-26T08:18:56.546Z</time></trkpt><trkpt lat="43.774635" lon="12.6923583"><ele>227.0</ele><time>2026-04-26T08:18:58.547Z</time></trkpt><trkpt lat="43.7745367" lon="12.6924567"><ele>227.0</ele><time>2026-04-26T08:19:00.546Z</time></trkpt><trkpt lat="43.7744433" lon="12.6925733"><ele>227.0</ele><time>2026-04-26T08:19:02.547Z</time></trkpt><trkpt lat="43.7743617" lon="12.6926983"><ele>227.33333333333334</ele><time>2026-04-26T08:19:04.547Z</time></trkpt><trkpt lat="43.7742933" lon="12.6927783"><ele>227.66666666666669</ele><time>2026-04-26T08:19:06.547Z</time></trkpt><trkpt lat="43.7741983" lon="12.6928433"><ele>228.0</ele><time>2026-04-26T08:19:08.547Z</time></trkpt><trkpt lat="43.7741083" lon="12.69289"><ele>228.33333333333331</ele><time>2026-04-26T08:19:10.546Z</time></trkpt><trkpt lat="43.7740383" lon="12.6929333"><ele>228.66666666666666</ele><time>2026-04-26T08:19:12.547Z</time></trkpt><trkpt lat="43.7739767" lon="12.69297"><ele>229.0</ele><time>2026-04-26T08:19:14.547Z</time></trkpt><trkpt lat="43.773905" lon="12.6930233"><ele>229.0</ele><time>2026-04-26T08:20:53.547Z</time></trkpt><trkpt lat="43.7738483" lon="12.6930633"><ele>229.0</ele><time>2026-04-26T08:20:55.547Z</time></trkpt><trkpt lat="43.7737867" lon="12.6930933"><ele>229.0</ele><time>2026-04-26T08:20:57.546Z</time></trkpt><trkpt lat="43.7737017" lon="12.6931567"><ele>229.0</ele><time>2026-04-26T08:21:00.546Z</time></trkpt><trkpt lat="43.7736383" lon="12.6932133"><ele>229.0</ele><time>2026-04-26T08:21:02.547Z</time></trkpt><trkpt lat="43.7735883" lon="12.69328"><ele>229.0</ele><time>2026-04-26T08:21:04.546Z</time></trkpt><trkpt lat="43.773545" lon="12.6933433"><ele>229.0</ele><time>2026-04-26T08:21:06.546Z</time></trkpt><trkpt lat="43.773485" lon="12.693415"><ele>228.99999999999997</ele><time>2026-04-26T08:21:11.546Z</time></trkpt><trkpt lat="43.7734083" lon="12.6934617"><ele>229.0</ele><time>2026-04-26T08:21:14.546Z</time></trkpt><trkpt lat="43.7733483" lon="12.6934883"><ele>229.0</ele><time>2026-04-26T08:21:16.546Z</time></trkpt><trkpt lat="43.773275" lon="12.6935017"><ele>229.0</ele><time>2026-04-26T08:21:18.545Z</time></trkpt><trkpt lat="43.773185" lon="12.6934983"><ele>228.99999999999997</ele><time>2026-04-26T08:21:20.546Z</time></trkpt><trkpt lat="43.7730967" lon="12.693495"><ele>229.0</ele><time>2026-04-26T08:21:22.546Z</time></trkpt><trkpt lat="43.773" lon="12.6935"><ele>228.99999999999997</ele><time>2026-04-26T08:21:24.546Z</time></trkpt><trkpt lat="43.7729083" lon="12.693515"><ele>229.0</ele><time>2026-04-26T08:21:26.546Z</time></trkpt><trkpt lat="43.7728233" lon="12.6935517"><ele>229.0</ele><time>2026-04-26T08:21:28.546Z</time></trkpt><trkpt lat="43.7727517" lon="12.6936033"><ele>229.0</ele><time>2026-04-26T08:21:30.546Z</time></trkpt><trkpt lat="43.7726783" lon="12.69366"><ele>228.99999999999997</ele><time>2026-04-26T08:21:32.546Z</time></trkpt><trkpt lat="43.7725917" lon="12.693725"><ele>229.0</ele><time>2026-04-26T08:21:34.546Z</time></trkpt><trkpt lat="43.7725" lon="12.693785"><ele>227.99999999999997</ele><time>2026-04-26T08:21:36.546Z</time></trkpt><trkpt lat="43.772415" lon="12.6938533"><ele>227.0</ele><time>2026-04-26T08:21:38.546Z</time></trkpt><trkpt lat="43.7723283" lon="12.69391"><ele>226.0</ele><time>2026-04-26T08:21:40.546Z</time></trkpt><trkpt lat="43.77226" lon="12.6939517"><ele>225.0</ele><time>2026-04-26T08:21:42.545Z</time></trkpt><trkpt lat="43.77219" lon="12.69399"><ele>223.99999999999997</ele><time>2026-04-26T08:21:47.546Z</time></trkpt><trkpt lat="43.7721183" lon="12.6940233"><ele>223.0</ele><time>2026-04-26T08:21:50.546Z</time></trkpt><trkpt lat="43.7720433" lon="12.6940467"><ele>223.0</ele><time>2026-04-26T08:21:52.545Z</time></trkpt><trkpt lat="43.771945" lon="12.6940817"><ele>223.0</ele><time>2026-04-26T08:21:54.546Z</time></trkpt><trkpt lat="43.7718533" lon="12.6941067"><ele>223.0</ele><time>2026-04-26T08:21:56.545Z</time></trkpt><trkpt lat="43.771765" lon="12.6941317"><ele>223.0</ele><time>2026-04-26T08:21:58.546Z</time></trkpt><trkpt lat="43.77168" lon="12.69415"><ele>223.0</ele><time>2026-04-26T08:22:00.546Z</time></trkpt><trkpt lat="43.7715917" lon="12.69415"><ele>223.60000000000002</ele><time>2026-04-26T08:22:02.546Z</time></trkpt><trkpt lat="43.7715" lon="12.69414"><ele>224.20000000000002</ele><time>2026-04-26T08:22:04.546Z</time></trkpt><trkpt lat="43.7714083" lon="12.6941317"><ele>224.8</ele><time>2026-04-26T08:22:06.546Z</time></trkpt><trkpt lat="43.7713117" lon="12.6941383"><ele>225.4</ele><time>2026-04-26T08:22:08.546Z</time></trkpt><trkpt lat="43.7712183" lon="12.694145"><ele>226.0</ele><time>2026-04-26T08:22:10.546Z</time></trkpt><trkpt lat="43.7711067" lon="12.694165"><ele>225.8</ele><time>2026-04-26T08:22:12.545Z</time></trkpt><trkpt lat="43.7709967" lon="12.6941867"><ele>225.60000000000002</ele><time>2026-04-26T08:22:14.545Z</time></trkpt><trkpt lat="43.7708917" lon="12.694215"><ele>225.4</ele><time>2026-04-26T08:22:16.546Z</time></trkpt><trkpt lat="43.7707867" lon="12.6942533"><ele>225.2</ele><time>2026-04-26T08:22:18.545Z</time></trkpt><trkpt lat="43.7706867" lon="12.6943"><ele>225.0</ele><time>2026-04-26T08:22:20.545Z</time></trkpt><trkpt lat="43.7705783" lon="12.694345"><ele>225.0</ele><time>2026-04-26T08:22:22.546Z</time></trkpt><trkpt lat="43.7704667" lon="12.6943983"><ele>225.0</ele><time>2026-04-26T08:22:24.546Z</time></trkpt><trkpt lat="43.7703567" lon="12.6944517"><ele>225.0</ele><time>2026-04-26T08:22:26.545Z</time></trkpt><trkpt lat="43.77026" lon="12.6945017"><ele>225.0</ele><time>2026-04-26T08:22:28.546Z</time></trkpt><trkpt lat="43.7701667" lon="12.6945233"><ele>225.0</ele><time>2026-04-26T08:22:30.546Z</time></trkpt><trkpt lat="43.7700683" lon="12.69453"><ele>225.2</ele><time>2026-04-26T08:22:32.546Z</time></trkpt><trkpt lat="43.7699683" lon="12.694525"><ele>225.4</ele><time>2026-04-26T08:22:34.545Z</time></trkpt><trkpt lat="43.76987" lon="12.6945183"><ele>225.60000000000002</ele><time>2026-04-26T08:22:36.546Z</time></trkpt><trkpt lat="43.7697733" lon="12.694525"><ele>225.8</ele><time>2026-04-26T08:22:38.546Z</time></trkpt><trkpt lat="43.7696733" lon="12.69452"><ele>226.0</ele><time>2026-04-26T08:22:40.546Z</time></trkpt><trkpt lat="43.7695717" lon="12.69452"><ele>226.0</ele><time>2026-04-26T08:22:42.545Z</time></trkpt><trkpt lat="43.769485" lon="12.694515"><ele>226.00000000000003</ele><time>2026-04-26T08:22:44.546Z</time></trkpt><trkpt lat="43.7694033" lon="12.69452"><ele>226.00000000000003</ele><time>2026-04-26T08:22:46.546Z</time></trkpt><trkpt lat="43.7692967" lon="12.6945517"><ele>226.0</ele><time>2026-04-26T08:22:48.545Z</time></trkpt><trkpt lat="43.769185" lon="12.6946033"><ele>226.0</ele><time>2026-04-26T08:22:50.545Z</time></trkpt><trkpt lat="43.76909" lon="12.6946583"><ele>226.0</ele><time>2026-04-26T08:22:52.545Z</time></trkpt><trkpt lat="43.76901" lon="12.6947133"><ele>226.00000000000003</ele><time>2026-04-26T08:22:54.546Z</time></trkpt><trkpt lat="43.7689233" lon="12.6947717"><ele>226.00000000000003</ele><time>2026-04-26T08:22:56.546Z</time></trkpt><trkpt lat="43.7688167" lon="12.6948"><ele>226.0</ele><time>2026-04-26T08:22:58.545Z</time></trkpt><trkpt lat="43.7687083" lon="12.6948133"><ele>226.0</ele><time>2026-04-26T08:23:00.545Z</time></trkpt><trkpt lat="43.7685983" lon="12.69483"><ele>226.60000000000002</ele><time>2026-04-26T08:23:02.546Z</time></trkpt><trkpt lat="43.7684833" lon="12.694845"><ele>227.20000000000002</ele><time>2026-04-26T08:23:04.546Z</time></trkpt><trkpt lat="43.7683767" lon="12.6948633"><ele>227.79999999999998</ele><time>2026-04-26T08:23:06.546Z</time></trkpt><trkpt lat="43.7682683" lon="12.6948833"><ele>228.39999999999998</ele><time>2026-04-26T08:23:08.546Z</time></trkpt><trkpt lat="43.7681567" lon="12.6948767"><ele>229.0</ele><time>2026-04-26T08:23:10.545Z</time></trkpt><trkpt lat="43.7680467" lon="12.694835"><ele>229.0</ele><time>2026-04-26T08:23:12.545Z</time></trkpt><trkpt lat="43.7679367" lon="12.6947783"><ele>229.0</ele><time>2026-04-26T08:23:14.545Z</time></trkpt><trkpt lat="43.767825" lon="12.6947067"><ele>229.0</ele><time>2026-04-26T08:23:16.545Z</time></trkpt><trkpt lat="43.7677259" lon="12.694632"><ele>229.0</ele><time>2026-04-26T08:23:18.546Z</time></trkpt><trkpt lat="43.7676308" lon="12.6945666"><ele>228.2</ele><time>2026-04-26T08:23:20.545Z</time></trkpt><trkpt lat="43.7675314" lon="12.6945284"><ele>227.39999999999998</ele><time>2026-04-26T08:23:22.545Z</time></trkpt><trkpt lat="43.7674683" lon="12.6945175"><ele>226.6</ele><time>2026-04-26T08:23:23.545Z</time></trkpt><trkpt lat="43.7673484" lon="12.6944985"><ele>225.8</ele><time>2026-04-26T08:23:25.546Z</time></trkpt><trkpt lat="43.7672329" lon="12.6944794"><ele>225.0</ele><time>2026-04-26T08:23:27.546Z</time></trkpt><trkpt lat="43.7671669" lon="12.6944694"><ele>225.0</ele><time>2026-04-26T08:23:28.546Z</time></trkpt><trkpt lat="43.7671024" lon="12.6944578"><ele>225.0</ele><time>2026-04-26T08:23:29.545Z</time></trkpt><trkpt lat="43.7669894" lon="12.6944409"><ele>225.0</ele><time>2026-04-26T08:23:31.546Z</time></trkpt><trkpt lat="43.7668693" lon="12.6944198"><ele>225.0</ele><time>2026-04-26T08:23:33.546Z</time></trkpt><trkpt lat="43.7668007" lon="12.6944072"><ele>225.0</ele><time>2026-04-26T08:23:34.546Z</time></trkpt><trkpt lat="43.7667345" lon="12.6943964"><ele>225.0</ele><time>2026-04-26T08:23:35.546Z</time></trkpt><trkpt lat="43.7666679" lon="12.6943888"><ele>226.5714285714286</ele><time>2026-04-26T08:23:36.545Z</time></trkpt><trkpt lat="43.7666007" lon="12.6943857"><ele>228.14285714285717</ele><time>2026-04-26T08:23:37.545Z</time></trkpt><trkpt lat="43.7665321" lon="12.6943791"><ele>229.71428571428572</ele><time>2026-04-26T08:23:38.545Z</time></trkpt><trkpt lat="43.7664677" lon="12.694367"><ele>231.2857142857143</ele><time>2026-04-26T08:23:39.546Z</time></trkpt><trkpt lat="43.7664053" lon="12.6943518"><ele>232.8571428571429</ele><time>2026-04-26T08:23:40.545Z</time></trkpt><trkpt lat="43.7663401" lon="12.6943291"><ele>234.42857142857142</ele><time>2026-04-26T08:23:41.546Z</time></trkpt><trkpt lat="43.7662739" lon="12.6942995"><ele>236.0</ele><time>2026-04-26T08:23:42.546Z</time></trkpt><trkpt lat="43.7662076" lon="12.6942645"><ele>236.00000000000003</ele><time>2026-04-26T08:23:43.546Z</time></trkpt><trkpt lat="43.7661485" lon="12.6942289"><ele>236.0</ele><time>2026-04-26T08:23:44.545Z</time></trkpt><trkpt lat="43.7660308" lon="12.6941593"><ele>236.0</ele><time>2026-04-26T08:23:46.546Z</time></trkpt><trkpt lat="43.7659167" lon="12.6940877"><ele>236.0</ele><time>2026-04-26T08:23:48.545Z</time></trkpt><trkpt lat="43.7658604" lon="12.6940467"><ele>236.00000000000003</ele><time>2026-04-26T08:23:49.546Z</time></trkpt><trkpt lat="43.7658021" lon="12.6939991"><ele>236.0</ele><time>2026-04-26T08:23:50.546Z</time></trkpt><trkpt lat="43.7657419" lon="12.6939406"><ele>235.83333333333334</ele><time>2026-04-26T08:23:51.546Z</time></trkpt><trkpt lat="43.7656806" lon="12.6938798"><ele>235.66666666666669</ele><time>2026-04-26T08:23:52.545Z</time></trkpt><trkpt lat="43.7656207" lon="12.6938203"><ele>235.5</ele><time>2026-04-26T08:23:53.546Z</time></trkpt><trkpt lat="43.7655649" lon="12.6937638"><ele>235.33333333333331</ele><time>2026-04-26T08:23:54.546Z</time></trkpt><trkpt lat="43.7655098" lon="12.6937048"><ele>235.16666666666666</ele><time>2026-04-26T08:23:55.546Z</time></trkpt><trkpt lat="43.7654551" lon="12.6936566"><ele>235.0</ele><time>2026-04-26T08:23:56.546Z</time></trkpt><trkpt lat="43.7653347" lon="12.6936011"><ele>234.99999999999997</ele><time>2026-04-26T08:23:58.546Z</time></trkpt><trkpt lat="43.7652678" lon="12.6936"><ele>235.0</ele><time>2026-04-26T08:23:59.546Z</time></trkpt><trkpt lat="43.7651963" lon="12.6936233"><ele>235.0</ele><time>2026-04-26T08:24:00.545Z</time></trkpt><trkpt lat="43.7651203" lon="12.6936563"><ele>235.0</ele><time>2026-04-26T08:24:01.546Z</time></trkpt><trkpt lat="43.765037" lon="12.693695"><ele>234.99999999999997</ele><time>2026-04-26T08:24:02.545Z</time></trkpt><trkpt lat="43.764943" lon="12.6937327"><ele>235.0</ele><time>2026-04-26T08:24:03.545Z</time></trkpt><trkpt lat="43.7648447" lon="12.6937702"><ele>235.33333333333331</ele><time>2026-04-26T08:24:04.546Z</time></trkpt><trkpt lat="43.7647541" lon="12.6938032"><ele>235.66666666666666</ele><time>2026-04-26T08:24:05.546Z</time></trkpt><trkpt lat="43.7646702" lon="12.6938342"><ele>236.0</ele><time>2026-04-26T08:24:06.546Z</time></trkpt><trkpt lat="43.7645989" lon="12.6938643"><ele>236.33333333333331</ele><time>2026-04-26T08:24:07.545Z</time></trkpt><trkpt lat="43.764531" lon="12.693895"><ele>236.66666666666666</ele><time>2026-04-26T08:24:08.546Z</time></trkpt><trkpt lat="43.7644688" lon="12.6939232"><ele>237.0</ele><time>2026-04-26T08:24:09.546Z</time></trkpt><trkpt lat="43.7643619" lon="12.6939695"><ele>239.33333333333334</ele><time>2026-04-26T08:24:11.546Z</time></trkpt><trkpt lat="43.7642557" lon="12.6940288"><ele>241.66666666666669</ele><time>2026-04-26T08:24:13.546Z</time></trkpt><trkpt lat="43.7641955" lon="12.6940563"><ele>244.0</ele><time>2026-04-26T08:24:14.546Z</time></trkpt><trkpt lat="43.764131" lon="12.6940796"><ele>246.33333333333334</ele><time>2026-04-26T08:24:15.546Z</time></trkpt><trkpt lat="43.7640611" lon="12.6941067"><ele>248.66666666666669</ele><time>2026-04-26T08:24:16.546Z</time></trkpt><trkpt lat="43.7639864" lon="12.6941348"><ele>251.0</ele><time>2026-04-26T08:24:17.546Z</time></trkpt><trkpt lat="43.7639186" lon="12.6941609"><ele>251.00000000000003</ele><time>2026-04-26T08:24:18.546Z</time></trkpt><trkpt lat="43.7638534" lon="12.6941857"><ele>251.0</ele><time>2026-04-26T08:24:19.546Z</time></trkpt><trkpt lat="43.7637898" lon="12.6942055"><ele>251.0</ele><time>2026-04-26T08:24:20.546Z</time></trkpt><trkpt lat="43.7636872" lon="12.6942149"><ele>251.0</ele><time>2026-04-26T08:24:22.546Z</time></trkpt><trkpt lat="43.7636231" lon="12.6941635"><ele>251.00000000000003</ele><time>2026-04-26T08:24:24.546Z</time></trkpt><trkpt lat="43.7635617" lon="12.6940483"><ele>251.0</ele><time>2026-04-26T08:24:26.546Z</time></trkpt><trkpt lat="43.7635283" lon="12.69397"><ele>251.00000000000003</ele><time>2026-04-26T08:24:27.546Z</time></trkpt><trkpt lat="43.7634967" lon="12.6938833"><ele>251.0</ele><time>2026-04-26T08:24:28.546Z</time></trkpt><trkpt lat="43.76347" lon="12.6937917"><ele>251.0</ele><time>2026-04-26T08:24:29.546Z</time></trkpt><trkpt lat="43.76345" lon="12.693695"><ele>251.0</ele><time>2026-04-26T08:24:30.545Z</time></trkpt><trkpt lat="43.763435" lon="12.6935917"><ele>251.00000000000003</ele><time>2026-04-26T08:24:31.546Z</time></trkpt><trkpt lat="43.7634267" lon="12.6934967"><ele>251.0</ele><time>2026-04-26T08:24:32.546Z</time></trkpt><trkpt lat="43.7634083" lon="12.6933483"><ele>252.0</ele><time>2026-04-26T08:24:34.546Z</time></trkpt><trkpt lat="43.7633933" lon="12.6932083"><ele>253.00000000000003</ele><time>2026-04-26T08:24:36.546Z</time></trkpt><trkpt lat="43.76338" lon="12.693065"><ele>254.00000000000003</ele><time>2026-04-26T08:24:38.546Z</time></trkpt><trkpt lat="43.7633817" lon="12.6929167"><ele>255.0</ele><time>2026-04-26T08:24:40.546Z</time></trkpt><trkpt lat="43.7633933" lon="12.6927683"><ele>256.0</ele><time>2026-04-26T08:24:42.545Z</time></trkpt><trkpt lat="43.76338" lon="12.6926467"><ele>256.0</ele><time>2026-04-26T08:24:44.546Z</time></trkpt><trkpt lat="43.76333" lon="12.69256"><ele>256.0</ele><time>2026-04-26T08:24:46.546Z</time></trkpt><trkpt lat="43.763235" lon="12.6924983"><ele>256.0</ele><time>2026-04-26T08:24:48.546Z</time></trkpt><trkpt lat="43.7631" lon="12.6924533"><ele>256.0</ele><time>2026-04-26T08:24:50.546Z</time></trkpt><trkpt lat="43.7630167" lon="12.6924183"><ele>256.0</ele><time>2026-04-26T08:24:51.546Z</time></trkpt><trkpt lat="43.7629233" lon="12.6923767"><ele>255.99999999999997</ele><time>2026-04-26T08:24:52.546Z</time></trkpt><trkpt lat="43.7628267" lon="12.6923283"><ele>256.0</ele><time>2026-04-26T08:24:53.546Z</time></trkpt><trkpt lat="43.7627483" lon="12.69228"><ele>256.0</ele><time>2026-04-26T08:24:54.546Z</time></trkpt><trkpt lat="43.7626833" lon="12.6922383"><ele>256.0</ele><time>2026-04-26T08:24:55.546Z</time></trkpt><trkpt lat="43.7626183" lon="12.692195"><ele>255.99999999999997</ele><time>2026-04-26T08:24:56.545Z</time></trkpt><trkpt lat="43.7625433" lon="12.6921533"><ele>256.0</ele><time>2026-04-26T08:24:57.546Z</time></trkpt><trkpt lat="43.7624617" lon="12.6921117"><ele>257.40000000000003</ele><time>2026-04-26T08:24:58.546Z</time></trkpt><trkpt lat="43.76238" lon="12.6920633"><ele>258.8</ele><time>2026-04-26T08:24:59.546Z</time></trkpt><trkpt lat="43.7623" lon="12.6920117"><ele>260.20000000000005</ele><time>2026-04-26T08:25:00.546Z</time></trkpt><trkpt lat="43.762215" lon="12.6919467"><ele>261.6</ele><time>2026-04-26T08:25:01.546Z</time></trkpt><trkpt lat="43.7621283" lon="12.6918783"><ele>263.0</ele><time>2026-04-26T08:25:02.545Z</time></trkpt><trkpt lat="43.7620517" lon="12.691815"><ele>263.5</ele><time>2026-04-26T08:25:03.545Z</time></trkpt><trkpt lat="43.7619767" lon="12.691755"><ele>264.0</ele><time>2026-04-26T08:25:04.545Z</time></trkpt><trkpt lat="43.7619033" lon="12.6916917"><ele>264.5</ele><time>2026-04-26T08:25:05.546Z</time></trkpt><trkpt lat="43.7618283" lon="12.691625"><ele>265.0</ele><time>2026-04-26T08:25:06.546Z</time></trkpt><trkpt lat="43.761755" lon="12.691565"><ele>265.5</ele><time>2026-04-26T08:25:07.545Z</time></trkpt><trkpt lat="43.7616817" lon="12.6915"><ele>266.0</ele><time>2026-04-26T08:25:08.546Z</time></trkpt><trkpt lat="43.761615" lon="12.6914383"><ele>266.0</ele><time>2026-04-26T08:25:09.546Z</time></trkpt><trkpt lat="43.7615633" lon="12.6913833"><ele>266.0</ele><time>2026-04-26T08:25:10.546Z</time></trkpt><trkpt lat="43.7614767" lon="12.6913083"><ele>266.0</ele><time>2026-04-26T08:25:12.546Z</time></trkpt><trkpt lat="43.76137" lon="12.6913167"><ele>266.0</ele><time>2026-04-26T08:25:14.546Z</time></trkpt><trkpt lat="43.7612833" lon="12.6913867"><ele>266.0</ele><time>2026-04-26T08:25:16.546Z</time></trkpt><trkpt lat="43.7612317" lon="12.69145"><ele>266.0</ele><time>2026-04-26T08:25:18.546Z</time></trkpt><trkpt lat="43.7611817" lon="12.6915117"><ele>266.0</ele><time>2026-04-26T08:25:20.546Z</time></trkpt><trkpt lat="43.7610967" lon="12.6916117"><ele>266.0</ele><time>2026-04-26T08:25:22.545Z</time></trkpt><trkpt lat="43.761035" lon="12.691655"><ele>266.0</ele><time>2026-04-26T08:25:23.545Z</time></trkpt><trkpt lat="43.7609567" lon="12.6916933"><ele>266.0</ele><time>2026-04-26T08:25:24.546Z</time></trkpt><trkpt lat="43.7608733" lon="12.691725"><ele>266.0</ele><time>2026-04-26T08:25:25.546Z</time></trkpt><trkpt lat="43.7608033" lon="12.691745"><ele>266.0</ele><time>2026-04-26T08:25:26.545Z</time></trkpt><trkpt lat="43.7607167" lon="12.691745"><ele>267.40000000000003</ele><time>2026-04-26T08:25:28.546Z</time></trkpt><trkpt lat="43.7606433" lon="12.6917"><ele>268.8</ele><time>2026-04-26T08:25:30.546Z</time></trkpt><trkpt lat="43.76056" lon="12.691635"><ele>270.20000000000005</ele><time>2026-04-26T08:25:32.546Z</time></trkpt><trkpt lat="43.760465" lon="12.6915083"><ele>271.6</ele><time>2026-04-26T08:25:34.546Z</time></trkpt><trkpt lat="43.7604217" lon="12.6914333"><ele>273.0</ele><time>2026-04-26T08:25:35.546Z</time></trkpt><trkpt lat="43.7603417" lon="12.6913483"><ele>273.0</ele><time>2026-04-26T08:25:37.546Z</time></trkpt><trkpt lat="43.7602567" lon="12.691345"><ele>273.0</ele><time>2026-04-26T08:25:39.546Z</time></trkpt><trkpt lat="43.76015" lon="12.6913817"><ele>273.0</ele><time>2026-04-26T08:25:41.546Z</time></trkpt><trkpt lat="43.7600383" lon="12.69146"><ele>273.0</ele><time>2026-04-26T08:25:43.546Z</time></trkpt><trkpt lat="43.7599717" lon="12.6915083"><ele>273.0</ele><time>2026-04-26T08:25:44.546Z</time></trkpt><trkpt lat="43.7599033" lon="12.6915667"><ele>275.1666666666667</ele><time>2026-04-26T08:25:45.546Z</time></trkpt><trkpt lat="43.7598333" lon="12.691635"><ele>277.3333333333333</ele><time>2026-04-26T08:25:46.545Z</time></trkpt><trkpt lat="43.7597583" lon="12.6917017"><ele>279.5</ele><time>2026-04-26T08:25:47.546Z</time></trkpt><trkpt lat="43.759685" lon="12.6917667"><ele>281.66666666666663</ele><time>2026-04-26T08:25:48.545Z</time></trkpt><trkpt lat="43.7596117" lon="12.6918117"><ele>283.8333333333333</ele><time>2026-04-26T08:25:49.546Z</time></trkpt><trkpt lat="43.759525" lon="12.6918467"><ele>286.0</ele><time>2026-04-26T08:25:50.546Z</time></trkpt><trkpt lat="43.7594367" lon="12.6918783"><ele>286.0</ele><time>2026-04-26T08:25:51.546Z</time></trkpt><trkpt lat="43.7593367" lon="12.691915"><ele>286.0</ele><time>2026-04-26T08:25:52.545Z</time></trkpt><trkpt lat="43.75924" lon="12.6919483"><ele>286.0</ele><time>2026-04-26T08:25:53.546Z</time></trkpt><trkpt lat="43.7591533" lon="12.6919683"><ele>286.0</ele><time>2026-04-26T08:25:54.546Z</time></trkpt><trkpt lat="43.7590833" lon="12.6919817"><ele>286.0</ele><time>2026-04-26T08:25:55.546Z</time></trkpt><trkpt lat="43.7590167" lon="12.691985"><ele>286.0</ele><time>2026-04-26T08:25:56.546Z</time></trkpt><trkpt lat="43.758955" lon="12.6919667"><ele>290.0</ele><time>2026-04-26T08:25:57.546Z</time></trkpt><trkpt lat="43.7588467" lon="12.6918867"><ele>294.0</ele><time>2026-04-26T08:25:59.546Z</time></trkpt><trkpt lat="43.75879" lon="12.6918233"><ele>298.0</ele><time>2026-04-26T08:26:00.545Z</time></trkpt><trkpt lat="43.7587217" lon="12.6917483"><ele>302.0</ele><time>2026-04-26T08:26:01.545Z</time></trkpt><trkpt lat="43.7586467" lon="12.691675"><ele>306.0</ele><time>2026-04-26T08:26:02.546Z</time></trkpt><trkpt lat="43.7585617" lon="12.691575"><ele>307.8</ele><time>2026-04-26T08:26:03.545Z</time></trkpt><trkpt lat="43.7584717" lon="12.691485"><ele>309.6</ele><time>2026-04-26T08:26:04.546Z</time></trkpt><trkpt lat="43.7583767" lon="12.6913933"><ele>311.4</ele><time>2026-04-26T08:26:05.546Z</time></trkpt><trkpt lat="43.7582867" lon="12.6913017"><ele>313.2</ele><time>2026-04-26T08:26:06.546Z</time></trkpt><trkpt lat="43.7582017" lon="12.6912133"><ele>315.0</ele><time>2026-04-26T08:26:07.546Z</time></trkpt><trkpt lat="43.7581233" lon="12.69112"><ele>317.6</ele><time>2026-04-26T08:26:08.546Z</time></trkpt><trkpt lat="43.758035" lon="12.6910283"><ele>320.2</ele><time>2026-04-26T08:26:09.546Z</time></trkpt><trkpt lat="43.7579417" lon="12.6909583"><ele>322.79999999999995</ele><time>2026-04-26T08:26:10.546Z</time></trkpt><trkpt lat="43.7578533" lon="12.6909117"><ele>325.4</ele><time>2026-04-26T08:26:11.546Z</time></trkpt><trkpt lat="43.7577717" lon="12.6908683"><ele>328.0</ele><time>2026-04-26T08:26:12.546Z</time></trkpt><trkpt lat="43.7576967" lon="12.6908217"><ele>328.0</ele><time>2026-04-26T08:26:13.546Z</time></trkpt><trkpt lat="43.7576183" lon="12.6907733"><ele>328.0</ele><time>2026-04-26T08:26:14.546Z</time></trkpt><trkpt lat="43.7575417" lon="12.6907333"><ele>328.0</ele><time>2026-04-26T08:26:15.546Z</time></trkpt><trkpt lat="43.75748" lon="12.690695"><ele>328.0</ele><time>2026-04-26T08:26:16.546Z</time></trkpt><trkpt lat="43.7574433" lon="12.690615"><ele>328.0</ele><time>2026-04-26T08:26:19.545Z</time></trkpt><trkpt lat="43.75748" lon="12.6905333"><ele>328.0</ele><time>2026-04-26T08:26:21.545Z</time></trkpt><trkpt lat="43.7575567" lon="12.6904233"><ele>328.0</ele><time>2026-04-26T08:26:23.546Z</time></trkpt><trkpt lat="43.7576133" lon="12.6903617"><ele>328.0</ele><time>2026-04-26T08:26:25.546Z</time></trkpt><trkpt lat="43.7576683" lon="12.69025"><ele>328.0</ele><time>2026-04-26T08:31:55.544Z</time></trkpt><trkpt lat="43.7577167" lon="12.6901733"><ele>328.0</ele><time>2026-04-26T08:31:58.545Z</time></trkpt><trkpt lat="43.7577767" lon="12.6900983"><ele>328.0</ele><time>2026-04-26T08:32:01.544Z</time></trkpt><trkpt lat="43.7578417" lon="12.6900183"><ele>328.0</ele><time>2026-04-26T08:32:04.544Z</time></trkpt><trkpt lat="43.75789" lon="12.68995"><ele>329.1428571428571</ele><time>2026-04-26T08:32:06.544Z</time></trkpt><trkpt lat="43.7579417" lon="12.6898967"><ele>330.2857142857143</ele><time>2026-04-26T08:32:08.545Z</time></trkpt><trkpt lat="43.7580117" lon="12.68981"><ele>331.42857142857144</ele><time>2026-04-26T08:32:11.544Z</time></trkpt><trkpt lat="43.75806" lon="12.6897467"><ele>332.57142857142856</ele><time>2026-04-26T08:32:13.545Z</time></trkpt><trkpt lat="43.75811" lon="12.6896767"><ele>333.7142857142857</ele><time>2026-04-26T08:32:15.545Z</time></trkpt><trkpt lat="43.75816" lon="12.689615"><ele>334.85714285714283</ele><time>2026-04-26T08:32:17.545Z</time></trkpt><trkpt lat="43.7582033" lon="12.6895367"><ele>336.0</ele><time>2026-04-26T08:32:19.544Z</time></trkpt><trkpt lat="43.7582483" lon="12.68944"><ele>334.6</ele><time>2026-04-26T08:32:21.544Z</time></trkpt><trkpt lat="43.7582983" lon="12.6893133"><ele>333.20000000000005</ele><time>2026-04-26T08:32:23.545Z</time></trkpt><trkpt lat="43.7583367" lon="12.6891733"><ele>331.79999999999995</ele><time>2026-04-26T08:32:25.545Z</time></trkpt><trkpt lat="43.7583467" lon="12.688995"><ele>330.4</ele><time>2026-04-26T08:32:27.545Z</time></trkpt><trkpt lat="43.7583333" lon="12.6888867"><ele>329.0</ele><time>2026-04-26T08:32:28.544Z</time></trkpt><trkpt lat="43.758305" lon="12.6887767"><ele>329.0</ele><time>2026-04-26T08:32:29.545Z</time></trkpt><trkpt lat="43.7582633" lon="12.6886467"><ele>329.0</ele><time>2026-04-26T08:32:30.545Z</time></trkpt><trkpt lat="43.7582067" lon="12.68851"><ele>329.0</ele><time>2026-04-26T08:32:31.545Z</time></trkpt><trkpt lat="43.75815" lon="12.6883667"><ele>329.0</ele><time>2026-04-26T08:32:32.545Z</time></trkpt><trkpt lat="43.7581067" lon="12.6882233"><ele>329.0</ele><time>2026-04-26T08:32:33.545Z</time></trkpt><trkpt lat="43.7580633" lon="12.68808"><ele>327.0</ele><time>2026-04-26T08:32:34.544Z</time></trkpt><trkpt lat="43.7580217" lon="12.68794"><ele>325.0</ele><time>2026-04-26T08:32:35.544Z</time></trkpt><trkpt lat="43.7579817" lon="12.6877817"><ele>323.0</ele><time>2026-04-26T08:32:36.544Z</time></trkpt><trkpt lat="43.75793" lon="12.6876233"><ele>321.0</ele><time>2026-04-26T08:32:37.544Z</time></trkpt><trkpt lat="43.75788" lon="12.6874583"><ele>319.75</ele><time>2026-04-26T08:32:38.544Z</time></trkpt><trkpt lat="43.757825" lon="12.687295"><ele>318.5</ele><time>2026-04-26T08:32:39.544Z</time></trkpt><trkpt lat="43.7577683" lon="12.6871367"><ele>317.25</ele><time>2026-04-26T08:32:40.544Z</time></trkpt><trkpt lat="43.75772" lon="12.6869867"><ele>316.0</ele><time>2026-04-26T08:32:41.544Z</time></trkpt><trkpt lat="43.7576667" lon="12.6868333"><ele>316.0</ele><time>2026-04-26T08:32:42.544Z</time></trkpt><trkpt lat="43.7576183" lon="12.6866683"><ele>316.0</ele><time>2026-04-26T08:32:43.544Z</time></trkpt><trkpt lat="43.757575" lon="12.6864867"><ele>316.0</ele><time>2026-04-26T08:32:44.544Z</time></trkpt><trkpt lat="43.75755" lon="12.6862967"><ele>316.0</ele><time>2026-04-26T08:32:45.543Z</time></trkpt><trkpt lat="43.75752" lon="12.68611"><ele>315.5</ele><time>2026-04-26T08:32:46.544Z</time></trkpt><trkpt lat="43.7574933" lon="12.68592"><ele>315.0</ele><time>2026-04-26T08:32:47.544Z</time></trkpt><trkpt lat="43.7574767" lon="12.6857433"><ele>314.5</ele><time>2026-04-26T08:32:48.544Z</time></trkpt><trkpt lat="43.75747" lon="12.685585"><ele>314.0</ele><time>2026-04-26T08:32:49.544Z</time></trkpt><trkpt lat="43.7574833" lon="12.685435"><ele>314.0</ele><time>2026-04-26T08:32:50.544Z</time></trkpt><trkpt lat="43.757515" lon="12.6852817"><ele>314.0</ele><time>2026-04-26T08:32:51.544Z</time></trkpt><trkpt lat="43.7575683" lon="12.6851267"><ele>314.0</ele><time>2026-04-26T08:32:52.544Z</time></trkpt><trkpt lat="43.757625" lon="12.6849667"><ele>314.0</ele><time>2026-04-26T08:32:53.543Z</time></trkpt><trkpt lat="43.7576983" lon="12.6848117"><ele>315.25</ele><time>2026-04-26T08:32:54.544Z</time></trkpt><trkpt lat="43.757785" lon="12.6846667"><ele>316.5</ele><time>2026-04-26T08:32:55.543Z</time></trkpt><trkpt lat="43.7578917" lon="12.6845333"><ele>317.75</ele><time>2026-04-26T08:32:56.544Z</time></trkpt><trkpt lat="43.7580067" lon="12.684415"><ele>319.0</ele><time>2026-04-26T08:32:57.544Z</time></trkpt><trkpt lat="43.758115" lon="12.6843067"><ele>319.0</ele><time>2026-04-26T08:32:58.544Z</time></trkpt><trkpt lat="43.758205" lon="12.6842233"><ele>319.0</ele><time>2026-04-26T08:32:59.544Z</time></trkpt><trkpt lat="43.7582983" lon="12.6841667"><ele>319.0</ele><time>2026-04-26T08:33:00.544Z</time></trkpt><trkpt lat="43.7583867" lon="12.6841433"><ele>319.0</ele><time>2026-04-26T08:33:01.544Z</time></trkpt><trkpt lat="43.7584833" lon="12.6841367"><ele>319.0</ele><time>2026-04-26T08:33:02.544Z</time></trkpt><trkpt lat="43.7585983" lon="12.6841833"><ele>318.0</ele><time>2026-04-26T08:33:03.544Z</time></trkpt><trkpt lat="43.7587017" lon="12.6842117"><ele>317.0</ele><time>2026-04-26T08:33:04.544Z</time></trkpt><trkpt lat="43.7588117" lon="12.68424"><ele>316.0</ele><time>2026-04-26T08:33:05.544Z</time></trkpt><trkpt lat="43.7589233" lon="12.6842667"><ele>315.0</ele><time>2026-04-26T08:33:06.544Z</time></trkpt><trkpt lat="43.7590333" lon="12.6842967"><ele>314.0</ele><time>2026-04-26T08:33:07.544Z</time></trkpt><trkpt lat="43.759145" lon="12.6843333"><ele>314.0</ele><time>2026-04-26T08:33:08.543Z</time></trkpt><trkpt lat="43.75925" lon="12.6843833"><ele>314.0</ele><time>2026-04-26T08:33:09.544Z</time></trkpt><trkpt lat="43.7593583" lon="12.6844267"><ele>314.0</ele><time>2026-04-26T08:33:10.544Z</time></trkpt><trkpt lat="43.7594667" lon="12.6844733"><ele>314.0</ele><time>2026-04-26T08:33:11.544Z</time></trkpt><trkpt lat="43.7595733" lon="12.6844967"><ele>314.0</ele><time>2026-04-26T08:33:12.544Z</time></trkpt><trkpt lat="43.759665" lon="12.6844967"><ele>314.1666666666667</ele><time>2026-04-26T08:33:13.544Z</time></trkpt><trkpt lat="43.7597467" lon="12.6844767"><ele>314.33333333333337</ele><time>2026-04-26T08:33:14.544Z</time></trkpt><trkpt lat="43.75981" lon="12.6844267"><ele>314.5</ele><time>2026-04-26T08:33:15.543Z</time></trkpt><trkpt lat="43.7598483" lon="12.6843417"><ele>314.6666666666667</ele><time>2026-04-26T08:33:16.544Z</time></trkpt><trkpt lat="43.759855" lon="12.6842367"><ele>314.8333333333333</ele><time>2026-04-26T08:33:17.543Z</time></trkpt><trkpt lat="43.7598367" lon="12.684105"><ele>315.0</ele><time>2026-04-26T08:33:18.544Z</time></trkpt><trkpt lat="43.75977" lon="12.6839617"><ele>315.0</ele><time>2026-04-26T08:33:19.544Z</time></trkpt><trkpt lat="43.7596783" lon="12.683785"><ele>315.0</ele><time>2026-04-26T08:33:20.544Z</time></trkpt><trkpt lat="43.75957" lon="12.6836067"><ele>315.0</ele><time>2026-04-26T08:33:21.544Z</time></trkpt><trkpt lat="43.7594617" lon="12.6834433"><ele>310.6666666666667</ele><time>2026-04-26T08:33:22.544Z</time></trkpt><trkpt lat="43.759355" lon="12.6832817"><ele>306.33333333333337</ele><time>2026-04-26T08:33:23.544Z</time></trkpt><trkpt lat="43.7592467" lon="12.6831267"><ele>302.0</ele><time>2026-04-26T08:33:24.544Z</time></trkpt><trkpt lat="43.7591317" lon="12.68297"><ele>302.0</ele><time>2026-04-26T08:33:25.543Z</time></trkpt><trkpt lat="43.7590133" lon="12.6828217"><ele>302.0</ele><time>2026-04-26T08:33:26.544Z</time></trkpt><trkpt lat="43.7588967" lon="12.6826733"><ele>302.0</ele><time>2026-04-26T08:33:27.544Z</time></trkpt><trkpt lat="43.7587733" lon="12.6825233"><ele>303.33333333333337</ele><time>2026-04-26T08:33:28.543Z</time></trkpt><trkpt lat="43.758655" lon="12.682365"><ele>304.6666666666667</ele><time>2026-04-26T08:33:29.543Z</time></trkpt><trkpt lat="43.7585367" lon="12.68221"><ele>306.0</ele><time>2026-04-26T08:33:30.544Z</time></trkpt><trkpt lat="43.7584183" lon="12.6820567"><ele>298.3333333333333</ele><time>2026-04-26T08:33:31.544Z</time></trkpt><trkpt lat="43.7583" lon="12.6819067"><ele>290.66666666666663</ele><time>2026-04-26T08:33:32.544Z</time></trkpt><trkpt lat="43.75818" lon="12.6817583"><ele>283.0</ele><time>2026-04-26T08:33:33.544Z</time></trkpt><trkpt lat="43.75806" lon="12.68162"><ele>283.0</ele><time>2026-04-26T08:33:34.544Z</time></trkpt><trkpt lat="43.757935" lon="12.6814967"><ele>283.0</ele><time>2026-04-26T08:33:35.544Z</time></trkpt><trkpt lat="43.7577967" lon="12.68139"><ele>283.0</ele><time>2026-04-26T08:33:36.544Z</time></trkpt><trkpt lat="43.757655" lon="12.68131"><ele>280.3333333333333</ele><time>2026-04-26T08:33:37.544Z</time></trkpt><trkpt lat="43.7575083" lon="12.6812317"><ele>277.6666666666667</ele><time>2026-04-26T08:33:38.544Z</time></trkpt><trkpt lat="43.75736" lon="12.681165"><ele>275.0</ele><time>2026-04-26T08:33:39.544Z</time></trkpt><trkpt lat="43.7572217" lon="12.6811017"><ele>272.75</ele><time>2026-04-26T08:33:40.544Z</time></trkpt><trkpt lat="43.7570883" lon="12.681035"><ele>270.5</ele><time>2026-04-26T08:33:41.544Z</time></trkpt><trkpt lat="43.7569617" lon="12.6809583"><ele>268.25</ele><time>2026-04-26T08:33:42.544Z</time></trkpt><trkpt lat="43.7568317" lon="12.680885"><ele>266.0</ele><time>2026-04-26T08:33:43.544Z</time></trkpt><trkpt lat="43.7567133" lon="12.680805"><ele>264.5</ele><time>2026-04-26T08:33:44.543Z</time></trkpt><trkpt lat="43.7565883" lon="12.6807167"><ele>263.0</ele><time>2026-04-26T08:33:45.544Z</time></trkpt><trkpt lat="43.7564733" lon="12.68063"><ele>261.5</ele><time>2026-04-26T08:33:46.543Z</time></trkpt><trkpt lat="43.7563733" lon="12.68054"><ele>260.0</ele><time>2026-04-26T08:33:47.544Z</time></trkpt><trkpt lat="43.7562917" lon="12.6804283"><ele>260.0</ele><time>2026-04-26T08:33:48.544Z</time></trkpt><trkpt lat="43.756225" lon="12.6802733"><ele>260.0</ele><time>2026-04-26T08:33:49.544Z</time></trkpt><trkpt lat="43.75616" lon="12.6800933"><ele>260.0</ele><time>2026-04-26T08:33:50.544Z</time></trkpt><trkpt lat="43.7560917" lon="12.6799083"><ele>260.0</ele><time>2026-04-26T08:33:51.544Z</time></trkpt><trkpt lat="43.756025" lon="12.6797317"><ele>256.5</ele><time>2026-04-26T08:33:52.543Z</time></trkpt><trkpt lat="43.75595" lon="12.67956"><ele>253.0</ele><time>2026-04-26T08:33:53.543Z</time></trkpt><trkpt lat="43.75588" lon="12.6793933"><ele>249.5</ele><time>2026-04-26T08:33:54.544Z</time></trkpt><trkpt lat="43.755825" lon="12.679235"><ele>246.0</ele><time>2026-04-26T08:33:55.544Z</time></trkpt><trkpt lat="43.755785" lon="12.6790683"><ele>246.0</ele><time>2026-04-26T08:33:56.543Z</time></trkpt><trkpt lat="43.755745" lon="12.6788717"><ele>246.0</ele><time>2026-04-26T08:33:57.544Z</time></trkpt><trkpt lat="43.75571" lon="12.678675"><ele>246.0</ele><time>2026-04-26T08:33:58.544Z</time></trkpt><trkpt lat="43.755675" lon="12.6784733"><ele>246.0</ele><time>2026-04-26T08:33:59.544Z</time></trkpt><trkpt lat="43.7556333" lon="12.6782833"><ele>245.25</ele><time>2026-04-26T08:34:00.544Z</time></trkpt><trkpt lat="43.7555883" lon="12.6780967"><ele>244.5</ele><time>2026-04-26T08:34:01.544Z</time></trkpt><trkpt lat="43.7555483" lon="12.6779183"><ele>243.75</ele><time>2026-04-26T08:34:02.544Z</time></trkpt><trkpt lat="43.7555283" lon="12.677735"><ele>243.0</ele><time>2026-04-26T08:34:03.544Z</time></trkpt><trkpt lat="43.755515" lon="12.6775433"><ele>241.33333333333331</ele><time>2026-04-26T08:34:04.543Z</time></trkpt><trkpt lat="43.7555167" lon="12.67733"><ele>239.66666666666666</ele><time>2026-04-26T08:34:05.543Z</time></trkpt><trkpt lat="43.7555217" lon="12.6771167"><ele>238.0</ele><time>2026-04-26T08:34:06.544Z</time></trkpt><trkpt lat="43.7555333" lon="12.6769133"><ele>237.75</ele><time>2026-04-26T08:34:07.543Z</time></trkpt><trkpt lat="43.75556" lon="12.6767117"><ele>237.5</ele><time>2026-04-26T08:34:08.544Z</time></trkpt><trkpt lat="43.7555833" lon="12.67652"><ele>237.25</ele><time>2026-04-26T08:34:09.544Z</time></trkpt><trkpt lat="43.7555933" lon="12.67632"><ele>237.0</ele><time>2026-04-26T08:34:10.543Z</time></trkpt><trkpt lat="43.755605" lon="12.67612"><ele>235.0</ele><time>2026-04-26T08:34:11.544Z</time></trkpt><trkpt lat="43.7556067" lon="12.67592"><ele>233.0</ele><time>2026-04-26T08:34:12.544Z</time></trkpt><trkpt lat="43.7555967" lon="12.6757117"><ele>231.0</ele><time>2026-04-26T08:34:13.544Z</time></trkpt><trkpt lat="43.7555823" lon="12.6754988"><ele>231.0</ele><time>2026-04-26T08:34:14.543Z</time></trkpt><trkpt lat="43.7555667" lon="12.6752921"><ele>231.0</ele><time>2026-04-26T08:34:15.543Z</time></trkpt><trkpt lat="43.7555521" lon="12.6751022"><ele>231.0</ele><time>2026-04-26T08:34:16.544Z</time></trkpt><trkpt lat="43.7555329" lon="12.6749136"><ele>231.0</ele><time>2026-04-26T08:34:17.544Z</time></trkpt><trkpt lat="43.7555167" lon="12.6747255"><ele>231.0</ele><time>2026-04-26T08:34:18.543Z</time></trkpt><trkpt lat="43.7555031" lon="12.6745472"><ele>231.0</ele><time>2026-04-26T08:34:19.543Z</time></trkpt><trkpt lat="43.7554769" lon="12.6743793"><ele>231.0</ele><time>2026-04-26T08:34:20.543Z</time></trkpt><trkpt lat="43.7554275" lon="12.6742172"><ele>231.0</ele><time>2026-04-26T08:34:21.543Z</time></trkpt><trkpt lat="43.7553542" lon="12.6740536"><ele>230.25</ele><time>2026-04-26T08:34:22.543Z</time></trkpt><trkpt lat="43.7552792" lon="12.6738874"><ele>229.5</ele><time>2026-04-26T08:34:23.544Z</time></trkpt><trkpt lat="43.7552196" lon="12.6737131"><ele>228.75</ele><time>2026-04-26T08:34:24.543Z</time></trkpt><trkpt lat="43.7551705" lon="12.6735164"><ele>228.0</ele><time>2026-04-26T08:34:25.544Z</time></trkpt><trkpt lat="43.7551293" lon="12.6733027"><ele>221.66666666666669</ele><time>2026-04-26T08:34:26.544Z</time></trkpt><trkpt lat="43.7550921" lon="12.6730761"><ele>215.33333333333334</ele><time>2026-04-26T08:34:27.544Z</time></trkpt><trkpt lat="43.7550536" lon="12.6728468"><ele>209.0</ele><time>2026-04-26T08:34:28.543Z</time></trkpt><trkpt lat="43.7550169" lon="12.6726227"><ele>208.66666666666669</ele><time>2026-04-26T08:34:29.543Z</time></trkpt><trkpt lat="43.7549801" lon="12.6724001"><ele>208.33333333333331</ele><time>2026-04-26T08:34:30.543Z</time></trkpt><trkpt lat="43.754938" lon="12.672174"><ele>208.0</ele><time>2026-04-26T08:34:31.544Z</time></trkpt><trkpt lat="43.7549025" lon="12.6719552"><ele>207.25</ele><time>2026-04-26T08:34:32.544Z</time></trkpt><trkpt lat="43.7548802" lon="12.6717408"><ele>206.5</ele><time>2026-04-26T08:34:33.544Z</time></trkpt><trkpt lat="43.754859" lon="12.6715349"><ele>205.75</ele><time>2026-04-26T08:34:34.543Z</time></trkpt><trkpt lat="43.7548418" lon="12.6713523"><ele>205.0</ele><time>2026-04-26T08:34:35.544Z</time></trkpt><trkpt lat="43.754809" lon="12.6711934"><ele>205.0</ele><time>2026-04-26T08:34:36.543Z</time></trkpt><trkpt lat="43.7547631" lon="12.671039"><ele>205.0</ele><time>2026-04-26T08:34:37.544Z</time></trkpt><trkpt lat="43.7547195" lon="12.6708953"><ele>205.0</ele><time>2026-04-26T08:34:38.544Z</time></trkpt><trkpt lat="43.7546941" lon="12.6707479"><ele>205.0</ele><time>2026-04-26T08:34:39.544Z</time></trkpt><trkpt lat="43.7546902" lon="12.6705758"><ele>205.0</ele><time>2026-04-26T08:34:40.544Z</time></trkpt><trkpt lat="43.7547064" lon="12.6703811"><ele>205.0</ele><time>2026-04-26T08:34:41.544Z</time></trkpt><trkpt lat="43.7547409" lon="12.6701799"><ele>205.0</ele><time>2026-04-26T08:34:42.544Z</time></trkpt><trkpt lat="43.754779" lon="12.6699848"><ele>205.0</ele><time>2026-04-26T08:34:43.544Z</time></trkpt><trkpt lat="43.7548086" lon="12.6698093"><ele>203.8</ele><time>2026-04-26T08:34:44.543Z</time></trkpt><trkpt lat="43.754827" lon="12.6696485"><ele>202.6</ele><time>2026-04-26T08:34:45.544Z</time></trkpt><trkpt lat="43.7548382" lon="12.6695011"><ele>201.39999999999998</ele><time>2026-04-26T08:34:46.544Z</time></trkpt><trkpt lat="43.7548309" lon="12.6693677"><ele>200.2</ele><time>2026-04-26T08:34:47.544Z</time></trkpt><trkpt lat="43.7548015" lon="12.6692542"><ele>199.0</ele><time>2026-04-26T08:34:48.544Z</time></trkpt><trkpt lat="43.7547467" lon="12.6691694"><ele>198.2</ele><time>2026-04-26T08:34:49.544Z</time></trkpt><trkpt lat="43.7546702" lon="12.6690951"><ele>197.39999999999998</ele><time>2026-04-26T08:34:50.544Z</time></trkpt><trkpt lat="43.7545869" lon="12.669025"><ele>196.6</ele><time>2026-04-26T08:34:51.544Z</time></trkpt><trkpt lat="43.754516" lon="12.668941"><ele>195.8</ele><time>2026-04-26T08:34:52.543Z</time></trkpt><trkpt lat="43.7544672" lon="12.6688247"><ele>195.0</ele><time>2026-04-26T08:34:53.544Z</time></trkpt><trkpt lat="43.754439" lon="12.6686755"><ele>193.5</ele><time>2026-04-26T08:34:54.544Z</time></trkpt><trkpt lat="43.7544205" lon="12.6684972"><ele>192.0</ele><time>2026-04-26T08:34:55.544Z</time></trkpt><trkpt lat="43.7544044" lon="12.6683219"><ele>190.5</ele><time>2026-04-26T08:34:56.543Z</time></trkpt><trkpt lat="43.7543892" lon="12.6681548"><ele>189.0</ele><time>2026-04-26T08:34:57.544Z</time></trkpt><trkpt lat="43.7543863" lon="12.6680028"><ele>189.0</ele><time>2026-04-26T08:34:58.544Z</time></trkpt><trkpt lat="43.7544044" lon="12.6678698"><ele>189.0</ele><time>2026-04-26T08:34:59.543Z</time></trkpt><trkpt lat="43.7544435" lon="12.6677496"><ele>189.0</ele><time>2026-04-26T08:35:00.544Z</time></trkpt><trkpt lat="43.754489" lon="12.6676432"><ele>189.0</ele><time>2026-04-26T08:35:01.544Z</time></trkpt><trkpt lat="43.754535" lon="12.6675435"><ele>189.0</ele><time>2026-04-26T08:35:02.544Z</time></trkpt><trkpt lat="43.7545867" lon="12.6674354"><ele>186.79999999999998</ele><time>2026-04-26T08:35:03.544Z</time></trkpt><trkpt lat="43.7546447" lon="12.6673289"><ele>184.6</ele><time>2026-04-26T08:35:04.543Z</time></trkpt><trkpt lat="43.7546952" lon="12.6672414"><ele>182.4</ele><time>2026-04-26T08:35:05.544Z</time></trkpt><trkpt lat="43.754798" lon="12.6671636"><ele>180.2</ele><time>2026-04-26T08:35:07.544Z</time></trkpt><trkpt lat="43.7548928" lon="12.6671802"><ele>178.0</ele><time>2026-04-26T08:35:09.544Z</time></trkpt><trkpt lat="43.7549635" lon="12.6672275"><ele>178.0</ele><time>2026-04-26T08:35:11.543Z</time></trkpt><trkpt lat="43.7550336" lon="12.6672481"><ele>178.0</ele><time>2026-04-26T08:35:13.543Z</time></trkpt><trkpt lat="43.7551243" lon="12.6672715"><ele>178.0</ele><time>2026-04-26T08:35:15.544Z</time></trkpt><trkpt lat="43.7552576" lon="12.6672902"><ele>178.0</ele><time>2026-04-26T08:35:17.544Z</time></trkpt><trkpt lat="43.7553341" lon="12.6673005"><ele>178.0</ele><time>2026-04-26T08:35:18.544Z</time></trkpt><trkpt lat="43.7554187" lon="12.667316"><ele>178.0</ele><time>2026-04-26T08:35:19.544Z</time></trkpt><trkpt lat="43.7555137" lon="12.6673345"><ele>178.0</ele><time>2026-04-26T08:35:20.544Z</time></trkpt><trkpt lat="43.7556167" lon="12.667355"><ele>178.0</ele><time>2026-04-26T08:35:21.544Z</time></trkpt><trkpt lat="43.75572" lon="12.6673717"><ele>178.0</ele><time>2026-04-26T08:35:22.543Z</time></trkpt><trkpt lat="43.75582" lon="12.6673883"><ele>178.0</ele><time>2026-04-26T08:35:23.543Z</time></trkpt><trkpt lat="43.7559133" lon="12.6674"><ele>178.0</ele><time>2026-04-26T08:35:24.544Z</time></trkpt><trkpt lat="43.7560033" lon="12.6674167"><ele>178.0</ele><time>2026-04-26T08:35:25.544Z</time></trkpt><trkpt lat="43.7560933" lon="12.6674317"><ele>178.0</ele><time>2026-04-26T08:35:26.543Z</time></trkpt><trkpt lat="43.7561767" lon="12.66743"><ele>178.0</ele><time>2026-04-26T08:35:27.544Z</time></trkpt><trkpt lat="43.7562583" lon="12.66742"><ele>178.0</ele><time>2026-04-26T08:35:28.544Z</time></trkpt><trkpt lat="43.756335" lon="12.6673817"><ele>178.0</ele><time>2026-04-26T08:35:29.544Z</time></trkpt><trkpt lat="43.75641" lon="12.6673317"><ele>178.33333333333334</ele><time>2026-04-26T08:35:30.544Z</time></trkpt><trkpt lat="43.75648" lon="12.667275"><ele>178.66666666666669</ele><time>2026-04-26T08:35:31.544Z</time></trkpt><trkpt lat="43.7565433" lon="12.667215"><ele>179.0</ele><time>2026-04-26T08:35:32.544Z</time></trkpt><trkpt lat="43.7566017" lon="12.667165"><ele>179.33333333333334</ele><time>2026-04-26T08:35:33.543Z</time></trkpt><trkpt lat="43.756655" lon="12.66711"><ele>179.66666666666666</ele><time>2026-04-26T08:35:34.544Z</time></trkpt><trkpt lat="43.75671" lon="12.6670667"><ele>180.0</ele><time>2026-04-26T08:35:35.544Z</time></trkpt><trkpt lat="43.7568233" lon="12.666985"><ele>179.16666666666666</ele><time>2026-04-26T08:35:37.544Z</time></trkpt><trkpt lat="43.7568817" lon="12.6669433"><ele>178.33333333333334</ele><time>2026-04-26T08:35:38.543Z</time></trkpt><trkpt lat="43.7569483" lon="12.666905"><ele>177.5</ele><time>2026-04-26T08:35:39.544Z</time></trkpt><trkpt lat="43.757025" lon="12.666885"><ele>176.66666666666669</ele><time>2026-04-26T08:35:40.543Z</time></trkpt><trkpt lat="43.7571267" lon="12.6668817"><ele>175.83333333333334</ele><time>2026-04-26T08:35:41.544Z</time></trkpt><trkpt lat="43.7572467" lon="12.6668817"><ele>175.0</ele><time>2026-04-26T08:35:42.544Z</time></trkpt><trkpt lat="43.75738" lon="12.6668633"><ele>175.0</ele><time>2026-04-26T08:35:43.544Z</time></trkpt><trkpt lat="43.7575133" lon="12.6668433"><ele>175.0</ele><time>2026-04-26T08:35:44.544Z</time></trkpt><trkpt lat="43.75764" lon="12.6668283"><ele>175.0</ele><time>2026-04-26T08:35:45.544Z</time></trkpt><trkpt lat="43.7577633" lon="12.6668283"><ele>175.0</ele><time>2026-04-26T08:35:46.544Z</time></trkpt><trkpt lat="43.7578733" lon="12.6668333"><ele>174.25</ele><time>2026-04-26T08:35:47.544Z</time></trkpt><trkpt lat="43.7579817" lon="12.666865"><ele>173.5</ele><time>2026-04-26T08:35:48.544Z</time></trkpt><trkpt lat="43.7580933" lon="12.6669117"><ele>172.75</ele><time>2026-04-26T08:35:49.543Z</time></trkpt><trkpt lat="43.7582" lon="12.6669783"><ele>172.0</ele><time>2026-04-26T08:35:50.544Z</time></trkpt><trkpt lat="43.7583083" lon="12.6670633"><ele>172.0</ele><time>2026-04-26T08:35:51.544Z</time></trkpt><trkpt lat="43.7584133" lon="12.6671683"><ele>172.0</ele><time>2026-04-26T08:35:52.544Z</time></trkpt><trkpt lat="43.758515" lon="12.6672817"><ele>172.0</ele><time>2026-04-26T08:35:53.544Z</time></trkpt><trkpt lat="43.7586267" lon="12.6673867"><ele>172.0</ele><time>2026-04-26T08:35:54.543Z</time></trkpt><trkpt lat="43.7587483" lon="12.6674717"><ele>171.5</ele><time>2026-04-26T08:35:55.544Z</time></trkpt><trkpt lat="43.7588733" lon="12.66754"><ele>171.0</ele><time>2026-04-26T08:35:56.543Z</time></trkpt><trkpt lat="43.7590067" lon="12.6675883"><ele>170.5</ele><time>2026-04-26T08:35:57.544Z</time></trkpt><trkpt lat="43.7591483" lon="12.6676117"><ele>170.0</ele><time>2026-04-26T08:35:58.544Z</time></trkpt><trkpt lat="43.7592833" lon="12.6676317"><ele>171.5</ele><time>2026-04-26T08:35:59.543Z</time></trkpt><trkpt lat="43.7594117" lon="12.66764"><ele>173.0</ele><time>2026-04-26T08:36:00.544Z</time></trkpt><trkpt lat="43.75954" lon="12.66765"><ele>174.5</ele><time>2026-04-26T08:36:01.544Z</time></trkpt><trkpt lat="43.75966" lon="12.6676583"><ele>176.0</ele><time>2026-04-26T08:36:02.544Z</time></trkpt><trkpt lat="43.7597783" lon="12.66767"><ele>176.0</ele><time>2026-04-26T08:36:03.543Z</time></trkpt><trkpt lat="43.7598967" lon="12.66768"><ele>176.0</ele><time>2026-04-26T08:36:04.544Z</time></trkpt><trkpt lat="43.7600283" lon="12.6676967"><ele>176.0</ele><time>2026-04-26T08:36:05.544Z</time></trkpt><trkpt lat="43.7601733" lon="12.6677233"><ele>176.0</ele><time>2026-04-26T08:36:06.544Z</time></trkpt><trkpt lat="43.7603267" lon="12.667745"><ele>177.5</ele><time>2026-04-26T08:36:07.543Z</time></trkpt><trkpt lat="43.7604767" lon="12.667765"><ele>179.0</ele><time>2026-04-26T08:36:08.543Z</time></trkpt><trkpt lat="43.7606167" lon="12.667795"><ele>180.5</ele><time>2026-04-26T08:36:09.544Z</time></trkpt><trkpt lat="43.7607483" lon="12.6678317"><ele>182.0</ele><time>2026-04-26T08:36:10.544Z</time></trkpt><trkpt lat="43.7608817" lon="12.667875"><ele>179.0</ele><time>2026-04-26T08:36:11.544Z</time></trkpt><trkpt lat="43.7610167" lon="12.6679283"><ele>176.0</ele><time>2026-04-26T08:36:12.544Z</time></trkpt><trkpt lat="43.7611533" lon="12.6679933"><ele>173.0</ele><time>2026-04-26T08:36:13.543Z</time></trkpt><trkpt lat="43.7612883" lon="12.6680717"><ele>170.0</ele><time>2026-04-26T08:36:14.544Z</time></trkpt><trkpt lat="43.761425" lon="12.66816"><ele>169.66666666666666</ele><time>2026-04-26T08:36:15.544Z</time></trkpt><trkpt lat="43.7615633" lon="12.6682583"><ele>169.33333333333334</ele><time>2026-04-26T08:36:16.543Z</time></trkpt><trkpt lat="43.761695" lon="12.668375"><ele>169.0</ele><time>2026-04-26T08:36:17.544Z</time></trkpt><trkpt lat="43.7618217" lon="12.668505"><ele>168.0</ele><time>2026-04-26T08:36:18.544Z</time></trkpt><trkpt lat="43.761935" lon="12.6686417"><ele>167.0</ele><time>2026-04-26T08:36:19.544Z</time></trkpt><trkpt lat="43.7620433" lon="12.66878"><ele>166.0</ele><time>2026-04-26T08:36:20.544Z</time></trkpt><trkpt lat="43.76215" lon="12.6689067"><ele>165.0</ele><time>2026-04-26T08:36:21.544Z</time></trkpt><trkpt lat="43.7622483" lon="12.6690267"><ele>165.0</ele><time>2026-04-26T08:36:22.544Z</time></trkpt><trkpt lat="43.7623433" lon="12.6691417"><ele>165.0</ele><time>2026-04-26T08:36:23.544Z</time></trkpt><trkpt lat="43.7624383" lon="12.669255"><ele>165.0</ele><time>2026-04-26T08:36:24.544Z</time></trkpt><trkpt lat="43.76254" lon="12.6693467"><ele>165.0</ele><time>2026-04-26T08:36:25.544Z</time></trkpt><trkpt lat="43.7626433" lon="12.6694267"><ele>163.66666666666666</ele><time>2026-04-26T08:36:26.544Z</time></trkpt><trkpt lat="43.7627333" lon="12.6694883"><ele>162.33333333333334</ele><time>2026-04-26T08:36:27.543Z</time></trkpt><trkpt lat="43.7628167" lon="12.6695283"><ele>161.0</ele><time>2026-04-26T08:36:28.544Z</time></trkpt><trkpt lat="43.7629" lon="12.6695583"><ele>159.66666666666669</ele><time>2026-04-26T08:36:29.544Z</time></trkpt><trkpt lat="43.7629833" lon="12.66958"><ele>158.33333333333334</ele><time>2026-04-26T08:36:30.544Z</time></trkpt><trkpt lat="43.76306" lon="12.6695983"><ele>157.0</ele><time>2026-04-26T08:36:31.544Z</time></trkpt><trkpt lat="43.7631283" lon="12.6696267"><ele>157.0</ele><time>2026-04-26T08:36:32.543Z</time></trkpt><trkpt lat="43.7632267" lon="12.6696967"><ele>157.0</ele><time>2026-04-26T08:36:34.543Z</time></trkpt><trkpt lat="43.7632867" lon="12.6697533"><ele>157.0</ele><time>2026-04-26T08:36:36.543Z</time></trkpt><trkpt lat="43.7633517" lon="12.6697217"><ele>157.0</ele><time>2026-04-26T08:36:39.544Z</time></trkpt><trkpt lat="43.7633217" lon="12.6696183"><ele>157.0</ele><time>2026-04-26T08:36:43.543Z</time></trkpt><trkpt lat="43.7632117" lon="12.6695783"><ele>157.0</ele><time>2026-04-26T08:36:45.544Z</time></trkpt><trkpt lat="43.7631267" lon="12.6695617"><ele>157.0</ele><time>2026-04-26T08:36:46.543Z</time></trkpt><trkpt lat="43.763025" lon="12.669545"><ele>157.0</ele><time>2026-04-26T08:36:47.544Z</time></trkpt><trkpt lat="43.7629117" lon="12.6695217"><ele>157.0</ele><time>2026-04-26T08:36:48.543Z</time></trkpt><trkpt lat="43.7628067" lon="12.66949"><ele>157.0</ele><time>2026-04-26T08:36:49.543Z</time></trkpt><trkpt lat="43.762735" lon="12.6694583"><ele>157.0</ele><time>2026-04-26T08:36:50.544Z</time></trkpt><trkpt lat="43.7626967" lon="12.6693833"><ele>158.2</ele><time>2026-04-26T08:36:52.543Z</time></trkpt><trkpt lat="43.7627367" lon="12.66927"><ele>159.39999999999998</ele><time>2026-04-26T08:36:54.544Z</time></trkpt><trkpt lat="43.7628033" lon="12.6691233"><ele>160.60000000000002</ele><time>2026-04-26T08:36:56.544Z</time></trkpt><trkpt lat="43.7628383" lon="12.669035"><ele>161.8</ele><time>2026-04-26T08:36:57.544Z</time></trkpt><trkpt lat="43.7628683" lon="12.6689567"><ele>163.0</ele><time>2026-04-26T08:36:58.543Z</time></trkpt><trkpt lat="43.7629133" lon="12.66879"><ele>163.0</ele><time>2026-04-26T08:37:00.544Z</time></trkpt><trkpt lat="43.76294" lon="12.6686583"><ele>163.0</ele><time>2026-04-26T08:37:02.543Z</time></trkpt><trkpt lat="43.7628867" lon="12.6685817"><ele>163.0</ele><time>2026-04-26T08:37:05.543Z</time></trkpt><trkpt lat="43.7628267" lon="12.66861"><ele>163.0</ele><time>2026-04-26T08:37:07.544Z</time></trkpt><trkpt lat="43.7627267" lon="12.6686867"><ele>163.0</ele><time>2026-04-26T08:37:09.544Z</time></trkpt><trkpt lat="43.7626633" lon="12.66872"><ele>163.0</ele><time>2026-04-26T08:37:10.544Z</time></trkpt><trkpt lat="43.7626017" lon="12.6687433"><ele>163.33333333333334</ele><time>2026-04-26T08:37:11.543Z</time></trkpt><trkpt lat="43.7625383" lon="12.6687517"><ele>163.66666666666669</ele><time>2026-04-26T08:37:12.543Z</time></trkpt><trkpt lat="43.7624433" lon="12.6687083"><ele>164.0</ele><time>2026-04-26T08:37:14.544Z</time></trkpt><trkpt lat="43.7624067" lon="12.66863"><ele>164.33333333333334</ele><time>2026-04-26T08:37:16.544Z</time></trkpt><trkpt lat="43.7623917" lon="12.6684933"><ele>164.66666666666666</ele><time>2026-04-26T08:37:19.544Z</time></trkpt><trkpt lat="43.7623883" lon="12.6683533"><ele>165.0</ele><time>2026-04-26T08:37:21.544Z</time></trkpt><trkpt lat="43.76239" lon="12.6682633"><ele>166.66666666666666</ele><time>2026-04-26T08:37:22.544Z</time></trkpt><trkpt lat="43.76239" lon="12.6681683"><ele>168.33333333333334</ele><time>2026-04-26T08:37:23.543Z</time></trkpt><trkpt lat="43.7623883" lon="12.6680683"><ele>170.0</ele><time>2026-04-26T08:37:24.544Z</time></trkpt><trkpt lat="43.7623833" lon="12.66796"><ele>171.66666666666669</ele><time>2026-04-26T08:37:25.544Z</time></trkpt><trkpt lat="43.7623783" lon="12.667845"><ele>173.33333333333334</ele><time>2026-04-26T08:37:26.544Z</time></trkpt><trkpt lat="43.7623717" lon="12.66772"><ele>175.0</ele><time>2026-04-26T08:37:27.544Z</time></trkpt><trkpt lat="43.762365" lon="12.6675967"><ele>177.6</ele><time>2026-04-26T08:37:28.543Z</time></trkpt><trkpt lat="43.76235" lon="12.667475"><ele>180.2</ele><time>2026-04-26T08:37:29.544Z</time></trkpt><trkpt lat="43.762325" lon="12.6673533"><ele>182.8</ele><time>2026-04-26T08:37:30.544Z</time></trkpt><trkpt lat="43.7622867" lon="12.6672183"><ele>185.4</ele><time>2026-04-26T08:37:31.544Z</time></trkpt><trkpt lat="43.7622333" lon="12.6670983"><ele>188.0</ele><time>2026-04-26T08:37:32.543Z</time></trkpt><trkpt lat="43.7621717" lon="12.6669817"><ele>191.0</ele><time>2026-04-26T08:37:33.543Z</time></trkpt><trkpt lat="43.762105" lon="12.6668867"><ele>194.0</ele><time>2026-04-26T08:37:34.542Z</time></trkpt><trkpt lat="43.7620383" lon="12.666825"><ele>197.0</ele><time>2026-04-26T08:37:35.543Z</time></trkpt><trkpt lat="43.761915" lon="12.666805"><ele>200.0</ele><time>2026-04-26T08:37:37.542Z</time></trkpt><trkpt lat="43.7618433" lon="12.6668167"><ele>203.00000000000003</ele><time>2026-04-26T08:37:38.542Z</time></trkpt><trkpt lat="43.7617767" lon="12.6668317"><ele>206.0</ele><time>2026-04-26T08:37:39.542Z</time></trkpt><trkpt lat="43.7616917" lon="12.66681"><ele>206.0</ele><time>2026-04-26T08:37:41.543Z</time></trkpt><trkpt lat="43.7616733" lon="12.666725"><ele>206.0</ele><time>2026-04-26T08:37:43.543Z</time></trkpt><trkpt lat="43.7617117" lon="12.666625"><ele>206.0</ele><time>2026-04-26T08:37:45.543Z</time></trkpt><trkpt lat="43.7617967" lon="12.66653"><ele>206.0</ele><time>2026-04-26T08:37:47.543Z</time></trkpt><trkpt lat="43.7618883" lon="12.6664317"><ele>206.0</ele><time>2026-04-26T08:37:49.542Z</time></trkpt><trkpt lat="43.7619533" lon="12.6663533"><ele>206.0</ele><time>2026-04-26T08:37:51.543Z</time></trkpt><trkpt lat="43.7619517" lon="12.6662167"><ele>206.0</ele><time>2026-04-26T08:37:54.542Z</time></trkpt><trkpt lat="43.76189" lon="12.6661667"><ele>206.0</ele><time>2026-04-26T08:37:56.543Z</time></trkpt><trkpt lat="43.76182" lon="12.66619"><ele>206.0</ele><time>2026-04-26T08:37:58.543Z</time></trkpt><trkpt lat="43.7617433" lon="12.6662517"><ele>206.0</ele><time>2026-04-26T08:38:00.543Z</time></trkpt><trkpt lat="43.761635" lon="12.6663267"><ele>206.16666666666669</ele><time>2026-04-26T08:38:02.542Z</time></trkpt><trkpt lat="43.7615717" lon="12.66636"><ele>206.33333333333334</ele><time>2026-04-26T08:38:03.543Z</time></trkpt><trkpt lat="43.7614683" lon="12.6663783"><ele>206.5</ele><time>2026-04-26T08:38:05.542Z</time></trkpt><trkpt lat="43.7613933" lon="12.6663233"><ele>206.66666666666669</ele><time>2026-04-26T08:38:07.542Z</time></trkpt><trkpt lat="43.7612883" lon="12.6662483"><ele>206.83333333333334</ele><time>2026-04-26T08:38:09.543Z</time></trkpt><trkpt lat="43.7612333" lon="12.6662033"><ele>207.0</ele><time>2026-04-26T08:38:10.543Z</time></trkpt><trkpt lat="43.7611683" lon="12.6661533"><ele>211.0</ele><time>2026-04-26T08:38:11.542Z</time></trkpt><trkpt lat="43.761095" lon="12.666095"><ele>215.0</ele><time>2026-04-26T08:38:12.543Z</time></trkpt><trkpt lat="43.761025" lon="12.6660317"><ele>219.0</ele><time>2026-04-26T08:38:13.542Z</time></trkpt><trkpt lat="43.7609483" lon="12.6659667"><ele>223.0</ele><time>2026-04-26T08:38:14.543Z</time></trkpt><trkpt lat="43.7608683" lon="12.6659017"><ele>227.0</ele><time>2026-04-26T08:38:15.542Z</time></trkpt><trkpt lat="43.7607933" lon="12.6658367"><ele>231.0</ele><time>2026-04-26T08:38:16.543Z</time></trkpt><trkpt lat="43.7607183" lon="12.66575"><ele>232.20000000000002</ele><time>2026-04-26T08:38:17.543Z</time></trkpt><trkpt lat="43.760645" lon="12.66567"><ele>233.40000000000003</ele><time>2026-04-26T08:38:18.543Z</time></trkpt><trkpt lat="43.760575" lon="12.6655867"><ele>234.6</ele><time>2026-04-26T08:38:19.543Z</time></trkpt><trkpt lat="43.7605083" lon="12.6655"><ele>235.8</ele><time>2026-04-26T08:38:20.543Z</time></trkpt><trkpt lat="43.76045" lon="12.6653983"><ele>237.0</ele><time>2026-04-26T08:38:21.543Z</time></trkpt><trkpt lat="43.7603917" lon="12.6652967"><ele>238.2</ele><time>2026-04-26T08:38:22.542Z</time></trkpt><trkpt lat="43.7603267" lon="12.6652"><ele>239.39999999999998</ele><time>2026-04-26T08:38:23.543Z</time></trkpt><trkpt lat="43.7602733" lon="12.6651067"><ele>240.60000000000002</ele><time>2026-04-26T08:38:24.542Z</time></trkpt><trkpt lat="43.7602267" lon="12.6650083"><ele>241.8</ele><time>2026-04-26T08:38:25.543Z</time></trkpt><trkpt lat="43.7601783" lon="12.6649033"><ele>243.0</ele><time>2026-04-26T08:38:26.543Z</time></trkpt><trkpt lat="43.7601433" lon="12.6647817"><ele>243.0</ele><time>2026-04-26T08:38:27.543Z</time></trkpt><trkpt lat="43.7601117" lon="12.6646567"><ele>243.0</ele><time>2026-04-26T08:38:28.542Z</time></trkpt><trkpt lat="43.760075" lon="12.6645367"><ele>243.0</ele><time>2026-04-26T08:38:29.543Z</time></trkpt><trkpt lat="43.760035" lon="12.6644217"><ele>243.0</ele><time>2026-04-26T08:38:30.543Z</time></trkpt><trkpt lat="43.759975" lon="12.6643233"><ele>243.0</ele><time>2026-04-26T08:38:31.542Z</time></trkpt><trkpt lat="43.7599183" lon="12.664235"><ele>246.2</ele><time>2026-04-26T08:38:32.543Z</time></trkpt><trkpt lat="43.7598433" lon="12.6641567"><ele>249.4</ele><time>2026-04-26T08:38:33.543Z</time></trkpt><trkpt lat="43.7597533" lon="12.6640933"><ele>252.59999999999997</ele><time>2026-04-26T08:38:34.543Z</time></trkpt><trkpt lat="43.7596533" lon="12.6640367"><ele>255.79999999999998</ele><time>2026-04-26T08:38:35.543Z</time></trkpt><trkpt lat="43.759555" lon="12.6639967"><ele>259.0</ele><time>2026-04-26T08:38:36.543Z</time></trkpt><trkpt lat="43.7594467" lon="12.66396"><ele>258.2</ele><time>2026-04-26T08:38:37.543Z</time></trkpt><trkpt lat="43.7593283" lon="12.6639317"><ele>257.4</ele><time>2026-04-26T08:38:38.542Z</time></trkpt><trkpt lat="43.7592217" lon="12.663915"><ele>256.6</ele><time>2026-04-26T08:38:39.543Z</time></trkpt><trkpt lat="43.7591267" lon="12.6639017"><ele>255.8</ele><time>2026-04-26T08:38:40.542Z</time></trkpt><trkpt lat="43.7590433" lon="12.663905"><ele>255.0</ele><time>2026-04-26T08:38:41.543Z</time></trkpt><trkpt lat="43.7589633" lon="12.6639217"><ele>255.0</ele><time>2026-04-26T08:38:42.542Z</time></trkpt><trkpt lat="43.7588817" lon="12.663955"><ele>255.0</ele><time>2026-04-26T08:38:43.543Z</time></trkpt><trkpt lat="43.758795" lon="12.664"><ele>255.0</ele><time>2026-04-26T08:38:44.543Z</time></trkpt><trkpt lat="43.7587133" lon="12.6640317"><ele>255.0</ele><time>2026-04-26T08:38:45.542Z</time></trkpt><trkpt lat="43.7586383" lon="12.6640467"><ele>255.0</ele><time>2026-04-26T08:38:46.543Z</time></trkpt><trkpt lat="43.7585417" lon="12.6640067"><ele>255.0</ele><time>2026-04-26T08:38:48.543Z</time></trkpt><trkpt lat="43.758475" lon="12.6638883"><ele>255.6</ele><time>2026-04-26T08:38:50.542Z</time></trkpt><trkpt lat="43.758445" lon="12.6637617"><ele>256.2</ele><time>2026-04-26T08:38:52.542Z</time></trkpt><trkpt lat="43.7584917" lon="12.6635717"><ele>256.8</ele><time>2026-04-26T08:38:54.543Z</time></trkpt><trkpt lat="43.7585217" lon="12.663455"><ele>257.4</ele><time>2026-04-26T08:38:55.543Z</time></trkpt><trkpt lat="43.7585467" lon="12.6633267"><ele>258.0</ele><time>2026-04-26T08:38:56.543Z</time></trkpt><trkpt lat="43.7585567" lon="12.6631917"><ele>261.4</ele><time>2026-04-26T08:38:57.543Z</time></trkpt><trkpt lat="43.758565" lon="12.6630683"><ele>264.8</ele><time>2026-04-26T08:38:58.543Z</time></trkpt><trkpt lat="43.75858" lon="12.6629583"><ele>268.2</ele><time>2026-04-26T08:38:59.542Z</time></trkpt><trkpt lat="43.7586117" lon="12.6628533"><ele>271.6</ele><time>2026-04-26T08:39:00.543Z</time></trkpt><trkpt lat="43.758665" lon="12.6627517"><ele>275.0</ele><time>2026-04-26T08:39:01.543Z</time></trkpt><trkpt lat="43.7587317" lon="12.6626367"><ele>277.4</ele><time>2026-04-26T08:39:02.543Z</time></trkpt><trkpt lat="43.7588133" lon="12.6625217"><ele>279.8</ele><time>2026-04-26T08:39:03.543Z</time></trkpt><trkpt lat="43.7588883" lon="12.6624017"><ele>282.2</ele><time>2026-04-26T08:39:04.543Z</time></trkpt><trkpt lat="43.758945" lon="12.6623"><ele>284.6</ele><time>2026-04-26T08:39:05.543Z</time></trkpt><trkpt lat="43.7590017" lon="12.662215"><ele>287.0</ele><time>2026-04-26T08:39:06.543Z</time></trkpt><trkpt lat="43.7590867" lon="12.662125"><ele>287.0</ele><time>2026-04-26T08:39:08.543Z</time></trkpt><trkpt lat="43.7591567" lon="12.66216"><ele>287.0</ele><time>2026-04-26T08:39:10.543Z</time></trkpt><trkpt lat="43.7591817" lon="12.662305"><ele>287.0</ele><time>2026-04-26T08:39:12.542Z</time></trkpt><trkpt lat="43.759205" lon="12.6623917"><ele>287.0</ele><time>2026-04-26T08:39:13.543Z</time></trkpt><trkpt lat="43.7592917" lon="12.662475"><ele>287.0</ele><time>2026-04-26T08:39:15.543Z</time></trkpt><trkpt lat="43.759375" lon="12.6624167"><ele>287.0</ele><time>2026-04-26T08:39:17.543Z</time></trkpt><trkpt lat="43.759415" lon="12.6623383"><ele>289.1666666666667</ele><time>2026-04-26T08:39:18.543Z</time></trkpt><trkpt lat="43.75945" lon="12.662245"><ele>291.33333333333337</ele><time>2026-04-26T08:39:19.543Z</time></trkpt><trkpt lat="43.75949" lon="12.6621417"><ele>293.5</ele><time>2026-04-26T08:39:20.543Z</time></trkpt><trkpt lat="43.75953" lon="12.6620283"><ele>295.6666666666667</ele><time>2026-04-26T08:39:21.543Z</time></trkpt><trkpt lat="43.7595833" lon="12.6619267"><ele>297.8333333333333</ele><time>2026-04-26T08:39:22.542Z</time></trkpt><trkpt lat="43.7596517" lon="12.66183"><ele>300.0</ele><time>2026-04-26T08:39:23.542Z</time></trkpt><trkpt lat="43.75973" lon="12.6617617"><ele>302.6</ele><time>2026-04-26T08:39:24.543Z</time></trkpt><trkpt lat="43.7598183" lon="12.661705"><ele>305.2</ele><time>2026-04-26T08:39:25.543Z</time></trkpt><trkpt lat="43.7599117" lon="12.6616467"><ele>307.8</ele><time>2026-04-26T08:39:26.543Z</time></trkpt><trkpt lat="43.7600083" lon="12.6615717"><ele>310.4</ele><time>2026-04-26T08:39:27.543Z</time></trkpt><trkpt lat="43.7601017" lon="12.6614767"><ele>313.0</ele><time>2026-04-26T08:39:28.543Z</time></trkpt><trkpt lat="43.7601883" lon="12.6613833"><ele>313.0</ele><time>2026-04-26T08:39:29.542Z</time></trkpt><trkpt lat="43.76027" lon="12.6612967"><ele>313.0</ele><time>2026-04-26T08:39:30.542Z</time></trkpt><trkpt lat="43.7603317" lon="12.6612083"><ele>313.0</ele><time>2026-04-26T08:39:31.543Z</time></trkpt><trkpt lat="43.7603717" lon="12.66111"><ele>313.0</ele><time>2026-04-26T08:39:32.543Z</time></trkpt><trkpt lat="43.7603983" lon="12.66101"><ele>313.0</ele><time>2026-04-26T08:39:33.543Z</time></trkpt><trkpt lat="43.7603983" lon="12.6608867"><ele>313.0</ele><time>2026-04-26T08:39:34.543Z</time></trkpt><trkpt lat="43.7603867" lon="12.6607383"><ele>313.0</ele><time>2026-04-26T08:39:35.543Z</time></trkpt><trkpt lat="43.760365" lon="12.6605567"><ele>313.0</ele><time>2026-04-26T08:39:36.543Z</time></trkpt><trkpt lat="43.7603467" lon="12.6603533"><ele>313.0</ele><time>2026-04-26T08:39:37.543Z</time></trkpt><trkpt lat="43.7603317" lon="12.66015"><ele>313.0</ele><time>2026-04-26T08:39:38.543Z</time></trkpt><trkpt lat="43.7603267" lon="12.6599483"><ele>313.0</ele><time>2026-04-26T08:39:39.542Z</time></trkpt><trkpt lat="43.760315" lon="12.6597483"><ele>313.0</ele><time>2026-04-26T08:39:40.543Z</time></trkpt><trkpt lat="43.7602917" lon="12.659555"><ele>313.0</ele><time>2026-04-26T08:39:41.543Z</time></trkpt><trkpt lat="43.7602783" lon="12.659375"><ele>313.0</ele><time>2026-04-26T08:39:42.542Z</time></trkpt><trkpt lat="43.7602733" lon="12.6591983"><ele>314.3333333333333</ele><time>2026-04-26T08:39:43.543Z</time></trkpt><trkpt lat="43.7602733" lon="12.6590183"><ele>315.6666666666667</ele><time>2026-04-26T08:39:44.543Z</time></trkpt><trkpt lat="43.76029" lon="12.6588"><ele>317.0</ele><time>2026-04-26T08:39:45.543Z</time></trkpt><trkpt lat="43.7603117" lon="12.6585633"><ele>319.6666666666667</ele><time>2026-04-26T08:39:46.542Z</time></trkpt><trkpt lat="43.7603333" lon="12.6583317"><ele>322.3333333333333</ele><time>2026-04-26T08:39:47.542Z</time></trkpt><trkpt lat="43.7603617" lon="12.6581"><ele>325.0</ele><time>2026-04-26T08:39:48.543Z</time></trkpt><trkpt lat="43.76039" lon="12.6578667"><ele>328.3333333333333</ele><time>2026-04-26T08:39:49.543Z</time></trkpt><trkpt lat="43.7604183" lon="12.6576283"><ele>331.6666666666667</ele><time>2026-04-26T08:39:50.543Z</time></trkpt><trkpt lat="43.76045" lon="12.6574033"><ele>335.0</ele><time>2026-04-26T08:39:51.542Z</time></trkpt><trkpt lat="43.76048" lon="12.6571867"><ele>335.0</ele><time>2026-04-26T08:39:52.542Z</time></trkpt><trkpt lat="43.7605083" lon="12.6570017"><ele>335.0</ele><time>2026-04-26T08:39:53.542Z</time></trkpt><trkpt lat="43.7605317" lon="12.65684"><ele>335.0</ele><time>2026-04-26T08:39:54.542Z</time></trkpt><trkpt lat="43.7605483" lon="12.6567233"><ele>335.0</ele><time>2026-04-26T08:39:55.542Z</time></trkpt><trkpt lat="43.7605583" lon="12.6565767"><ele>335.0</ele><time>2026-04-26T08:39:57.542Z</time></trkpt><trkpt lat="43.7605383" lon="12.6564383"><ele>337.4</ele><time>2026-04-26T08:40:14.543Z</time></trkpt><trkpt lat="43.7604867" lon="12.6563533"><ele>339.8</ele><time>2026-04-26T08:40:16.542Z</time></trkpt><trkpt lat="43.76044" lon="12.6562917"><ele>342.20000000000005</ele><time>2026-04-26T08:40:17.543Z</time></trkpt><trkpt lat="43.7603883" lon="12.6562"><ele>344.6</ele><time>2026-04-26T08:40:18.543Z</time></trkpt><trkpt lat="43.7603217" lon="12.65606"><ele>347.0</ele><time>2026-04-26T08:40:19.543Z</time></trkpt><trkpt lat="43.7602617" lon="12.6558967"><ele>350.0</ele><time>2026-04-26T08:40:20.543Z</time></trkpt><trkpt lat="43.7602133" lon="12.6557283"><ele>353.0</ele><time>2026-04-26T08:40:21.542Z</time></trkpt><trkpt lat="43.7601683" lon="12.6555683"><ele>356.0</ele><time>2026-04-26T08:40:22.543Z</time></trkpt><trkpt lat="43.7601317" lon="12.655415"><ele>359.0</ele><time>2026-04-26T08:40:23.543Z</time></trkpt><trkpt lat="43.76011" lon="12.6552733"><ele>360.75</ele><time>2026-04-26T08:40:24.542Z</time></trkpt><trkpt lat="43.7601167" lon="12.6551317"><ele>362.5</ele><time>2026-04-26T08:40:25.543Z</time></trkpt><trkpt lat="43.7601467" lon="12.654975"><ele>364.25</ele><time>2026-04-26T08:40:26.543Z</time></trkpt><trkpt lat="43.760195" lon="12.6548133"><ele>366.0</ele><time>2026-04-26T08:40:27.543Z</time></trkpt><trkpt lat="43.76025" lon="12.654655"><ele>368.0</ele><time>2026-04-26T08:40:28.543Z</time></trkpt><trkpt lat="43.760315" lon="12.6545183"><ele>370.0</ele><time>2026-04-26T08:40:29.543Z</time></trkpt><trkpt lat="43.7603967" lon="12.6543933"><ele>372.0</ele><time>2026-04-26T08:40:30.543Z</time></trkpt><trkpt lat="43.7604817" lon="12.6542567"><ele>374.0</ele><time>2026-04-26T08:40:31.543Z</time></trkpt><trkpt lat="43.7605683" lon="12.6541183"><ele>374.0</ele><time>2026-04-26T08:40:32.543Z</time></trkpt><trkpt lat="43.7606633" lon="12.6539783"><ele>374.0</ele><time>2026-04-26T08:40:33.543Z</time></trkpt><trkpt lat="43.760755" lon="12.6538467"><ele>374.0</ele><time>2026-04-26T08:40:34.543Z</time></trkpt><trkpt lat="43.7608383" lon="12.6537283"><ele>374.0</ele><time>2026-04-26T08:40:35.543Z</time></trkpt><trkpt lat="43.7609167" lon="12.65361"><ele>372.75</ele><time>2026-04-26T08:40:36.543Z</time></trkpt><trkpt lat="43.76098" lon="12.65348"><ele>371.5</ele><time>2026-04-26T08:40:37.542Z</time></trkpt><trkpt lat="43.7610217" lon="12.6533383"><ele>370.25</ele><time>2026-04-26T08:40:38.543Z</time></trkpt><trkpt lat="43.76104" lon="12.6531817"><ele>369.0</ele><time>2026-04-26T08:40:39.542Z</time></trkpt><trkpt lat="43.7610317" lon="12.6530017"><ele>369.0</ele><time>2026-04-26T08:40:40.543Z</time></trkpt><trkpt lat="43.76101" lon="12.6528183"><ele>369.0</ele><time>2026-04-26T08:40:41.542Z</time></trkpt><trkpt lat="43.7609883" lon="12.6526533"><ele>369.0</ele><time>2026-04-26T08:40:42.542Z</time></trkpt><trkpt lat="43.760975" lon="12.6524883"><ele>369.0</ele><time>2026-04-26T08:40:43.543Z</time></trkpt><trkpt lat="43.7609617" lon="12.65232"><ele>370.25</ele><time>2026-04-26T08:40:44.543Z</time></trkpt><trkpt lat="43.760945" lon="12.6521433"><ele>371.5</ele><time>2026-04-26T08:40:45.542Z</time></trkpt><trkpt lat="43.7609383" lon="12.6519617"><ele>372.75</ele><time>2026-04-26T08:40:46.542Z</time></trkpt><trkpt lat="43.76094" lon="12.6517717"><ele>374.0</ele><time>2026-04-26T08:40:47.543Z</time></trkpt><trkpt lat="43.7609417" lon="12.651575"><ele>374.5</ele><time>2026-04-26T08:40:48.543Z</time></trkpt><trkpt lat="43.76095" lon="12.6513717"><ele>375.0</ele><time>2026-04-26T08:40:49.542Z</time></trkpt><trkpt lat="43.7609583" lon="12.651175"><ele>375.5</ele><time>2026-04-26T08:40:50.543Z</time></trkpt><trkpt lat="43.7609683" lon="12.6509717"><ele>376.0</ele><time>2026-04-26T08:40:51.542Z</time></trkpt><trkpt lat="43.7609833" lon="12.6507817"><ele>376.0</ele><time>2026-04-26T08:40:52.543Z</time></trkpt><trkpt lat="43.7610183" lon="12.6505983"><ele>376.0</ele><time>2026-04-26T08:40:53.543Z</time></trkpt><trkpt lat="43.7610633" lon="12.6504117"><ele>376.0</ele><time>2026-04-26T08:40:54.543Z</time></trkpt><trkpt lat="43.76112" lon="12.6502317"><ele>376.0</ele><time>2026-04-26T08:40:55.543Z</time></trkpt><trkpt lat="43.7611867" lon="12.6500667"><ele>377.0</ele><time>2026-04-26T08:40:56.542Z</time></trkpt><trkpt lat="43.76125" lon="12.6499033"><ele>378.0</ele><time>2026-04-26T08:40:57.543Z</time></trkpt><trkpt lat="43.76131" lon="12.6497317"><ele>379.0</ele><time>2026-04-26T08:40:58.543Z</time></trkpt><trkpt lat="43.7613717" lon="12.6495633"><ele>380.0</ele><time>2026-04-26T08:40:59.543Z</time></trkpt><trkpt lat="43.7614283" lon="12.6493917"><ele>380.0</ele><time>2026-04-26T08:41:00.542Z</time></trkpt><trkpt lat="43.76149" lon="12.6492233"><ele>380.0</ele><time>2026-04-26T08:41:01.543Z</time></trkpt><trkpt lat="43.761555" lon="12.6490533"><ele>380.0</ele><time>2026-04-26T08:41:02.543Z</time></trkpt><trkpt lat="43.7616183" lon="12.6488917"><ele>380.0</ele><time>2026-04-26T08:41:03.543Z</time></trkpt><trkpt lat="43.7616767" lon="12.6487367"><ele>382.5</ele><time>2026-04-26T08:41:04.543Z</time></trkpt><trkpt lat="43.7617317" lon="12.64859"><ele>385.0</ele><time>2026-04-26T08:41:05.542Z</time></trkpt><trkpt lat="43.7617717" lon="12.6484333"><ele>387.5</ele><time>2026-04-26T08:41:06.542Z</time></trkpt><trkpt lat="43.761795" lon="12.648275"><ele>390.0</ele><time>2026-04-26T08:41:07.543Z</time></trkpt><trkpt lat="43.76181" lon="12.6481217"><ele>390.0</ele><time>2026-04-26T08:41:08.542Z</time></trkpt><trkpt lat="43.76181" lon="12.6479617"><ele>390.0</ele><time>2026-04-26T08:41:09.543Z</time></trkpt><trkpt lat="43.761785" lon="12.6478267"><ele>390.0</ele><time>2026-04-26T08:41:10.543Z</time></trkpt><trkpt lat="43.7617417" lon="12.6476983"><ele>390.0</ele><time>2026-04-26T08:41:11.543Z</time></trkpt><trkpt lat="43.7616933" lon="12.6475567"><ele>390.0</ele><time>2026-04-26T08:41:12.542Z</time></trkpt><trkpt lat="43.7616333" lon="12.6474117"><ele>390.0</ele><time>2026-04-26T08:41:13.543Z</time></trkpt><trkpt lat="43.7615717" lon="12.647275"><ele>390.0</ele><time>2026-04-26T08:41:14.542Z</time></trkpt><trkpt lat="43.7615217" lon="12.647155"><ele>390.0</ele><time>2026-04-26T08:41:15.542Z</time></trkpt><trkpt lat="43.761485" lon="12.6470533"><ele>390.0</ele><time>2026-04-26T08:41:16.543Z</time></trkpt><trkpt lat="43.7614483" lon="12.646975"><ele>390.0</ele><time>2026-04-26T08:41:17.543Z</time></trkpt><trkpt lat="43.7614033" lon="12.646875"><ele>388.3333333333333</ele><time>2026-04-26T08:41:19.542Z</time></trkpt><trkpt lat="43.7613933" lon="12.6467833"><ele>386.6666666666667</ele><time>2026-04-26T08:41:23.543Z</time></trkpt><trkpt lat="43.76148" lon="12.6467183"><ele>385.0</ele><time>2026-04-26T08:41:26.543Z</time></trkpt><trkpt lat="43.76154" lon="12.64668"><ele>383.33333333333337</ele><time>2026-04-26T08:41:28.543Z</time></trkpt><trkpt lat="43.7616117" lon="12.6466467"><ele>381.6666666666667</ele><time>2026-04-26T08:41:30.543Z</time></trkpt><trkpt lat="43.7616517" lon="12.64655"><ele>380.0</ele><time>2026-04-26T08:41:32.543Z</time></trkpt><trkpt lat="43.7616017" lon="12.64643"><ele>380.0</ele><time>2026-04-26T08:41:34.543Z</time></trkpt><trkpt lat="43.7615417" lon="12.6463833"><ele>380.0</ele><time>2026-04-26T08:41:35.543Z</time></trkpt><trkpt lat="43.7614817" lon="12.6463233"><ele>380.0</ele><time>2026-04-26T08:41:36.543Z</time></trkpt><trkpt lat="43.7614267" lon="12.6462567"><ele>380.0</ele><time>2026-04-26T08:41:37.543Z</time></trkpt><trkpt lat="43.7613917" lon="12.64618"><ele>380.0</ele><time>2026-04-26T08:41:38.542Z</time></trkpt><trkpt lat="43.7613983" lon="12.64606"><ele>380.0</ele><time>2026-04-26T08:41:40.543Z</time></trkpt><trkpt lat="43.7614967" lon="12.6460217"><ele>380.0</ele><time>2026-04-26T08:41:42.543Z</time></trkpt><trkpt lat="43.761575" lon="12.646045"><ele>380.0</ele><time>2026-04-26T08:41:43.542Z</time></trkpt><trkpt lat="43.76168" lon="12.6461033"><ele>380.0</ele><time>2026-04-26T08:41:44.543Z</time></trkpt><trkpt lat="43.76181" lon="12.6461533"><ele>380.0</ele><time>2026-04-26T08:41:45.542Z</time></trkpt><trkpt lat="43.7619483" lon="12.64621"><ele>375.0</ele><time>2026-04-26T08:41:46.543Z</time></trkpt><trkpt lat="43.76209" lon="12.6462783"><ele>370.0</ele><time>2026-04-26T08:41:47.543Z</time></trkpt><trkpt lat="43.7622283" lon="12.64633"><ele>365.0</ele><time>2026-04-26T08:41:48.543Z</time></trkpt><trkpt lat="43.7623733" lon="12.64638"><ele>360.0</ele><time>2026-04-26T08:41:49.542Z</time></trkpt><trkpt lat="43.7625133" lon="12.646425"><ele>360.0</ele><time>2026-04-26T08:41:50.542Z</time></trkpt><trkpt lat="43.7626433" lon="12.646465"><ele>360.0</ele><time>2026-04-26T08:41:51.543Z</time></trkpt><trkpt lat="43.7627633" lon="12.6464967"><ele>360.0</ele><time>2026-04-26T08:41:52.543Z</time></trkpt><trkpt lat="43.7628767" lon="12.6465167"><ele>360.0</ele><time>2026-04-26T08:41:53.543Z</time></trkpt><trkpt lat="43.7629883" lon="12.6465333"><ele>357.0</ele><time>2026-04-26T08:41:54.542Z</time></trkpt><trkpt lat="43.7631033" lon="12.6465467"><ele>354.0</ele><time>2026-04-26T08:41:55.543Z</time></trkpt><trkpt lat="43.7632217" lon="12.6465483"><ele>351.0</ele><time>2026-04-26T08:41:56.543Z</time></trkpt><trkpt lat="43.763345" lon="12.64652"><ele>348.0</ele><time>2026-04-26T08:41:57.543Z</time></trkpt><trkpt lat="43.7635033" lon="12.6465167"><ele>344.0</ele><time>2026-04-26T08:41:58.542Z</time></trkpt><trkpt lat="43.7636433" lon="12.6464567"><ele>340.0</ele><time>2026-04-26T08:41:59.543Z</time></trkpt><trkpt lat="43.76378" lon="12.6463983"><ele>336.0</ele><time>2026-04-26T08:42:00.542Z</time></trkpt><trkpt lat="43.7639117" lon="12.6463467"><ele>332.0</ele><time>2026-04-26T08:42:01.542Z</time></trkpt><trkpt lat="43.7640433" lon="12.6462883"><ele>332.0</ele><time>2026-04-26T08:42:02.542Z</time></trkpt><trkpt lat="43.7641767" lon="12.6462533"><ele>332.0</ele><time>2026-04-26T08:42:03.543Z</time></trkpt><trkpt lat="43.76431" lon="12.646225"><ele>332.0</ele><time>2026-04-26T08:42:04.543Z</time></trkpt><trkpt lat="43.764435" lon="12.6462"><ele>332.0</ele><time>2026-04-26T08:42:05.543Z</time></trkpt><trkpt lat="43.76455" lon="12.6461617"><ele>328.40000000000003</ele><time>2026-04-26T08:42:06.542Z</time></trkpt><trkpt lat="43.764655" lon="12.6461183"><ele>324.8</ele><time>2026-04-26T08:42:07.542Z</time></trkpt><trkpt lat="43.7647483" lon="12.6460817"><ele>321.2</ele><time>2026-04-26T08:42:08.543Z</time></trkpt><trkpt lat="43.76483" lon="12.646065"><ele>317.6</ele><time>2026-04-26T08:42:09.543Z</time></trkpt><trkpt lat="43.7649067" lon="12.6460767"><ele>314.0</ele><time>2026-04-26T08:42:10.543Z</time></trkpt><trkpt lat="43.7649817" lon="12.6461367"><ele>314.0</ele><time>2026-04-26T08:42:11.543Z</time></trkpt><trkpt lat="43.7650567" lon="12.646235"><ele>314.0</ele><time>2026-04-26T08:42:12.542Z</time></trkpt><trkpt lat="43.7651517" lon="12.64637"><ele>314.0</ele><time>2026-04-26T08:42:13.542Z</time></trkpt><trkpt lat="43.7652633" lon="12.6465467"><ele>314.0</ele><time>2026-04-26T08:42:14.542Z</time></trkpt><trkpt lat="43.76538" lon="12.6467283"><ele>310.33333333333337</ele><time>2026-04-26T08:42:15.543Z</time></trkpt><trkpt lat="43.76549" lon="12.6468983"><ele>306.6666666666667</ele><time>2026-04-26T08:42:16.543Z</time></trkpt><trkpt lat="43.7655967" lon="12.6470583"><ele>303.0</ele><time>2026-04-26T08:42:17.542Z</time></trkpt><trkpt lat="43.7656967" lon="12.6472083"><ele>303.0</ele><time>2026-04-26T08:42:18.542Z</time></trkpt><trkpt lat="43.7657767" lon="12.6473517"><ele>303.0</ele><time>2026-04-26T08:42:19.542Z</time></trkpt><trkpt lat="43.765845" lon="12.647505"><ele>303.0</ele><time>2026-04-26T08:42:20.543Z</time></trkpt><trkpt lat="43.7659083" lon="12.6476833"><ele>303.0</ele><time>2026-04-26T08:42:21.543Z</time></trkpt><trkpt lat="43.7659583" lon="12.6478517"><ele>304.0</ele><time>2026-04-26T08:42:22.543Z</time></trkpt><trkpt lat="43.7659833" lon="12.6480233"><ele>305.0</ele><time>2026-04-26T08:42:23.543Z</time></trkpt><trkpt lat="43.7659867" lon="12.6481917"><ele>306.0</ele><time>2026-04-26T08:42:24.542Z</time></trkpt><trkpt lat="43.76598" lon="12.6483517"><ele>307.0</ele><time>2026-04-26T08:42:25.543Z</time></trkpt><trkpt lat="43.7659583" lon="12.6484917"><ele>307.0</ele><time>2026-04-26T08:42:26.543Z</time></trkpt><trkpt lat="43.7659233" lon="12.64861"><ele>307.0</ele><time>2026-04-26T08:42:27.543Z</time></trkpt><trkpt lat="43.765875" lon="12.6487383"><ele>307.0</ele><time>2026-04-26T08:42:28.543Z</time></trkpt><trkpt lat="43.7658167" lon="12.6488883"><ele>307.0</ele><time>2026-04-26T08:42:29.542Z</time></trkpt><trkpt lat="43.7657533" lon="12.6490267"><ele>307.0</ele><time>2026-04-26T08:42:30.543Z</time></trkpt><trkpt lat="43.7656917" lon="12.6491467"><ele>304.4</ele><time>2026-04-26T08:42:31.543Z</time></trkpt><trkpt lat="43.7656183" lon="12.6492583"><ele>301.79999999999995</ele><time>2026-04-26T08:42:32.543Z</time></trkpt><trkpt lat="43.765525" lon="12.64935"><ele>299.2</ele><time>2026-04-26T08:42:33.543Z</time></trkpt><trkpt lat="43.7654283" lon="12.6494233"><ele>296.59999999999997</ele><time>2026-04-26T08:42:34.543Z</time></trkpt><trkpt lat="43.7653333" lon="12.6495"><ele>294.0</ele><time>2026-04-26T08:42:35.542Z</time></trkpt><trkpt lat="43.7652467" lon="12.6495667"><ele>294.0</ele><time>2026-04-26T08:42:36.543Z</time></trkpt><trkpt lat="43.7651717" lon="12.6496483"><ele>294.0</ele><time>2026-04-26T08:42:37.543Z</time></trkpt><trkpt lat="43.7651083" lon="12.649745"><ele>294.0</ele><time>2026-04-26T08:42:38.543Z</time></trkpt><trkpt lat="43.7650483" lon="12.6498467"><ele>294.0</ele><time>2026-04-26T08:42:39.542Z</time></trkpt><trkpt lat="43.7650033" lon="12.6499517"><ele>294.0</ele><time>2026-04-26T08:42:40.543Z</time></trkpt><trkpt lat="43.7649683" lon="12.6500467"><ele>294.0</ele><time>2026-04-26T08:42:41.543Z</time></trkpt><trkpt lat="43.76496" lon="12.65014"><ele>294.0</ele><time>2026-04-26T08:42:42.543Z</time></trkpt><trkpt lat="43.7649817" lon="12.6502267"><ele>294.0</ele><time>2026-04-26T08:42:43.543Z</time></trkpt><trkpt lat="43.7650767" lon="12.650315"><ele>294.0</ele><time>2026-04-26T08:42:45.543Z</time></trkpt><trkpt lat="43.7651583" lon="12.6503167"><ele>294.0</ele><time>2026-04-26T08:42:46.542Z</time></trkpt><trkpt lat="43.76527" lon="12.6502867"><ele>294.0</ele><time>2026-04-26T08:42:47.543Z</time></trkpt><trkpt lat="43.7654217" lon="12.6502267"><ele>288.0</ele><time>2026-04-26T08:42:48.542Z</time></trkpt><trkpt lat="43.7655883" lon="12.65015"><ele>282.0</ele><time>2026-04-26T08:42:49.543Z</time></trkpt><trkpt lat="43.7657683" lon="12.6500783"><ele>276.0</ele><time>2026-04-26T08:42:50.543Z</time></trkpt><trkpt lat="43.765925" lon="12.650015"><ele>271.0</ele><time>2026-04-26T08:42:51.543Z</time></trkpt><trkpt lat="43.7660867" lon="12.649955"><ele>266.0</ele><time>2026-04-26T08:42:52.543Z</time></trkpt><trkpt lat="43.7662533" lon="12.6498917"><ele>261.0</ele><time>2026-04-26T08:42:53.542Z</time></trkpt><trkpt lat="43.7664283" lon="12.6498233"><ele>261.0</ele><time>2026-04-26T08:42:54.543Z</time></trkpt><trkpt lat="43.7665983" lon="12.6497567"><ele>261.0</ele><time>2026-04-26T08:42:55.543Z</time></trkpt><trkpt lat="43.7667583" lon="12.6496983"><ele>261.0</ele><time>2026-04-26T08:42:56.543Z</time></trkpt><trkpt lat="43.766905" lon="12.649645"><ele>260.5</ele><time>2026-04-26T08:42:57.542Z</time></trkpt><trkpt lat="43.7670417" lon="12.6496"><ele>260.0</ele><time>2026-04-26T08:42:58.542Z</time></trkpt><trkpt lat="43.7671633" lon="12.6495517"><ele>259.5</ele><time>2026-04-26T08:42:59.543Z</time></trkpt><trkpt lat="43.7672829" lon="12.6494989"><ele>259.0</ele><time>2026-04-26T08:43:00.542Z</time></trkpt><trkpt lat="43.7673966" lon="12.6494355"><ele>259.0</ele><time>2026-04-26T08:43:01.543Z</time></trkpt><trkpt lat="43.7675071" lon="12.649359"><ele>259.0</ele><time>2026-04-26T08:43:02.543Z</time></trkpt><trkpt lat="43.7676227" lon="12.6492636"><ele>259.0</ele><time>2026-04-26T08:43:03.543Z</time></trkpt><trkpt lat="43.7677413" lon="12.6491513"><ele>259.0</ele><time>2026-04-26T08:43:04.542Z</time></trkpt><trkpt lat="43.7678509" lon="12.6490387"><ele>256.4</ele><time>2026-04-26T08:43:05.543Z</time></trkpt><trkpt lat="43.7679509" lon="12.6489398"><ele>253.79999999999998</ele><time>2026-04-26T08:43:06.542Z</time></trkpt><trkpt lat="43.7680368" lon="12.6488444"><ele>251.20000000000002</ele><time>2026-04-26T08:43:07.543Z</time></trkpt><trkpt lat="43.7681037" lon="12.6487579"><ele>248.60000000000002</ele><time>2026-04-26T08:43:08.543Z</time></trkpt><trkpt lat="43.7681527" lon="12.6486625"><ele>246.0</ele><time>2026-04-26T08:43:09.543Z</time></trkpt><trkpt lat="43.7681895" lon="12.6485449"><ele>246.0</ele><time>2026-04-26T08:43:10.543Z</time></trkpt><trkpt lat="43.7682174" lon="12.6484212"><ele>246.0</ele><time>2026-04-26T08:43:11.543Z</time></trkpt><trkpt lat="43.7682344" lon="12.648301"><ele>246.0</ele><time>2026-04-26T08:43:12.543Z</time></trkpt><trkpt lat="43.7682549" lon="12.6482022"><ele>246.0</ele><time>2026-04-26T08:43:13.543Z</time></trkpt><trkpt lat="43.7682945" lon="12.6481179"><ele>246.0</ele><time>2026-04-26T08:43:14.543Z</time></trkpt><trkpt lat="43.7683582" lon="12.6480544"><ele>246.0</ele><time>2026-04-26T08:43:15.543Z</time></trkpt><trkpt lat="43.7684393" lon="12.6480245"><ele>241.5</ele><time>2026-04-26T08:43:16.543Z</time></trkpt><trkpt lat="43.7685298" lon="12.6480328"><ele>237.0</ele><time>2026-04-26T08:43:17.543Z</time></trkpt><trkpt lat="43.7686229" lon="12.6480836"><ele>232.5</ele><time>2026-04-26T08:43:18.542Z</time></trkpt><trkpt lat="43.7687319" lon="12.6481813"><ele>228.0</ele><time>2026-04-26T08:43:19.543Z</time></trkpt><trkpt lat="43.7688522" lon="12.6483164"><ele>228.0</ele><time>2026-04-26T08:43:20.543Z</time></trkpt><trkpt lat="43.7689824" lon="12.6484445"><ele>228.0</ele><time>2026-04-26T08:43:21.543Z</time></trkpt><trkpt lat="43.769119" lon="12.6485522"><ele>228.0</ele><time>2026-04-26T08:43:22.543Z</time></trkpt><trkpt lat="43.7692605" lon="12.6486454"><ele>225.0</ele><time>2026-04-26T08:43:23.543Z</time></trkpt><trkpt lat="43.7694121" lon="12.64873"><ele>222.0</ele><time>2026-04-26T08:43:24.543Z</time></trkpt><trkpt lat="43.7695618" lon="12.6488114"><ele>219.0</ele><time>2026-04-26T08:43:25.543Z</time></trkpt><trkpt lat="43.7697135" lon="12.6488996"><ele>219.0</ele><time>2026-04-26T08:43:26.542Z</time></trkpt><trkpt lat="43.769863" lon="12.6489987"><ele>219.0</ele><time>2026-04-26T08:43:27.543Z</time></trkpt><trkpt lat="43.7699991" lon="12.6491089"><ele>219.0</ele><time>2026-04-26T08:43:28.543Z</time></trkpt><trkpt lat="43.7701275" lon="12.6492244"><ele>216.5</ele><time>2026-04-26T08:43:29.543Z</time></trkpt><trkpt lat="43.7702531" lon="12.6493257"><ele>214.0</ele><time>2026-04-26T08:43:30.542Z</time></trkpt><trkpt lat="43.7703739" lon="12.6494163"><ele>211.5</ele><time>2026-04-26T08:43:31.543Z</time></trkpt><trkpt lat="43.7704935" lon="12.6494935"><ele>209.0</ele><time>2026-04-26T08:43:32.542Z</time></trkpt><trkpt lat="43.7706158" lon="12.6495396"><ele>208.25</ele><time>2026-04-26T08:43:33.543Z</time></trkpt><trkpt lat="43.7707494" lon="12.6495498"><ele>207.5</ele><time>2026-04-26T08:43:34.542Z</time></trkpt><trkpt lat="43.7708963" lon="12.6495337"><ele>206.75</ele><time>2026-04-26T08:43:35.543Z</time></trkpt><trkpt lat="43.7710544" lon="12.6494896"><ele>206.0</ele><time>2026-04-26T08:43:36.542Z</time></trkpt><trkpt lat="43.7712174" lon="12.6494332"><ele>205.66666666666669</ele><time>2026-04-26T08:43:37.541Z</time></trkpt><trkpt lat="43.7713681" lon="12.6493848"><ele>205.33333333333331</ele><time>2026-04-26T08:43:38.542Z</time></trkpt><trkpt lat="43.7715195" lon="12.649351"><ele>205.0</ele><time>2026-04-26T08:43:39.542Z</time></trkpt><trkpt lat="43.7716919" lon="12.6493193"><ele>202.33333333333331</ele><time>2026-04-26T08:43:40.542Z</time></trkpt><trkpt lat="43.7718809" lon="12.6492938"><ele>199.66666666666669</ele><time>2026-04-26T08:43:41.542Z</time></trkpt><trkpt lat="43.7720772" lon="12.6492769"><ele>197.0</ele><time>2026-04-26T08:43:42.541Z</time></trkpt><trkpt lat="43.7722673" lon="12.6492597"><ele>197.0</ele><time>2026-04-26T08:43:43.541Z</time></trkpt><trkpt lat="43.7724523" lon="12.649239"><ele>197.0</ele><time>2026-04-26T08:43:44.542Z</time></trkpt><trkpt lat="43.7726365" lon="12.6492159"><ele>197.0</ele><time>2026-04-26T08:43:45.542Z</time></trkpt><trkpt lat="43.7728267" lon="12.6491897"><ele>197.0</ele><time>2026-04-26T08:43:46.542Z</time></trkpt><trkpt lat="43.7730086" lon="12.6491644"><ele>197.0</ele><time>2026-04-26T08:43:47.541Z</time></trkpt><trkpt lat="43.773183" lon="12.6491434"><ele>197.0</ele><time>2026-04-26T08:43:48.542Z</time></trkpt><trkpt lat="43.7733599" lon="12.6491241"><ele>196.66666666666669</ele><time>2026-04-26T08:43:49.541Z</time></trkpt><trkpt lat="43.7735419" lon="12.6491042"><ele>196.33333333333331</ele><time>2026-04-26T08:43:50.542Z</time></trkpt><trkpt lat="43.7737229" lon="12.6490808"><ele>196.0</ele><time>2026-04-26T08:43:51.542Z</time></trkpt><trkpt lat="43.7739033" lon="12.6490586"><ele>196.0</ele><time>2026-04-26T08:43:52.542Z</time></trkpt><trkpt lat="43.7740802" lon="12.6490377"><ele>196.0</ele><time>2026-04-26T08:43:53.542Z</time></trkpt><trkpt lat="43.7742499" lon="12.6490169"><ele>196.0</ele><time>2026-04-26T08:43:54.542Z</time></trkpt><trkpt lat="43.7744234" lon="12.6489975"><ele>199.0</ele><time>2026-04-26T08:43:55.542Z</time></trkpt><trkpt lat="43.7745983" lon="12.6489777"><ele>202.0</ele><time>2026-04-26T08:43:56.541Z</time></trkpt><trkpt lat="43.7747731" lon="12.6489542"><ele>205.0</ele><time>2026-04-26T08:43:57.541Z</time></trkpt><trkpt lat="43.7749435" lon="12.64893"><ele>205.0</ele><time>2026-04-26T08:43:58.541Z</time></trkpt><trkpt lat="43.7751152" lon="12.648905"><ele>205.0</ele><time>2026-04-26T08:43:59.542Z</time></trkpt><trkpt lat="43.7752801" lon="12.648874"><ele>205.0</ele><time>2026-04-26T08:44:00.542Z</time></trkpt><trkpt lat="43.7754467" lon="12.6488381"><ele>204.66666666666666</ele><time>2026-04-26T08:44:01.542Z</time></trkpt><trkpt lat="43.7756133" lon="12.6487994"><ele>204.33333333333331</ele><time>2026-04-26T08:44:02.542Z</time></trkpt><trkpt lat="43.775774" lon="12.6487558"><ele>204.0</ele><time>2026-04-26T08:44:03.542Z</time></trkpt><trkpt lat="43.7759315" lon="12.6487183"><ele>200.33333333333331</ele><time>2026-04-26T08:44:04.542Z</time></trkpt><trkpt lat="43.7760814" lon="12.6486947"><ele>196.66666666666666</ele><time>2026-04-26T08:44:05.541Z</time></trkpt><trkpt lat="43.7762367" lon="12.6486817"><ele>193.0</ele><time>2026-04-26T08:44:06.542Z</time></trkpt><trkpt lat="43.7764017" lon="12.6486583"><ele>193.0</ele><time>2026-04-26T08:44:07.541Z</time></trkpt><trkpt lat="43.7765667" lon="12.648645"><ele>193.0</ele><time>2026-04-26T08:44:08.541Z</time></trkpt><trkpt lat="43.7767317" lon="12.6486267"><ele>193.0</ele><time>2026-04-26T08:44:09.541Z</time></trkpt><trkpt lat="43.776895" lon="12.648615"><ele>191.0</ele><time>2026-04-26T08:44:10.542Z</time></trkpt><trkpt lat="43.77706" lon="12.6486033"><ele>189.0</ele><time>2026-04-26T08:44:11.541Z</time></trkpt><trkpt lat="43.777225" lon="12.6485967"><ele>187.0</ele><time>2026-04-26T08:44:12.541Z</time></trkpt><trkpt lat="43.7774" lon="12.6485817"><ele>187.0</ele><time>2026-04-26T08:44:13.542Z</time></trkpt><trkpt lat="43.77758" lon="12.64857"><ele>187.0</ele><time>2026-04-26T08:44:14.542Z</time></trkpt><trkpt lat="43.7777417" lon="12.64856"><ele>187.0</ele><time>2026-04-26T08:44:15.542Z</time></trkpt><trkpt lat="43.7778967" lon="12.648535"><ele>187.5</ele><time>2026-04-26T08:44:16.542Z</time></trkpt><trkpt lat="43.7780367" lon="12.6485117"><ele>188.0</ele><time>2026-04-26T08:44:17.542Z</time></trkpt><trkpt lat="43.7781717" lon="12.6484833"><ele>188.5</ele><time>2026-04-26T08:44:18.541Z</time></trkpt><trkpt lat="43.7783" lon="12.6484317"><ele>189.0</ele><time>2026-04-26T08:44:19.541Z</time></trkpt><trkpt lat="43.7784217" lon="12.6483717"><ele>187.75</ele><time>2026-04-26T08:44:20.541Z</time></trkpt><trkpt lat="43.7785383" lon="12.64829"><ele>186.5</ele><time>2026-04-26T08:44:21.542Z</time></trkpt><trkpt lat="43.778665" lon="12.6481883"><ele>185.25</ele><time>2026-04-26T08:44:22.541Z</time></trkpt><trkpt lat="43.7787867" lon="12.64808"><ele>184.0</ele><time>2026-04-26T08:44:23.542Z</time></trkpt><trkpt lat="43.77891" lon="12.6479833"><ele>184.0</ele><time>2026-04-26T08:44:24.542Z</time></trkpt><trkpt lat="43.7790417" lon="12.6478933"><ele>184.0</ele><time>2026-04-26T08:44:25.542Z</time></trkpt><trkpt lat="43.7791683" lon="12.647805"><ele>184.0</ele><time>2026-04-26T08:44:26.542Z</time></trkpt><trkpt lat="43.779295" lon="12.64774"><ele>184.0</ele><time>2026-04-26T08:44:27.542Z</time></trkpt><trkpt lat="43.7794083" lon="12.6476917"><ele>180.79999999999998</ele><time>2026-04-26T08:44:28.541Z</time></trkpt><trkpt lat="43.7795017" lon="12.6476533"><ele>177.6</ele><time>2026-04-26T08:44:29.541Z</time></trkpt><trkpt lat="43.7796017" lon="12.647655"><ele>174.4</ele><time>2026-04-26T08:44:30.542Z</time></trkpt><trkpt lat="43.7797017" lon="12.647685"><ele>171.2</ele><time>2026-04-26T08:44:31.542Z</time></trkpt><trkpt lat="43.7798067" lon="12.6477433"><ele>168.0</ele><time>2026-04-26T08:44:32.542Z</time></trkpt><trkpt lat="43.77991" lon="12.6478267"><ele>168.0</ele><time>2026-04-26T08:44:33.541Z</time></trkpt><trkpt lat="43.780005" lon="12.647895"><ele>168.0</ele><time>2026-04-26T08:44:34.542Z</time></trkpt><trkpt lat="43.780095" lon="12.6479483"><ele>168.0</ele><time>2026-04-26T08:44:35.542Z</time></trkpt><trkpt lat="43.7801867" lon="12.6479667"><ele>168.0</ele><time>2026-04-26T08:44:36.542Z</time></trkpt><trkpt lat="43.7802833" lon="12.6479533"><ele>168.0</ele><time>2026-04-26T08:44:37.542Z</time></trkpt><trkpt lat="43.7803783" lon="12.647905"><ele>164.75</ele><time>2026-04-26T08:44:38.542Z</time></trkpt><trkpt lat="43.780465" lon="12.6478217"><ele>161.5</ele><time>2026-04-26T08:44:39.541Z</time></trkpt><trkpt lat="43.7805483" lon="12.6477283"><ele>158.25</ele><time>2026-04-26T08:44:40.541Z</time></trkpt><trkpt lat="43.780634" lon="12.6476243"><ele>155.0</ele><time>2026-04-26T08:44:41.542Z</time></trkpt><trkpt lat="43.7807264" lon="12.6474954"><ele>154.5</ele><time>2026-04-26T08:44:42.542Z</time></trkpt><trkpt lat="43.7808299" lon="12.6473419"><ele>154.0</ele><time>2026-04-26T08:44:43.542Z</time></trkpt><trkpt lat="43.7809384" lon="12.6471846"><ele>153.5</ele><time>2026-04-26T08:44:44.542Z</time></trkpt><trkpt lat="43.7810329" lon="12.6470436"><ele>153.0</ele><time>2026-04-26T08:44:45.541Z</time></trkpt><trkpt lat="43.7811186" lon="12.6469196"><ele>149.0</ele><time>2026-04-26T08:44:46.541Z</time></trkpt><trkpt lat="43.7812144" lon="12.646817"><ele>145.0</ele><time>2026-04-26T08:44:47.542Z</time></trkpt><trkpt lat="43.7813139" lon="12.6467377"><ele>141.0</ele><time>2026-04-26T08:44:48.541Z</time></trkpt><trkpt lat="43.7813942" lon="12.646701"><ele>137.0</ele><time>2026-04-26T08:44:49.542Z</time></trkpt><trkpt lat="43.7814652" lon="12.6467025"><ele>133.0</ele><time>2026-04-26T08:44:50.542Z</time></trkpt><trkpt lat="43.7815336" lon="12.6467477"><ele>133.0</ele><time>2026-04-26T08:44:51.542Z</time></trkpt><trkpt lat="43.7816005" lon="12.6468397"><ele>133.0</ele><time>2026-04-26T08:44:52.542Z</time></trkpt><trkpt lat="43.7816648" lon="12.646995"><ele>133.0</ele><time>2026-04-26T08:44:53.542Z</time></trkpt><trkpt lat="43.781726" lon="12.647187"><ele>133.0</ele><time>2026-04-26T08:44:54.542Z</time></trkpt><trkpt lat="43.7817851" lon="12.6473897"><ele>134.66666666666669</ele><time>2026-04-26T08:44:55.541Z</time></trkpt><trkpt lat="43.781839" lon="12.6475938"><ele>136.33333333333334</ele><time>2026-04-26T08:44:56.542Z</time></trkpt><trkpt lat="43.7818887" lon="12.6477985"><ele>138.0</ele><time>2026-04-26T08:44:57.541Z</time></trkpt><trkpt lat="43.7819295" lon="12.6480028"><ele>130.66666666666666</ele><time>2026-04-26T08:44:58.541Z</time></trkpt><trkpt lat="43.7819587" lon="12.6482082"><ele>123.33333333333333</ele><time>2026-04-26T08:44:59.541Z</time></trkpt><trkpt lat="43.7819907" lon="12.6484158"><ele>116.0</ele><time>2026-04-26T08:45:00.542Z</time></trkpt><trkpt lat="43.7820236" lon="12.6486229"><ele>115.75</ele><time>2026-04-26T08:45:01.542Z</time></trkpt><trkpt lat="43.7820532" lon="12.6488223"><ele>115.5</ele><time>2026-04-26T08:45:02.542Z</time></trkpt><trkpt lat="43.7820685" lon="12.6490177"><ele>115.25</ele><time>2026-04-26T08:45:03.542Z</time></trkpt><trkpt lat="43.7820852" lon="12.6491937"><ele>115.0</ele><time>2026-04-26T08:45:04.541Z</time></trkpt><trkpt lat="43.7821002" lon="12.649333"><ele>115.0</ele><time>2026-04-26T08:45:05.542Z</time></trkpt><trkpt lat="43.7821114" lon="12.6494395"><ele>115.0</ele><time>2026-04-26T08:45:06.541Z</time></trkpt><trkpt lat="43.7821655" lon="12.6495578"><ele>115.0</ele><time>2026-04-26T08:45:08.541Z</time></trkpt><trkpt lat="43.7822603" lon="12.649522"><ele>115.0</ele><time>2026-04-26T08:45:10.542Z</time></trkpt><trkpt lat="43.7823051" lon="12.6494416"><ele>115.0</ele><time>2026-04-26T08:45:11.541Z</time></trkpt><trkpt lat="43.7823596" lon="12.649305"><ele>115.0</ele><time>2026-04-26T08:45:12.542Z</time></trkpt><trkpt lat="43.7824224" lon="12.6491047"><ele>115.0</ele><time>2026-04-26T08:45:13.542Z</time></trkpt><trkpt lat="43.7824967" lon="12.64884"><ele>115.0</ele><time>2026-04-26T08:45:14.542Z</time></trkpt><trkpt lat="43.7825717" lon="12.6486067"><ele>115.33333333333334</ele><time>2026-04-26T08:45:15.542Z</time></trkpt><trkpt lat="43.7826433" lon="12.6483867"><ele>115.66666666666666</ele><time>2026-04-26T08:45:16.542Z</time></trkpt><trkpt lat="43.7827233" lon="12.64817"><ele>116.0</ele><time>2026-04-26T08:45:17.542Z</time></trkpt><trkpt lat="43.7828" lon="12.6479483"><ele>111.0</ele><time>2026-04-26T08:45:18.542Z</time></trkpt><trkpt lat="43.7828717" lon="12.64773"><ele>106.0</ele><time>2026-04-26T08:45:19.542Z</time></trkpt><trkpt lat="43.78294" lon="12.647515"><ele>101.0</ele><time>2026-04-26T08:45:20.542Z</time></trkpt><trkpt lat="43.7830083" lon="12.6473117"><ele>101.0</ele><time>2026-04-26T08:45:21.542Z</time></trkpt><trkpt lat="43.7830783" lon="12.6471117"><ele>101.0</ele><time>2026-04-26T08:45:22.542Z</time></trkpt><trkpt lat="43.783145" lon="12.646925"><ele>101.0</ele><time>2026-04-26T08:45:23.542Z</time></trkpt><trkpt lat="43.7831983" lon="12.6467583"><ele>101.0</ele><time>2026-04-26T08:45:24.542Z</time></trkpt><trkpt lat="43.7832467" lon="12.646615"><ele>101.5</ele><time>2026-04-26T08:45:25.542Z</time></trkpt><trkpt lat="43.7833" lon="12.6464867"><ele>102.0</ele><time>2026-04-26T08:45:26.542Z</time></trkpt><trkpt lat="43.7833683" lon="12.6463767"><ele>102.5</ele><time>2026-04-26T08:45:27.542Z</time></trkpt><trkpt lat="43.7834583" lon="12.64627"><ele>103.0</ele><time>2026-04-26T08:45:28.542Z</time></trkpt><trkpt lat="43.78358" lon="12.6461633"><ele>100.66666666666667</ele><time>2026-04-26T08:45:29.542Z</time></trkpt><trkpt lat="43.7837183" lon="12.6460333"><ele>98.33333333333334</ele><time>2026-04-26T08:45:30.541Z</time></trkpt><trkpt lat="43.7838517" lon="12.6458917"><ele>96.0</ele><time>2026-04-26T08:45:31.542Z</time></trkpt><trkpt lat="43.78397" lon="12.6457533"><ele>96.0</ele><time>2026-04-26T08:45:32.542Z</time></trkpt><trkpt lat="43.784075" lon="12.6456333"><ele>96.0</ele><time>2026-04-26T08:45:33.542Z</time></trkpt><trkpt lat="43.7841633" lon="12.6455133"><ele>96.0</ele><time>2026-04-26T08:45:34.542Z</time></trkpt><trkpt lat="43.784225" lon="12.6454033"><ele>96.0</ele><time>2026-04-26T08:45:35.542Z</time></trkpt><trkpt lat="43.78427" lon="12.64528"><ele>96.25</ele><time>2026-04-26T08:45:36.542Z</time></trkpt><trkpt lat="43.784295" lon="12.6451433"><ele>96.5</ele><time>2026-04-26T08:45:37.542Z</time></trkpt><trkpt lat="43.7843233" lon="12.6449867"><ele>96.75</ele><time>2026-04-26T08:45:38.542Z</time></trkpt><trkpt lat="43.7843583" lon="12.6448167"><ele>97.0</ele><time>2026-04-26T08:45:39.542Z</time></trkpt><trkpt lat="43.78439" lon="12.6446617"><ele>96.75</ele><time>2026-04-26T08:45:40.541Z</time></trkpt><trkpt lat="43.78442" lon="12.644505"><ele>96.5</ele><time>2026-04-26T08:45:41.542Z</time></trkpt><trkpt lat="43.784455" lon="12.64435"><ele>96.25</ele><time>2026-04-26T08:45:42.542Z</time></trkpt><trkpt lat="43.7844833" lon="12.6441783"><ele>96.0</ele><time>2026-04-26T08:45:43.542Z</time></trkpt><trkpt lat="43.78452" lon="12.644005"><ele>96.0</ele><time>2026-04-26T08:45:44.541Z</time></trkpt><trkpt lat="43.7845567" lon="12.6438333"><ele>96.0</ele><time>2026-04-26T08:45:45.542Z</time></trkpt><trkpt lat="43.78459" lon="12.6436683"><ele>96.0</ele><time>2026-04-26T08:45:46.542Z</time></trkpt><trkpt lat="43.784615" lon="12.6435083"><ele>96.0</ele><time>2026-04-26T08:45:47.541Z</time></trkpt><trkpt lat="43.7846333" lon="12.64336"><ele>96.0</ele><time>2026-04-26T08:45:48.542Z</time></trkpt><trkpt lat="43.7846233" lon="12.6432383"><ele>96.0</ele><time>2026-04-26T08:45:49.541Z</time></trkpt><trkpt lat="43.7845967" lon="12.64314"><ele>96.0</ele><time>2026-04-26T08:45:50.542Z</time></trkpt><trkpt lat="43.7845433" lon="12.6430583"><ele>96.0</ele><time>2026-04-26T08:45:51.542Z</time></trkpt><trkpt lat="43.78447" lon="12.642985"><ele>96.0</ele><time>2026-04-26T08:45:52.542Z</time></trkpt><trkpt lat="43.7843767" lon="12.6429133"><ele>96.0</ele><time>2026-04-26T08:45:53.542Z</time></trkpt><trkpt lat="43.78427" lon="12.642835"><ele>96.8</ele><time>2026-04-26T08:45:54.542Z</time></trkpt><trkpt lat="43.7841667" lon="12.64274"><ele>97.6</ele><time>2026-04-26T08:45:55.541Z</time></trkpt><trkpt lat="43.7840817" lon="12.64265"><ele>98.4</ele><time>2026-04-26T08:45:56.541Z</time></trkpt><trkpt lat="43.7840217" lon="12.64255"><ele>99.2</ele><time>2026-04-26T08:45:57.542Z</time></trkpt><trkpt lat="43.7839783" lon="12.6424517"><ele>100.0</ele><time>2026-04-26T08:45:58.542Z</time></trkpt><trkpt lat="43.783965" lon="12.6423383"><ele>100.0</ele><time>2026-04-26T08:45:59.542Z</time></trkpt><trkpt lat="43.783975" lon="12.6422267"><ele>100.0</ele><time>2026-04-26T08:46:00.541Z</time></trkpt><trkpt lat="43.78401" lon="12.6421167"><ele>100.0</ele><time>2026-04-26T08:46:01.541Z</time></trkpt><trkpt lat="43.7840783" lon="12.641995"><ele>100.0</ele><time>2026-04-26T08:46:02.541Z</time></trkpt><trkpt lat="43.7841733" lon="12.6418633"><ele>100.0</ele><time>2026-04-26T08:46:03.542Z</time></trkpt><trkpt lat="43.7842717" lon="12.6417133"><ele>103.33333333333334</ele><time>2026-04-26T08:46:04.542Z</time></trkpt><trkpt lat="43.784375" lon="12.6415533"><ele>106.66666666666666</ele><time>2026-04-26T08:46:05.542Z</time></trkpt><trkpt lat="43.7844733" lon="12.641395"><ele>110.0</ele><time>2026-04-26T08:46:06.541Z</time></trkpt><trkpt lat="43.784575" lon="12.641235"><ele>109.75</ele><time>2026-04-26T08:46:07.541Z</time></trkpt><trkpt lat="43.78467" lon="12.641085"><ele>109.5</ele><time>2026-04-26T08:46:08.542Z</time></trkpt><trkpt lat="43.7847617" lon="12.6409433"><ele>109.25</ele><time>2026-04-26T08:46:09.542Z</time></trkpt><trkpt lat="43.7848417" lon="12.6408217"><ele>109.0</ele><time>2026-04-26T08:46:10.541Z</time></trkpt><trkpt lat="43.784915" lon="12.640715"><ele>109.00000000000001</ele><time>2026-04-26T08:46:11.542Z</time></trkpt><trkpt lat="43.7849817" lon="12.64063"><ele>109.0</ele><time>2026-04-26T08:46:12.542Z</time></trkpt><trkpt lat="43.785045" lon="12.640585"><ele>109.0</ele><time>2026-04-26T08:46:13.542Z</time></trkpt><trkpt lat="43.7851083" lon="12.6405917"><ele>109.0</ele><time>2026-04-26T08:46:14.542Z</time></trkpt><trkpt lat="43.7851783" lon="12.64064"><ele>109.00000000000001</ele><time>2026-04-26T08:46:15.542Z</time></trkpt><trkpt lat="43.7852533" lon="12.640725"><ele>109.0</ele><time>2026-04-26T08:46:16.542Z</time></trkpt><trkpt lat="43.7853467" lon="12.6408367"><ele>109.33333333333334</ele><time>2026-04-26T08:46:17.542Z</time></trkpt><trkpt lat="43.7854417" lon="12.640975"><ele>109.66666666666666</ele><time>2026-04-26T08:46:18.542Z</time></trkpt><trkpt lat="43.78556" lon="12.641125"><ele>110.0</ele><time>2026-04-26T08:46:19.542Z</time></trkpt><trkpt lat="43.785685" lon="12.6412683"><ele>110.0</ele><time>2026-04-26T08:46:20.542Z</time></trkpt><trkpt lat="43.7857933" lon="12.6414"><ele>110.0</ele><time>2026-04-26T08:46:21.542Z</time></trkpt><trkpt lat="43.7859" lon="12.6415283"><ele>110.0</ele><time>2026-04-26T08:46:22.541Z</time></trkpt><trkpt lat="43.7859983" lon="12.6416583"><ele>110.0</ele><time>2026-04-26T08:46:23.542Z</time></trkpt><trkpt lat="43.7860967" lon="12.6417833"><ele>109.75</ele><time>2026-04-26T08:46:24.541Z</time></trkpt><trkpt lat="43.7862133" lon="12.6419117"><ele>109.5</ele><time>2026-04-26T08:46:25.541Z</time></trkpt><trkpt lat="43.7863183" lon="12.6420383"><ele>109.25</ele><time>2026-04-26T08:46:26.541Z</time></trkpt><trkpt lat="43.7864167" lon="12.6421533"><ele>109.0</ele><time>2026-04-26T08:46:27.541Z</time></trkpt><trkpt lat="43.7865067" lon="12.6422633"><ele>109.0</ele><time>2026-04-26T08:46:28.542Z</time></trkpt><trkpt lat="43.7865883" lon="12.6423667"><ele>109.0</ele><time>2026-04-26T08:46:29.541Z</time></trkpt><trkpt lat="43.78666" lon="12.6424533"><ele>109.0</ele><time>2026-04-26T08:46:30.542Z</time></trkpt><trkpt lat="43.7867217" lon="12.6425083"><ele>109.0</ele><time>2026-04-26T08:46:31.542Z</time></trkpt><trkpt lat="43.7868267" lon="12.6425317"><ele>109.0</ele><time>2026-04-26T08:46:33.541Z</time></trkpt><trkpt lat="43.7869233" lon="12.6423783"><ele>108.75</ele><time>2026-04-26T08:46:35.542Z</time></trkpt><trkpt lat="43.7869933" lon="12.6422467"><ele>108.5</ele><time>2026-04-26T08:46:36.542Z</time></trkpt><trkpt lat="43.7870883" lon="12.6420883"><ele>108.25</ele><time>2026-04-26T08:46:37.541Z</time></trkpt><trkpt lat="43.7871867" lon="12.6419283"><ele>108.0</ele><time>2026-04-26T08:46:38.542Z</time></trkpt><trkpt lat="43.7872817" lon="12.6417767"><ele>108.0</ele><time>2026-04-26T08:46:39.542Z</time></trkpt><trkpt lat="43.7873717" lon="12.64162"><ele>108.0</ele><time>2026-04-26T08:46:40.542Z</time></trkpt><trkpt lat="43.7874617" lon="12.6414767"><ele>108.0</ele><time>2026-04-26T08:46:41.542Z</time></trkpt><trkpt lat="43.7875483" lon="12.64134"><ele>108.0</ele><time>2026-04-26T08:46:42.542Z</time></trkpt><trkpt lat="43.7876283" lon="12.641205"><ele>108.0</ele><time>2026-04-26T08:46:43.542Z</time></trkpt><trkpt lat="43.787695" lon="12.6410867"><ele>108.00000000000001</ele><time>2026-04-26T08:46:44.542Z</time></trkpt><trkpt lat="43.7877583" lon="12.6409933"><ele>108.00000000000001</ele><time>2026-04-26T08:46:45.542Z</time></trkpt><trkpt lat="43.7878333" lon="12.6409317"><ele>108.0</ele><time>2026-04-26T08:46:46.542Z</time></trkpt><trkpt lat="43.7879383" lon="12.6409017"><ele>108.0</ele><time>2026-04-26T08:46:47.542Z</time></trkpt><trkpt lat="43.78808" lon="12.6408917"><ele>108.0</ele><time>2026-04-26T08:46:48.541Z</time></trkpt><trkpt lat="43.7882367" lon="12.6408967"><ele>108.0</ele><time>2026-04-26T08:46:49.542Z</time></trkpt><trkpt lat="43.7884117" lon="12.6408967"><ele>108.0</ele><time>2026-04-26T08:46:50.542Z</time></trkpt><trkpt lat="43.788575" lon="12.6408917"><ele>109.0</ele><time>2026-04-26T08:46:51.541Z</time></trkpt><trkpt lat="43.78873" lon="12.640885"><ele>110.0</ele><time>2026-04-26T08:46:52.542Z</time></trkpt><trkpt lat="43.7888733" lon="12.640875"><ele>111.0</ele><time>2026-04-26T08:46:53.542Z</time></trkpt><trkpt lat="43.789005" lon="12.6408583"><ele>112.0</ele><time>2026-04-26T08:46:54.541Z</time></trkpt><trkpt lat="43.7891367" lon="12.640835"><ele>112.0</ele><time>2026-04-26T08:46:55.542Z</time></trkpt><trkpt lat="43.789265" lon="12.6408"><ele>112.0</ele><time>2026-04-26T08:46:56.541Z</time></trkpt><trkpt lat="43.7894033" lon="12.6407467"><ele>112.0</ele><time>2026-04-26T08:46:57.542Z</time></trkpt><trkpt lat="43.789545" lon="12.64069"><ele>112.0</ele><time>2026-04-26T08:46:58.541Z</time></trkpt><trkpt lat="43.7896883" lon="12.640625"><ele>112.6</ele><time>2026-04-26T08:46:59.541Z</time></trkpt><trkpt lat="43.789815" lon="12.640565"><ele>113.19999999999999</ele><time>2026-04-26T08:47:00.542Z</time></trkpt><trkpt lat="43.7899267" lon="12.640515"><ele>113.8</ele><time>2026-04-26T08:47:01.542Z</time></trkpt><trkpt lat="43.7900217" lon="12.6404717"><ele>114.4</ele><time>2026-04-26T08:47:02.541Z</time></trkpt><trkpt lat="43.7901" lon="12.640435"><ele>115.0</ele><time>2026-04-26T08:47:03.541Z</time></trkpt><trkpt lat="43.7901933" lon="12.6404317"><ele>116.50000000000001</ele><time>2026-04-26T08:47:05.541Z</time></trkpt><trkpt lat="43.79025" lon="12.640485"><ele>118.0</ele><time>2026-04-26T08:47:08.541Z</time></trkpt><trkpt lat="43.7903017" lon="12.6405617"><ele>119.5</ele><time>2026-04-26T08:47:11.541Z</time></trkpt><trkpt lat="43.79036" lon="12.6406167"><ele>121.0</ele><time>2026-04-26T08:47:13.542Z</time></trkpt><trkpt lat="43.7904267" lon="12.6406183"><ele>122.50000000000001</ele><time>2026-04-26T08:47:15.541Z</time></trkpt><trkpt lat="43.7905133" lon="12.6405317"><ele>124.0</ele><time>2026-04-26T08:47:17.542Z</time></trkpt><trkpt lat="43.7905583" lon="12.6404367"><ele>124.0</ele><time>2026-04-26T08:47:18.542Z</time></trkpt><trkpt lat="43.7906067" lon="12.6403167"><ele>124.0</ele><time>2026-04-26T08:47:19.541Z</time></trkpt><trkpt lat="43.7906617" lon="12.6401733"><ele>124.0</ele><time>2026-04-26T08:47:20.542Z</time></trkpt><trkpt lat="43.7907317" lon="12.6400183"><ele>124.0</ele><time>2026-04-26T08:47:21.542Z</time></trkpt><trkpt lat="43.7908033" lon="12.6398567"><ele>123.75</ele><time>2026-04-26T08:47:22.542Z</time></trkpt><trkpt lat="43.7908817" lon="12.639695"><ele>123.5</ele><time>2026-04-26T08:47:23.541Z</time></trkpt><trkpt lat="43.7909633" lon="12.6395283"><ele>123.25</ele><time>2026-04-26T08:47:24.542Z</time></trkpt><trkpt lat="43.791045" lon="12.6393583"><ele>123.0</ele><time>2026-04-26T08:47:25.542Z</time></trkpt><trkpt lat="43.7911183" lon="12.6391917"><ele>123.0</ele><time>2026-04-26T08:47:26.542Z</time></trkpt><trkpt lat="43.7911883" lon="12.6390267"><ele>123.0</ele><time>2026-04-26T08:47:27.542Z</time></trkpt><trkpt lat="43.7912533" lon="12.63886"><ele>123.0</ele><time>2026-04-26T08:47:28.541Z</time></trkpt><trkpt lat="43.7913033" lon="12.6386933"><ele>123.0</ele><time>2026-04-26T08:47:29.542Z</time></trkpt><trkpt lat="43.7913433" lon="12.6385183"><ele>121.25</ele><time>2026-04-26T08:47:30.542Z</time></trkpt><trkpt lat="43.7913733" lon="12.6383517"><ele>119.5</ele><time>2026-04-26T08:47:31.542Z</time></trkpt><trkpt lat="43.7913967" lon="12.638185"><ele>117.75</ele><time>2026-04-26T08:47:32.542Z</time></trkpt><trkpt lat="43.7914133" lon="12.63801"><ele>116.0</ele><time>2026-04-26T08:47:33.542Z</time></trkpt><trkpt lat="43.7914283" lon="12.6378183"><ele>113.33333333333333</ele><time>2026-04-26T08:47:34.542Z</time></trkpt><trkpt lat="43.7914333" lon="12.6376117"><ele>110.66666666666666</ele><time>2026-04-26T08:47:35.542Z</time></trkpt><trkpt lat="43.791425" lon="12.6374"><ele>108.0</ele><time>2026-04-26T08:47:36.542Z</time></trkpt><trkpt lat="43.7914083" lon="12.6371717"><ele>106.66666666666666</ele><time>2026-04-26T08:47:37.542Z</time></trkpt><trkpt lat="43.7913833" lon="12.63694"><ele>105.33333333333333</ele><time>2026-04-26T08:47:38.542Z</time></trkpt><trkpt lat="43.7913583" lon="12.6367083"><ele>104.0</ele><time>2026-04-26T08:47:39.542Z</time></trkpt><trkpt lat="43.7913317" lon="12.6364817"><ele>104.0</ele><time>2026-04-26T08:47:40.542Z</time></trkpt><trkpt lat="43.79131" lon="12.63625"><ele>104.0</ele><time>2026-04-26T08:47:41.542Z</time></trkpt><trkpt lat="43.7912883" lon="12.636015"><ele>104.0</ele><time>2026-04-26T08:47:42.541Z</time></trkpt><trkpt lat="43.7912667" lon="12.6357817"><ele>103.33333333333333</ele><time>2026-04-26T08:47:43.541Z</time></trkpt><trkpt lat="43.79124" lon="12.63555"><ele>102.66666666666666</ele><time>2026-04-26T08:47:44.541Z</time></trkpt><trkpt lat="43.791215" lon="12.6353217"><ele>102.0</ele><time>2026-04-26T08:47:45.542Z</time></trkpt><trkpt lat="43.7911883" lon="12.6350933"><ele>102.0</ele><time>2026-04-26T08:47:46.542Z</time></trkpt><trkpt lat="43.7911683" lon="12.6348533"><ele>102.0</ele><time>2026-04-26T08:47:47.542Z</time></trkpt><trkpt lat="43.7911467" lon="12.6346067"><ele>102.0</ele><time>2026-04-26T08:47:48.541Z</time></trkpt><trkpt lat="43.7911233" lon="12.63436"><ele>101.66666666666666</ele><time>2026-04-26T08:47:49.541Z</time></trkpt><trkpt lat="43.7910967" lon="12.634115"><ele>101.33333333333333</ele><time>2026-04-26T08:47:50.542Z</time></trkpt><trkpt lat="43.7910717" lon="12.633865"><ele>101.0</ele><time>2026-04-26T08:47:51.542Z</time></trkpt><trkpt lat="43.7910483" lon="12.6335983"><ele>101.0</ele><time>2026-04-26T08:47:52.541Z</time></trkpt><trkpt lat="43.79102" lon="12.6333367"><ele>101.0</ele><time>2026-04-26T08:47:53.542Z</time></trkpt><trkpt lat="43.7909967" lon="12.63307"><ele>101.0</ele><time>2026-04-26T08:47:54.541Z</time></trkpt><trkpt lat="43.7909717" lon="12.63281"><ele>99.66666666666666</ele><time>2026-04-26T08:47:55.542Z</time></trkpt><trkpt lat="43.7909533" lon="12.6325683"><ele>98.33333333333334</ele><time>2026-04-26T08:47:56.542Z</time></trkpt><trkpt lat="43.7909383" lon="12.632325"><ele>97.0</ele><time>2026-04-26T08:47:57.542Z</time></trkpt><trkpt lat="43.79093" lon="12.63208"><ele>97.0</ele><time>2026-04-26T08:47:58.542Z</time></trkpt><trkpt lat="43.7909283" lon="12.6318267"><ele>97.0</ele><time>2026-04-26T08:47:59.542Z</time></trkpt><trkpt lat="43.7909367" lon="12.63157"><ele>97.0</ele><time>2026-04-26T08:48:00.541Z</time></trkpt><trkpt lat="43.7909617" lon="12.6313033"><ele>97.66666666666667</ele><time>2026-04-26T08:48:01.541Z</time></trkpt><trkpt lat="43.7909983" lon="12.6310433"><ele>98.33333333333334</ele><time>2026-04-26T08:48:02.542Z</time></trkpt><trkpt lat="43.7910433" lon="12.6307917"><ele>99.0</ele><time>2026-04-26T08:48:03.542Z</time></trkpt><trkpt lat="43.7910983" lon="12.6305333"><ele>101.33333333333334</ele><time>2026-04-26T08:48:04.542Z</time></trkpt><trkpt lat="43.7911683" lon="12.6302817"><ele>103.66666666666667</ele><time>2026-04-26T08:48:05.542Z</time></trkpt><trkpt lat="43.7912467" lon="12.630035"><ele>106.0</ele><time>2026-04-26T08:48:06.542Z</time></trkpt><trkpt lat="43.7913383" lon="12.62979"><ele>106.0</ele><time>2026-04-26T08:48:07.541Z</time></trkpt><trkpt lat="43.7914317" lon="12.6295467"><ele>106.0</ele><time>2026-04-26T08:48:08.542Z</time></trkpt><trkpt lat="43.7915367" lon="12.62931"><ele>106.0</ele><time>2026-04-26T08:48:09.541Z</time></trkpt><trkpt lat="43.7916467" lon="12.629075"><ele>104.66666666666667</ele><time>2026-04-26T08:48:10.542Z</time></trkpt><trkpt lat="43.791755" lon="12.6288417"><ele>103.33333333333334</ele><time>2026-04-26T08:48:11.542Z</time></trkpt><trkpt lat="43.7918683" lon="12.6286133"><ele>102.0</ele><time>2026-04-26T08:48:12.542Z</time></trkpt><trkpt lat="43.7919833" lon="12.628385"><ele>101.33333333333334</ele><time>2026-04-26T08:48:13.542Z</time></trkpt><trkpt lat="43.7920967" lon="12.6281583"><ele>100.66666666666667</ele><time>2026-04-26T08:48:14.542Z</time></trkpt><trkpt lat="43.79221" lon="12.6279267"><ele>100.0</ele><time>2026-04-26T08:48:15.542Z</time></trkpt><trkpt lat="43.7923217" lon="12.6276967"><ele>100.0</ele><time>2026-04-26T08:48:16.542Z</time></trkpt><trkpt lat="43.7924333" lon="12.627465"><ele>100.0</ele><time>2026-04-26T08:48:17.542Z</time></trkpt><trkpt lat="43.792545" lon="12.62723"><ele>100.0</ele><time>2026-04-26T08:48:18.541Z</time></trkpt><trkpt lat="43.7926567" lon="12.626995"><ele>101.0</ele><time>2026-04-26T08:48:19.542Z</time></trkpt><trkpt lat="43.7927683" lon="12.6267633"><ele>102.0</ele><time>2026-04-26T08:48:20.542Z</time></trkpt><trkpt lat="43.7928767" lon="12.6265333"><ele>103.0</ele><time>2026-04-26T08:48:21.542Z</time></trkpt><trkpt lat="43.79298" lon="12.6263117"><ele>102.66666666666667</ele><time>2026-04-26T08:48:22.542Z</time></trkpt><trkpt lat="43.7930783" lon="12.6260983"><ele>102.33333333333334</ele><time>2026-04-26T08:48:23.541Z</time></trkpt><trkpt lat="43.7931733" lon="12.6258883"><ele>102.0</ele><time>2026-04-26T08:48:24.542Z</time></trkpt><trkpt lat="43.79327" lon="12.6256817"><ele>102.0</ele><time>2026-04-26T08:48:25.542Z</time></trkpt><trkpt lat="43.7933667" lon="12.62548"><ele>102.0</ele><time>2026-04-26T08:48:26.542Z</time></trkpt><trkpt lat="43.7934633" lon="12.6252767"><ele>102.0</ele><time>2026-04-26T08:48:27.541Z</time></trkpt><trkpt lat="43.79356" lon="12.6250783"><ele>102.0</ele><time>2026-04-26T08:48:28.541Z</time></trkpt><trkpt lat="43.79365" lon="12.6248767"><ele>102.0</ele><time>2026-04-26T08:48:29.542Z</time></trkpt><trkpt lat="43.7937333" lon="12.6246767"><ele>102.0</ele><time>2026-04-26T08:48:30.542Z</time></trkpt><trkpt lat="43.7938133" lon="12.6244817"><ele>102.0</ele><time>2026-04-26T08:48:31.541Z</time></trkpt><trkpt lat="43.79388" lon="12.624295"><ele>102.0</ele><time>2026-04-26T08:48:32.542Z</time></trkpt><trkpt lat="43.7939383" lon="12.6241317"><ele>102.0</ele><time>2026-04-26T08:48:33.542Z</time></trkpt><trkpt lat="43.7940017" lon="12.6239933"><ele>102.0</ele><time>2026-04-26T08:48:34.542Z</time></trkpt><trkpt lat="43.79407" lon="12.6238733"><ele>102.0</ele><time>2026-04-26T08:48:35.542Z</time></trkpt><trkpt lat="43.7941317" lon="12.62376"><ele>102.0</ele><time>2026-04-26T08:48:36.541Z</time></trkpt><trkpt lat="43.794175" lon="12.62363"><ele>102.0</ele><time>2026-04-26T08:48:37.542Z</time></trkpt><trkpt lat="43.7942" lon="12.6234667"><ele>102.0</ele><time>2026-04-26T08:48:38.542Z</time></trkpt><trkpt lat="43.7942183" lon="12.6232717"><ele>102.33333333333334</ele><time>2026-04-26T08:48:39.542Z</time></trkpt><trkpt lat="43.7942517" lon="12.62305"><ele>102.66666666666667</ele><time>2026-04-26T08:48:40.542Z</time></trkpt><trkpt lat="43.7943133" lon="12.6228167"><ele>103.0</ele><time>2026-04-26T08:48:41.542Z</time></trkpt><trkpt lat="43.7943817" lon="12.6225567"><ele>103.0</ele><time>2026-04-26T08:48:42.542Z</time></trkpt><trkpt lat="43.7944483" lon="12.6223083"><ele>103.0</ele><time>2026-04-26T08:48:43.542Z</time></trkpt><trkpt lat="43.7945117" lon="12.6220683"><ele>103.0</ele><time>2026-04-26T08:48:44.542Z</time></trkpt><trkpt lat="43.7945783" lon="12.62185"><ele>103.0</ele><time>2026-04-26T08:48:45.542Z</time></trkpt><trkpt lat="43.7946367" lon="12.6216167"><ele>103.0</ele><time>2026-04-26T08:48:46.542Z</time></trkpt><trkpt lat="43.7946967" lon="12.6213833"><ele>103.0</ele><time>2026-04-26T08:48:47.542Z</time></trkpt><trkpt lat="43.7947583" lon="12.6211483"><ele>103.0</ele><time>2026-04-26T08:48:48.542Z</time></trkpt><trkpt lat="43.7948233" lon="12.6209167"><ele>103.0</ele><time>2026-04-26T08:48:49.541Z</time></trkpt><trkpt lat="43.794895" lon="12.6206933"><ele>103.0</ele><time>2026-04-26T08:48:50.541Z</time></trkpt><trkpt lat="43.7949733" lon="12.620485"><ele>103.0</ele><time>2026-04-26T08:48:51.542Z</time></trkpt><trkpt lat="43.79505" lon="12.6202933"><ele>103.0</ele><time>2026-04-26T08:48:52.542Z</time></trkpt><trkpt lat="43.79513" lon="12.62012"><ele>103.0</ele><time>2026-04-26T08:48:53.541Z</time></trkpt><trkpt lat="43.79521" lon="12.619965"><ele>103.0</ele><time>2026-04-26T08:48:54.542Z</time></trkpt><trkpt lat="43.795295" lon="12.6198117"><ele>103.75</ele><time>2026-04-26T08:48:55.542Z</time></trkpt><trkpt lat="43.795385" lon="12.6196733"><ele>104.5</ele><time>2026-04-26T08:48:56.542Z</time></trkpt><trkpt lat="43.795485" lon="12.61955"><ele>105.25</ele><time>2026-04-26T08:48:57.542Z</time></trkpt><trkpt lat="43.795605" lon="12.619445"><ele>106.0</ele><time>2026-04-26T08:48:58.542Z</time></trkpt><trkpt lat="43.7957483" lon="12.6193617"><ele>106.25</ele><time>2026-04-26T08:48:59.541Z</time></trkpt><trkpt lat="43.7958883" lon="12.6193067"><ele>106.5</ele><time>2026-04-26T08:49:00.541Z</time></trkpt><trkpt lat="43.7960133" lon="12.619265"><ele>106.75</ele><time>2026-04-26T08:49:01.542Z</time></trkpt><trkpt lat="43.79612" lon="12.6192133"><ele>107.0</ele><time>2026-04-26T08:49:02.542Z</time></trkpt><trkpt lat="43.7962" lon="12.619145"><ele>107.16666666666666</ele><time>2026-04-26T08:49:03.542Z</time></trkpt><trkpt lat="43.7962483" lon="12.6190633"><ele>107.33333333333333</ele><time>2026-04-26T08:49:04.542Z</time></trkpt><trkpt lat="43.7962683" lon="12.618975"><ele>107.5</ele><time>2026-04-26T08:49:05.541Z</time></trkpt><trkpt lat="43.7962467" lon="12.618825"><ele>107.66666666666666</ele><time>2026-04-26T08:49:07.541Z</time></trkpt><trkpt lat="43.7961867" lon="12.6187433"><ele>107.83333333333333</ele><time>2026-04-26T08:49:09.542Z</time></trkpt><trkpt lat="43.796125" lon="12.6187083"><ele>108.0</ele><time>2026-04-26T08:49:10.542Z</time></trkpt><trkpt lat="43.796035" lon="12.6186783"><ele>107.75</ele><time>2026-04-26T08:49:11.541Z</time></trkpt><trkpt lat="43.79591" lon="12.618665"><ele>107.5</ele><time>2026-04-26T08:49:12.542Z</time></trkpt><trkpt lat="43.7957533" lon="12.6186667"><ele>107.25</ele><time>2026-04-26T08:49:13.542Z</time></trkpt><trkpt lat="43.795595" lon="12.6186767"><ele>107.0</ele><time>2026-04-26T08:49:14.542Z</time></trkpt><trkpt lat="43.795425" lon="12.61869"><ele>107.0</ele><time>2026-04-26T08:49:15.542Z</time></trkpt><trkpt lat="43.7952617" lon="12.6186983"><ele>107.0</ele><time>2026-04-26T08:49:16.542Z</time></trkpt><trkpt lat="43.795105" lon="12.618715"><ele>107.0</ele><time>2026-04-26T08:49:17.542Z</time></trkpt><trkpt lat="43.7949483" lon="12.6187317"><ele>106.66666666666666</ele><time>2026-04-26T08:49:18.542Z</time></trkpt><trkpt lat="43.794795" lon="12.6187483"><ele>106.33333333333334</ele><time>2026-04-26T08:49:19.542Z</time></trkpt><trkpt lat="43.7946333" lon="12.6187633"><ele>106.0</ele><time>2026-04-26T08:49:20.542Z</time></trkpt><trkpt lat="43.7944817" lon="12.6187667"><ele>105.75</ele><time>2026-04-26T08:49:21.541Z</time></trkpt><trkpt lat="43.7943333" lon="12.61877"><ele>105.5</ele><time>2026-04-26T08:49:22.542Z</time></trkpt><trkpt lat="43.7942" lon="12.6187733"><ele>105.25</ele><time>2026-04-26T08:49:23.541Z</time></trkpt><trkpt lat="43.7940783" lon="12.6187767"><ele>105.0</ele><time>2026-04-26T08:49:24.541Z</time></trkpt><trkpt lat="43.7939683" lon="12.6187867"><ele>105.0</ele><time>2026-04-26T08:49:25.541Z</time></trkpt><trkpt lat="43.7938683" lon="12.6187883"><ele>105.0</ele><time>2026-04-26T08:49:26.542Z</time></trkpt><trkpt lat="43.7937733" lon="12.6187917"><ele>105.0</ele><time>2026-04-26T08:49:27.541Z</time></trkpt><trkpt lat="43.7936867" lon="12.61878"><ele>105.0</ele><time>2026-04-26T08:49:28.542Z</time></trkpt><trkpt lat="43.7935967" lon="12.6187583"><ele>105.0</ele><time>2026-04-26T08:49:29.541Z</time></trkpt><trkpt lat="43.7934983" lon="12.618725"><ele>106.2</ele><time>2026-04-26T08:49:30.542Z</time></trkpt><trkpt lat="43.7934" lon="12.6186683"><ele>107.4</ele><time>2026-04-26T08:49:31.542Z</time></trkpt><trkpt lat="43.7932967" lon="12.61862"><ele>108.6</ele><time>2026-04-26T08:49:32.542Z</time></trkpt><trkpt lat="43.793195" lon="12.6185933"><ele>109.8</ele><time>2026-04-26T08:49:33.541Z</time></trkpt><trkpt lat="43.79309" lon="12.6185933"><ele>111.0</ele><time>2026-04-26T08:49:34.542Z</time></trkpt><trkpt lat="43.7929867" lon="12.6186333"><ele>111.0</ele><time>2026-04-26T08:49:35.542Z</time></trkpt><trkpt lat="43.7928767" lon="12.6187117"><ele>111.0</ele><time>2026-04-26T08:49:36.542Z</time></trkpt><trkpt lat="43.792765" lon="12.6188"><ele>111.0</ele><time>2026-04-26T08:49:37.542Z</time></trkpt><trkpt lat="43.7926633" lon="12.6188733"><ele>111.0</ele><time>2026-04-26T08:49:38.542Z</time></trkpt><trkpt lat="43.7925783" lon="12.6189083"><ele>111.6</ele><time>2026-04-26T08:49:39.541Z</time></trkpt><trkpt lat="43.7925117" lon="12.6189"><ele>112.19999999999999</ele><time>2026-04-26T08:49:40.542Z</time></trkpt><trkpt lat="43.7924583" lon="12.6187633"><ele>112.80000000000001</ele><time>2026-04-26T08:49:42.542Z</time></trkpt><trkpt lat="43.7924917" lon="12.6186767"><ele>113.4</ele><time>2026-04-26T08:49:43.541Z</time></trkpt><trkpt lat="43.7925633" lon="12.6185917"><ele>114.0</ele><time>2026-04-26T08:49:44.542Z</time></trkpt><trkpt lat="43.7926533" lon="12.6185083"><ele>114.6</ele><time>2026-04-26T08:49:45.542Z</time></trkpt><trkpt lat="43.7927317" lon="12.6184083"><ele>115.2</ele><time>2026-04-26T08:49:46.541Z</time></trkpt><trkpt lat="43.7927817" lon="12.618295"><ele>115.79999999999998</ele><time>2026-04-26T08:49:47.542Z</time></trkpt><trkpt lat="43.7927983" lon="12.618165"><ele>116.39999999999999</ele><time>2026-04-26T08:49:48.542Z</time></trkpt><trkpt lat="43.7927817" lon="12.6180117"><ele>117.0</ele><time>2026-04-26T08:49:49.542Z</time></trkpt><trkpt lat="43.7927283" lon="12.6178517"><ele>119.25</ele><time>2026-04-26T08:49:50.542Z</time></trkpt><trkpt lat="43.7926667" lon="12.6176817"><ele>121.5</ele><time>2026-04-26T08:49:51.542Z</time></trkpt><trkpt lat="43.7926183" lon="12.6175233"><ele>123.75</ele><time>2026-04-26T08:49:52.541Z</time></trkpt><trkpt lat="43.7925783" lon="12.6173883"><ele>126.0</ele><time>2026-04-26T08:49:53.541Z</time></trkpt><trkpt lat="43.792545" lon="12.617265"><ele>126.0</ele><time>2026-04-26T08:49:54.542Z</time></trkpt><trkpt lat="43.7925133" lon="12.617145"><ele>126.0</ele><time>2026-04-26T08:49:55.541Z</time></trkpt><trkpt lat="43.7924983" lon="12.61703"><ele>126.0</ele><time>2026-04-26T08:49:56.542Z</time></trkpt><trkpt lat="43.7924983" lon="12.6169117"><ele>126.0</ele><time>2026-04-26T08:49:57.541Z</time></trkpt><trkpt lat="43.792505" lon="12.6167917"><ele>126.0</ele><time>2026-04-26T08:49:58.542Z</time></trkpt><trkpt lat="43.7925333" lon="12.6166517"><ele>125.75</ele><time>2026-04-26T08:49:59.542Z</time></trkpt><trkpt lat="43.7925733" lon="12.616495"><ele>125.5</ele><time>2026-04-26T08:50:00.542Z</time></trkpt><trkpt lat="43.7926333" lon="12.616345"><ele>125.25</ele><time>2026-04-26T08:50:01.541Z</time></trkpt><trkpt lat="43.7927183" lon="12.61622"><ele>125.0</ele><time>2026-04-26T08:50:02.542Z</time></trkpt><trkpt lat="43.7928233" lon="12.6161033"><ele>125.8</ele><time>2026-04-26T08:50:03.541Z</time></trkpt><trkpt lat="43.7929317" lon="12.6160217"><ele>126.6</ele><time>2026-04-26T08:50:04.541Z</time></trkpt><trkpt lat="43.79303" lon="12.6159583"><ele>127.4</ele><time>2026-04-26T08:50:05.541Z</time></trkpt><trkpt lat="43.79312" lon="12.615905"><ele>128.2</ele><time>2026-04-26T08:50:06.542Z</time></trkpt><trkpt lat="43.7932017" lon="12.6158417"><ele>129.0</ele><time>2026-04-26T08:50:07.542Z</time></trkpt><trkpt lat="43.793275" lon="12.61575"><ele>129.0</ele><time>2026-04-26T08:50:08.542Z</time></trkpt><trkpt lat="43.7933483" lon="12.61565"><ele>129.0</ele><time>2026-04-26T08:50:09.542Z</time></trkpt><trkpt lat="43.793425" lon="12.61554"><ele>129.0</ele><time>2026-04-26T08:50:10.541Z</time></trkpt><trkpt lat="43.7934967" lon="12.615425"><ele>129.0</ele><time>2026-04-26T08:50:11.541Z</time></trkpt><trkpt lat="43.7935667" lon="12.6153033"><ele>129.0</ele><time>2026-04-26T08:50:12.542Z</time></trkpt><trkpt lat="43.7936317" lon="12.61518"><ele>126.5</ele><time>2026-04-26T08:50:13.542Z</time></trkpt><trkpt lat="43.7936983" lon="12.6150383"><ele>124.0</ele><time>2026-04-26T08:50:14.541Z</time></trkpt><trkpt lat="43.7937533" lon="12.6148767"><ele>121.5</ele><time>2026-04-26T08:50:15.542Z</time></trkpt><trkpt lat="43.7938067" lon="12.614705"><ele>119.0</ele><time>2026-04-26T08:50:16.542Z</time></trkpt><trkpt lat="43.79385" lon="12.6145267"><ele>120.25</ele><time>2026-04-26T08:50:17.542Z</time></trkpt><trkpt lat="43.7938883" lon="12.6143517"><ele>121.5</ele><time>2026-04-26T08:50:18.541Z</time></trkpt><trkpt lat="43.7939367" lon="12.6141717"><ele>122.75</ele><time>2026-04-26T08:50:19.542Z</time></trkpt><trkpt lat="43.7939817" lon="12.613995"><ele>124.0</ele><time>2026-04-26T08:50:20.542Z</time></trkpt><trkpt lat="43.7940233" lon="12.6138133"><ele>125.75</ele><time>2026-04-26T08:50:21.542Z</time></trkpt><trkpt lat="43.7940733" lon="12.6136267"><ele>127.5</ele><time>2026-04-26T08:50:22.542Z</time></trkpt><trkpt lat="43.7941217" lon="12.6134317"><ele>129.25</ele><time>2026-04-26T08:50:23.542Z</time></trkpt><trkpt lat="43.7941717" lon="12.6132367"><ele>131.0</ele><time>2026-04-26T08:50:24.542Z</time></trkpt><trkpt lat="43.7942183" lon="12.6130517"><ele>131.0</ele><time>2026-04-26T08:50:25.541Z</time></trkpt><trkpt lat="43.794265" lon="12.6128733"><ele>131.0</ele><time>2026-04-26T08:50:26.541Z</time></trkpt><trkpt lat="43.7943083" lon="12.61271"><ele>131.0</ele><time>2026-04-26T08:50:27.542Z</time></trkpt><trkpt lat="43.7943517" lon="12.6125667"><ele>131.0</ele><time>2026-04-26T08:50:28.542Z</time></trkpt><trkpt lat="43.7944067" lon="12.612415"><ele>130.75</ele><time>2026-04-26T08:50:29.542Z</time></trkpt><trkpt lat="43.794475" lon="12.6122533"><ele>130.5</ele><time>2026-04-26T08:50:30.541Z</time></trkpt><trkpt lat="43.79456" lon="12.6120917"><ele>130.25</ele><time>2026-04-26T08:50:31.541Z</time></trkpt><trkpt lat="43.7946517" lon="12.6119167"><ele>130.0</ele><time>2026-04-26T08:50:32.542Z</time></trkpt><trkpt lat="43.7947517" lon="12.611735"><ele>130.66666666666669</ele><time>2026-04-26T08:50:33.541Z</time></trkpt><trkpt lat="43.79486" lon="12.6115633"><ele>131.33333333333334</ele><time>2026-04-26T08:50:34.542Z</time></trkpt><trkpt lat="43.7949683" lon="12.6113933"><ele>132.0</ele><time>2026-04-26T08:50:35.542Z</time></trkpt><trkpt lat="43.79508" lon="12.6112367"><ele>130.0</ele><time>2026-04-26T08:50:36.541Z</time></trkpt><trkpt lat="43.7951917" lon="12.6110933"><ele>128.0</ele><time>2026-04-26T08:50:37.542Z</time></trkpt><trkpt lat="43.7953133" lon="12.6109567"><ele>126.0</ele><time>2026-04-26T08:50:38.541Z</time></trkpt><trkpt lat="43.7954383" lon="12.610845"><ele>126.0</ele><time>2026-04-26T08:50:39.542Z</time></trkpt><trkpt lat="43.79556" lon="12.6107267"><ele>126.0</ele><time>2026-04-26T08:50:40.542Z</time></trkpt><trkpt lat="43.7956767" lon="12.6106083"><ele>126.0</ele><time>2026-04-26T08:50:41.542Z</time></trkpt><trkpt lat="43.7957983" lon="12.6104883"><ele>126.0</ele><time>2026-04-26T08:50:42.542Z</time></trkpt><trkpt lat="43.7959067" lon="12.610365"><ele>126.5</ele><time>2026-04-26T08:50:43.542Z</time></trkpt><trkpt lat="43.7960017" lon="12.6102433"><ele>127.0</ele><time>2026-04-26T08:50:44.542Z</time></trkpt><trkpt lat="43.79609" lon="12.6101333"><ele>127.5</ele><time>2026-04-26T08:50:45.541Z</time></trkpt><trkpt lat="43.79617" lon="12.6100317"><ele>128.0</ele><time>2026-04-26T08:50:46.542Z</time></trkpt><trkpt lat="43.7962483" lon="12.6099617"><ele>128.4</ele><time>2026-04-26T08:50:47.541Z</time></trkpt><trkpt lat="43.7963317" lon="12.6099217"><ele>128.8</ele><time>2026-04-26T08:50:48.542Z</time></trkpt><trkpt lat="43.7964283" lon="12.6099033"><ele>129.2</ele><time>2026-04-26T08:50:49.541Z</time></trkpt><trkpt lat="43.796535" lon="12.6099133"><ele>129.6</ele><time>2026-04-26T08:50:50.542Z</time></trkpt><trkpt lat="43.7966383" lon="12.6099167"><ele>130.0</ele><time>2026-04-26T08:50:51.542Z</time></trkpt><trkpt lat="43.7967233" lon="12.6099467"><ele>130.0</ele><time>2026-04-26T08:50:52.541Z</time></trkpt><trkpt lat="43.7967967" lon="12.6099317"><ele>130.0</ele><time>2026-04-26T08:50:53.541Z</time></trkpt><trkpt lat="43.7968833" lon="12.6098883"><ele>130.0</ele><time>2026-04-26T08:50:54.541Z</time></trkpt><trkpt lat="43.7969783" lon="12.609835"><ele>130.0</ele><time>2026-04-26T08:50:55.541Z</time></trkpt><trkpt lat="43.7970717" lon="12.609805"><ele>130.0</ele><time>2026-04-26T08:50:56.541Z</time></trkpt><trkpt lat="43.79716" lon="12.60977"><ele>129.0</ele><time>2026-04-26T08:50:57.541Z</time></trkpt><trkpt lat="43.797255" lon="12.6096983"><ele>128.0</ele><time>2026-04-26T08:50:58.541Z</time></trkpt><trkpt lat="43.7973583" lon="12.6095967"><ele>127.0</ele><time>2026-04-26T08:50:59.541Z</time></trkpt><trkpt lat="43.7974483" lon="12.60948"><ele>126.0</ele><time>2026-04-26T08:51:00.54Z</time></trkpt><trkpt lat="43.7975217" lon="12.6093433"><ele>129.0</ele><time>2026-04-26T08:51:01.541Z</time></trkpt><trkpt lat="43.7975867" lon="12.6091733"><ele>132.0</ele><time>2026-04-26T08:51:02.54Z</time></trkpt><trkpt lat="43.797645" lon="12.6089667"><ele>135.0</ele><time>2026-04-26T08:51:03.541Z</time></trkpt><trkpt lat="43.7976983" lon="12.60877"><ele>138.75</ele><time>2026-04-26T08:51:04.54Z</time></trkpt><trkpt lat="43.7977517" lon="12.6085883"><ele>142.5</ele><time>2026-04-26T08:51:05.541Z</time></trkpt><trkpt lat="43.797805" lon="12.6084217"><ele>146.25</ele><time>2026-04-26T08:51:06.541Z</time></trkpt><trkpt lat="43.79786" lon="12.6082667"><ele>150.0</ele><time>2026-04-26T08:51:07.541Z</time></trkpt><trkpt lat="43.7979283" lon="12.60812"><ele>150.0</ele><time>2026-04-26T08:51:08.541Z</time></trkpt><trkpt lat="43.7979983" lon="12.6079733"><ele>150.0</ele><time>2026-04-26T08:51:09.541Z</time></trkpt><trkpt lat="43.798075" lon="12.6078367"><ele>150.0</ele><time>2026-04-26T08:51:10.541Z</time></trkpt><trkpt lat="43.7981633" lon="12.6077017"><ele>150.0</ele><time>2026-04-26T08:51:11.541Z</time></trkpt><trkpt lat="43.798265" lon="12.6075683"><ele>150.5</ele><time>2026-04-26T08:51:12.54Z</time></trkpt><trkpt lat="43.79837" lon="12.607445"><ele>151.0</ele><time>2026-04-26T08:51:13.541Z</time></trkpt><trkpt lat="43.7984833" lon="12.6073383"><ele>151.5</ele><time>2026-04-26T08:51:14.541Z</time></trkpt><trkpt lat="43.7986" lon="12.60724"><ele>152.0</ele><time>2026-04-26T08:51:15.541Z</time></trkpt><trkpt lat="43.7987283" lon="12.6071433"><ele>152.75</ele><time>2026-04-26T08:51:16.541Z</time></trkpt><trkpt lat="43.7988517" lon="12.6070433"><ele>153.5</ele><time>2026-04-26T08:51:17.54Z</time></trkpt><trkpt lat="43.7989617" lon="12.606935"><ele>154.25</ele><time>2026-04-26T08:51:18.54Z</time></trkpt><trkpt lat="43.7990517" lon="12.6068133"><ele>155.0</ele><time>2026-04-26T08:51:19.54Z</time></trkpt><trkpt lat="43.7991217" lon="12.6066667"><ele>154.75</ele><time>2026-04-26T08:51:20.541Z</time></trkpt><trkpt lat="43.7991833" lon="12.6064917"><ele>154.5</ele><time>2026-04-26T08:51:21.541Z</time></trkpt><trkpt lat="43.7992367" lon="12.6062967"><ele>154.25</ele><time>2026-04-26T08:51:22.541Z</time></trkpt><trkpt lat="43.7992983" lon="12.6060983"><ele>154.0</ele><time>2026-04-26T08:51:23.541Z</time></trkpt><trkpt lat="43.7993683" lon="12.6058833"><ele>154.0</ele><time>2026-04-26T08:51:24.54Z</time></trkpt><trkpt lat="43.7994383" lon="12.6056783"><ele>154.0</ele><time>2026-04-26T08:51:25.541Z</time></trkpt><trkpt lat="43.7995017" lon="12.6055033"><ele>154.0</ele><time>2026-04-26T08:51:26.541Z</time></trkpt><trkpt lat="43.7995583" lon="12.6053543"><ele>154.0</ele><time>2026-04-26T08:51:27.541Z</time></trkpt><trkpt lat="43.7996145" lon="12.6052274"><ele>156.0</ele><time>2026-04-26T08:51:28.541Z</time></trkpt><trkpt lat="43.7996801" lon="12.6051156"><ele>158.0</ele><time>2026-04-26T08:51:29.541Z</time></trkpt><trkpt lat="43.7997565" lon="12.6050131"><ele>160.0</ele><time>2026-04-26T08:51:30.54Z</time></trkpt><trkpt lat="43.7998417" lon="12.6049059"><ele>162.0</ele><time>2026-04-26T08:51:31.54Z</time></trkpt><trkpt lat="43.7999375" lon="12.6047854"><ele>162.0</ele><time>2026-04-26T08:51:32.541Z</time></trkpt><trkpt lat="43.8000528" lon="12.6046472"><ele>162.0</ele><time>2026-04-26T08:51:33.541Z</time></trkpt><trkpt lat="43.8001742" lon="12.6045043"><ele>162.0</ele><time>2026-04-26T08:51:34.541Z</time></trkpt><trkpt lat="43.8002924" lon="12.6043588"><ele>160.33333333333334</ele><time>2026-04-26T08:51:35.54Z</time></trkpt><trkpt lat="43.8004098" lon="12.604207"><ele>158.66666666666669</ele><time>2026-04-26T08:51:36.541Z</time></trkpt><trkpt lat="43.8005237" lon="12.6040498"><ele>157.0</ele><time>2026-04-26T08:51:37.541Z</time></trkpt><trkpt lat="43.8006341" lon="12.6038861"><ele>157.0</ele><time>2026-04-26T08:51:38.54Z</time></trkpt><trkpt lat="43.8007334" lon="12.6037305"><ele>157.0</ele><time>2026-04-26T08:51:39.541Z</time></trkpt><trkpt lat="43.8008271" lon="12.60358"><ele>157.0</ele><time>2026-04-26T08:51:40.541Z</time></trkpt><trkpt lat="43.8009194" lon="12.6034278"><ele>157.0</ele><time>2026-04-26T08:51:41.54Z</time></trkpt><trkpt lat="43.8009979" lon="12.6032849"><ele>158.25</ele><time>2026-04-26T08:51:42.54Z</time></trkpt><trkpt lat="43.8010598" lon="12.6031463"><ele>159.5</ele><time>2026-04-26T08:51:43.54Z</time></trkpt><trkpt lat="43.8011091" lon="12.6030054"><ele>160.75</ele><time>2026-04-26T08:51:44.54Z</time></trkpt><trkpt lat="43.801142" lon="12.6028613"><ele>162.0</ele><time>2026-04-26T08:51:45.541Z</time></trkpt><trkpt lat="43.80115" lon="12.6027016"><ele>166.0</ele><time>2026-04-26T08:51:46.54Z</time></trkpt><trkpt lat="43.8011326" lon="12.6025121"><ele>170.0</ele><time>2026-04-26T08:51:47.541Z</time></trkpt><trkpt lat="43.8010945" lon="12.6023164"><ele>174.0</ele><time>2026-04-26T08:51:48.541Z</time></trkpt><trkpt lat="43.8010568" lon="12.6021575"><ele>178.0</ele><time>2026-04-26T08:51:49.54Z</time></trkpt><trkpt lat="43.8010252" lon="12.6020298"><ele>180.33333333333334</ele><time>2026-04-26T08:51:50.54Z</time></trkpt><trkpt lat="43.8010103" lon="12.6019197"><ele>182.66666666666669</ele><time>2026-04-26T08:51:51.541Z</time></trkpt><trkpt lat="43.8010161" lon="12.6018195"><ele>185.0</ele><time>2026-04-26T08:51:52.541Z</time></trkpt><trkpt lat="43.801044" lon="12.6017215"><ele>187.33333333333334</ele><time>2026-04-26T08:51:53.541Z</time></trkpt><trkpt lat="43.8010916" lon="12.601634"><ele>189.66666666666666</ele><time>2026-04-26T08:51:54.541Z</time></trkpt><trkpt lat="43.8011531" lon="12.6015662"><ele>192.0</ele><time>2026-04-26T08:51:55.54Z</time></trkpt><trkpt lat="43.8012315" lon="12.6015044"><ele>192.0</ele><time>2026-04-26T08:51:56.54Z</time></trkpt><trkpt lat="43.8013165" lon="12.6014256"><ele>192.0</ele><time>2026-04-26T08:51:57.541Z</time></trkpt><trkpt lat="43.8013948" lon="12.601331"><ele>192.0</ele><time>2026-04-26T08:51:58.54Z</time></trkpt><trkpt lat="43.8014513" lon="12.6012126"><ele>192.0</ele><time>2026-04-26T08:51:59.54Z</time></trkpt><trkpt lat="43.8014918" lon="12.6010616"><ele>192.0</ele><time>2026-04-26T08:52:00.54Z</time></trkpt><trkpt lat="43.8015319" lon="12.6009079"><ele>192.39999999999998</ele><time>2026-04-26T08:52:01.541Z</time></trkpt><trkpt lat="43.8015839" lon="12.6007825"><ele>192.79999999999998</ele><time>2026-04-26T08:52:02.541Z</time></trkpt><trkpt lat="43.8016635" lon="12.6006869"><ele>193.2</ele><time>2026-04-26T08:52:03.541Z</time></trkpt><trkpt lat="43.8017663" lon="12.6006126"><ele>193.6</ele><time>2026-04-26T08:52:04.54Z</time></trkpt><trkpt lat="43.8018802" lon="12.6005545"><ele>194.0</ele><time>2026-04-26T08:52:05.541Z</time></trkpt><trkpt lat="43.8019956" lon="12.6005132"><ele>198.25</ele><time>2026-04-26T08:52:06.54Z</time></trkpt><trkpt lat="43.8021066" lon="12.6004782"><ele>202.5</ele><time>2026-04-26T08:52:07.541Z</time></trkpt><trkpt lat="43.8022224" lon="12.6004377"><ele>206.75</ele><time>2026-04-26T08:52:08.541Z</time></trkpt><trkpt lat="43.802336" lon="12.6003972"><ele>211.0</ele><time>2026-04-26T08:52:09.541Z</time></trkpt><trkpt lat="43.8024549" lon="12.600353"><ele>211.75</ele><time>2026-04-26T08:52:10.54Z</time></trkpt><trkpt lat="43.802581" lon="12.6003031"><ele>212.5</ele><time>2026-04-26T08:52:11.54Z</time></trkpt><trkpt lat="43.8027129" lon="12.6002331"><ele>213.25</ele><time>2026-04-26T08:52:12.54Z</time></trkpt><trkpt lat="43.8028437" lon="12.6001396"><ele>214.0</ele><time>2026-04-26T08:52:13.54Z</time></trkpt><trkpt lat="43.8029726" lon="12.6000287"><ele>214.0</ele><time>2026-04-26T08:52:14.54Z</time></trkpt><trkpt lat="43.8030853" lon="12.5999193"><ele>214.0</ele><time>2026-04-26T08:52:15.541Z</time></trkpt><trkpt lat="43.8031943" lon="12.5998212"><ele>214.0</ele><time>2026-04-26T08:52:16.54Z</time></trkpt><trkpt lat="43.8033121" lon="12.5997221"><ele>214.0</ele><time>2026-04-26T08:52:17.541Z</time></trkpt><trkpt lat="43.8034308" lon="12.5996225"><ele>212.5</ele><time>2026-04-26T08:52:18.541Z</time></trkpt><trkpt lat="43.8035449" lon="12.5995087"><ele>211.0</ele><time>2026-04-26T08:52:19.541Z</time></trkpt><trkpt lat="43.8036505" lon="12.5993754"><ele>209.5</ele><time>2026-04-26T08:52:20.54Z</time></trkpt><trkpt lat="43.8037487" lon="12.5992233"><ele>208.0</ele><time>2026-04-26T08:52:21.541Z</time></trkpt><trkpt lat="43.8038436" lon="12.5990556"><ele>208.0</ele><time>2026-04-26T08:52:22.54Z</time></trkpt><trkpt lat="43.8039438" lon="12.5988774"><ele>208.0</ele><time>2026-04-26T08:52:23.54Z</time></trkpt><trkpt lat="43.8040415" lon="12.5986952"><ele>208.0</ele><time>2026-04-26T08:52:24.541Z</time></trkpt><trkpt lat="43.8041354" lon="12.5985201"><ele>207.5</ele><time>2026-04-26T08:52:25.54Z</time></trkpt><trkpt lat="43.8042209" lon="12.5983588"><ele>207.0</ele><time>2026-04-26T08:52:26.541Z</time></trkpt><trkpt lat="43.8042993" lon="12.5981994"><ele>206.5</ele><time>2026-04-26T08:52:27.541Z</time></trkpt><trkpt lat="43.8043713" lon="12.5980327"><ele>206.0</ele><time>2026-04-26T08:52:28.541Z</time></trkpt><trkpt lat="43.8044275" lon="12.5978489"><ele>200.66666666666669</ele><time>2026-04-26T08:52:29.54Z</time></trkpt><trkpt lat="43.8044693" lon="12.5976475"><ele>195.33333333333334</ele><time>2026-04-26T08:52:30.541Z</time></trkpt><trkpt lat="43.8044937" lon="12.5974303"><ele>190.0</ele><time>2026-04-26T08:52:31.541Z</time></trkpt><trkpt lat="43.804499" lon="12.5972013"><ele>193.66666666666669</ele><time>2026-04-26T08:52:32.541Z</time></trkpt><trkpt lat="43.8045" lon="12.596957"><ele>197.33333333333334</ele><time>2026-04-26T08:52:33.541Z</time></trkpt><trkpt lat="43.8044967" lon="12.5967133"><ele>201.0</ele><time>2026-04-26T08:52:34.541Z</time></trkpt><trkpt lat="43.8044817" lon="12.5964683"><ele>201.0</ele><time>2026-04-26T08:52:35.54Z</time></trkpt><trkpt lat="43.8044683" lon="12.59626"><ele>201.0</ele><time>2026-04-26T08:52:36.541Z</time></trkpt><trkpt lat="43.8044583" lon="12.5960767"><ele>201.0</ele><time>2026-04-26T08:52:37.541Z</time></trkpt><trkpt lat="43.80447" lon="12.5959267"><ele>201.0</ele><time>2026-04-26T08:52:38.541Z</time></trkpt><trkpt lat="43.8045083" lon="12.5957917"><ele>204.20000000000002</ele><time>2026-04-26T08:52:39.541Z</time></trkpt><trkpt lat="43.80457" lon="12.59568"><ele>207.4</ele><time>2026-04-26T08:52:40.541Z</time></trkpt><trkpt lat="43.804655" lon="12.59561"><ele>210.6</ele><time>2026-04-26T08:52:41.541Z</time></trkpt><trkpt lat="43.8047433" lon="12.595565"><ele>213.8</ele><time>2026-04-26T08:52:42.541Z</time></trkpt><trkpt lat="43.8048217" lon="12.595525"><ele>217.0</ele><time>2026-04-26T08:52:43.541Z</time></trkpt><trkpt lat="43.8048967" lon="12.5954517"><ele>217.0</ele><time>2026-04-26T08:52:44.541Z</time></trkpt><trkpt lat="43.8049533" lon="12.59534"><ele>217.0</ele><time>2026-04-26T08:52:45.54Z</time></trkpt><trkpt lat="43.805005" lon="12.5951883"><ele>217.0</ele><time>2026-04-26T08:52:46.541Z</time></trkpt><trkpt lat="43.8050467" lon="12.5949733"><ele>217.0</ele><time>2026-04-26T08:52:47.54Z</time></trkpt><trkpt lat="43.8050833" lon="12.59472"><ele>218.0</ele><time>2026-04-26T08:52:48.54Z</time></trkpt><trkpt lat="43.80511" lon="12.5944667"><ele>219.0</ele><time>2026-04-26T08:52:49.541Z</time></trkpt><trkpt lat="43.8051383" lon="12.5942483"><ele>220.0</ele><time>2026-04-26T08:52:50.541Z</time></trkpt><trkpt lat="43.805175" lon="12.59404"><ele>219.33333333333331</ele><time>2026-04-26T08:52:51.541Z</time></trkpt><trkpt lat="43.8052317" lon="12.593855"><ele>218.66666666666669</ele><time>2026-04-26T08:52:52.541Z</time></trkpt><trkpt lat="43.8053" lon="12.59366"><ele>218.0</ele><time>2026-04-26T08:52:53.541Z</time></trkpt><trkpt lat="43.8053683" lon="12.5934633"><ele>218.0</ele><time>2026-04-26T08:52:54.541Z</time></trkpt><trkpt lat="43.8054383" lon="12.59327"><ele>218.0</ele><time>2026-04-26T08:52:55.541Z</time></trkpt><trkpt lat="43.8055083" lon="12.5930767"><ele>218.0</ele><time>2026-04-26T08:52:56.541Z</time></trkpt><trkpt lat="43.8055567" lon="12.5928783"><ele>219.33333333333334</ele><time>2026-04-26T08:52:57.54Z</time></trkpt><trkpt lat="43.8056017" lon="12.5926633"><ele>220.66666666666669</ele><time>2026-04-26T08:52:58.541Z</time></trkpt><trkpt lat="43.8056367" lon="12.5924117"><ele>222.0</ele><time>2026-04-26T08:52:59.541Z</time></trkpt><trkpt lat="43.805675" lon="12.592145"><ele>222.33333333333331</ele><time>2026-04-26T08:53:00.541Z</time></trkpt><trkpt lat="43.8057083" lon="12.5918833"><ele>222.66666666666666</ele><time>2026-04-26T08:53:01.54Z</time></trkpt><trkpt lat="43.8057283" lon="12.5916217"><ele>223.0</ele><time>2026-04-26T08:53:02.54Z</time></trkpt><trkpt lat="43.8057467" lon="12.59135"><ele>222.66666666666666</ele><time>2026-04-26T08:53:03.541Z</time></trkpt><trkpt lat="43.80576" lon="12.5910833"><ele>222.33333333333331</ele><time>2026-04-26T08:53:04.541Z</time></trkpt><trkpt lat="43.805765" lon="12.5908233"><ele>222.0</ele><time>2026-04-26T08:53:05.541Z</time></trkpt><trkpt lat="43.8057667" lon="12.5905617"><ele>222.33333333333331</ele><time>2026-04-26T08:53:06.541Z</time></trkpt><trkpt lat="43.80577" lon="12.5902967"><ele>222.66666666666666</ele><time>2026-04-26T08:53:07.541Z</time></trkpt><trkpt lat="43.805775" lon="12.590045"><ele>223.0</ele><time>2026-04-26T08:53:08.54Z</time></trkpt><trkpt lat="43.8057817" lon="12.5898033"><ele>223.0</ele><time>2026-04-26T08:53:09.541Z</time></trkpt><trkpt lat="43.80579" lon="12.589565"><ele>223.0</ele><time>2026-04-26T08:53:10.541Z</time></trkpt><trkpt lat="43.8057883" lon="12.5893533"><ele>223.0</ele><time>2026-04-26T08:53:11.541Z</time></trkpt><trkpt lat="43.805775" lon="12.5891483"><ele>224.0</ele><time>2026-04-26T08:53:12.541Z</time></trkpt><trkpt lat="43.8057417" lon="12.588945"><ele>225.0</ele><time>2026-04-26T08:53:13.541Z</time></trkpt><trkpt lat="43.80571" lon="12.58876"><ele>226.0</ele><time>2026-04-26T08:53:14.541Z</time></trkpt><trkpt lat="43.8056733" lon="12.5885933"><ele>227.0</ele><time>2026-04-26T08:53:15.54Z</time></trkpt><trkpt lat="43.8056367" lon="12.5884367"><ele>228.0</ele><time>2026-04-26T08:53:16.541Z</time></trkpt><trkpt lat="43.8056" lon="12.588275"><ele>229.0</ele><time>2026-04-26T08:53:17.541Z</time></trkpt><trkpt lat="43.8055783" lon="12.5881117"><ele>230.0</ele><time>2026-04-26T08:53:18.541Z</time></trkpt><trkpt lat="43.80556" lon="12.58796"><ele>231.0</ele><time>2026-04-26T08:53:19.541Z</time></trkpt><trkpt lat="43.8055517" lon="12.5878333"><ele>232.0</ele><time>2026-04-26T08:53:20.541Z</time></trkpt><trkpt lat="43.8055567" lon="12.5877167"><ele>234.0</ele><time>2026-04-26T08:53:21.541Z</time></trkpt><trkpt lat="43.80558" lon="12.5876"><ele>236.0</ele><time>2026-04-26T08:53:22.541Z</time></trkpt><trkpt lat="43.8056233" lon="12.587475"><ele>238.0</ele><time>2026-04-26T08:53:23.541Z</time></trkpt><trkpt lat="43.8056667" lon="12.5873333"><ele>240.0</ele><time>2026-04-26T08:53:24.541Z</time></trkpt><trkpt lat="43.8056933" lon="12.5871917"><ele>242.0</ele><time>2026-04-26T08:53:25.54Z</time></trkpt><trkpt lat="43.8056933" lon="12.5870417"><ele>242.39999999999998</ele><time>2026-04-26T08:53:26.541Z</time></trkpt><trkpt lat="43.8056683" lon="12.5868933"><ele>242.79999999999998</ele><time>2026-04-26T08:53:27.54Z</time></trkpt><trkpt lat="43.805635" lon="12.58674"><ele>243.2</ele><time>2026-04-26T08:53:28.541Z</time></trkpt><trkpt lat="43.80562" lon="12.5866083"><ele>243.6</ele><time>2026-04-26T08:53:29.54Z</time></trkpt><trkpt lat="43.80563" lon="12.5864733"><ele>244.0</ele><time>2026-04-26T08:53:30.54Z</time></trkpt><trkpt lat="43.8056567" lon="12.586335"><ele>244.0</ele><time>2026-04-26T08:53:31.541Z</time></trkpt><trkpt lat="43.805695" lon="12.586195"><ele>243.99999999999997</ele><time>2026-04-26T08:53:32.541Z</time></trkpt><trkpt lat="43.8057367" lon="12.5860567"><ele>243.99999999999997</ele><time>2026-04-26T08:53:33.54Z</time></trkpt><trkpt lat="43.8057833" lon="12.5859183"><ele>244.0</ele><time>2026-04-26T08:53:34.54Z</time></trkpt><trkpt lat="43.8058283" lon="12.5857717"><ele>244.0</ele><time>2026-04-26T08:53:35.541Z</time></trkpt><trkpt lat="43.8058817" lon="12.58561"><ele>243.75</ele><time>2026-04-26T08:53:36.541Z</time></trkpt><trkpt lat="43.8059317" lon="12.5854383"><ele>243.5</ele><time>2026-04-26T08:53:37.541Z</time></trkpt><trkpt lat="43.8059833" lon="12.5852717"><ele>243.25</ele><time>2026-04-26T08:53:38.541Z</time></trkpt><trkpt lat="43.80603" lon="12.585095"><ele>243.0</ele><time>2026-04-26T08:53:39.541Z</time></trkpt><trkpt lat="43.8060733" lon="12.5849133"><ele>237.75</ele><time>2026-04-26T08:53:40.541Z</time></trkpt><trkpt lat="43.8061" lon="12.58473"><ele>232.5</ele><time>2026-04-26T08:53:41.541Z</time></trkpt><trkpt lat="43.80611" lon="12.5845583"><ele>227.25</ele><time>2026-04-26T08:53:42.541Z</time></trkpt><trkpt lat="43.806115" lon="12.5844"><ele>222.0</ele><time>2026-04-26T08:53:43.541Z</time></trkpt><trkpt lat="43.806095" lon="12.5842333"><ele>221.66666666666669</ele><time>2026-04-26T08:53:44.541Z</time></trkpt><trkpt lat="43.8060633" lon="12.584045"><ele>221.33333333333334</ele><time>2026-04-26T08:53:45.541Z</time></trkpt><trkpt lat="43.8060383" lon="12.58383"><ele>221.0</ele><time>2026-04-26T08:53:46.541Z</time></trkpt><trkpt lat="43.8060133" lon="12.5836133"><ele>225.25</ele><time>2026-04-26T08:53:47.541Z</time></trkpt><trkpt lat="43.8059917" lon="12.5834117"><ele>229.5</ele><time>2026-04-26T08:53:48.54Z</time></trkpt><trkpt lat="43.8059683" lon="12.583225"><ele>233.75</ele><time>2026-04-26T08:53:49.541Z</time></trkpt><trkpt lat="43.8059417" lon="12.5830533"><ele>238.0</ele><time>2026-04-26T08:53:50.541Z</time></trkpt><trkpt lat="43.8059117" lon="12.5828833"><ele>238.0</ele><time>2026-04-26T08:53:51.541Z</time></trkpt><trkpt lat="43.80589" lon="12.5827"><ele>238.0</ele><time>2026-04-26T08:53:52.54Z</time></trkpt><trkpt lat="43.8058717" lon="12.58253"><ele>238.0</ele><time>2026-04-26T08:53:53.541Z</time></trkpt><trkpt lat="43.8058533" lon="12.5823817"><ele>238.0</ele><time>2026-04-26T08:53:54.54Z</time></trkpt><trkpt lat="43.8058217" lon="12.5822283"><ele>238.0</ele><time>2026-04-26T08:53:55.541Z</time></trkpt><trkpt lat="43.8057783" lon="12.5820433"><ele>238.0</ele><time>2026-04-26T08:53:56.54Z</time></trkpt><trkpt lat="43.8057167" lon="12.5818533"><ele>238.0</ele><time>2026-04-26T08:53:57.541Z</time></trkpt><trkpt lat="43.805655" lon="12.5816617"><ele>238.0</ele><time>2026-04-26T08:53:58.541Z</time></trkpt><trkpt lat="43.8056067" lon="12.581465"><ele>236.75</ele><time>2026-04-26T08:53:59.541Z</time></trkpt><trkpt lat="43.8055633" lon="12.581285"><ele>235.5</ele><time>2026-04-26T08:54:00.54Z</time></trkpt><trkpt lat="43.8055233" lon="12.5811183"><ele>234.25</ele><time>2026-04-26T08:54:01.541Z</time></trkpt><trkpt lat="43.8054817" lon="12.5809583"><ele>233.0</ele><time>2026-04-26T08:54:02.541Z</time></trkpt><trkpt lat="43.8054533" lon="12.5807933"><ele>232.2</ele><time>2026-04-26T08:54:03.54Z</time></trkpt><trkpt lat="43.8054383" lon="12.5806283"><ele>231.4</ele><time>2026-04-26T08:54:04.541Z</time></trkpt><trkpt lat="43.80544" lon="12.580465"><ele>230.59999999999997</ele><time>2026-04-26T08:54:05.541Z</time></trkpt><trkpt lat="43.80546" lon="12.5803117"><ele>229.79999999999998</ele><time>2026-04-26T08:54:06.541Z</time></trkpt><trkpt lat="43.8054783" lon="12.58018"><ele>229.0</ele><time>2026-04-26T08:54:07.54Z</time></trkpt><trkpt lat="43.8054917" lon="12.5800633"><ele>228.79999999999998</ele><time>2026-04-26T08:54:08.54Z</time></trkpt><trkpt lat="43.8054917" lon="12.5799567"><ele>228.59999999999997</ele><time>2026-04-26T08:54:09.541Z</time></trkpt><trkpt lat="43.8054767" lon="12.5798617"><ele>228.4</ele><time>2026-04-26T08:54:10.54Z</time></trkpt><trkpt lat="43.8054383" lon="12.5797533"><ele>228.2</ele><time>2026-04-26T08:54:11.54Z</time></trkpt><trkpt lat="43.8053733" lon="12.579625"><ele>228.0</ele><time>2026-04-26T08:54:12.541Z</time></trkpt><trkpt lat="43.8052967" lon="12.5794933"><ele>226.75</ele><time>2026-04-26T08:54:13.541Z</time></trkpt><trkpt lat="43.8052267" lon="12.5793583"><ele>225.5</ele><time>2026-04-26T08:54:14.54Z</time></trkpt><trkpt lat="43.8051683" lon="12.57922"><ele>224.25</ele><time>2026-04-26T08:54:15.541Z</time></trkpt><trkpt lat="43.8051203" lon="12.5790613"><ele>223.0</ele><time>2026-04-26T08:54:16.54Z</time></trkpt><trkpt lat="43.8050924" lon="12.5788612"><ele>224.75</ele><time>2026-04-26T08:54:17.541Z</time></trkpt><trkpt lat="43.8050771" lon="12.5786443"><ele>226.5</ele><time>2026-04-26T08:54:18.541Z</time></trkpt><trkpt lat="43.8050765" lon="12.5784445"><ele>228.25</ele><time>2026-04-26T08:54:19.54Z</time></trkpt><trkpt lat="43.8050662" lon="12.5782405"><ele>230.0</ele><time>2026-04-26T08:54:20.541Z</time></trkpt><trkpt lat="43.8050475" lon="12.5780212"><ele>229.66666666666669</ele><time>2026-04-26T08:54:21.54Z</time></trkpt><trkpt lat="43.8050209" lon="12.5778077"><ele>229.33333333333331</ele><time>2026-04-26T08:54:22.541Z</time></trkpt><trkpt lat="43.8049809" lon="12.5775932"><ele>229.0</ele><time>2026-04-26T08:54:23.541Z</time></trkpt><trkpt lat="43.804935" lon="12.5773764"><ele>229.0</ele><time>2026-04-26T08:54:24.541Z</time></trkpt><trkpt lat="43.8048803" lon="12.5771583"><ele>229.0</ele><time>2026-04-26T08:54:25.541Z</time></trkpt><trkpt lat="43.8048235" lon="12.5769358"><ele>229.0</ele><time>2026-04-26T08:54:26.541Z</time></trkpt><trkpt lat="43.8047725" lon="12.5767237"><ele>229.66666666666666</ele><time>2026-04-26T08:54:27.541Z</time></trkpt><trkpt lat="43.804722" lon="12.5765144"><ele>230.33333333333331</ele><time>2026-04-26T08:54:28.541Z</time></trkpt><trkpt lat="43.804674" lon="12.5763143"><ele>231.0</ele><time>2026-04-26T08:54:29.541Z</time></trkpt><trkpt lat="43.8046312" lon="12.5761242"><ele>233.25</ele><time>2026-04-26T08:54:30.54Z</time></trkpt><trkpt lat="43.8045893" lon="12.5759316"><ele>235.5</ele><time>2026-04-26T08:54:31.541Z</time></trkpt><trkpt lat="43.8045491" lon="12.5757505"><ele>237.75</ele><time>2026-04-26T08:54:32.54Z</time></trkpt><trkpt lat="43.8045079" lon="12.5755879"><ele>240.0</ele><time>2026-04-26T08:54:33.541Z</time></trkpt><trkpt lat="43.8044735" lon="12.5754336"><ele>241.0</ele><time>2026-04-26T08:54:34.541Z</time></trkpt><trkpt lat="43.8044546" lon="12.5752772"><ele>242.0</ele><time>2026-04-26T08:54:35.541Z</time></trkpt><trkpt lat="43.8044545" lon="12.5751137"><ele>243.0</ele><time>2026-04-26T08:54:36.54Z</time></trkpt><trkpt lat="43.8044681" lon="12.5749495"><ele>244.0</ele><time>2026-04-26T08:54:37.541Z</time></trkpt><trkpt lat="43.8044781" lon="12.574787"><ele>244.0</ele><time>2026-04-26T08:54:38.54Z</time></trkpt><trkpt lat="43.8044656" lon="12.5746217"><ele>244.0</ele><time>2026-04-26T08:54:39.54Z</time></trkpt><trkpt lat="43.8044418" lon="12.5744463"><ele>244.0</ele><time>2026-04-26T08:54:40.541Z</time></trkpt><trkpt lat="43.8044136" lon="12.5742806"><ele>244.0</ele><time>2026-04-26T08:54:41.54Z</time></trkpt><trkpt lat="43.8043849" lon="12.574134"><ele>243.79999999999998</ele><time>2026-04-26T08:54:42.541Z</time></trkpt><trkpt lat="43.8043558" lon="12.5739872"><ele>243.59999999999997</ele><time>2026-04-26T08:54:43.541Z</time></trkpt><trkpt lat="43.8043296" lon="12.5738366"><ele>243.4</ele><time>2026-04-26T08:54:44.541Z</time></trkpt><trkpt lat="43.8043112" lon="12.5736863"><ele>243.2</ele><time>2026-04-26T08:54:45.541Z</time></trkpt><trkpt lat="43.8042943" lon="12.5735438"><ele>243.0</ele><time>2026-04-26T08:54:46.54Z</time></trkpt><trkpt lat="43.8042821" lon="12.5734023"><ele>243.0</ele><time>2026-04-26T08:54:47.541Z</time></trkpt><trkpt lat="43.8042712" lon="12.5732704"><ele>243.0</ele><time>2026-04-26T08:54:48.541Z</time></trkpt><trkpt lat="43.804262" lon="12.5731498"><ele>243.0</ele><time>2026-04-26T08:54:49.541Z</time></trkpt><trkpt lat="43.8042563" lon="12.5730373"><ele>243.0</ele><time>2026-04-26T08:54:50.541Z</time></trkpt><trkpt lat="43.8042531" lon="12.572927"><ele>243.0</ele><time>2026-04-26T08:54:51.541Z</time></trkpt><trkpt lat="43.8042512" lon="12.5728216"><ele>243.0</ele><time>2026-04-26T08:54:52.541Z</time></trkpt><trkpt lat="43.8042486" lon="12.5727107"><ele>243.25</ele><time>2026-04-26T08:54:53.541Z</time></trkpt><trkpt lat="43.8042334" lon="12.5725912"><ele>243.5</ele><time>2026-04-26T08:54:54.541Z</time></trkpt><trkpt lat="43.8042044" lon="12.5724569"><ele>243.75</ele><time>2026-04-26T08:54:55.541Z</time></trkpt><trkpt lat="43.8041548" lon="12.572301"><ele>244.0</ele><time>2026-04-26T08:54:56.541Z</time></trkpt><trkpt lat="43.8040913" lon="12.5721189"><ele>245.33333333333331</ele><time>2026-04-26T08:54:57.541Z</time></trkpt><trkpt lat="43.8040158" lon="12.5719241"><ele>246.66666666666669</ele><time>2026-04-26T08:54:58.54Z</time></trkpt><trkpt lat="43.8039416" lon="12.5717321"><ele>248.0</ele><time>2026-04-26T08:54:59.54Z</time></trkpt><trkpt lat="43.8038781" lon="12.5715568"><ele>248.0</ele><time>2026-04-26T08:55:00.541Z</time></trkpt><trkpt lat="43.8038234" lon="12.5713901"><ele>248.0</ele><time>2026-04-26T08:55:01.541Z</time></trkpt><trkpt lat="43.8037829" lon="12.5712172"><ele>248.0</ele><time>2026-04-26T08:55:02.541Z</time></trkpt><trkpt lat="43.8037676" lon="12.5710464"><ele>248.0</ele><time>2026-04-26T08:55:03.541Z</time></trkpt><trkpt lat="43.8037869" lon="12.570888"><ele>248.2</ele><time>2026-04-26T08:55:04.541Z</time></trkpt><trkpt lat="43.8038188" lon="12.5707365"><ele>248.4</ele><time>2026-04-26T08:55:05.54Z</time></trkpt><trkpt lat="43.8038386" lon="12.570607"><ele>248.59999999999997</ele><time>2026-04-26T08:55:06.541Z</time></trkpt><trkpt lat="43.8038269" lon="12.5704905"><ele>248.79999999999998</ele><time>2026-04-26T08:55:07.541Z</time></trkpt><trkpt lat="43.8037811" lon="12.5703783"><ele>249.0</ele><time>2026-04-26T08:55:08.541Z</time></trkpt><trkpt lat="43.8036898" lon="12.5702758"><ele>249.66666666666669</ele><time>2026-04-26T08:55:09.541Z</time></trkpt><trkpt lat="43.8035687" lon="12.570161"><ele>250.33333333333334</ele><time>2026-04-26T08:55:10.541Z</time></trkpt><trkpt lat="43.803433" lon="12.5700285"><ele>251.0</ele><time>2026-04-26T08:55:11.541Z</time></trkpt><trkpt lat="43.8032965" lon="12.5698802"><ele>255.66666666666669</ele><time>2026-04-26T08:55:12.541Z</time></trkpt><trkpt lat="43.8031601" lon="12.5697224"><ele>260.3333333333333</ele><time>2026-04-26T08:55:13.541Z</time></trkpt><trkpt lat="43.8030283" lon="12.5695758"><ele>265.0</ele><time>2026-04-26T08:55:14.541Z</time></trkpt><trkpt lat="43.8029049" lon="12.5694431"><ele>266.75</ele><time>2026-04-26T08:55:15.541Z</time></trkpt><trkpt lat="43.802792" lon="12.5693201"><ele>268.5</ele><time>2026-04-26T08:55:16.541Z</time></trkpt><trkpt lat="43.8026883" lon="12.5691904"><ele>270.25</ele><time>2026-04-26T08:55:17.54Z</time></trkpt><trkpt lat="43.8026024" lon="12.5690495"><ele>272.0</ele><time>2026-04-26T08:55:18.541Z</time></trkpt><trkpt lat="43.8025242" lon="12.5688943"><ele>272.33333333333337</ele><time>2026-04-26T08:55:19.541Z</time></trkpt><trkpt lat="43.8024467" lon="12.5687139"><ele>272.6666666666667</ele><time>2026-04-26T08:55:20.541Z</time></trkpt><trkpt lat="43.8023611" lon="12.5685167"><ele>273.0</ele><time>2026-04-26T08:55:21.541Z</time></trkpt><trkpt lat="43.8022735" lon="12.5683249"><ele>273.5</ele><time>2026-04-26T08:55:22.541Z</time></trkpt><trkpt lat="43.8021905" lon="12.5681537"><ele>274.0</ele><time>2026-04-26T08:55:23.541Z</time></trkpt><trkpt lat="43.8021134" lon="12.5679983"><ele>274.5</ele><time>2026-04-26T08:55:24.541Z</time></trkpt><trkpt lat="43.8020442" lon="12.5678598"><ele>275.0</ele><time>2026-04-26T08:55:25.541Z</time></trkpt><trkpt lat="43.8019909" lon="12.5677153"><ele>275.0</ele><time>2026-04-26T08:55:26.54Z</time></trkpt><trkpt lat="43.8019598" lon="12.5675563"><ele>275.0</ele><time>2026-04-26T08:55:27.541Z</time></trkpt><trkpt lat="43.8019282" lon="12.567406"><ele>275.0</ele><time>2026-04-26T08:55:28.54Z</time></trkpt><trkpt lat="43.80188" lon="12.5672657"><ele>275.0</ele><time>2026-04-26T08:55:29.54Z</time></trkpt><trkpt lat="43.8018002" lon="12.5671406"><ele>275.0</ele><time>2026-04-26T08:55:30.541Z</time></trkpt><trkpt lat="43.8017056" lon="12.5670277"><ele>275.0</ele><time>2026-04-26T08:55:31.541Z</time></trkpt><trkpt lat="43.8015997" lon="12.566911"><ele>275.0</ele><time>2026-04-26T08:55:32.54Z</time></trkpt><trkpt lat="43.8014885" lon="12.5667767"><ele>275.0</ele><time>2026-04-26T08:55:33.541Z</time></trkpt><trkpt lat="43.8013884" lon="12.5666055"><ele>273.75</ele><time>2026-04-26T08:55:34.54Z</time></trkpt><trkpt lat="43.8012973" lon="12.5664405"><ele>272.5</ele><time>2026-04-26T08:55:35.541Z</time></trkpt><trkpt lat="43.8012113" lon="12.5663069"><ele>271.25</ele><time>2026-04-26T08:55:36.54Z</time></trkpt><trkpt lat="43.8011201" lon="12.5662056"><ele>270.0</ele><time>2026-04-26T08:55:37.541Z</time></trkpt><trkpt lat="43.8010143" lon="12.5661372"><ele>271.5</ele><time>2026-04-26T08:55:38.54Z</time></trkpt><trkpt lat="43.8008975" lon="12.5660958"><ele>273.0</ele><time>2026-04-26T08:55:39.54Z</time></trkpt><trkpt lat="43.8007697" lon="12.5660867"><ele>274.5</ele><time>2026-04-26T08:55:40.541Z</time></trkpt><trkpt lat="43.8006316" lon="12.5661063"><ele>276.0</ele><time>2026-04-26T08:55:41.541Z</time></trkpt><trkpt lat="43.8004862" lon="12.566144"><ele>276.0</ele><time>2026-04-26T08:55:42.541Z</time></trkpt><trkpt lat="43.8003444" lon="12.5662181"><ele>276.0</ele><time>2026-04-26T08:55:43.541Z</time></trkpt><trkpt lat="43.8002217" lon="12.5662915"><ele>276.0</ele><time>2026-04-26T08:55:44.54Z</time></trkpt><trkpt lat="43.8001212" lon="12.5663475"><ele>276.0</ele><time>2026-04-26T08:55:45.54Z</time></trkpt><trkpt lat="43.8000418" lon="12.5663711"><ele>276.2</ele><time>2026-04-26T08:55:46.541Z</time></trkpt><trkpt lat="43.7999541" lon="12.566287"><ele>276.40000000000003</ele><time>2026-04-26T08:55:48.541Z</time></trkpt><trkpt lat="43.7999442" lon="12.5661925"><ele>276.6</ele><time>2026-04-26T08:55:49.541Z</time></trkpt><trkpt lat="43.7999597" lon="12.5660723"><ele>276.8</ele><time>2026-04-26T08:55:50.541Z</time></trkpt><trkpt lat="43.7999863" lon="12.5659166"><ele>277.0</ele><time>2026-04-26T08:55:51.54Z</time></trkpt><trkpt lat="43.800017" lon="12.5657508"><ele>279.0</ele><time>2026-04-26T08:55:52.541Z</time></trkpt><trkpt lat="43.800028" lon="12.5655966"><ele>281.0</ele><time>2026-04-26T08:55:53.54Z</time></trkpt><trkpt lat="43.8000143" lon="12.5654728"><ele>283.0</ele><time>2026-04-26T08:55:54.541Z</time></trkpt><trkpt lat="43.7999709" lon="12.5653655"><ele>285.0</ele><time>2026-04-26T08:55:55.54Z</time></trkpt><trkpt lat="43.7999" lon="12.5652671"><ele>287.0</ele><time>2026-04-26T08:55:56.54Z</time></trkpt><trkpt lat="43.79979" lon="12.56518"><ele>287.0</ele><time>2026-04-26T08:55:57.541Z</time></trkpt><trkpt lat="43.7996733" lon="12.5651017"><ele>287.0</ele><time>2026-04-26T08:55:58.541Z</time></trkpt><trkpt lat="43.7995633" lon="12.5650467"><ele>287.0</ele><time>2026-04-26T08:55:59.541Z</time></trkpt><trkpt lat="43.7994667" lon="12.5650067"><ele>287.0</ele><time>2026-04-26T08:56:00.54Z</time></trkpt><trkpt lat="43.7993733" lon="12.5650033"><ele>287.0</ele><time>2026-04-26T08:56:01.541Z</time></trkpt><trkpt lat="43.799275" lon="12.5650183"><ele>289.75</ele><time>2026-04-26T08:56:02.541Z</time></trkpt><trkpt lat="43.7991817" lon="12.5650667"><ele>292.5</ele><time>2026-04-26T08:56:03.54Z</time></trkpt><trkpt lat="43.7990983" lon="12.5651517"><ele>295.25</ele><time>2026-04-26T08:56:04.541Z</time></trkpt><trkpt lat="43.7990117" lon="12.5652633"><ele>298.0</ele><time>2026-04-26T08:56:05.541Z</time></trkpt><trkpt lat="43.7989183" lon="12.565395"><ele>298.0</ele><time>2026-04-26T08:56:06.541Z</time></trkpt><trkpt lat="43.7988117" lon="12.5655433"><ele>298.0</ele><time>2026-04-26T08:56:07.541Z</time></trkpt><trkpt lat="43.7987083" lon="12.56567"><ele>298.0</ele><time>2026-04-26T08:56:08.541Z</time></trkpt><trkpt lat="43.7986133" lon="12.565755"><ele>298.0</ele><time>2026-04-26T08:56:09.541Z</time></trkpt><trkpt lat="43.7985217" lon="12.5658167"><ele>300.0</ele><time>2026-04-26T08:56:10.54Z</time></trkpt><trkpt lat="43.798425" lon="12.56583"><ele>302.0</ele><time>2026-04-26T08:56:11.541Z</time></trkpt><trkpt lat="43.7983367" lon="12.5657983"><ele>304.0</ele><time>2026-04-26T08:56:12.541Z</time></trkpt><trkpt lat="43.7982283" lon="12.5657117"><ele>306.0</ele><time>2026-04-26T08:56:13.541Z</time></trkpt><trkpt lat="43.7981117" lon="12.5655883"><ele>306.0</ele><time>2026-04-26T08:56:14.541Z</time></trkpt><trkpt lat="43.7979917" lon="12.5654617"><ele>306.0</ele><time>2026-04-26T08:56:15.541Z</time></trkpt><trkpt lat="43.7978883" lon="12.5653367"><ele>306.0</ele><time>2026-04-26T08:56:16.541Z</time></trkpt><trkpt lat="43.7978033" lon="12.5651883"><ele>306.0</ele><time>2026-04-26T08:56:17.541Z</time></trkpt><trkpt lat="43.797725" lon="12.56502"><ele>306.5</ele><time>2026-04-26T08:56:18.541Z</time></trkpt><trkpt lat="43.797655" lon="12.5648433"><ele>307.0</ele><time>2026-04-26T08:56:19.541Z</time></trkpt><trkpt lat="43.7975983" lon="12.564665"><ele>307.5</ele><time>2026-04-26T08:56:20.541Z</time></trkpt><trkpt lat="43.7975383" lon="12.564485"><ele>308.0</ele><time>2026-04-26T08:56:21.541Z</time></trkpt><trkpt lat="43.7974833" lon="12.5643083"><ele>308.0</ele><time>2026-04-26T08:56:22.54Z</time></trkpt><trkpt lat="43.79743" lon="12.5641533"><ele>308.0</ele><time>2026-04-26T08:56:23.541Z</time></trkpt><trkpt lat="43.7973917" lon="12.5640117"><ele>308.0</ele><time>2026-04-26T08:56:24.54Z</time></trkpt><trkpt lat="43.7973733" lon="12.563865"><ele>308.0</ele><time>2026-04-26T08:56:25.54Z</time></trkpt><trkpt lat="43.797375" lon="12.5637383"><ele>308.0</ele><time>2026-04-26T08:56:26.541Z</time></trkpt><trkpt lat="43.7974117" lon="12.56361"><ele>308.0</ele><time>2026-04-26T08:56:27.54Z</time></trkpt><trkpt lat="43.797475" lon="12.5634533"><ele>308.0</ele><time>2026-04-26T08:56:28.54Z</time></trkpt><trkpt lat="43.797555" lon="12.5632833"><ele>308.0</ele><time>2026-04-26T08:56:29.541Z</time></trkpt><trkpt lat="43.7976317" lon="12.5631"><ele>308.0</ele><time>2026-04-26T08:56:30.541Z</time></trkpt><trkpt lat="43.797695" lon="12.5629167"><ele>306.5</ele><time>2026-04-26T08:56:31.54Z</time></trkpt><trkpt lat="43.79775" lon="12.562735"><ele>305.0</ele><time>2026-04-26T08:56:32.54Z</time></trkpt><trkpt lat="43.7978067" lon="12.56256"><ele>303.5</ele><time>2026-04-26T08:56:33.541Z</time></trkpt><trkpt lat="43.7978633" lon="12.5623867"><ele>302.0</ele><time>2026-04-26T08:56:34.54Z</time></trkpt><trkpt lat="43.7979217" lon="12.56223"><ele>302.0</ele><time>2026-04-26T08:56:35.541Z</time></trkpt><trkpt lat="43.7979833" lon="12.562075"><ele>302.0</ele><time>2026-04-26T08:56:36.541Z</time></trkpt><trkpt lat="43.7980367" lon="12.56193"><ele>302.0</ele><time>2026-04-26T08:56:37.541Z</time></trkpt><trkpt lat="43.79809" lon="12.5617817"><ele>302.0</ele><time>2026-04-26T08:56:38.541Z</time></trkpt><trkpt lat="43.7981317" lon="12.5616217"><ele>301.25</ele><time>2026-04-26T08:56:39.541Z</time></trkpt><trkpt lat="43.7981433" lon="12.5614633"><ele>300.5</ele><time>2026-04-26T08:56:40.541Z</time></trkpt><trkpt lat="43.7981367" lon="12.5612983"><ele>299.75</ele><time>2026-04-26T08:56:41.541Z</time></trkpt><trkpt lat="43.7980967" lon="12.5611467"><ele>299.0</ele><time>2026-04-26T08:56:42.541Z</time></trkpt><trkpt lat="43.798035" lon="12.5609833"><ele>299.0</ele><time>2026-04-26T08:56:43.541Z</time></trkpt><trkpt lat="43.7979567" lon="12.5608083"><ele>299.0</ele><time>2026-04-26T08:56:44.541Z</time></trkpt><trkpt lat="43.7978817" lon="12.5606383"><ele>299.0</ele><time>2026-04-26T08:56:45.541Z</time></trkpt><trkpt lat="43.797825" lon="12.56049"><ele>299.0</ele><time>2026-04-26T08:56:46.54Z</time></trkpt><trkpt lat="43.797795" lon="12.5603283"><ele>299.0</ele><time>2026-04-26T08:56:47.541Z</time></trkpt><trkpt lat="43.7977917" lon="12.5601467"><ele>299.0</ele><time>2026-04-26T08:56:48.541Z</time></trkpt><trkpt lat="43.7977983" lon="12.559935"><ele>299.0</ele><time>2026-04-26T08:56:49.54Z</time></trkpt><trkpt lat="43.7978083" lon="12.5597417"><ele>299.0</ele><time>2026-04-26T08:56:50.54Z</time></trkpt><trkpt lat="43.7978117" lon="12.5595833"><ele>300.75</ele><time>2026-04-26T08:56:51.541Z</time></trkpt><trkpt lat="43.797805" lon="12.55945"><ele>302.5</ele><time>2026-04-26T08:56:52.541Z</time></trkpt><trkpt lat="43.7977667" lon="12.55932"><ele>304.25</ele><time>2026-04-26T08:56:53.54Z</time></trkpt><trkpt lat="43.7977067" lon="12.559175"><ele>306.0</ele><time>2026-04-26T08:56:54.541Z</time></trkpt><trkpt lat="43.797615" lon="12.55903"><ele>309.75</ele><time>2026-04-26T08:56:55.541Z</time></trkpt><trkpt lat="43.79753" lon="12.5588883"><ele>313.5</ele><time>2026-04-26T08:56:56.54Z</time></trkpt><trkpt lat="43.7974617" lon="12.55877"><ele>317.25</ele><time>2026-04-26T08:56:57.541Z</time></trkpt><trkpt lat="43.7974217" lon="12.5586383"><ele>321.0</ele><time>2026-04-26T08:56:58.541Z</time></trkpt><trkpt lat="43.797395" lon="12.55847"><ele>321.75</ele><time>2026-04-26T08:56:59.541Z</time></trkpt><trkpt lat="43.7973867" lon="12.55827"><ele>322.5</ele><time>2026-04-26T08:57:00.54Z</time></trkpt><trkpt lat="43.7973867" lon="12.5580667"><ele>323.25</ele><time>2026-04-26T08:57:01.541Z</time></trkpt><trkpt lat="43.7973783" lon="12.5578767"><ele>324.0</ele><time>2026-04-26T08:57:02.541Z</time></trkpt><trkpt lat="43.79735" lon="12.55769"><ele>325.0</ele><time>2026-04-26T08:57:03.541Z</time></trkpt><trkpt lat="43.7972933" lon="12.5574967"><ele>326.0</ele><time>2026-04-26T08:57:04.541Z</time></trkpt><trkpt lat="43.7972283" lon="12.5572983"><ele>327.0</ele><time>2026-04-26T08:57:05.541Z</time></trkpt><trkpt lat="43.7971683" lon="12.5571117"><ele>326.75</ele><time>2026-04-26T08:57:06.541Z</time></trkpt><trkpt lat="43.7971" lon="12.5569567"><ele>326.5</ele><time>2026-04-26T08:57:07.541Z</time></trkpt><trkpt lat="43.79703" lon="12.5568133"><ele>326.25</ele><time>2026-04-26T08:57:08.54Z</time></trkpt><trkpt lat="43.7969367" lon="12.5566917"><ele>326.0</ele><time>2026-04-26T08:57:09.54Z</time></trkpt><trkpt lat="43.7968233" lon="12.5565717"><ele>327.75</ele><time>2026-04-26T08:57:10.541Z</time></trkpt><trkpt lat="43.7967067" lon="12.5564483"><ele>329.5</ele><time>2026-04-26T08:57:11.541Z</time></trkpt><trkpt lat="43.7965967" lon="12.5563333"><ele>331.25</ele><time>2026-04-26T08:57:12.541Z</time></trkpt><trkpt lat="43.7965017" lon="12.5562167"><ele>333.0</ele><time>2026-04-26T08:57:13.54Z</time></trkpt><trkpt lat="43.796415" lon="12.5561133"><ele>333.0</ele><time>2026-04-26T08:57:14.541Z</time></trkpt><trkpt lat="43.796345" lon="12.55601"><ele>333.0</ele><time>2026-04-26T08:57:15.541Z</time></trkpt><trkpt lat="43.7962967" lon="12.5559133"><ele>333.0</ele><time>2026-04-26T08:57:16.541Z</time></trkpt><trkpt lat="43.796275" lon="12.5557967"><ele>333.0</ele><time>2026-04-26T08:57:17.54Z</time></trkpt><trkpt lat="43.7962767" lon="12.5556583"><ele>333.0</ele><time>2026-04-26T08:57:18.54Z</time></trkpt><trkpt lat="43.7962983" lon="12.5554833"><ele>331.6666666666667</ele><time>2026-04-26T08:57:19.541Z</time></trkpt><trkpt lat="43.7963333" lon="12.555275"><ele>330.33333333333337</ele><time>2026-04-26T08:57:20.541Z</time></trkpt><trkpt lat="43.79637" lon="12.5550633"><ele>329.0</ele><time>2026-04-26T08:57:21.541Z</time></trkpt><trkpt lat="43.7964083" lon="12.554855"><ele>329.0</ele><time>2026-04-26T08:57:22.541Z</time></trkpt><trkpt lat="43.79645" lon="12.5546633"><ele>329.0</ele><time>2026-04-26T08:57:23.541Z</time></trkpt><trkpt lat="43.79649" lon="12.554475"><ele>329.0</ele><time>2026-04-26T08:57:24.541Z</time></trkpt><trkpt lat="43.7965267" lon="12.5542833"><ele>329.0</ele><time>2026-04-26T08:57:25.54Z</time></trkpt><trkpt lat="43.7965633" lon="12.5541117"><ele>331.25</ele><time>2026-04-26T08:57:26.54Z</time></trkpt><trkpt lat="43.7965883" lon="12.5539683"><ele>333.5</ele><time>2026-04-26T08:57:27.541Z</time></trkpt><trkpt lat="43.7965983" lon="12.5538217"><ele>335.75</ele><time>2026-04-26T08:57:28.541Z</time></trkpt><trkpt lat="43.7965833" lon="12.5536617"><ele>338.0</ele><time>2026-04-26T08:57:29.541Z</time></trkpt><trkpt lat="43.79655" lon="12.5534683"><ele>339.0</ele><time>2026-04-26T08:57:30.541Z</time></trkpt><trkpt lat="43.79653" lon="12.5532817"><ele>340.0</ele><time>2026-04-26T08:57:31.541Z</time></trkpt><trkpt lat="43.7965267" lon="12.553115"><ele>341.0</ele><time>2026-04-26T08:57:32.54Z</time></trkpt><trkpt lat="43.79654" lon="12.5529517"><ele>342.0</ele><time>2026-04-26T08:57:33.54Z</time></trkpt><trkpt lat="43.7965717" lon="12.5527817"><ele>343.0</ele><time>2026-04-26T08:57:34.54Z</time></trkpt><trkpt lat="43.796615" lon="12.5526"><ele>344.0</ele><time>2026-04-26T08:57:35.54Z</time></trkpt><trkpt lat="43.7966667" lon="12.5524033"><ele>345.0</ele><time>2026-04-26T08:57:36.54Z</time></trkpt><trkpt lat="43.79671" lon="12.5521883"><ele>345.0</ele><time>2026-04-26T08:57:37.539Z</time></trkpt><trkpt lat="43.7967583" lon="12.55197"><ele>345.0</ele><time>2026-04-26T08:57:38.54Z</time></trkpt><trkpt lat="43.7967967" lon="12.5517617"><ele>345.0</ele><time>2026-04-26T08:57:39.54Z</time></trkpt><trkpt lat="43.7968533" lon="12.5515433"><ele>344.6666666666667</ele><time>2026-04-26T08:57:40.54Z</time></trkpt><trkpt lat="43.79692" lon="12.55133"><ele>344.33333333333337</ele><time>2026-04-26T08:57:41.54Z</time></trkpt><trkpt lat="43.79698" lon="12.5511267"><ele>344.0</ele><time>2026-04-26T08:57:42.539Z</time></trkpt><trkpt lat="43.7970283" lon="12.5509267"><ele>344.0</ele><time>2026-04-26T08:57:43.54Z</time></trkpt><trkpt lat="43.7970567" lon="12.5507167"><ele>344.0</ele><time>2026-04-26T08:57:44.539Z</time></trkpt><trkpt lat="43.7970733" lon="12.55049"><ele>344.0</ele><time>2026-04-26T08:57:45.54Z</time></trkpt><trkpt lat="43.7970683" lon="12.5502683"><ele>347.5</ele><time>2026-04-26T08:57:46.539Z</time></trkpt><trkpt lat="43.7970617" lon="12.5500583"><ele>351.0</ele><time>2026-04-26T08:57:47.54Z</time></trkpt><trkpt lat="43.7970567" lon="12.5498783"><ele>354.5</ele><time>2026-04-26T08:57:48.539Z</time></trkpt><trkpt lat="43.7970583" lon="12.54972"><ele>358.0</ele><time>2026-04-26T08:57:49.54Z</time></trkpt><trkpt lat="43.797075" lon="12.5495817"><ele>356.79999999999995</ele><time>2026-04-26T08:57:50.54Z</time></trkpt><trkpt lat="43.7971033" lon="12.54946"><ele>355.6</ele><time>2026-04-26T08:57:51.54Z</time></trkpt><trkpt lat="43.7971433" lon="12.5493617"><ele>354.4</ele><time>2026-04-26T08:57:52.539Z</time></trkpt><trkpt lat="43.7971967" lon="12.5492733"><ele>353.20000000000005</ele><time>2026-04-26T08:57:53.54Z</time></trkpt><trkpt lat="43.797275" lon="12.5491983"><ele>352.0</ele><time>2026-04-26T08:57:54.54Z</time></trkpt><trkpt lat="43.7973867" lon="12.5491167"><ele>352.0</ele><time>2026-04-26T08:57:55.54Z</time></trkpt><trkpt lat="43.7975083" lon="12.5490383"><ele>352.0</ele><time>2026-04-26T08:57:56.54Z</time></trkpt><trkpt lat="43.7976217" lon="12.5489467"><ele>352.0</ele><time>2026-04-26T08:57:57.54Z</time></trkpt><trkpt lat="43.7977133" lon="12.5488417"><ele>352.0</ele><time>2026-04-26T08:57:58.54Z</time></trkpt><trkpt lat="43.797795" lon="12.5487133"><ele>348.25</ele><time>2026-04-26T08:57:59.54Z</time></trkpt><trkpt lat="43.7978767" lon="12.5485617"><ele>344.5</ele><time>2026-04-26T08:58:00.539Z</time></trkpt><trkpt lat="43.79795" lon="12.5483867"><ele>340.75</ele><time>2026-04-26T08:58:01.54Z</time></trkpt><trkpt lat="43.79802" lon="12.548205"><ele>337.0</ele><time>2026-04-26T08:58:02.539Z</time></trkpt><trkpt lat="43.798085" lon="12.5480333"><ele>336.75</ele><time>2026-04-26T08:58:03.54Z</time></trkpt><trkpt lat="43.7981467" lon="12.5478583"><ele>336.5</ele><time>2026-04-26T08:58:04.54Z</time></trkpt><trkpt lat="43.7982033" lon="12.5476917"><ele>336.25</ele><time>2026-04-26T08:58:05.54Z</time></trkpt><trkpt lat="43.7982483" lon="12.5475317"><ele>336.0</ele><time>2026-04-26T08:58:06.54Z</time></trkpt><trkpt lat="43.7982867" lon="12.547365"><ele>336.0</ele><time>2026-04-26T08:58:07.539Z</time></trkpt><trkpt lat="43.798315" lon="12.5471917"><ele>336.0</ele><time>2026-04-26T08:58:08.54Z</time></trkpt><trkpt lat="43.7983383" lon="12.5470083"><ele>336.0</ele><time>2026-04-26T08:58:09.54Z</time></trkpt><trkpt lat="43.79835" lon="12.546825"><ele>336.0</ele><time>2026-04-26T08:58:10.54Z</time></trkpt><trkpt lat="43.79836" lon="12.54665"><ele>336.25</ele><time>2026-04-26T08:58:11.539Z</time></trkpt><trkpt lat="43.798345" lon="12.5464667"><ele>336.5</ele><time>2026-04-26T08:58:12.539Z</time></trkpt><trkpt lat="43.7983167" lon="12.5462767"><ele>336.75</ele><time>2026-04-26T08:58:13.539Z</time></trkpt><trkpt lat="43.79828" lon="12.546095"><ele>337.0</ele><time>2026-04-26T08:58:14.54Z</time></trkpt><trkpt lat="43.7982433" lon="12.5459333"><ele>338.75</ele><time>2026-04-26T08:58:15.539Z</time></trkpt><trkpt lat="43.79822" lon="12.5457567"><ele>340.5</ele><time>2026-04-26T08:58:16.54Z</time></trkpt><trkpt lat="43.7982217" lon="12.54555"><ele>342.25</ele><time>2026-04-26T08:58:17.54Z</time></trkpt><trkpt lat="43.798235" lon="12.5453367"><ele>344.0</ele><time>2026-04-26T08:58:18.539Z</time></trkpt><trkpt lat="43.7982317" lon="12.5451317"><ele>346.33333333333337</ele><time>2026-04-26T08:58:19.539Z</time></trkpt><trkpt lat="43.7982" lon="12.54493"><ele>348.6666666666667</ele><time>2026-04-26T08:58:20.539Z</time></trkpt><trkpt lat="43.7981483" lon="12.544715"><ele>351.0</ele><time>2026-04-26T08:58:21.54Z</time></trkpt><trkpt lat="43.79809" lon="12.5445"><ele>352.3333333333333</ele><time>2026-04-26T08:58:22.539Z</time></trkpt><trkpt lat="43.798045" lon="12.5442883"><ele>353.66666666666663</ele><time>2026-04-26T08:58:23.539Z</time></trkpt><trkpt lat="43.798025" lon="12.5440717"><ele>355.0</ele><time>2026-04-26T08:58:24.539Z</time></trkpt><trkpt lat="43.79801" lon="12.5438617"><ele>352.66666666666663</ele><time>2026-04-26T08:58:25.54Z</time></trkpt><trkpt lat="43.7979933" lon="12.54365"><ele>350.3333333333333</ele><time>2026-04-26T08:58:26.54Z</time></trkpt><trkpt lat="43.7979833" lon="12.543435"><ele>348.0</ele><time>2026-04-26T08:58:27.54Z</time></trkpt><trkpt lat="43.7979783" lon="12.5432133"><ele>348.0</ele><time>2026-04-26T08:58:28.54Z</time></trkpt><trkpt lat="43.797975" lon="12.54298"><ele>348.0</ele><time>2026-04-26T08:58:29.54Z</time></trkpt><trkpt lat="43.7979683" lon="12.5427667"><ele>348.0</ele><time>2026-04-26T08:58:30.539Z</time></trkpt><trkpt lat="43.7979667" lon="12.5425583"><ele>348.0</ele><time>2026-04-26T08:58:31.54Z</time></trkpt><trkpt lat="43.7979583" lon="12.5423667"><ele>348.0</ele><time>2026-04-26T08:58:32.54Z</time></trkpt><trkpt lat="43.7979317" lon="12.542185"><ele>348.0</ele><time>2026-04-26T08:58:33.539Z</time></trkpt><trkpt lat="43.7978933" lon="12.5420117"><ele>348.0</ele><time>2026-04-26T08:58:34.54Z</time></trkpt><trkpt lat="43.79783" lon="12.541855"><ele>348.5</ele><time>2026-04-26T08:58:35.54Z</time></trkpt><trkpt lat="43.79775" lon="12.5416817"><ele>349.0</ele><time>2026-04-26T08:58:36.54Z</time></trkpt><trkpt lat="43.7976783" lon="12.54152"><ele>349.5</ele><time>2026-04-26T08:58:37.54Z</time></trkpt><trkpt lat="43.7976067" lon="12.5413717"><ele>350.0</ele><time>2026-04-26T08:58:38.54Z</time></trkpt><trkpt lat="43.797555" lon="12.5412133"><ele>353.0</ele><time>2026-04-26T08:58:39.539Z</time></trkpt><trkpt lat="43.7975067" lon="12.5410333"><ele>356.0</ele><time>2026-04-26T08:58:40.54Z</time></trkpt><trkpt lat="43.797475" lon="12.54083"><ele>359.0</ele><time>2026-04-26T08:58:41.54Z</time></trkpt><trkpt lat="43.7974433" lon="12.5406167"><ele>362.0</ele><time>2026-04-26T08:58:42.54Z</time></trkpt><trkpt lat="43.797405" lon="12.5404017"><ele>363.25</ele><time>2026-04-26T08:58:43.54Z</time></trkpt><trkpt lat="43.7973633" lon="12.5402083"><ele>364.5</ele><time>2026-04-26T08:58:44.54Z</time></trkpt><trkpt lat="43.7973083" lon="12.54005"><ele>365.75</ele><time>2026-04-26T08:58:45.54Z</time></trkpt><trkpt lat="43.7972367" lon="12.5398883"><ele>367.0</ele><time>2026-04-26T08:58:46.539Z</time></trkpt><trkpt lat="43.79715" lon="12.53973"><ele>367.0</ele><time>2026-04-26T08:58:47.54Z</time></trkpt><trkpt lat="43.7970583" lon="12.5395967"><ele>367.0</ele><time>2026-04-26T08:58:48.54Z</time></trkpt><trkpt lat="43.7969667" lon="12.5394867"><ele>367.0</ele><time>2026-04-26T08:58:49.539Z</time></trkpt><trkpt lat="43.7968633" lon="12.5393867"><ele>367.0</ele><time>2026-04-26T08:58:50.54Z</time></trkpt><trkpt lat="43.79676" lon="12.5392867"><ele>368.5</ele><time>2026-04-26T08:58:51.54Z</time></trkpt><trkpt lat="43.7966583" lon="12.539155"><ele>370.0</ele><time>2026-04-26T08:58:52.539Z</time></trkpt><trkpt lat="43.79655" lon="12.5390017"><ele>371.5</ele><time>2026-04-26T08:58:53.539Z</time></trkpt><trkpt lat="43.7964617" lon="12.5388483"><ele>373.0</ele><time>2026-04-26T08:58:54.54Z</time></trkpt><trkpt lat="43.7963733" lon="12.5387083"><ele>373.0</ele><time>2026-04-26T08:58:55.539Z</time></trkpt><trkpt lat="43.79627" lon="12.5385933"><ele>373.0</ele><time>2026-04-26T08:58:56.539Z</time></trkpt><trkpt lat="43.7961517" lon="12.5385083"><ele>373.0</ele><time>2026-04-26T08:58:57.54Z</time></trkpt><trkpt lat="43.7960083" lon="12.538445"><ele>373.0</ele><time>2026-04-26T08:58:58.54Z</time></trkpt><trkpt lat="43.7958567" lon="12.5383917"><ele>373.0</ele><time>2026-04-26T08:58:59.539Z</time></trkpt><trkpt lat="43.7957017" lon="12.5383267"><ele>373.0</ele><time>2026-04-26T08:59:00.54Z</time></trkpt><trkpt lat="43.7955567" lon="12.538265"><ele>373.0</ele><time>2026-04-26T08:59:01.54Z</time></trkpt><trkpt lat="43.7954217" lon="12.5382067"><ele>373.0</ele><time>2026-04-26T08:59:02.539Z</time></trkpt><trkpt lat="43.79531" lon="12.5381483"><ele>373.0</ele><time>2026-04-26T08:59:03.54Z</time></trkpt><trkpt lat="43.7952167" lon="12.5380983"><ele>373.0</ele><time>2026-04-26T08:59:04.54Z</time></trkpt><trkpt lat="43.79514" lon="12.53803"><ele>373.0</ele><time>2026-04-26T08:59:05.539Z</time></trkpt><trkpt lat="43.795075" lon="12.5379317"><ele>373.0</ele><time>2026-04-26T08:59:06.539Z</time></trkpt><trkpt lat="43.7950217" lon="12.5378117"><ele>372.5</ele><time>2026-04-26T08:59:07.539Z</time></trkpt><trkpt lat="43.794975" lon="12.5376683"><ele>372.0</ele><time>2026-04-26T08:59:08.54Z</time></trkpt><trkpt lat="43.794945" lon="12.5375283"><ele>371.5</ele><time>2026-04-26T08:59:09.54Z</time></trkpt><trkpt lat="43.7949217" lon="12.537375"><ele>371.0</ele><time>2026-04-26T08:59:10.539Z</time></trkpt><trkpt lat="43.7949" lon="12.53718"><ele>370.33333333333337</ele><time>2026-04-26T08:59:11.54Z</time></trkpt><trkpt lat="43.7948733" lon="12.5369567"><ele>369.6666666666667</ele><time>2026-04-26T08:59:12.54Z</time></trkpt><trkpt lat="43.7948483" lon="12.5367367"><ele>369.0</ele><time>2026-04-26T08:59:13.54Z</time></trkpt><trkpt lat="43.7948267" lon="12.5365283"><ele>369.0</ele><time>2026-04-26T08:59:14.539Z</time></trkpt><trkpt lat="43.7947967" lon="12.5363417"><ele>369.0</ele><time>2026-04-26T08:59:15.539Z</time></trkpt><trkpt lat="43.7947617" lon="12.53617"><ele>369.0</ele><time>2026-04-26T08:59:16.54Z</time></trkpt><trkpt lat="43.7947167" lon="12.536015"><ele>369.0</ele><time>2026-04-26T08:59:17.54Z</time></trkpt><trkpt lat="43.7946517" lon="12.5358733"><ele>367.75</ele><time>2026-04-26T08:59:18.54Z</time></trkpt><trkpt lat="43.79458" lon="12.535745"><ele>366.5</ele><time>2026-04-26T08:59:19.54Z</time></trkpt><trkpt lat="43.7945" lon="12.535635"><ele>365.25</ele><time>2026-04-26T08:59:20.54Z</time></trkpt><trkpt lat="43.7944121" lon="12.535531"><ele>364.0</ele><time>2026-04-26T08:59:21.54Z</time></trkpt><trkpt lat="43.7943159" lon="12.5354342"><ele>363.5</ele><time>2026-04-26T08:59:22.539Z</time></trkpt><trkpt lat="43.7942079" lon="12.5353374"><ele>363.0</ele><time>2026-04-26T08:59:23.54Z</time></trkpt><trkpt lat="43.7940827" lon="12.5352302"><ele>362.5</ele><time>2026-04-26T08:59:24.54Z</time></trkpt><trkpt lat="43.793955" lon="12.5351258"><ele>362.0</ele><time>2026-04-26T08:59:25.54Z</time></trkpt><trkpt lat="43.7938319" lon="12.5350339"><ele>362.0</ele><time>2026-04-26T08:59:26.539Z</time></trkpt><trkpt lat="43.7937208" lon="12.5349483"><ele>362.0</ele><time>2026-04-26T08:59:27.54Z</time></trkpt><trkpt lat="43.7936157" lon="12.5348724"><ele>362.0</ele><time>2026-04-26T08:59:28.539Z</time></trkpt><trkpt lat="43.7935148" lon="12.5347982"><ele>362.0</ele><time>2026-04-26T08:59:29.54Z</time></trkpt><trkpt lat="43.79342" lon="12.5347208"><ele>362.0</ele><time>2026-04-26T08:59:30.54Z</time></trkpt><trkpt lat="43.7933286" lon="12.5346359"><ele>362.0</ele><time>2026-04-26T08:59:31.54Z</time></trkpt><trkpt lat="43.7932445" lon="12.5345307"><ele>362.0</ele><time>2026-04-26T08:59:32.539Z</time></trkpt><trkpt lat="43.7931747" lon="12.5344037"><ele>362.0</ele><time>2026-04-26T08:59:33.54Z</time></trkpt><trkpt lat="43.7931118" lon="12.5342453"><ele>363.0</ele><time>2026-04-26T08:59:34.539Z</time></trkpt><trkpt lat="43.7930433" lon="12.534081"><ele>364.0</ele><time>2026-04-26T08:59:35.54Z</time></trkpt><trkpt lat="43.7929659" lon="12.5339345"><ele>365.0</ele><time>2026-04-26T08:59:36.539Z</time></trkpt><trkpt lat="43.7928665" lon="12.5338033"><ele>366.0</ele><time>2026-04-26T08:59:37.54Z</time></trkpt><trkpt lat="43.7927553" lon="12.5336804"><ele>364.5</ele><time>2026-04-26T08:59:38.54Z</time></trkpt><trkpt lat="43.7926423" lon="12.5335761"><ele>363.0</ele><time>2026-04-26T08:59:39.539Z</time></trkpt><trkpt lat="43.7925269" lon="12.5334809"><ele>361.5</ele><time>2026-04-26T08:59:40.54Z</time></trkpt><trkpt lat="43.7924134" lon="12.5333982"><ele>360.0</ele><time>2026-04-26T08:59:41.54Z</time></trkpt><trkpt lat="43.7923058" lon="12.5333303"><ele>360.0</ele><time>2026-04-26T08:59:42.54Z</time></trkpt><trkpt lat="43.7922006" lon="12.5332734"><ele>360.0</ele><time>2026-04-26T08:59:43.539Z</time></trkpt><trkpt lat="43.7920977" lon="12.5332303"><ele>360.0</ele><time>2026-04-26T08:59:44.54Z</time></trkpt><trkpt lat="43.7919893" lon="12.5331944"><ele>360.0</ele><time>2026-04-26T08:59:45.54Z</time></trkpt><trkpt lat="43.7918736" lon="12.5331683"><ele>360.0</ele><time>2026-04-26T08:59:46.54Z</time></trkpt><trkpt lat="43.7917529" lon="12.5331646"><ele>359.4</ele><time>2026-04-26T08:59:47.539Z</time></trkpt><trkpt lat="43.7916311" lon="12.5331746"><ele>358.8</ele><time>2026-04-26T08:59:48.54Z</time></trkpt><trkpt lat="43.7915203" lon="12.5331765"><ele>358.20000000000005</ele><time>2026-04-26T08:59:49.539Z</time></trkpt><trkpt lat="43.7914231" lon="12.5331529"><ele>357.6</ele><time>2026-04-26T08:59:50.54Z</time></trkpt><trkpt lat="43.7913346" lon="12.5330995"><ele>357.0</ele><time>2026-04-26T08:59:51.539Z</time></trkpt><trkpt lat="43.791255" lon="12.5330136"><ele>357.0</ele><time>2026-04-26T08:59:52.54Z</time></trkpt><trkpt lat="43.7911761" lon="12.5328951"><ele>357.0</ele><time>2026-04-26T08:59:53.54Z</time></trkpt><trkpt lat="43.7910983" lon="12.532745"><ele>357.0</ele><time>2026-04-26T08:59:54.539Z</time></trkpt><trkpt lat="43.7910233" lon="12.532595"><ele>357.0</ele><time>2026-04-26T08:59:55.539Z</time></trkpt><trkpt lat="43.7909483" lon="12.5324383"><ele>357.5</ele><time>2026-04-26T08:59:56.54Z</time></trkpt><trkpt lat="43.7908633" lon="12.5322817"><ele>358.0</ele><time>2026-04-26T08:59:57.539Z</time></trkpt><trkpt lat="43.7907833" lon="12.5321283"><ele>358.5</ele><time>2026-04-26T08:59:58.539Z</time></trkpt><trkpt lat="43.79071" lon="12.531985"><ele>359.0</ele><time>2026-04-26T08:59:59.54Z</time></trkpt><trkpt lat="43.7906367" lon="12.5318467"><ele>360.75</ele><time>2026-04-26T09:00:00.54Z</time></trkpt><trkpt lat="43.7905617" lon="12.5317083"><ele>362.5</ele><time>2026-04-26T09:00:01.54Z</time></trkpt><trkpt lat="43.79047" lon="12.5315567"><ele>364.25</ele><time>2026-04-26T09:00:02.54Z</time></trkpt><trkpt lat="43.7903667" lon="12.5313967"><ele>366.0</ele><time>2026-04-26T09:00:03.54Z</time></trkpt><trkpt lat="43.7902683" lon="12.531225"><ele>362.3333333333333</ele><time>2026-04-26T09:00:04.539Z</time></trkpt><trkpt lat="43.7901733" lon="12.5310583"><ele>358.66666666666663</ele><time>2026-04-26T09:00:05.54Z</time></trkpt><trkpt lat="43.7900817" lon="12.5308883"><ele>355.0</ele><time>2026-04-26T09:00:06.54Z</time></trkpt><trkpt lat="43.79" lon="12.53072"><ele>355.0</ele><time>2026-04-26T09:00:07.54Z</time></trkpt><trkpt lat="43.7899217" lon="12.53055"><ele>355.0</ele><time>2026-04-26T09:00:08.54Z</time></trkpt><trkpt lat="43.78984" lon="12.5303783"><ele>355.0</ele><time>2026-04-26T09:00:09.54Z</time></trkpt><trkpt lat="43.789755" lon="12.5302067"><ele>355.0</ele><time>2026-04-26T09:00:10.54Z</time></trkpt><trkpt lat="43.7896767" lon="12.53004"><ele>353.4</ele><time>2026-04-26T09:00:11.54Z</time></trkpt><trkpt lat="43.7896117" lon="12.529885"><ele>351.8</ele><time>2026-04-26T09:00:12.539Z</time></trkpt><trkpt lat="43.7895583" lon="12.5297467"><ele>350.20000000000005</ele><time>2026-04-26T09:00:13.54Z</time></trkpt><trkpt lat="43.7895" lon="12.5296417"><ele>348.6</ele><time>2026-04-26T09:00:14.54Z</time></trkpt><trkpt lat="43.7894333" lon="12.5295817"><ele>347.0</ele><time>2026-04-26T09:00:15.539Z</time></trkpt><trkpt lat="43.7893433" lon="12.52956"><ele>349.25</ele><time>2026-04-26T09:00:16.54Z</time></trkpt><trkpt lat="43.78923" lon="12.5295483"><ele>351.5</ele><time>2026-04-26T09:00:17.54Z</time></trkpt><trkpt lat="43.7891033" lon="12.5295317"><ele>353.75</ele><time>2026-04-26T09:00:18.54Z</time></trkpt><trkpt lat="43.7889733" lon="12.52951"><ele>356.0</ele><time>2026-04-26T09:00:19.54Z</time></trkpt><trkpt lat="43.7888417" lon="12.5294883"><ele>356.0</ele><time>2026-04-26T09:00:20.54Z</time></trkpt><trkpt lat="43.788705" lon="12.5294717"><ele>356.0</ele><time>2026-04-26T09:00:21.539Z</time></trkpt><trkpt lat="43.7885783" lon="12.52946"><ele>356.0</ele><time>2026-04-26T09:00:22.539Z</time></trkpt><trkpt lat="43.7884717" lon="12.5294483"><ele>356.0</ele><time>2026-04-26T09:00:23.54Z</time></trkpt><trkpt lat="43.78838" lon="12.5294267"><ele>359.5</ele><time>2026-04-26T09:00:24.539Z</time></trkpt><trkpt lat="43.7882933" lon="12.5293783"><ele>363.0</ele><time>2026-04-26T09:00:25.54Z</time></trkpt><trkpt lat="43.7882083" lon="12.5292917"><ele>366.5</ele><time>2026-04-26T09:00:26.54Z</time></trkpt><trkpt lat="43.78812" lon="12.5291783"><ele>370.0</ele><time>2026-04-26T09:00:27.54Z</time></trkpt><trkpt lat="43.7880167" lon="12.52904"><ele>370.0</ele><time>2026-04-26T09:00:28.539Z</time></trkpt><trkpt lat="43.7879233" lon="12.5288917"><ele>370.0</ele><time>2026-04-26T09:00:29.54Z</time></trkpt><trkpt lat="43.7878367" lon="12.5287483"><ele>370.0</ele><time>2026-04-26T09:00:30.54Z</time></trkpt><trkpt lat="43.7877433" lon="12.5285983"><ele>370.0</ele><time>2026-04-26T09:00:31.54Z</time></trkpt><trkpt lat="43.7876617" lon="12.5284617"><ele>372.75</ele><time>2026-04-26T09:00:32.539Z</time></trkpt><trkpt lat="43.787595" lon="12.528315"><ele>375.5</ele><time>2026-04-26T09:00:33.54Z</time></trkpt><trkpt lat="43.78755" lon="12.5281517"><ele>378.25</ele><time>2026-04-26T09:00:34.539Z</time></trkpt><trkpt lat="43.78752" lon="12.5279833"><ele>381.0</ele><time>2026-04-26T09:00:35.54Z</time></trkpt><trkpt lat="43.7874917" lon="12.5278217"><ele>382.75</ele><time>2026-04-26T09:00:36.539Z</time></trkpt><trkpt lat="43.787445" lon="12.5276717"><ele>384.5</ele><time>2026-04-26T09:00:37.54Z</time></trkpt><trkpt lat="43.7873867" lon="12.5275217"><ele>386.25</ele><time>2026-04-26T09:00:38.539Z</time></trkpt><trkpt lat="43.7873033" lon="12.5273817"><ele>388.0</ele><time>2026-04-26T09:00:39.54Z</time></trkpt><trkpt lat="43.7871983" lon="12.5272367"><ele>388.0</ele><time>2026-04-26T09:00:40.54Z</time></trkpt><trkpt lat="43.787105" lon="12.5270983"><ele>388.0</ele><time>2026-04-26T09:00:41.54Z</time></trkpt><trkpt lat="43.7870117" lon="12.5269683"><ele>388.0</ele><time>2026-04-26T09:00:42.54Z</time></trkpt><trkpt lat="43.78692" lon="12.5268517"><ele>388.0</ele><time>2026-04-26T09:00:43.54Z</time></trkpt><trkpt lat="43.786835" lon="12.52676"><ele>390.79999999999995</ele><time>2026-04-26T09:00:44.539Z</time></trkpt><trkpt lat="43.7867483" lon="12.52669"><ele>393.6</ele><time>2026-04-26T09:00:45.54Z</time></trkpt><trkpt lat="43.7866517" lon="12.526655"><ele>396.4</ele><time>2026-04-26T09:00:46.539Z</time></trkpt><trkpt lat="43.7865333" lon="12.5266417"><ele>399.20000000000005</ele><time>2026-04-26T09:00:47.54Z</time></trkpt><trkpt lat="43.7864133" lon="12.526645"><ele>402.0</ele><time>2026-04-26T09:00:48.54Z</time></trkpt><trkpt lat="43.7863" lon="12.526655"><ele>402.0</ele><time>2026-04-26T09:00:49.54Z</time></trkpt><trkpt lat="43.7862067" lon="12.5267"><ele>402.0</ele><time>2026-04-26T09:00:50.54Z</time></trkpt><trkpt lat="43.7861233" lon="12.5267833"><ele>402.0</ele><time>2026-04-26T09:00:51.54Z</time></trkpt><trkpt lat="43.7860433" lon="12.52691"><ele>402.0</ele><time>2026-04-26T09:00:52.54Z</time></trkpt><trkpt lat="43.78596" lon="12.5270767"><ele>405.5</ele><time>2026-04-26T09:00:53.539Z</time></trkpt><trkpt lat="43.7858783" lon="12.527255"><ele>409.0</ele><time>2026-04-26T09:00:54.54Z</time></trkpt><trkpt lat="43.7858017" lon="12.5274333"><ele>412.5</ele><time>2026-04-26T09:00:55.54Z</time></trkpt><trkpt lat="43.7857217" lon="12.5276"><ele>416.0</ele><time>2026-04-26T09:00:56.54Z</time></trkpt><trkpt lat="43.7856467" lon="12.5277433"><ele>416.0</ele><time>2026-04-26T09:00:57.539Z</time></trkpt><trkpt lat="43.7855667" lon="12.5278683"><ele>416.0</ele><time>2026-04-26T09:00:58.539Z</time></trkpt><trkpt lat="43.78548" lon="12.5279533"><ele>416.0</ele><time>2026-04-26T09:00:59.54Z</time></trkpt><trkpt lat="43.7853917" lon="12.5280083"><ele>416.0</ele><time>2026-04-26T09:01:00.54Z</time></trkpt><trkpt lat="43.7852933" lon="12.528015"><ele>416.0</ele><time>2026-04-26T09:01:01.539Z</time></trkpt><trkpt lat="43.7851733" lon="12.5279917"><ele>416.5</ele><time>2026-04-26T09:01:02.54Z</time></trkpt><trkpt lat="43.7850417" lon="12.5279567"><ele>417.0</ele><time>2026-04-26T09:01:03.54Z</time></trkpt><trkpt lat="43.78491" lon="12.5279367"><ele>417.5</ele><time>2026-04-26T09:01:04.54Z</time></trkpt><trkpt lat="43.7847767" lon="12.5279467"><ele>418.0</ele><time>2026-04-26T09:01:05.54Z</time></trkpt><trkpt lat="43.784635" lon="12.5279733"><ele>418.0</ele><time>2026-04-26T09:01:06.54Z</time></trkpt><trkpt lat="43.7844983" lon="12.5279883"><ele>418.0</ele><time>2026-04-26T09:01:07.54Z</time></trkpt><trkpt lat="43.7843617" lon="12.5279817"><ele>418.0</ele><time>2026-04-26T09:01:08.54Z</time></trkpt><trkpt lat="43.7842333" lon="12.5279483"><ele>418.0</ele><time>2026-04-26T09:01:09.539Z</time></trkpt><trkpt lat="43.784125" lon="12.5278933"><ele>419.0</ele><time>2026-04-26T09:01:10.54Z</time></trkpt><trkpt lat="43.78403" lon="12.5278183"><ele>420.0</ele><time>2026-04-26T09:01:11.54Z</time></trkpt><trkpt lat="43.7839433" lon="12.5277417"><ele>421.0</ele><time>2026-04-26T09:01:12.54Z</time></trkpt><trkpt lat="43.7838533" lon="12.5276933"><ele>422.0</ele><time>2026-04-26T09:01:13.539Z</time></trkpt><trkpt lat="43.783755" lon="12.52768"><ele>423.0</ele><time>2026-04-26T09:01:14.54Z</time></trkpt><trkpt lat="43.7836483" lon="12.5276983"><ele>423.0</ele><time>2026-04-26T09:01:15.54Z</time></trkpt><trkpt lat="43.783525" lon="12.52775"><ele>423.0</ele><time>2026-04-26T09:01:16.54Z</time></trkpt><trkpt lat="43.7834" lon="12.5278233"><ele>423.0</ele><time>2026-04-26T09:01:17.54Z</time></trkpt><trkpt lat="43.7832767" lon="12.5278983"><ele>423.0</ele><time>2026-04-26T09:01:18.54Z</time></trkpt><trkpt lat="43.7831533" lon="12.52795"><ele>426.25</ele><time>2026-04-26T09:01:19.54Z</time></trkpt><trkpt lat="43.7830217" lon="12.5279833"><ele>429.5</ele><time>2026-04-26T09:01:20.54Z</time></trkpt><trkpt lat="43.7828817" lon="12.52798"><ele>432.75</ele><time>2026-04-26T09:01:21.54Z</time></trkpt><trkpt lat="43.78273" lon="12.5279567"><ele>436.0</ele><time>2026-04-26T09:01:22.539Z</time></trkpt><trkpt lat="43.7825883" lon="12.5279333"><ele>438.75</ele><time>2026-04-26T09:01:23.54Z</time></trkpt><trkpt lat="43.7824517" lon="12.5279267"><ele>441.5</ele><time>2026-04-26T09:01:24.539Z</time></trkpt><trkpt lat="43.7823183" lon="12.5279267"><ele>444.25</ele><time>2026-04-26T09:01:25.539Z</time></trkpt><trkpt lat="43.7821967" lon="12.52795"><ele>447.0</ele><time>2026-04-26T09:01:26.54Z</time></trkpt><trkpt lat="43.78207" lon="12.5279867"><ele>447.0</ele><time>2026-04-26T09:01:27.539Z</time></trkpt><trkpt lat="43.78194" lon="12.5280233"><ele>447.0</ele><time>2026-04-26T09:01:28.54Z</time></trkpt><trkpt lat="43.7818067" lon="12.5280617"><ele>447.0</ele><time>2026-04-26T09:01:29.54Z</time></trkpt><trkpt lat="43.7816767" lon="12.52809"><ele>447.0</ele><time>2026-04-26T09:01:30.54Z</time></trkpt><trkpt lat="43.7815583" lon="12.528125"><ele>447.0</ele><time>2026-04-26T09:01:31.54Z</time></trkpt><trkpt lat="43.7814483" lon="12.5281633"><ele>447.0</ele><time>2026-04-26T09:01:32.54Z</time></trkpt><trkpt lat="43.7813417" lon="12.5282133"><ele>447.0</ele><time>2026-04-26T09:01:33.539Z</time></trkpt><trkpt lat="43.7812367" lon="12.5282683"><ele>447.0</ele><time>2026-04-26T09:01:34.539Z</time></trkpt><trkpt lat="43.7811267" lon="12.5283367"><ele>443.25</ele><time>2026-04-26T09:01:35.54Z</time></trkpt><trkpt lat="43.7810083" lon="12.5284133"><ele>439.5</ele><time>2026-04-26T09:01:36.539Z</time></trkpt><trkpt lat="43.78089" lon="12.5284883"><ele>435.75</ele><time>2026-04-26T09:01:37.539Z</time></trkpt><trkpt lat="43.7807633" lon="12.5285617"><ele>432.0</ele><time>2026-04-26T09:01:38.539Z</time></trkpt><trkpt lat="43.78064" lon="12.52863"><ele>432.0</ele><time>2026-04-26T09:01:39.54Z</time></trkpt><trkpt lat="43.7805283" lon="12.528695"><ele>432.00000000000006</ele><time>2026-04-26T09:01:40.54Z</time></trkpt><trkpt lat="43.7804417" lon="12.5287667"><ele>432.00000000000006</ele><time>2026-04-26T09:01:41.539Z</time></trkpt><trkpt lat="43.7803683" lon="12.528855"><ele>432.0</ele><time>2026-04-26T09:01:42.539Z</time></trkpt><trkpt lat="43.7803033" lon="12.5289783"><ele>432.0</ele><time>2026-04-26T09:01:43.54Z</time></trkpt><trkpt lat="43.7802517" lon="12.52912"><ele>432.5</ele><time>2026-04-26T09:01:44.54Z</time></trkpt><trkpt lat="43.7802283" lon="12.529255"><ele>433.0</ele><time>2026-04-26T09:01:45.539Z</time></trkpt><trkpt lat="43.780215" lon="12.5293683"><ele>433.5</ele><time>2026-04-26T09:01:46.54Z</time></trkpt><trkpt lat="43.780185" lon="12.52945"><ele>434.0</ele><time>2026-04-26T09:01:47.54Z</time></trkpt><trkpt lat="43.7800983" lon="12.52952"><ele>434.5</ele><time>2026-04-26T09:01:49.54Z</time></trkpt><trkpt lat="43.7800233" lon="12.5294983"><ele>435.0</ele><time>2026-04-26T09:01:50.54Z</time></trkpt><trkpt lat="43.7799183" lon="12.5294583"><ele>435.0</ele><time>2026-04-26T09:01:51.539Z</time></trkpt><trkpt lat="43.779795" lon="12.5294283"><ele>435.0</ele><time>2026-04-26T09:01:52.54Z</time></trkpt><trkpt lat="43.7796567" lon="12.5294117"><ele>435.0</ele><time>2026-04-26T09:01:53.54Z</time></trkpt><trkpt lat="43.7795433" lon="12.529385"><ele>435.0</ele><time>2026-04-26T09:01:54.54Z</time></trkpt><trkpt lat="43.7794417" lon="12.529335"><ele>432.6</ele><time>2026-04-26T09:01:55.54Z</time></trkpt><trkpt lat="43.7793483" lon="12.5292717"><ele>430.2</ele><time>2026-04-26T09:01:56.54Z</time></trkpt><trkpt lat="43.7792617" lon="12.5292017"><ele>427.79999999999995</ele><time>2026-04-26T09:01:57.54Z</time></trkpt><trkpt lat="43.77918" lon="12.529125"><ele>425.4</ele><time>2026-04-26T09:01:58.539Z</time></trkpt><trkpt lat="43.7790983" lon="12.529055"><ele>423.0</ele><time>2026-04-26T09:01:59.54Z</time></trkpt><trkpt lat="43.7790117" lon="12.52897"><ele>423.0</ele><time>2026-04-26T09:02:00.54Z</time></trkpt><trkpt lat="43.77891" lon="12.528905"><ele>423.0</ele><time>2026-04-26T09:02:01.539Z</time></trkpt><trkpt lat="43.7788067" lon="12.5288483"><ele>423.0</ele><time>2026-04-26T09:02:02.54Z</time></trkpt><trkpt lat="43.7787" lon="12.528785"><ele>423.0</ele><time>2026-04-26T09:02:03.54Z</time></trkpt><trkpt lat="43.7786133" lon="12.5287167"><ele>423.0</ele><time>2026-04-26T09:02:04.54Z</time></trkpt><trkpt lat="43.77853" lon="12.52866"><ele>425.6666666666667</ele><time>2026-04-26T09:02:05.54Z</time></trkpt><trkpt lat="43.77846" lon="12.528605"><ele>428.33333333333337</ele><time>2026-04-26T09:02:06.539Z</time></trkpt><trkpt lat="43.77839" lon="12.528555"><ele>431.0</ele><time>2026-04-26T09:02:07.54Z</time></trkpt><trkpt lat="43.778315" lon="12.5284983"><ele>433.6666666666667</ele><time>2026-04-26T09:02:08.54Z</time></trkpt><trkpt lat="43.7782417" lon="12.5284417"><ele>436.33333333333337</ele><time>2026-04-26T09:02:09.539Z</time></trkpt><trkpt lat="43.7781733" lon="12.5283833"><ele>439.0</ele><time>2026-04-26T09:02:10.539Z</time></trkpt><trkpt lat="43.7781167" lon="12.5283217"><ele>439.00000000000006</ele><time>2026-04-26T09:02:11.54Z</time></trkpt><trkpt lat="43.7780667" lon="12.52826"><ele>439.0</ele><time>2026-04-26T09:02:12.54Z</time></trkpt><trkpt lat="43.7780083" lon="12.528195"><ele>439.0</ele><time>2026-04-26T09:02:13.539Z</time></trkpt><trkpt lat="43.7779417" lon="12.5281167"><ele>439.0</ele><time>2026-04-26T09:02:14.539Z</time></trkpt><trkpt lat="43.77788" lon="12.5280083"><ele>439.00000000000006</ele><time>2026-04-26T09:02:15.54Z</time></trkpt><trkpt lat="43.7778383" lon="12.5278617"><ele>439.0</ele><time>2026-04-26T09:02:16.539Z</time></trkpt><trkpt lat="43.7778117" lon="12.5276983"><ele>439.2</ele><time>2026-04-26T09:02:17.54Z</time></trkpt><trkpt lat="43.77778" lon="12.5275467"><ele>439.4</ele><time>2026-04-26T09:02:18.539Z</time></trkpt><trkpt lat="43.7777367" lon="12.5274267"><ele>439.6</ele><time>2026-04-26T09:02:19.539Z</time></trkpt><trkpt lat="43.77768" lon="12.5273233"><ele>439.8</ele><time>2026-04-26T09:02:20.54Z</time></trkpt><trkpt lat="43.7776017" lon="12.527235"><ele>440.0</ele><time>2026-04-26T09:02:21.54Z</time></trkpt><trkpt lat="43.7775133" lon="12.5271633"><ele>439.6</ele><time>2026-04-26T09:02:22.54Z</time></trkpt><trkpt lat="43.7774167" lon="12.5271017"><ele>439.2</ele><time>2026-04-26T09:02:23.54Z</time></trkpt><trkpt lat="43.777315" lon="12.527035"><ele>438.79999999999995</ele><time>2026-04-26T09:02:24.54Z</time></trkpt><trkpt lat="43.7772133" lon="12.526965"><ele>438.4</ele><time>2026-04-26T09:02:25.54Z</time></trkpt><trkpt lat="43.7771067" lon="12.5269133"><ele>438.0</ele><time>2026-04-26T09:02:26.54Z</time></trkpt><trkpt lat="43.777" lon="12.5268683"><ele>438.0</ele><time>2026-04-26T09:02:27.54Z</time></trkpt><trkpt lat="43.7768933" lon="12.5268467"><ele>437.99999999999994</ele><time>2026-04-26T09:02:28.539Z</time></trkpt><trkpt lat="43.7767883" lon="12.5268317"><ele>437.99999999999994</ele><time>2026-04-26T09:02:29.54Z</time></trkpt><trkpt lat="43.776685" lon="12.5268267"><ele>438.0</ele><time>2026-04-26T09:02:30.54Z</time></trkpt><trkpt lat="43.776585" lon="12.5268133"><ele>438.0</ele><time>2026-04-26T09:02:31.54Z</time></trkpt><trkpt lat="43.776495" lon="12.526785"><ele>435.59999999999997</ele><time>2026-04-26T09:02:32.54Z</time></trkpt><trkpt lat="43.7764167" lon="12.5267183"><ele>433.19999999999993</ele><time>2026-04-26T09:02:33.54Z</time></trkpt><trkpt lat="43.77633" lon="12.5266267"><ele>430.8</ele><time>2026-04-26T09:02:34.539Z</time></trkpt><trkpt lat="43.7762583" lon="12.5264983"><ele>428.4</ele><time>2026-04-26T09:02:35.539Z</time></trkpt><trkpt lat="43.776175" lon="12.5263667"><ele>426.0</ele><time>2026-04-26T09:02:36.539Z</time></trkpt><trkpt lat="43.77607" lon="12.5262617"><ele>424.75</ele><time>2026-04-26T09:02:37.54Z</time></trkpt><trkpt lat="43.775965" lon="12.526175"><ele>423.5</ele><time>2026-04-26T09:02:38.539Z</time></trkpt><trkpt lat="43.7758533" lon="12.5260867"><ele>422.25</ele><time>2026-04-26T09:02:39.54Z</time></trkpt><trkpt lat="43.7757567" lon="12.5259783"><ele>421.0</ele><time>2026-04-26T09:02:40.54Z</time></trkpt><trkpt lat="43.7756583" lon="12.5258483"><ele>421.0</ele><time>2026-04-26T09:02:41.539Z</time></trkpt><trkpt lat="43.7755617" lon="12.5257133"><ele>421.0</ele><time>2026-04-26T09:02:42.54Z</time></trkpt><trkpt lat="43.7754683" lon="12.5255933"><ele>421.0</ele><time>2026-04-26T09:02:43.54Z</time></trkpt><trkpt lat="43.77536" lon="12.525495"><ele>421.0</ele><time>2026-04-26T09:02:44.539Z</time></trkpt><trkpt lat="43.7752383" lon="12.5254183"><ele>418.8</ele><time>2026-04-26T09:02:45.539Z</time></trkpt><trkpt lat="43.775115" lon="12.5253683"><ele>416.6</ele><time>2026-04-26T09:02:46.54Z</time></trkpt><trkpt lat="43.775015" lon="12.52532"><ele>414.4</ele><time>2026-04-26T09:02:47.54Z</time></trkpt><trkpt lat="43.7749217" lon="12.5252617"><ele>412.2</ele><time>2026-04-26T09:02:48.539Z</time></trkpt><trkpt lat="43.7748317" lon="12.52517"><ele>410.0</ele><time>2026-04-26T09:02:49.54Z</time></trkpt><trkpt lat="43.7747433" lon="12.5250683"><ele>410.0</ele><time>2026-04-26T09:02:50.54Z</time></trkpt><trkpt lat="43.7746583" lon="12.5249583"><ele>410.0</ele><time>2026-04-26T09:02:51.539Z</time></trkpt><trkpt lat="43.774555" lon="12.5248783"><ele>410.0</ele><time>2026-04-26T09:02:52.54Z</time></trkpt><trkpt lat="43.7744383" lon="12.52483"><ele>410.0</ele><time>2026-04-26T09:02:53.54Z</time></trkpt><trkpt lat="43.7743217" lon="12.524795"><ele>408.6</ele><time>2026-04-26T09:02:54.539Z</time></trkpt><trkpt lat="43.77421" lon="12.5247467"><ele>407.2</ele><time>2026-04-26T09:02:55.54Z</time></trkpt><trkpt lat="43.7741183" lon="12.5246717"><ele>405.79999999999995</ele><time>2026-04-26T09:02:56.54Z</time></trkpt><trkpt lat="43.7740383" lon="12.524575"><ele>404.4</ele><time>2026-04-26T09:02:57.54Z</time></trkpt><trkpt lat="43.7739667" lon="12.5244617"><ele>403.0</ele><time>2026-04-26T09:02:58.54Z</time></trkpt><trkpt lat="43.7739017" lon="12.5243367"><ele>402.2</ele><time>2026-04-26T09:02:59.539Z</time></trkpt><trkpt lat="43.7738367" lon="12.524225"><ele>401.4</ele><time>2026-04-26T09:03:00.54Z</time></trkpt><trkpt lat="43.7737667" lon="12.5241333"><ele>400.59999999999997</ele><time>2026-04-26T09:03:01.54Z</time></trkpt><trkpt lat="43.7736783" lon="12.5240517"><ele>399.79999999999995</ele><time>2026-04-26T09:03:02.54Z</time></trkpt><trkpt lat="43.7735733" lon="12.523965"><ele>399.0</ele><time>2026-04-26T09:03:03.539Z</time></trkpt><trkpt lat="43.7734767" lon="12.5238733"><ele>399.0</ele><time>2026-04-26T09:03:04.54Z</time></trkpt><trkpt lat="43.7733983" lon="12.5237733"><ele>399.0</ele><time>2026-04-26T09:03:05.54Z</time></trkpt><trkpt lat="43.7733083" lon="12.5236833"><ele>399.0</ele><time>2026-04-26T09:03:06.54Z</time></trkpt><trkpt lat="43.7732" lon="12.5236217"><ele>399.0</ele><time>2026-04-26T09:03:07.54Z</time></trkpt><trkpt lat="43.77308" lon="12.5235817"><ele>399.0</ele><time>2026-04-26T09:03:08.54Z</time></trkpt><trkpt lat="43.7729533" lon="12.5235467"><ele>399.0</ele><time>2026-04-26T09:03:09.54Z</time></trkpt><trkpt lat="43.772835" lon="12.5235117"><ele>399.0</ele><time>2026-04-26T09:03:10.54Z</time></trkpt><trkpt lat="43.7727417" lon="12.5234567"><ele>399.0</ele><time>2026-04-26T09:03:11.539Z</time></trkpt><trkpt lat="43.77266" lon="12.52338"><ele>403.2</ele><time>2026-04-26T09:03:12.54Z</time></trkpt><trkpt lat="43.7725933" lon="12.523285"><ele>407.4</ele><time>2026-04-26T09:03:13.54Z</time></trkpt><trkpt lat="43.7725367" lon="12.523165"><ele>411.6</ele><time>2026-04-26T09:03:14.54Z</time></trkpt><trkpt lat="43.7724883" lon="12.5230217"><ele>415.8</ele><time>2026-04-26T09:03:15.54Z</time></trkpt><trkpt lat="43.7724567" lon="12.5228717"><ele>420.0</ele><time>2026-04-26T09:03:16.54Z</time></trkpt><trkpt lat="43.772445" lon="12.5227167"><ele>420.0</ele><time>2026-04-26T09:03:17.539Z</time></trkpt><trkpt lat="43.7724567" lon="12.5225617"><ele>420.0</ele><time>2026-04-26T09:03:18.54Z</time></trkpt><trkpt lat="43.77249" lon="12.522395"><ele>420.0</ele><time>2026-04-26T09:03:19.54Z</time></trkpt><trkpt lat="43.77256" lon="12.52222"><ele>420.0</ele><time>2026-04-26T09:03:20.54Z</time></trkpt><trkpt lat="43.7726283" lon="12.522035"><ele>423.0</ele><time>2026-04-26T09:03:21.539Z</time></trkpt><trkpt lat="43.772685" lon="12.5218617"><ele>426.0</ele><time>2026-04-26T09:03:22.54Z</time></trkpt><trkpt lat="43.7727317" lon="12.521695"><ele>429.0</ele><time>2026-04-26T09:03:23.54Z</time></trkpt><trkpt lat="43.772785" lon="12.5215333"><ele>432.0</ele><time>2026-04-26T09:03:24.54Z</time></trkpt><trkpt lat="43.7728583" lon="12.52141"><ele>424.20000000000005</ele><time>2026-04-26T09:03:25.54Z</time></trkpt><trkpt lat="43.7729383" lon="12.52131"><ele>416.40000000000003</ele><time>2026-04-26T09:03:26.54Z</time></trkpt><trkpt lat="43.7730067" lon="12.521205"><ele>408.6</ele><time>2026-04-26T09:03:27.539Z</time></trkpt><trkpt lat="43.7730517" lon="12.521105"><ele>400.79999999999995</ele><time>2026-04-26T09:03:28.54Z</time></trkpt><trkpt lat="43.7730683" lon="12.5209917"><ele>393.0</ele><time>2026-04-26T09:03:29.539Z</time></trkpt><trkpt lat="43.773045" lon="12.52088"><ele>393.0</ele><time>2026-04-26T09:03:30.54Z</time></trkpt><trkpt lat="43.7730017" lon="12.52076"><ele>393.0</ele><time>2026-04-26T09:03:31.539Z</time></trkpt><trkpt lat="43.77294" lon="12.5206283"><ele>393.0</ele><time>2026-04-26T09:03:32.54Z</time></trkpt><trkpt lat="43.7728783" lon="12.5204883"><ele>393.0</ele><time>2026-04-26T09:03:33.54Z</time></trkpt><trkpt lat="43.7728267" lon="12.5203583"><ele>393.0</ele><time>2026-04-26T09:03:34.539Z</time></trkpt><trkpt lat="43.7727767" lon="12.5202367"><ele>392.79999999999995</ele><time>2026-04-26T09:03:35.54Z</time></trkpt><trkpt lat="43.7727183" lon="12.5201383"><ele>392.6</ele><time>2026-04-26T09:03:36.539Z</time></trkpt><trkpt lat="43.7726483" lon="12.5200533"><ele>392.4</ele><time>2026-04-26T09:03:37.54Z</time></trkpt><trkpt lat="43.77256" lon="12.5199817"><ele>392.20000000000005</ele><time>2026-04-26T09:03:38.54Z</time></trkpt><trkpt lat="43.772445" lon="12.5199383"><ele>392.0</ele><time>2026-04-26T09:03:39.539Z</time></trkpt><trkpt lat="43.772325" lon="12.51991"><ele>392.20000000000005</ele><time>2026-04-26T09:03:40.54Z</time></trkpt><trkpt lat="43.7722133" lon="12.519885"><ele>392.4</ele><time>2026-04-26T09:03:41.54Z</time></trkpt><trkpt lat="43.7721117" lon="12.5198383"><ele>392.6</ele><time>2026-04-26T09:03:42.54Z</time></trkpt><trkpt lat="43.7720267" lon="12.519765"><ele>392.79999999999995</ele><time>2026-04-26T09:03:43.54Z</time></trkpt><trkpt lat="43.7719567" lon="12.5196667"><ele>393.0</ele><time>2026-04-26T09:03:44.54Z</time></trkpt><trkpt lat="43.7719" lon="12.51954"><ele>398.5</ele><time>2026-04-26T09:03:45.54Z</time></trkpt><trkpt lat="43.7718467" lon="12.519375"><ele>404.0</ele><time>2026-04-26T09:03:46.539Z</time></trkpt><trkpt lat="43.7718017" lon="12.5192167"><ele>409.5</ele><time>2026-04-26T09:03:47.54Z</time></trkpt><trkpt lat="43.77176" lon="12.5190617"><ele>415.0</ele><time>2026-04-26T09:03:48.54Z</time></trkpt><trkpt lat="43.7717367" lon="12.5189183"><ele>415.00000000000006</ele><time>2026-04-26T09:03:49.539Z</time></trkpt><trkpt lat="43.771715" lon="12.5187767"><ele>415.0</ele><time>2026-04-26T09:03:50.539Z</time></trkpt><trkpt lat="43.771705" lon="12.5186367"><ele>415.0</ele><time>2026-04-26T09:03:51.54Z</time></trkpt><trkpt lat="43.771685" lon="12.51852"><ele>415.0</ele><time>2026-04-26T09:03:52.54Z</time></trkpt><trkpt lat="43.771655" lon="12.5184333"><ele>415.00000000000006</ele><time>2026-04-26T09:03:53.54Z</time></trkpt><trkpt lat="43.771595" lon="12.51835"><ele>415.0</ele><time>2026-04-26T09:03:55.54Z</time></trkpt><trkpt lat="43.7715283" lon="12.5183133"><ele>412.8</ele><time>2026-04-26T09:03:58.54Z</time></trkpt><trkpt lat="43.7714217" lon="12.51825"><ele>410.6</ele><time>2026-04-26T09:05:12.54Z</time></trkpt><trkpt lat="43.77134" lon="12.5182"><ele>408.4</ele><time>2026-04-26T09:05:13.54Z</time></trkpt><trkpt lat="43.77126" lon="12.5181283"><ele>406.2</ele><time>2026-04-26T09:05:14.539Z</time></trkpt><trkpt lat="43.77118" lon="12.518035"><ele>404.0</ele><time>2026-04-26T09:05:15.54Z</time></trkpt><trkpt lat="43.7711033" lon="12.51795"><ele>404.2</ele><time>2026-04-26T09:05:16.539Z</time></trkpt><trkpt lat="43.771025" lon="12.517885"><ele>404.4</ele><time>2026-04-26T09:05:17.54Z</time></trkpt><trkpt lat="43.7709333" lon="12.5178533"><ele>404.6</ele><time>2026-04-26T09:05:18.54Z</time></trkpt><trkpt lat="43.7708367" lon="12.5178533"><ele>404.8</ele><time>2026-04-26T09:05:19.54Z</time></trkpt><trkpt lat="43.7707433" lon="12.517855"><ele>405.0</ele><time>2026-04-26T09:05:20.54Z</time></trkpt><trkpt lat="43.77066" lon="12.5178383"><ele>405.0</ele><time>2026-04-26T09:05:21.54Z</time></trkpt><trkpt lat="43.7705983" lon="12.5177783"><ele>405.0</ele><time>2026-04-26T09:05:22.54Z</time></trkpt><trkpt lat="43.7705517" lon="12.5176917"><ele>405.0</ele><time>2026-04-26T09:05:23.54Z</time></trkpt><trkpt lat="43.7705167" lon="12.5175617"><ele>405.0</ele><time>2026-04-26T09:05:24.54Z</time></trkpt><trkpt lat="43.77049" lon="12.51739"><ele>405.0</ele><time>2026-04-26T09:05:25.54Z</time></trkpt><trkpt lat="43.7704583" lon="12.5172033"><ele>402.0</ele><time>2026-04-26T09:05:26.54Z</time></trkpt><trkpt lat="43.7704483" lon="12.51702"><ele>399.0</ele><time>2026-04-26T09:05:27.54Z</time></trkpt><trkpt lat="43.7704467" lon="12.51687"><ele>396.0</ele><time>2026-04-26T09:05:28.54Z</time></trkpt><trkpt lat="43.7704317" lon="12.5167367"><ele>393.0</ele><time>2026-04-26T09:05:29.54Z</time></trkpt><trkpt lat="43.7703983" lon="12.5166183"><ele>390.0</ele><time>2026-04-26T09:05:30.54Z</time></trkpt><trkpt lat="43.7703467" lon="12.5164967"><ele>390.0</ele><time>2026-04-26T09:05:31.539Z</time></trkpt><trkpt lat="43.7702567" lon="12.5163467"><ele>390.0</ele><time>2026-04-26T09:05:32.539Z</time></trkpt><trkpt lat="43.77017" lon="12.516185"><ele>390.0</ele><time>2026-04-26T09:05:33.54Z</time></trkpt><trkpt lat="43.7700767" lon="12.51604"><ele>390.0</ele><time>2026-04-26T09:05:34.54Z</time></trkpt><trkpt lat="43.7700017" lon="12.51587"><ele>393.75</ele><time>2026-04-26T09:05:35.539Z</time></trkpt><trkpt lat="43.7699217" lon="12.5157"><ele>397.5</ele><time>2026-04-26T09:05:36.54Z</time></trkpt><trkpt lat="43.7698433" lon="12.5155233"><ele>401.25</ele><time>2026-04-26T09:05:37.54Z</time></trkpt><trkpt lat="43.7697667" lon="12.5153533"><ele>405.0</ele><time>2026-04-26T09:05:38.54Z</time></trkpt><trkpt lat="43.7696967" lon="12.5151933"><ele>405.0</ele><time>2026-04-26T09:05:39.54Z</time></trkpt><trkpt lat="43.7696233" lon="12.5150417"><ele>405.0</ele><time>2026-04-26T09:05:40.54Z</time></trkpt><trkpt lat="43.7695617" lon="12.514885"><ele>405.0</ele><time>2026-04-26T09:05:41.539Z</time></trkpt><trkpt lat="43.7695183" lon="12.5147417"><ele>405.0</ele><time>2026-04-26T09:05:42.54Z</time></trkpt><trkpt lat="43.7694817" lon="12.5145933"><ele>405.5</ele><time>2026-04-26T09:05:43.54Z</time></trkpt><trkpt lat="43.7694517" lon="12.5144317"><ele>406.0</ele><time>2026-04-26T09:05:44.539Z</time></trkpt><trkpt lat="43.7694367" lon="12.51426"><ele>406.5</ele><time>2026-04-26T09:05:45.539Z</time></trkpt><trkpt lat="43.7694183" lon="12.5141017"><ele>407.0</ele><time>2026-04-26T09:05:46.539Z</time></trkpt><trkpt lat="43.7693783" lon="12.513955"><ele>406.75</ele><time>2026-04-26T09:05:47.539Z</time></trkpt><trkpt lat="43.76933" lon="12.51382"><ele>406.5</ele><time>2026-04-26T09:05:48.54Z</time></trkpt><trkpt lat="43.76925" lon="12.5137"><ele>406.25</ele><time>2026-04-26T09:05:49.54Z</time></trkpt><trkpt lat="43.76916" lon="12.5135867"><ele>406.0</ele><time>2026-04-26T09:05:50.54Z</time></trkpt><trkpt lat="43.7690967" lon="12.5134633"><ele>408.8</ele><time>2026-04-26T09:05:51.54Z</time></trkpt><trkpt lat="43.769045" lon="12.51334"><ele>411.6</ele><time>2026-04-26T09:05:52.54Z</time></trkpt><trkpt lat="43.7690267" lon="12.5132067"><ele>414.4</ele><time>2026-04-26T09:05:53.539Z</time></trkpt><trkpt lat="43.7690433" lon="12.5130583"><ele>417.2</ele><time>2026-04-26T09:05:54.54Z</time></trkpt><trkpt lat="43.76909" lon="12.51289"><ele>420.0</ele><time>2026-04-26T09:05:55.54Z</time></trkpt><trkpt lat="43.7691417" lon="12.5127217"><ele>421.2</ele><time>2026-04-26T09:05:56.54Z</time></trkpt><trkpt lat="43.7691867" lon="12.51256"><ele>422.4</ele><time>2026-04-26T09:05:57.54Z</time></trkpt><trkpt lat="43.769205" lon="12.5124217"><ele>423.6</ele><time>2026-04-26T09:05:58.54Z</time></trkpt><trkpt lat="43.769195" lon="12.5123017"><ele>424.8</ele><time>2026-04-26T09:05:59.539Z</time></trkpt><trkpt lat="43.7691483" lon="12.5121917"><ele>426.0</ele><time>2026-04-26T09:06:00.54Z</time></trkpt><trkpt lat="43.7690667" lon="12.5121"><ele>429.5</ele><time>2026-04-26T09:06:01.539Z</time></trkpt><trkpt lat="43.7689567" lon="12.5120167"><ele>433.0</ele><time>2026-04-26T09:06:02.54Z</time></trkpt><trkpt lat="43.768825" lon="12.511935"><ele>436.5</ele><time>2026-04-26T09:06:03.539Z</time></trkpt><trkpt lat="43.76867" lon="12.5118667"><ele>440.0</ele><time>2026-04-26T09:06:04.539Z</time></trkpt><trkpt lat="43.7685083" lon="12.511825"><ele>441.25</ele><time>2026-04-26T09:06:05.54Z</time></trkpt><trkpt lat="43.768355" lon="12.5118117"><ele>442.5</ele><time>2026-04-26T09:06:06.539Z</time></trkpt><trkpt lat="43.7682017" lon="12.511825"><ele>443.75</ele><time>2026-04-26T09:06:07.54Z</time></trkpt><trkpt lat="43.7680867" lon="12.51183"><ele>445.0</ele><time>2026-04-26T09:06:08.54Z</time></trkpt><trkpt lat="43.7679983" lon="12.5118017"><ele>445.0</ele><time>2026-04-26T09:06:09.539Z</time></trkpt><trkpt lat="43.7679367" lon="12.5117233"><ele>445.0</ele><time>2026-04-26T09:06:10.54Z</time></trkpt><trkpt lat="43.7679" lon="12.5116167"><ele>445.0</ele><time>2026-04-26T09:06:11.54Z</time></trkpt><trkpt lat="43.76789" lon="12.5114867"><ele>445.0</ele><time>2026-04-26T09:06:12.54Z</time></trkpt><trkpt lat="43.7679" lon="12.5113217"><ele>445.0</ele><time>2026-04-26T09:06:13.54Z</time></trkpt><trkpt lat="43.7679" lon="12.51116"><ele>444.0</ele><time>2026-04-26T09:06:14.54Z</time></trkpt><trkpt lat="43.76788" lon="12.511035"><ele>443.0</ele><time>2026-04-26T09:06:15.54Z</time></trkpt><trkpt lat="43.76783" lon="12.5109283"><ele>442.0</ele><time>2026-04-26T09:06:16.54Z</time></trkpt><trkpt lat="43.7677317" lon="12.5108433"><ele>441.0</ele><time>2026-04-26T09:06:17.539Z</time></trkpt><trkpt lat="43.7676117" lon="12.5107717"><ele>440.0</ele><time>2026-04-26T09:06:18.539Z</time></trkpt><trkpt lat="43.7674933" lon="12.51068"><ele>440.0</ele><time>2026-04-26T09:06:19.54Z</time></trkpt><trkpt lat="43.7674133" lon="12.5105867"><ele>440.0</ele><time>2026-04-26T09:06:20.539Z</time></trkpt><trkpt lat="43.7673683" lon="12.510465"><ele>440.0</ele><time>2026-04-26T09:06:21.54Z</time></trkpt><trkpt lat="43.7673517" lon="12.5103117"><ele>440.0</ele><time>2026-04-26T09:06:22.54Z</time></trkpt><trkpt lat="43.767365" lon="12.5101233"><ele>442.75</ele><time>2026-04-26T09:06:23.54Z</time></trkpt><trkpt lat="43.7673817" lon="12.5099367"><ele>445.5</ele><time>2026-04-26T09:06:24.54Z</time></trkpt><trkpt lat="43.7673867" lon="12.5097633"><ele>448.25</ele><time>2026-04-26T09:06:25.54Z</time></trkpt><trkpt lat="43.767365" lon="12.509595"><ele>451.0</ele><time>2026-04-26T09:06:26.539Z</time></trkpt><trkpt lat="43.767315" lon="12.509425"><ele>452.75</ele><time>2026-04-26T09:06:27.54Z</time></trkpt><trkpt lat="43.7672683" lon="12.509255"><ele>454.5</ele><time>2026-04-26T09:06:28.54Z</time></trkpt><trkpt lat="43.7672467" lon="12.5090733"><ele>456.25</ele><time>2026-04-26T09:06:29.54Z</time></trkpt><trkpt lat="43.76725" lon="12.5088733"><ele>458.0</ele><time>2026-04-26T09:06:30.54Z</time></trkpt><trkpt lat="43.76727" lon="12.5086467"><ele>459.0</ele><time>2026-04-26T09:06:31.539Z</time></trkpt><trkpt lat="43.7672867" lon="12.508415"><ele>460.0</ele><time>2026-04-26T09:06:32.539Z</time></trkpt><trkpt lat="43.7673017" lon="12.508195"><ele>461.0</ele><time>2026-04-26T09:06:33.539Z</time></trkpt><trkpt lat="43.7673217" lon="12.50799"><ele>459.25</ele><time>2026-04-26T09:06:34.539Z</time></trkpt><trkpt lat="43.7673583" lon="12.5078"><ele>457.5</ele><time>2026-04-26T09:06:35.539Z</time></trkpt><trkpt lat="43.7673967" lon="12.5076333"><ele>455.75</ele><time>2026-04-26T09:06:36.538Z</time></trkpt><trkpt lat="43.7674283" lon="12.5074683"><ele>454.0</ele><time>2026-04-26T09:06:37.539Z</time></trkpt><trkpt lat="43.7674433" lon="12.5073083"><ele>454.0</ele><time>2026-04-26T09:06:38.539Z</time></trkpt><trkpt lat="43.7674383" lon="12.5071533"><ele>454.0</ele><time>2026-04-26T09:06:39.539Z</time></trkpt><trkpt lat="43.7674333" lon="12.5069883"><ele>454.0</ele><time>2026-04-26T09:06:40.539Z</time></trkpt><trkpt lat="43.7674333" lon="12.5068183"><ele>454.0</ele><time>2026-04-26T09:06:41.538Z</time></trkpt><trkpt lat="43.7674317" lon="12.5066433"><ele>453.75</ele><time>2026-04-26T09:06:42.539Z</time></trkpt><trkpt lat="43.7674333" lon="12.506465"><ele>453.5</ele><time>2026-04-26T09:06:43.539Z</time></trkpt><trkpt lat="43.7674417" lon="12.5062817"><ele>453.25</ele><time>2026-04-26T09:06:44.539Z</time></trkpt><trkpt lat="43.7674617" lon="12.506095"><ele>453.0</ele><time>2026-04-26T09:06:45.539Z</time></trkpt><trkpt lat="43.7675017" lon="12.505915"><ele>452.5</ele><time>2026-04-26T09:06:46.538Z</time></trkpt><trkpt lat="43.7675533" lon="12.5057483"><ele>452.0</ele><time>2026-04-26T09:06:47.538Z</time></trkpt><trkpt lat="43.7676117" lon="12.5055917"><ele>451.5</ele><time>2026-04-26T09:06:48.538Z</time></trkpt><trkpt lat="43.7676767" lon="12.505435"><ele>451.0</ele><time>2026-04-26T09:06:49.538Z</time></trkpt><trkpt lat="43.7677533" lon="12.5052717"><ele>451.0</ele><time>2026-04-26T09:06:50.538Z</time></trkpt><trkpt lat="43.7678333" lon="12.50511"><ele>451.0</ele><time>2026-04-26T09:06:51.538Z</time></trkpt><trkpt lat="43.7679133" lon="12.5049483"><ele>451.0</ele><time>2026-04-26T09:06:52.539Z</time></trkpt><trkpt lat="43.767995" lon="12.5048"><ele>451.0</ele><time>2026-04-26T09:06:53.539Z</time></trkpt><trkpt lat="43.7680867" lon="12.5046717"><ele>454.75</ele><time>2026-04-26T09:06:54.539Z</time></trkpt><trkpt lat="43.76819" lon="12.5045683"><ele>458.5</ele><time>2026-04-26T09:06:55.538Z</time></trkpt><trkpt lat="43.7683117" lon="12.5044983"><ele>462.25</ele><time>2026-04-26T09:06:56.539Z</time></trkpt><trkpt lat="43.7684417" lon="12.504465"><ele>466.0</ele><time>2026-04-26T09:06:57.538Z</time></trkpt><trkpt lat="43.7685767" lon="12.5044783"><ele>462.6666666666667</ele><time>2026-04-26T09:06:58.539Z</time></trkpt><trkpt lat="43.76873" lon="12.5045333"><ele>459.33333333333337</ele><time>2026-04-26T09:06:59.538Z</time></trkpt><trkpt lat="43.7688933" lon="12.5046017"><ele>456.0</ele><time>2026-04-26T09:07:00.539Z</time></trkpt><trkpt lat="43.7690767" lon="12.504695"><ele>456.0</ele><time>2026-04-26T09:07:01.539Z</time></trkpt><trkpt lat="43.769265" lon="12.50479"><ele>456.0</ele><time>2026-04-26T09:07:02.539Z</time></trkpt><trkpt lat="43.7694517" lon="12.5048733"><ele>456.0</ele><time>2026-04-26T09:07:03.539Z</time></trkpt><trkpt lat="43.7696183" lon="12.5049483"><ele>459.66666666666663</ele><time>2026-04-26T09:07:04.539Z</time></trkpt><trkpt lat="43.76976" lon="12.5050283"><ele>463.3333333333333</ele><time>2026-04-26T09:07:05.539Z</time></trkpt><trkpt lat="43.76989" lon="12.505135"><ele>467.0</ele><time>2026-04-26T09:07:06.539Z</time></trkpt><trkpt lat="43.76999" lon="12.5052833"><ele>465.5</ele><time>2026-04-26T09:07:07.539Z</time></trkpt><trkpt lat="43.7700667" lon="12.505445"><ele>464.0</ele><time>2026-04-26T09:07:08.538Z</time></trkpt><trkpt lat="43.7701433" lon="12.5055783"><ele>462.5</ele><time>2026-04-26T09:07:09.539Z</time></trkpt><trkpt lat="43.7702433" lon="12.5056733"><ele>461.0</ele><time>2026-04-26T09:07:10.538Z</time></trkpt><trkpt lat="43.77037" lon="12.5057483"><ele>461.0</ele><time>2026-04-26T09:07:11.539Z</time></trkpt><trkpt lat="43.7705117" lon="12.505785"><ele>461.0</ele><time>2026-04-26T09:07:12.538Z</time></trkpt><trkpt lat="43.7706833" lon="12.5057833"><ele>461.0</ele><time>2026-04-26T09:07:13.539Z</time></trkpt><trkpt lat="43.770865" lon="12.5057733"><ele>462.0</ele><time>2026-04-26T09:07:14.538Z</time></trkpt><trkpt lat="43.77106" lon="12.5057617"><ele>463.0</ele><time>2026-04-26T09:07:15.539Z</time></trkpt><trkpt lat="43.77125" lon="12.50577"><ele>464.0</ele><time>2026-04-26T09:07:16.539Z</time></trkpt><trkpt lat="43.771415" lon="12.505805"><ele>464.0</ele><time>2026-04-26T09:07:17.538Z</time></trkpt><trkpt lat="43.7715717" lon="12.5058683"><ele>464.0</ele><time>2026-04-26T09:07:18.538Z</time></trkpt><trkpt lat="43.7717117" lon="12.5059367"><ele>464.0</ele><time>2026-04-26T09:07:19.539Z</time></trkpt><trkpt lat="43.77185" lon="12.5059983"><ele>467.75</ele><time>2026-04-26T09:07:20.539Z</time></trkpt><trkpt lat="43.7719883" lon="12.5060567"><ele>471.5</ele><time>2026-04-26T09:07:21.539Z</time></trkpt><trkpt lat="43.77213" lon="12.5061167"><ele>475.25</ele><time>2026-04-26T09:07:22.538Z</time></trkpt><trkpt lat="43.7722667" lon="12.506175"><ele>479.0</ele><time>2026-04-26T09:07:23.538Z</time></trkpt><trkpt lat="43.7723983" lon="12.50622"><ele>472.0</ele><time>2026-04-26T09:07:24.539Z</time></trkpt><trkpt lat="43.7725233" lon="12.5062583"><ele>465.0</ele><time>2026-04-26T09:07:25.539Z</time></trkpt><trkpt lat="43.7726483" lon="12.5062933"><ele>458.0</ele><time>2026-04-26T09:07:26.539Z</time></trkpt><trkpt lat="43.77278" lon="12.50631"><ele>451.0</ele><time>2026-04-26T09:07:27.539Z</time></trkpt><trkpt lat="43.7729083" lon="12.5063183"><ele>451.0</ele><time>2026-04-26T09:07:28.539Z</time></trkpt><trkpt lat="43.7730533" lon="12.506295"><ele>451.0</ele><time>2026-04-26T09:07:29.538Z</time></trkpt><trkpt lat="43.773215" lon="12.506245"><ele>451.0</ele><time>2026-04-26T09:07:30.539Z</time></trkpt><trkpt lat="43.7733667" lon="12.5061767"><ele>457.5</ele><time>2026-04-26T09:07:31.539Z</time></trkpt><trkpt lat="43.7735067" lon="12.5061167"><ele>464.0</ele><time>2026-04-26T09:07:32.539Z</time></trkpt><trkpt lat="43.77364" lon="12.5060733"><ele>470.5</ele><time>2026-04-26T09:07:33.539Z</time></trkpt><trkpt lat="43.7737683" lon="12.5060583"><ele>477.0</ele><time>2026-04-26T09:07:34.538Z</time></trkpt><trkpt lat="43.7738983" lon="12.5060517"><ele>477.0</ele><time>2026-04-26T09:07:35.539Z</time></trkpt><trkpt lat="43.7740333" lon="12.5060583"><ele>477.0</ele><time>2026-04-26T09:07:36.539Z</time></trkpt><trkpt lat="43.7741533" lon="12.5060933"><ele>477.0</ele><time>2026-04-26T09:07:37.539Z</time></trkpt><trkpt lat="43.7742683" lon="12.5061433"><ele>477.0</ele><time>2026-04-26T09:07:38.539Z</time></trkpt><trkpt lat="43.77437" lon="12.506215"><ele>478.25</ele><time>2026-04-26T09:07:39.539Z</time></trkpt><trkpt lat="43.7744533" lon="12.5063317"><ele>479.5</ele><time>2026-04-26T09:07:40.539Z</time></trkpt><trkpt lat="43.7745317" lon="12.5064767"><ele>480.75</ele><time>2026-04-26T09:07:41.539Z</time></trkpt><trkpt lat="43.7746" lon="12.5066367"><ele>482.0</ele><time>2026-04-26T09:07:42.539Z</time></trkpt><trkpt lat="43.7746533" lon="12.5068067"><ele>482.0</ele><time>2026-04-26T09:07:43.538Z</time></trkpt><trkpt lat="43.7747067" lon="12.5069667"><ele>482.0</ele><time>2026-04-26T09:07:44.539Z</time></trkpt><trkpt lat="43.77476" lon="12.5071183"><ele>482.0</ele><time>2026-04-26T09:07:45.539Z</time></trkpt><trkpt lat="43.7748283" lon="12.507265"><ele>482.0</ele><time>2026-04-26T09:07:46.539Z</time></trkpt><trkpt lat="43.7749017" lon="12.507395"><ele>481.0</ele><time>2026-04-26T09:07:47.539Z</time></trkpt><trkpt lat="43.774985" lon="12.5075067"><ele>480.0</ele><time>2026-04-26T09:07:48.539Z</time></trkpt><trkpt lat="43.7750883" lon="12.50761"><ele>479.0</ele><time>2026-04-26T09:07:49.539Z</time></trkpt><trkpt lat="43.77521" lon="12.5077017"><ele>478.0</ele><time>2026-04-26T09:07:50.539Z</time></trkpt><trkpt lat="43.77535" lon="12.507775"><ele>478.0</ele><time>2026-04-26T09:07:51.539Z</time></trkpt><trkpt lat="43.77549" lon="12.5078267"><ele>478.0</ele><time>2026-04-26T09:07:52.539Z</time></trkpt><trkpt lat="43.77562" lon="12.5078717"><ele>478.0</ele><time>2026-04-26T09:07:53.539Z</time></trkpt><trkpt lat="43.7757483" lon="12.5078983"><ele>478.0</ele><time>2026-04-26T09:07:54.539Z</time></trkpt><trkpt lat="43.7758733" lon="12.5078883"><ele>478.0</ele><time>2026-04-26T09:07:55.539Z</time></trkpt><trkpt lat="43.775995" lon="12.507845"><ele>478.0</ele><time>2026-04-26T09:07:56.538Z</time></trkpt><trkpt lat="43.776135" lon="12.507775"><ele>478.0</ele><time>2026-04-26T09:07:57.539Z</time></trkpt><trkpt lat="43.77629" lon="12.5077183"><ele>478.0</ele><time>2026-04-26T09:07:58.539Z</time></trkpt><trkpt lat="43.77645" lon="12.507695"><ele>474.75</ele><time>2026-04-26T09:07:59.539Z</time></trkpt><trkpt lat="43.7766" lon="12.507705"><ele>471.5</ele><time>2026-04-26T09:08:00.539Z</time></trkpt><trkpt lat="43.77673" lon="12.5077333"><ele>468.25</ele><time>2026-04-26T09:08:01.539Z</time></trkpt><trkpt lat="43.77683" lon="12.5078167"><ele>465.0</ele><time>2026-04-26T09:08:02.538Z</time></trkpt><trkpt lat="43.7769167" lon="12.5079517"><ele>456.75</ele><time>2026-04-26T09:08:03.538Z</time></trkpt><trkpt lat="43.776995" lon="12.5081133"><ele>448.5</ele><time>2026-04-26T09:08:04.539Z</time></trkpt><trkpt lat="43.77707" lon="12.5082467"><ele>440.25</ele><time>2026-04-26T09:08:05.539Z</time></trkpt><trkpt lat="43.77714" lon="12.5083583"><ele>432.0</ele><time>2026-04-26T09:08:06.539Z</time></trkpt><trkpt lat="43.7772267" lon="12.5084217"><ele>432.0</ele><time>2026-04-26T09:08:07.538Z</time></trkpt><trkpt lat="43.7773267" lon="12.5084333"><ele>432.00000000000006</ele><time>2026-04-26T09:08:08.539Z</time></trkpt><trkpt lat="43.7774117" lon="12.50838"><ele>432.00000000000006</ele><time>2026-04-26T09:08:09.538Z</time></trkpt><trkpt lat="43.7774833" lon="12.5082633"><ele>432.0</ele><time>2026-04-26T09:08:10.538Z</time></trkpt><trkpt lat="43.7775383" lon="12.5081167"><ele>432.0</ele><time>2026-04-26T09:08:11.539Z</time></trkpt><trkpt lat="43.777555" lon="12.507955"><ele>432.25</ele><time>2026-04-26T09:08:12.539Z</time></trkpt><trkpt lat="43.7775367" lon="12.5077717"><ele>432.5</ele><time>2026-04-26T09:08:13.539Z</time></trkpt><trkpt lat="43.7775" lon="12.50758"><ele>432.75</ele><time>2026-04-26T09:08:14.538Z</time></trkpt><trkpt lat="43.7774617" lon="12.5073967"><ele>433.0</ele><time>2026-04-26T09:08:15.539Z</time></trkpt><trkpt lat="43.7774317" lon="12.5072217"><ele>433.25</ele><time>2026-04-26T09:08:16.539Z</time></trkpt><trkpt lat="43.7774267" lon="12.5070617"><ele>433.5</ele><time>2026-04-26T09:08:17.539Z</time></trkpt><trkpt lat="43.7774417" lon="12.5069033"><ele>433.75</ele><time>2026-04-26T09:08:18.539Z</time></trkpt><trkpt lat="43.7774783" lon="12.506745"><ele>434.0</ele><time>2026-04-26T09:08:19.538Z</time></trkpt><trkpt lat="43.7775217" lon="12.50659"><ele>434.0</ele><time>2026-04-26T09:08:20.539Z</time></trkpt><trkpt lat="43.7775733" lon="12.5064583"><ele>434.0</ele><time>2026-04-26T09:08:21.538Z</time></trkpt><trkpt lat="43.777645" lon="12.5063567"><ele>434.0</ele><time>2026-04-26T09:08:22.538Z</time></trkpt><trkpt lat="43.7777367" lon="12.506295"><ele>434.0</ele><time>2026-04-26T09:08:23.539Z</time></trkpt><trkpt lat="43.7778467" lon="12.50627"><ele>434.0</ele><time>2026-04-26T09:08:24.539Z</time></trkpt><trkpt lat="43.7779667" lon="12.506265"><ele>431.0</ele><time>2026-04-26T09:08:25.539Z</time></trkpt><trkpt lat="43.7780917" lon="12.5062883"><ele>428.0</ele><time>2026-04-26T09:08:26.539Z</time></trkpt><trkpt lat="43.7781967" lon="12.5063183"><ele>425.0</ele><time>2026-04-26T09:08:27.539Z</time></trkpt><trkpt lat="43.7782833" lon="12.5063267"><ele>422.0</ele><time>2026-04-26T09:08:28.539Z</time></trkpt><trkpt lat="43.7783583" lon="12.5063017"><ele>419.0</ele><time>2026-04-26T09:08:29.539Z</time></trkpt><trkpt lat="43.7784183" lon="12.50623"><ele>419.0</ele><time>2026-04-26T09:08:30.539Z</time></trkpt><trkpt lat="43.7784667" lon="12.5061083"><ele>419.0</ele><time>2026-04-26T09:08:31.538Z</time></trkpt><trkpt lat="43.7784783" lon="12.505935"><ele>419.0</ele><time>2026-04-26T09:08:32.539Z</time></trkpt><trkpt lat="43.7784883" lon="12.50576"><ele>419.0</ele><time>2026-04-26T09:08:33.539Z</time></trkpt><trkpt lat="43.778505" lon="12.505605"><ele>417.0</ele><time>2026-04-26T09:08:34.538Z</time></trkpt><trkpt lat="43.7785533" lon="12.5054767"><ele>415.0</ele><time>2026-04-26T09:08:35.539Z</time></trkpt><trkpt lat="43.7786383" lon="12.505355"><ele>413.0</ele><time>2026-04-26T09:08:36.539Z</time></trkpt><trkpt lat="43.77875" lon="12.5052433"><ele>411.0</ele><time>2026-04-26T09:08:37.539Z</time></trkpt><trkpt lat="43.778875" lon="12.5051317"><ele>411.0</ele><time>2026-04-26T09:08:38.538Z</time></trkpt><trkpt lat="43.7790017" lon="12.5050367"><ele>411.0</ele><time>2026-04-26T09:08:39.539Z</time></trkpt><trkpt lat="43.779125" lon="12.5049517"><ele>411.0</ele><time>2026-04-26T09:08:40.539Z</time></trkpt><trkpt lat="43.7792483" lon="12.50487"><ele>411.0</ele><time>2026-04-26T09:08:41.539Z</time></trkpt><trkpt lat="43.7793683" lon="12.5047717"><ele>410.75</ele><time>2026-04-26T09:08:42.538Z</time></trkpt><trkpt lat="43.7794883" lon="12.50467"><ele>410.5</ele><time>2026-04-26T09:08:43.538Z</time></trkpt><trkpt lat="43.779605" lon="12.5045717"><ele>410.25</ele><time>2026-04-26T09:08:44.539Z</time></trkpt><trkpt lat="43.779725" lon="12.50448"><ele>410.0</ele><time>2026-04-26T09:08:45.539Z</time></trkpt><trkpt lat="43.7798367" lon="12.50438"><ele>411.0</ele><time>2026-04-26T09:08:46.539Z</time></trkpt><trkpt lat="43.7799417" lon="12.504265"><ele>412.0</ele><time>2026-04-26T09:08:47.538Z</time></trkpt><trkpt lat="43.7800317" lon="12.50413"><ele>413.0</ele><time>2026-04-26T09:08:48.539Z</time></trkpt><trkpt lat="43.7801183" lon="12.503985"><ele>414.0</ele><time>2026-04-26T09:08:49.538Z</time></trkpt><trkpt lat="43.780205" lon="12.5038233"><ele>411.75</ele><time>2026-04-26T09:08:50.538Z</time></trkpt><trkpt lat="43.7802867" lon="12.50365"><ele>409.5</ele><time>2026-04-26T09:08:51.538Z</time></trkpt><trkpt lat="43.7803667" lon="12.503475"><ele>407.25</ele><time>2026-04-26T09:08:52.539Z</time></trkpt><trkpt lat="43.780445" lon="12.5033067"><ele>405.0</ele><time>2026-04-26T09:08:53.538Z</time></trkpt><trkpt lat="43.7805283" lon="12.5031383"><ele>405.0</ele><time>2026-04-26T09:08:54.539Z</time></trkpt><trkpt lat="43.7806133" lon="12.502975"><ele>405.0</ele><time>2026-04-26T09:08:55.538Z</time></trkpt><trkpt lat="43.7806967" lon="12.502825"><ele>405.0</ele><time>2026-04-26T09:08:56.539Z</time></trkpt><trkpt lat="43.7807633" lon="12.5026783"><ele>405.0</ele><time>2026-04-26T09:08:57.538Z</time></trkpt><trkpt lat="43.7808067" lon="12.5025367"><ele>403.25</ele><time>2026-04-26T09:08:58.539Z</time></trkpt><trkpt lat="43.78082" lon="12.5023917"><ele>401.5</ele><time>2026-04-26T09:08:59.539Z</time></trkpt><trkpt lat="43.7807883" lon="12.502255"><ele>399.75</ele><time>2026-04-26T09:09:00.539Z</time></trkpt><trkpt lat="43.780715" lon="12.502125"><ele>398.0</ele><time>2026-04-26T09:09:01.538Z</time></trkpt><trkpt lat="43.7806133" lon="12.5019983"><ele>397.75</ele><time>2026-04-26T09:09:02.539Z</time></trkpt><trkpt lat="43.7805" lon="12.5018633"><ele>397.5</ele><time>2026-04-26T09:09:03.539Z</time></trkpt><trkpt lat="43.7803933" lon="12.5017267"><ele>397.25</ele><time>2026-04-26T09:09:04.539Z</time></trkpt><trkpt lat="43.7802917" lon="12.5016"><ele>397.0</ele><time>2026-04-26T09:09:05.539Z</time></trkpt><trkpt lat="43.780205" lon="12.5014733"><ele>394.8</ele><time>2026-04-26T09:09:06.539Z</time></trkpt><trkpt lat="43.7801433" lon="12.501345"><ele>392.6</ele><time>2026-04-26T09:09:07.539Z</time></trkpt><trkpt lat="43.7801217" lon="12.5012283"><ele>390.40000000000003</ele><time>2026-04-26T09:09:08.539Z</time></trkpt><trkpt lat="43.780145" lon="12.5011117"><ele>388.20000000000005</ele><time>2026-04-26T09:09:09.538Z</time></trkpt><trkpt lat="43.780215" lon="12.5009817"><ele>386.0</ele><time>2026-04-26T09:09:10.538Z</time></trkpt><trkpt lat="43.7803185" lon="12.5008578"><ele>386.0</ele><time>2026-04-26T09:09:11.539Z</time></trkpt><trkpt lat="43.7804511" lon="12.5007401"><ele>386.0</ele><time>2026-04-26T09:09:12.539Z</time></trkpt><trkpt lat="43.7805888" lon="12.5006198"><ele>386.0</ele><time>2026-04-26T09:09:13.539Z</time></trkpt><trkpt lat="43.7807199" lon="12.500504"><ele>381.5</ele><time>2026-04-26T09:09:14.538Z</time></trkpt><trkpt lat="43.7808476" lon="12.5004034"><ele>377.0</ele><time>2026-04-26T09:09:15.539Z</time></trkpt><trkpt lat="43.7809843" lon="12.5003279"><ele>372.5</ele><time>2026-04-26T09:09:16.538Z</time></trkpt><trkpt lat="43.7811297" lon="12.5002901"><ele>368.0</ele><time>2026-04-26T09:09:17.538Z</time></trkpt><trkpt lat="43.7812784" lon="12.5002741"><ele>368.0</ele><time>2026-04-26T09:09:18.538Z</time></trkpt><trkpt lat="43.7814185" lon="12.5002555"><ele>368.0</ele><time>2026-04-26T09:09:19.538Z</time></trkpt><trkpt lat="43.7815497" lon="12.500241"><ele>368.0</ele><time>2026-04-26T09:09:20.538Z</time></trkpt><trkpt lat="43.7816707" lon="12.5002334"><ele>368.0</ele><time>2026-04-26T09:09:21.539Z</time></trkpt><trkpt lat="43.7817785" lon="12.5002667"><ele>366.0</ele><time>2026-04-26T09:09:22.538Z</time></trkpt><trkpt lat="43.7818775" lon="12.5003442"><ele>364.0</ele><time>2026-04-26T09:09:23.539Z</time></trkpt><trkpt lat="43.7819639" lon="12.5004652"><ele>362.0</ele><time>2026-04-26T09:09:24.539Z</time></trkpt><trkpt lat="43.7820316" lon="12.5006081"><ele>360.0</ele><time>2026-04-26T09:09:25.539Z</time></trkpt><trkpt lat="43.7820978" lon="12.5007524"><ele>360.0</ele><time>2026-04-26T09:09:26.539Z</time></trkpt><trkpt lat="43.7821812" lon="12.5008759"><ele>360.0</ele><time>2026-04-26T09:09:27.538Z</time></trkpt><trkpt lat="43.7822785" lon="12.5009759"><ele>360.0</ele><time>2026-04-26T09:09:28.539Z</time></trkpt><trkpt lat="43.7823854" lon="12.5010563"><ele>360.0</ele><time>2026-04-26T09:09:29.538Z</time></trkpt><trkpt lat="43.7825115" lon="12.5011142"><ele>360.0</ele><time>2026-04-26T09:09:30.539Z</time></trkpt><trkpt lat="43.7826421" lon="12.5011619"><ele>360.0</ele><time>2026-04-26T09:09:31.538Z</time></trkpt><trkpt lat="43.7827672" lon="12.5011983"><ele>360.0</ele><time>2026-04-26T09:09:32.538Z</time></trkpt><trkpt lat="43.7828755" lon="12.5012541"><ele>360.0</ele><time>2026-04-26T09:09:33.539Z</time></trkpt><trkpt lat="43.7829575" lon="12.50134"><ele>358.5</ele><time>2026-04-26T09:09:34.539Z</time></trkpt><trkpt lat="43.7830229" lon="12.5014731"><ele>357.0</ele><time>2026-04-26T09:09:35.539Z</time></trkpt><trkpt lat="43.7830798" lon="12.5016505"><ele>355.5</ele><time>2026-04-26T09:09:36.539Z</time></trkpt><trkpt lat="43.7831264" lon="12.5018272"><ele>354.0</ele><time>2026-04-26T09:09:37.539Z</time></trkpt><trkpt lat="43.783165" lon="12.5019867"><ele>356.3333333333333</ele><time>2026-04-26T09:09:38.539Z</time></trkpt><trkpt lat="43.7832076" lon="12.5021121"><ele>358.6666666666667</ele><time>2026-04-26T09:09:39.538Z</time></trkpt><trkpt lat="43.783255" lon="12.5022066"><ele>361.0</ele><time>2026-04-26T09:09:40.539Z</time></trkpt><trkpt lat="43.7833093" lon="12.5022719"><ele>363.33333333333337</ele><time>2026-04-26T09:09:41.539Z</time></trkpt><trkpt lat="43.7833792" lon="12.5022817"><ele>365.6666666666667</ele><time>2026-04-26T09:09:42.539Z</time></trkpt><trkpt lat="43.78345" lon="12.5022437"><ele>368.0</ele><time>2026-04-26T09:09:43.538Z</time></trkpt><trkpt lat="43.7834983" lon="12.5021417"><ele>365.2</ele><time>2026-04-26T09:09:44.539Z</time></trkpt><trkpt lat="43.7834983" lon="12.5020417"><ele>362.4</ele><time>2026-04-26T09:09:45.538Z</time></trkpt><trkpt lat="43.7834683" lon="12.5019167"><ele>359.59999999999997</ele><time>2026-04-26T09:09:46.537Z</time></trkpt><trkpt lat="43.78342" lon="12.5017733"><ele>356.79999999999995</ele><time>2026-04-26T09:09:47.539Z</time></trkpt><trkpt lat="43.78336" lon="12.5016383"><ele>354.0</ele><time>2026-04-26T09:09:48.538Z</time></trkpt><trkpt lat="43.7832967" lon="12.501505"><ele>354.0</ele><time>2026-04-26T09:09:49.538Z</time></trkpt><trkpt lat="43.7832333" lon="12.5013633"><ele>354.0</ele><time>2026-04-26T09:09:50.539Z</time></trkpt><trkpt lat="43.7831633" lon="12.5012133"><ele>354.0</ele><time>2026-04-26T09:09:51.538Z</time></trkpt><trkpt lat="43.7831017" lon="12.501055"><ele>354.0</ele><time>2026-04-26T09:09:52.539Z</time></trkpt><trkpt lat="43.7830367" lon="12.5009"><ele>350.75</ele><time>2026-04-26T09:09:53.539Z</time></trkpt><trkpt lat="43.7829733" lon="12.500745"><ele>347.5</ele><time>2026-04-26T09:09:54.538Z</time></trkpt><trkpt lat="43.782905" lon="12.5005933"><ele>344.25</ele><time>2026-04-26T09:09:55.538Z</time></trkpt><trkpt lat="43.7828267" lon="12.5004417"><ele>341.0</ele><time>2026-04-26T09:09:56.539Z</time></trkpt><trkpt lat="43.78276" lon="12.5002933"><ele>343.0</ele><time>2026-04-26T09:09:57.539Z</time></trkpt><trkpt lat="43.7826933" lon="12.50014"><ele>345.0</ele><time>2026-04-26T09:09:58.538Z</time></trkpt><trkpt lat="43.7826417" lon="12.4999883"><ele>347.0</ele><time>2026-04-26T09:09:59.539Z</time></trkpt><trkpt lat="43.7825967" lon="12.499835"><ele>349.0</ele><time>2026-04-26T09:10:00.539Z</time></trkpt><trkpt lat="43.7825767" lon="12.4996617"><ele>347.25</ele><time>2026-04-26T09:10:01.539Z</time></trkpt><trkpt lat="43.7825833" lon="12.499485"><ele>345.5</ele><time>2026-04-26T09:10:02.539Z</time></trkpt><trkpt lat="43.7826067" lon="12.4993083"><ele>343.75</ele><time>2026-04-26T09:10:03.539Z</time></trkpt><trkpt lat="43.7826367" lon="12.4991367"><ele>342.0</ele><time>2026-04-26T09:10:04.539Z</time></trkpt><trkpt lat="43.7826367" lon="12.498975"><ele>342.0</ele><time>2026-04-26T09:10:05.539Z</time></trkpt><trkpt lat="43.78261" lon="12.4988283"><ele>342.0</ele><time>2026-04-26T09:10:06.538Z</time></trkpt><trkpt lat="43.7825667" lon="12.4986983"><ele>342.0</ele><time>2026-04-26T09:10:07.539Z</time></trkpt><trkpt lat="43.7824933" lon="12.4986033"><ele>342.0</ele><time>2026-04-26T09:10:08.539Z</time></trkpt><trkpt lat="43.7824017" lon="12.49852"><ele>342.0</ele><time>2026-04-26T09:10:09.539Z</time></trkpt><trkpt lat="43.7823033" lon="12.498445"><ele>340.5</ele><time>2026-04-26T09:10:10.538Z</time></trkpt><trkpt lat="43.7821933" lon="12.4983883"><ele>339.0</ele><time>2026-04-26T09:10:11.539Z</time></trkpt><trkpt lat="43.78207" lon="12.49835"><ele>337.5</ele><time>2026-04-26T09:10:12.539Z</time></trkpt><trkpt lat="43.781945" lon="12.498325"><ele>336.0</ele><time>2026-04-26T09:10:13.538Z</time></trkpt><trkpt lat="43.7818283" lon="12.4982933"><ele>336.0</ele><time>2026-04-26T09:10:14.539Z</time></trkpt><trkpt lat="43.7817167" lon="12.4982433"><ele>336.0</ele><time>2026-04-26T09:10:15.539Z</time></trkpt><trkpt lat="43.781605" lon="12.4981433"><ele>336.0</ele><time>2026-04-26T09:10:16.539Z</time></trkpt><trkpt lat="43.781495" lon="12.4980283"><ele>336.0</ele><time>2026-04-26T09:10:17.538Z</time></trkpt><trkpt lat="43.7813933" lon="12.4979017"><ele>334.5</ele><time>2026-04-26T09:10:18.538Z</time></trkpt><trkpt lat="43.78129" lon="12.4977783"><ele>333.0</ele><time>2026-04-26T09:10:19.538Z</time></trkpt><trkpt lat="43.7811833" lon="12.497675"><ele>331.5</ele><time>2026-04-26T09:10:20.539Z</time></trkpt><trkpt lat="43.78108" lon="12.4975883"><ele>330.0</ele><time>2026-04-26T09:10:21.539Z</time></trkpt><trkpt lat="43.78098" lon="12.497515"><ele>330.0</ele><time>2026-04-26T09:10:22.539Z</time></trkpt><trkpt lat="43.7808917" lon="12.4974617"><ele>330.0</ele><time>2026-04-26T09:10:23.539Z</time></trkpt><trkpt lat="43.7808217" lon="12.4974217"><ele>330.0</ele><time>2026-04-26T09:10:24.539Z</time></trkpt><trkpt lat="43.7807667" lon="12.49737"><ele>330.0</ele><time>2026-04-26T09:10:25.539Z</time></trkpt><trkpt lat="43.7807383" lon="12.49728"><ele>330.0</ele><time>2026-04-26T09:10:26.538Z</time></trkpt><trkpt lat="43.780735" lon="12.49716"><ele>330.0</ele><time>2026-04-26T09:10:27.538Z</time></trkpt><trkpt lat="43.7807367" lon="12.4970417"><ele>328.8333333333333</ele><time>2026-04-26T09:10:28.539Z</time></trkpt><trkpt lat="43.7807383" lon="12.496935"><ele>327.6666666666667</ele><time>2026-04-26T09:10:29.538Z</time></trkpt><trkpt lat="43.7807467" lon="12.4968383"><ele>326.5</ele><time>2026-04-26T09:10:30.538Z</time></trkpt><trkpt lat="43.78075" lon="12.4967417"><ele>325.33333333333337</ele><time>2026-04-26T09:10:31.539Z</time></trkpt><trkpt lat="43.7807533" lon="12.4966433"><ele>324.1666666666667</ele><time>2026-04-26T09:10:32.539Z</time></trkpt><trkpt lat="43.780755" lon="12.4965333"><ele>323.0</ele><time>2026-04-26T09:10:33.539Z</time></trkpt><trkpt lat="43.7807533" lon="12.4964183"><ele>323.0</ele><time>2026-04-26T09:10:34.539Z</time></trkpt><trkpt lat="43.7807533" lon="12.496315"><ele>323.0</ele><time>2026-04-26T09:10:35.538Z</time></trkpt><trkpt lat="43.7807667" lon="12.4962267"><ele>323.0</ele><time>2026-04-26T09:10:36.539Z</time></trkpt><trkpt lat="43.780795" lon="12.4961483"><ele>323.0</ele><time>2026-04-26T09:10:37.539Z</time></trkpt><trkpt lat="43.7808767" lon="12.4960283"><ele>323.0</ele><time>2026-04-26T09:10:39.539Z</time></trkpt><trkpt lat="43.7809783" lon="12.4959483"><ele>323.0</ele><time>2026-04-26T09:10:41.539Z</time></trkpt><trkpt lat="43.7810383" lon="12.4959"><ele>322.0</ele><time>2026-04-26T09:10:42.539Z</time></trkpt><trkpt lat="43.7811033" lon="12.49585"><ele>321.0</ele><time>2026-04-26T09:10:43.539Z</time></trkpt><trkpt lat="43.781175" lon="12.4958083"><ele>320.0</ele><time>2026-04-26T09:10:44.539Z</time></trkpt><trkpt lat="43.7812583" lon="12.4957617"><ele>319.0</ele><time>2026-04-26T09:10:45.539Z</time></trkpt><trkpt lat="43.7813433" lon="12.4957067"><ele>318.0</ele><time>2026-04-26T09:10:46.538Z</time></trkpt><trkpt lat="43.781435" lon="12.49565"><ele>317.0</ele><time>2026-04-26T09:10:47.539Z</time></trkpt><trkpt lat="43.78154" lon="12.4956"><ele>317.0</ele><time>2026-04-26T09:10:48.539Z</time></trkpt><trkpt lat="43.7816583" lon="12.49556"><ele>317.0</ele><time>2026-04-26T09:10:49.539Z</time></trkpt><trkpt lat="43.7817817" lon="12.495555"><ele>317.0</ele><time>2026-04-26T09:10:50.539Z</time></trkpt><trkpt lat="43.7819067" lon="12.4955533"><ele>317.0</ele><time>2026-04-26T09:10:51.539Z</time></trkpt><trkpt lat="43.7820333" lon="12.49557"><ele>315.8</ele><time>2026-04-26T09:10:52.538Z</time></trkpt><trkpt lat="43.7821467" lon="12.4955733"><ele>314.6</ele><time>2026-04-26T09:10:53.539Z</time></trkpt><trkpt lat="43.7822583" lon="12.4955583"><ele>313.40000000000003</ele><time>2026-04-26T09:10:54.539Z</time></trkpt><trkpt lat="43.7823667" lon="12.4955467"><ele>312.2</ele><time>2026-04-26T09:10:55.538Z</time></trkpt><trkpt lat="43.7824733" lon="12.4955367"><ele>311.0</ele><time>2026-04-26T09:10:56.538Z</time></trkpt><trkpt lat="43.78258" lon="12.4955417"><ele>311.0</ele><time>2026-04-26T09:10:57.538Z</time></trkpt><trkpt lat="43.7826783" lon="12.4955483"><ele>311.0</ele><time>2026-04-26T09:10:58.538Z</time></trkpt><trkpt lat="43.7827783" lon="12.4955633"><ele>311.0</ele><time>2026-04-26T09:10:59.539Z</time></trkpt><trkpt lat="43.7828767" lon="12.4956067"><ele>311.0</ele><time>2026-04-26T09:11:00.538Z</time></trkpt><trkpt lat="43.7829633" lon="12.4956667"><ele>311.0</ele><time>2026-04-26T09:11:01.539Z</time></trkpt><trkpt lat="43.78305" lon="12.49571"><ele>309.1666666666667</ele><time>2026-04-26T09:11:02.539Z</time></trkpt><trkpt lat="43.78312" lon="12.495745"><ele>307.33333333333337</ele><time>2026-04-26T09:11:03.539Z</time></trkpt><trkpt lat="43.7831833" lon="12.49577"><ele>305.5</ele><time>2026-04-26T09:11:04.539Z</time></trkpt><trkpt lat="43.783285" lon="12.4957917"><ele>303.6666666666667</ele><time>2026-04-26T09:11:06.538Z</time></trkpt><trkpt lat="43.783355" lon="12.4958017"><ele>301.8333333333333</ele><time>2026-04-26T09:11:08.539Z</time></trkpt><trkpt lat="43.783435" lon="12.49581"><ele>300.0</ele><time>2026-04-26T09:11:10.539Z</time></trkpt><trkpt lat="43.783525" lon="12.495805"><ele>296.1666666666667</ele><time>2026-04-26T09:11:12.538Z</time></trkpt><trkpt lat="43.783625" lon="12.4959033"><ele>292.3333333333333</ele><time>2026-04-26T09:11:14.539Z</time></trkpt><trkpt lat="43.7836683" lon="12.4959883"><ele>288.5</ele><time>2026-04-26T09:11:15.538Z</time></trkpt><trkpt lat="43.7837083" lon="12.4960817"><ele>284.66666666666663</ele><time>2026-04-26T09:11:16.539Z</time></trkpt><trkpt lat="43.7837533" lon="12.496175"><ele>280.8333333333333</ele><time>2026-04-26T09:11:17.539Z</time></trkpt><trkpt lat="43.7838" lon="12.49626"><ele>277.0</ele><time>2026-04-26T09:11:18.539Z</time></trkpt><trkpt lat="43.7838483" lon="12.4963383"><ele>277.0</ele><time>2026-04-26T09:11:19.539Z</time></trkpt><trkpt lat="43.7839617" lon="12.49647"><ele>277.0</ele><time>2026-04-26T09:11:21.538Z</time></trkpt><trkpt lat="43.7840383" lon="12.4965367"><ele>277.0</ele><time>2026-04-26T09:11:22.539Z</time></trkpt><trkpt lat="43.78412" lon="12.4966033"><ele>277.0</ele><time>2026-04-26T09:11:23.538Z</time></trkpt><trkpt lat="43.7841983" lon="12.4966683"><ele>277.0</ele><time>2026-04-26T09:11:24.539Z</time></trkpt><trkpt lat="43.7842783" lon="12.4967333"><ele>275.8333333333333</ele><time>2026-04-26T09:11:25.539Z</time></trkpt><trkpt lat="43.784365" lon="12.4967983"><ele>274.66666666666663</ele><time>2026-04-26T09:11:26.538Z</time></trkpt><trkpt lat="43.7844417" lon="12.4968517"><ele>273.5</ele><time>2026-04-26T09:11:27.538Z</time></trkpt><trkpt lat="43.7845183" lon="12.4968867"><ele>272.3333333333333</ele><time>2026-04-26T09:11:28.539Z</time></trkpt><trkpt lat="43.78458" lon="12.4969183"><ele>271.1666666666667</ele><time>2026-04-26T09:11:29.539Z</time></trkpt><trkpt lat="43.7846917" lon="12.4969683"><ele>270.0</ele><time>2026-04-26T09:11:31.538Z</time></trkpt><trkpt lat="43.7848017" lon="12.497025"><ele>270.0</ele><time>2026-04-26T09:11:33.538Z</time></trkpt><trkpt lat="43.7849033" lon="12.4970817"><ele>270.0</ele><time>2026-04-26T09:11:35.539Z</time></trkpt><trkpt lat="43.7850117" lon="12.4971233"><ele>270.0</ele><time>2026-04-26T09:11:37.539Z</time></trkpt><trkpt lat="43.785125" lon="12.4970967"><ele>270.0</ele><time>2026-04-26T09:11:39.538Z</time></trkpt><trkpt lat="43.7851867" lon="12.4970583"><ele>270.0</ele><time>2026-04-26T09:11:40.538Z</time></trkpt><trkpt lat="43.7852467" lon="12.4970017"><ele>267.3333333333333</ele><time>2026-04-26T09:11:41.539Z</time></trkpt><trkpt lat="43.78531" lon="12.4969433"><ele>264.6666666666667</ele><time>2026-04-26T09:11:42.539Z</time></trkpt><trkpt lat="43.7853683" lon="12.4968883"><ele>262.0</ele><time>2026-04-26T09:11:43.538Z</time></trkpt><trkpt lat="43.7854533" lon="12.49682"><ele>259.33333333333337</ele><time>2026-04-26T09:11:45.538Z</time></trkpt><trkpt lat="43.7855367" lon="12.4967783"><ele>256.6666666666667</ele><time>2026-04-26T09:11:47.539Z</time></trkpt><trkpt lat="43.78563" lon="12.496775"><ele>254.0</ele><time>2026-04-26T09:11:49.538Z</time></trkpt><trkpt lat="43.7857617" lon="12.4967567"><ele>254.0</ele><time>2026-04-26T09:11:51.539Z</time></trkpt><trkpt lat="43.7858433" lon="12.49672"><ele>253.99999999999997</ele><time>2026-04-26T09:11:52.539Z</time></trkpt><trkpt lat="43.78593" lon="12.4967183"><ele>253.99999999999997</ele><time>2026-04-26T09:11:53.538Z</time></trkpt><trkpt lat="43.7860217" lon="12.4967083"><ele>254.0</ele><time>2026-04-26T09:11:54.539Z</time></trkpt><trkpt lat="43.7861183" lon="12.4967083"><ele>254.0</ele><time>2026-04-26T09:11:55.539Z</time></trkpt><trkpt lat="43.7862133" lon="12.4967233"><ele>252.33333333333334</ele><time>2026-04-26T09:11:56.538Z</time></trkpt><trkpt lat="43.786305" lon="12.4967417"><ele>250.66666666666669</ele><time>2026-04-26T09:11:57.539Z</time></trkpt><trkpt lat="43.786395" lon="12.4967667"><ele>249.0</ele><time>2026-04-26T09:11:58.539Z</time></trkpt><trkpt lat="43.786485" lon="12.49679"><ele>247.33333333333331</ele><time>2026-04-26T09:11:59.539Z</time></trkpt><trkpt lat="43.7865667" lon="12.496805"><ele>245.66666666666666</ele><time>2026-04-26T09:12:00.539Z</time></trkpt><trkpt lat="43.7866383" lon="12.4968083"><ele>244.0</ele><time>2026-04-26T09:12:01.538Z</time></trkpt><trkpt lat="43.7867383" lon="12.4967583"><ele>244.0</ele><time>2026-04-26T09:12:03.539Z</time></trkpt><trkpt lat="43.7867983" lon="12.4965917"><ele>243.99999999999997</ele><time>2026-04-26T09:12:05.539Z</time></trkpt><trkpt lat="43.786825" lon="12.4964933"><ele>243.99999999999997</ele><time>2026-04-26T09:12:06.538Z</time></trkpt><trkpt lat="43.786855" lon="12.49641"><ele>244.0</ele><time>2026-04-26T09:12:07.538Z</time></trkpt><trkpt lat="43.78693" lon="12.4963083"><ele>244.0</ele><time>2026-04-26T09:12:09.539Z</time></trkpt><trkpt lat="43.78704" lon="12.4962617"><ele>238.99999999999997</ele><time>2026-04-26T09:12:11.538Z</time></trkpt><trkpt lat="43.7871683" lon="12.49623"><ele>234.0</ele><time>2026-04-26T09:12:13.539Z</time></trkpt><trkpt lat="43.78724" lon="12.496215"><ele>229.0</ele><time>2026-04-26T09:12:14.539Z</time></trkpt><trkpt lat="43.7873067" lon="12.4961983"><ele>224.0</ele><time>2026-04-26T09:12:15.539Z</time></trkpt><trkpt lat="43.78739" lon="12.4962"><ele>218.99999999999997</ele><time>2026-04-26T09:12:16.539Z</time></trkpt><trkpt lat="43.787475" lon="12.4962167"><ele>214.0</ele><time>2026-04-26T09:12:17.539Z</time></trkpt><trkpt lat="43.787565" lon="12.496235"><ele>214.0</ele><time>2026-04-26T09:12:18.539Z</time></trkpt><trkpt lat="43.7876683" lon="12.4962433"><ele>213.99999999999997</ele><time>2026-04-26T09:12:19.538Z</time></trkpt><trkpt lat="43.7877667" lon="12.496225"><ele>213.99999999999997</ele><time>2026-04-26T09:12:20.539Z</time></trkpt><trkpt lat="43.7878617" lon="12.4962267"><ele>214.0</ele><time>2026-04-26T09:12:21.539Z</time></trkpt><trkpt lat="43.7879483" lon="12.4962183"><ele>214.0</ele><time>2026-04-26T09:12:22.538Z</time></trkpt><trkpt lat="43.7880367" lon="12.4962167"><ele>212.99999999999997</ele><time>2026-04-26T09:12:23.539Z</time></trkpt><trkpt lat="43.788125" lon="12.4962167"><ele>212.0</ele><time>2026-04-26T09:12:24.539Z</time></trkpt><trkpt lat="43.7882083" lon="12.4962167"><ele>211.0</ele><time>2026-04-26T09:12:25.539Z</time></trkpt><trkpt lat="43.7882867" lon="12.4962083"><ele>210.0</ele><time>2026-04-26T09:12:26.539Z</time></trkpt><trkpt lat="43.7883583" lon="12.4961533"><ele>208.99999999999997</ele><time>2026-04-26T09:12:27.539Z</time></trkpt><trkpt lat="43.7884267" lon="12.4961017"><ele>208.0</ele><time>2026-04-26T09:12:28.539Z</time></trkpt><trkpt lat="43.788485" lon="12.496045"><ele>207.33333333333331</ele><time>2026-04-26T09:12:29.539Z</time></trkpt><trkpt lat="43.7885417" lon="12.4959583"><ele>206.66666666666666</ele><time>2026-04-26T09:12:30.538Z</time></trkpt><trkpt lat="43.7885983" lon="12.495875"><ele>206.0</ele><time>2026-04-26T09:12:31.539Z</time></trkpt><trkpt lat="43.7886533" lon="12.4957983"><ele>205.33333333333331</ele><time>2026-04-26T09:12:32.538Z</time></trkpt><trkpt lat="43.7886983" lon="12.4957183"><ele>204.66666666666666</ele><time>2026-04-26T09:12:33.539Z</time></trkpt><trkpt lat="43.788745" lon="12.4956483"><ele>204.0</ele><time>2026-04-26T09:12:34.538Z</time></trkpt><trkpt lat="43.788845" lon="12.495555"><ele>204.0</ele><time>2026-04-26T09:12:36.538Z</time></trkpt><trkpt lat="43.7889533" lon="12.4955217"><ele>204.0</ele><time>2026-04-26T09:12:38.539Z</time></trkpt><trkpt lat="43.789075" lon="12.4955733"><ele>204.0</ele><time>2026-04-26T09:12:40.539Z</time></trkpt><trkpt lat="43.789145" lon="12.4956183"><ele>204.0</ele><time>2026-04-26T09:12:41.538Z</time></trkpt><trkpt lat="43.7892183" lon="12.4956783"><ele>204.0</ele><time>2026-04-26T09:12:42.539Z</time></trkpt><trkpt lat="43.7892917" lon="12.4957467"><ele>202.6</ele><time>2026-04-26T09:12:43.539Z</time></trkpt><trkpt lat="43.78938" lon="12.4958117"><ele>201.2</ele><time>2026-04-26T09:12:44.539Z</time></trkpt><trkpt lat="43.7894767" lon="12.4958767"><ele>199.79999999999998</ele><time>2026-04-26T09:12:45.539Z</time></trkpt><trkpt lat="43.7895833" lon="12.49594"><ele>198.39999999999998</ele><time>2026-04-26T09:12:46.539Z</time></trkpt><trkpt lat="43.78969" lon="12.4959983"><ele>197.0</ele><time>2026-04-26T09:12:47.539Z</time></trkpt><trkpt lat="43.7897817" lon="12.496035"><ele>197.00000000000003</ele><time>2026-04-26T09:12:48.539Z</time></trkpt><trkpt lat="43.7898617" lon="12.496065"><ele>197.0</ele><time>2026-04-26T09:12:49.539Z</time></trkpt><trkpt lat="43.7899333" lon="12.4961083"><ele>197.0</ele><time>2026-04-26T09:12:50.538Z</time></trkpt><trkpt lat="43.790005" lon="12.49617"><ele>197.0</ele><time>2026-04-26T09:12:51.539Z</time></trkpt><trkpt lat="43.7900783" lon="12.49624"><ele>197.00000000000003</ele><time>2026-04-26T09:12:52.538Z</time></trkpt><trkpt lat="43.7901533" lon="12.4962967"><ele>197.0</ele><time>2026-04-26T09:12:53.539Z</time></trkpt><trkpt lat="43.79024" lon="12.496325"><ele>196.66666666666669</ele><time>2026-04-26T09:12:54.539Z</time></trkpt><trkpt lat="43.7903317" lon="12.4963333"><ele>196.33333333333334</ele><time>2026-04-26T09:12:55.539Z</time></trkpt><trkpt lat="43.7904167" lon="12.496345"><ele>196.0</ele><time>2026-04-26T09:12:56.539Z</time></trkpt><trkpt lat="43.7904983" lon="12.4963667"><ele>195.66666666666669</ele><time>2026-04-26T09:12:57.539Z</time></trkpt><trkpt lat="43.790575" lon="12.4964083"><ele>195.33333333333334</ele><time>2026-04-26T09:12:58.538Z</time></trkpt><trkpt lat="43.79065" lon="12.4964717"><ele>195.0</ele><time>2026-04-26T09:12:59.539Z</time></trkpt><trkpt lat="43.7907017" lon="12.4965567"><ele>195.0</ele><time>2026-04-26T09:13:00.539Z</time></trkpt><trkpt lat="43.7907467" lon="12.49664"><ele>195.0</ele><time>2026-04-26T09:13:01.539Z</time></trkpt><trkpt lat="43.7908033" lon="12.49677"><ele>195.0</ele><time>2026-04-26T09:13:03.538Z</time></trkpt><trkpt lat="43.7908917" lon="12.4966967"><ele>195.0</ele><time>2026-04-26T09:13:06.539Z</time></trkpt><trkpt lat="43.7909333" lon="12.4965967"><ele>195.0</ele><time>2026-04-26T09:13:07.539Z</time></trkpt><trkpt lat="43.7909817" lon="12.496465"><ele>194.0</ele><time>2026-04-26T09:13:08.539Z</time></trkpt><trkpt lat="43.7910183" lon="12.4963233"><ele>193.0</ele><time>2026-04-26T09:13:09.539Z</time></trkpt><trkpt lat="43.791055" lon="12.4961817"><ele>192.0</ele><time>2026-04-26T09:13:10.538Z</time></trkpt><trkpt lat="43.7910933" lon="12.4960517"><ele>191.0</ele><time>2026-04-26T09:13:11.539Z</time></trkpt><trkpt lat="43.79114" lon="12.4959267"><ele>190.0</ele><time>2026-04-26T09:13:12.539Z</time></trkpt><trkpt lat="43.7911783" lon="12.495805"><ele>189.6</ele><time>2026-04-26T09:13:13.539Z</time></trkpt><trkpt lat="43.7912217" lon="12.495675"><ele>189.2</ele><time>2026-04-26T09:13:14.538Z</time></trkpt><trkpt lat="43.791255" lon="12.495545"><ele>188.8</ele><time>2026-04-26T09:13:15.538Z</time></trkpt><trkpt lat="43.7912733" lon="12.4954067"><ele>188.4</ele><time>2026-04-26T09:13:16.539Z</time></trkpt><trkpt lat="43.7912833" lon="12.4952483"><ele>188.0</ele><time>2026-04-26T09:13:17.539Z</time></trkpt><trkpt lat="43.7912767" lon="12.495105"><ele>189.8</ele><time>2026-04-26T09:13:18.539Z</time></trkpt><trkpt lat="43.7912483" lon="12.4949617"><ele>191.60000000000002</ele><time>2026-04-26T09:13:19.539Z</time></trkpt><trkpt lat="43.79121" lon="12.4948217"><ele>193.39999999999998</ele><time>2026-04-26T09:13:20.539Z</time></trkpt><trkpt lat="43.7911783" lon="12.4946917"><ele>195.2</ele><time>2026-04-26T09:13:21.538Z</time></trkpt><trkpt lat="43.79118" lon="12.4945633"><ele>197.0</ele><time>2026-04-26T09:13:22.538Z</time></trkpt><trkpt lat="43.791205" lon="12.4944183"><ele>199.75</ele><time>2026-04-26T09:13:23.538Z</time></trkpt><trkpt lat="43.7912383" lon="12.4942633"><ele>202.5</ele><time>2026-04-26T09:13:24.539Z</time></trkpt><trkpt lat="43.7912833" lon="12.49409"><ele>205.25</ele><time>2026-04-26T09:13:25.539Z</time></trkpt><trkpt lat="43.7913067" lon="12.4939067"><ele>208.0</ele><time>2026-04-26T09:13:26.539Z</time></trkpt><trkpt lat="43.791325" lon="12.4937383"><ele>209.16666666666666</ele><time>2026-04-26T09:13:27.539Z</time></trkpt><trkpt lat="43.791345" lon="12.4935967"><ele>210.33333333333331</ele><time>2026-04-26T09:13:28.539Z</time></trkpt><trkpt lat="43.79136" lon="12.4934767"><ele>211.5</ele><time>2026-04-26T09:13:29.539Z</time></trkpt><trkpt lat="43.79137" lon="12.4933817"><ele>212.66666666666669</ele><time>2026-04-26T09:13:30.539Z</time></trkpt><trkpt lat="43.7914133" lon="12.4932617"><ele>213.83333333333334</ele><time>2026-04-26T09:13:32.539Z</time></trkpt><trkpt lat="43.7915017" lon="12.4932633"><ele>215.0</ele><time>2026-04-26T09:13:34.538Z</time></trkpt><trkpt lat="43.7916017" lon="12.493345"><ele>215.00000000000003</ele><time>2026-04-26T09:13:36.538Z</time></trkpt><trkpt lat="43.79167" lon="12.4934033"><ele>215.0</ele><time>2026-04-26T09:13:38.538Z</time></trkpt><trkpt lat="43.7917467" lon="12.4934433"><ele>215.0</ele><time>2026-04-26T09:13:41.539Z</time></trkpt><trkpt lat="43.7918467" lon="12.4934467"><ele>215.0</ele><time>2026-04-26T09:13:43.539Z</time></trkpt><trkpt lat="43.7919017" lon="12.4933433"><ele>215.00000000000003</ele><time>2026-04-26T09:13:45.539Z</time></trkpt><trkpt lat="43.791885" lon="12.493235"><ele>215.0</ele><time>2026-04-26T09:13:47.539Z</time></trkpt><trkpt lat="43.791805" lon="12.493235"><ele>215.0</ele><time>2026-04-26T09:13:49.539Z</time></trkpt><trkpt lat="43.7917583" lon="12.4933233"><ele>215.0</ele><time>2026-04-26T09:13:51.539Z</time></trkpt><trkpt lat="43.79177" lon="12.4934133"><ele>215.0</ele><time>2026-04-26T09:13:53.539Z</time></trkpt><trkpt lat="43.7918433" lon="12.4934333"><ele>215.0</ele><time>2026-04-26T09:13:55.539Z</time></trkpt><trkpt lat="43.7918967" lon="12.4933317"><ele>215.0</ele><time>2026-04-26T09:13:57.539Z</time></trkpt><trkpt lat="43.7918783" lon="12.49314"><ele>215.0</ele><time>2026-04-26T09:13:59.538Z</time></trkpt><trkpt lat="43.7918417" lon="12.492995"><ele>215.0</ele><time>2026-04-26T09:14:00.539Z</time></trkpt><trkpt lat="43.7918017" lon="12.4928367"><ele>215.0</ele><time>2026-04-26T09:14:01.538Z</time></trkpt><trkpt lat="43.79177" lon="12.4927067"><ele>215.0</ele><time>2026-04-26T09:14:02.539Z</time></trkpt><trkpt lat="43.791775" lon="12.4926083"><ele>215.0</ele><time>2026-04-26T09:14:03.539Z</time></trkpt><trkpt lat="43.7918033" lon="12.492515"><ele>215.8</ele><time>2026-04-26T09:14:04.538Z</time></trkpt><trkpt lat="43.791855" lon="12.4924383"><ele>216.6</ele><time>2026-04-26T09:14:05.539Z</time></trkpt><trkpt lat="43.7919317" lon="12.492375"><ele>217.39999999999998</ele><time>2026-04-26T09:14:06.539Z</time></trkpt><trkpt lat="43.7920417" lon="12.4923467"><ele>218.2</ele><time>2026-04-26T09:14:07.539Z</time></trkpt><trkpt lat="43.7921967" lon="12.4923367"><ele>219.0</ele><time>2026-04-26T09:14:08.539Z</time></trkpt><trkpt lat="43.7923783" lon="12.4923617"><ele>219.0</ele><time>2026-04-26T09:14:09.539Z</time></trkpt><trkpt lat="43.7925567" lon="12.49239"><ele>219.0</ele><time>2026-04-26T09:14:10.539Z</time></trkpt><trkpt lat="43.79272" lon="12.4924217"><ele>219.0</ele><time>2026-04-26T09:14:11.538Z</time></trkpt><trkpt lat="43.7928533" lon="12.4924433"><ele>218.33333333333334</ele><time>2026-04-26T09:14:12.539Z</time></trkpt><trkpt lat="43.792955" lon="12.492465"><ele>217.66666666666669</ele><time>2026-04-26T09:14:13.538Z</time></trkpt><trkpt lat="43.7930283" lon="12.4924917"><ele>217.0</ele><time>2026-04-26T09:14:14.539Z</time></trkpt><trkpt lat="43.7930917" lon="12.4925283"><ele>216.33333333333334</ele><time>2026-04-26T09:14:15.538Z</time></trkpt><trkpt lat="43.7931683" lon="12.4926117"><ele>215.66666666666669</ele><time>2026-04-26T09:14:17.539Z</time></trkpt><trkpt lat="43.7932267" lon="12.49267"><ele>215.0</ele><time>2026-04-26T09:14:19.539Z</time></trkpt><trkpt lat="43.793315" lon="12.4926783"><ele>215.00000000000003</ele><time>2026-04-26T09:14:22.538Z</time></trkpt><trkpt lat="43.7933867" lon="12.4927067"><ele>215.0</ele><time>2026-04-26T09:17:10.538Z</time></trkpt><trkpt lat="43.79342" lon="12.4928033"><ele>215.0</ele><time>2026-04-26T09:17:12.537Z</time></trkpt><trkpt lat="43.79336" lon="12.4928833"><ele>215.0</ele><time>2026-04-26T09:17:15.538Z</time></trkpt><trkpt lat="43.7932817" lon="12.49288"><ele>215.00000000000003</ele><time>2026-04-26T09:17:18.538Z</time></trkpt><trkpt lat="43.7931983" lon="12.4928667"><ele>215.0</ele><time>2026-04-26T09:17:21.538Z</time></trkpt><trkpt lat="43.793165" lon="12.4927767"><ele>215.0</ele><time>2026-04-26T09:17:24.537Z</time></trkpt><trkpt lat="43.7931133" lon="12.4928383"><ele>215.0</ele><time>2026-04-26T09:17:29.538Z</time></trkpt></trkseg></trk></gpx>